<?xml version="1.0" encoding="UTF-8"?>
<gpx creator="Garmin Connect" version="1.1"
  xsi:schemaLocation="http://www.topografix.com/GPX/1/1 http://www.topografix.com/GPX/11.xsd"
  xmlns:ns3="http://www.garmin.com/xmlschemas/TrackPointExtension/v1"
  xmlns="http://www.topografix.com/GPX/1/1"
  xmlns:xsi="http://www.w3.org/2001/XMLSchema-instance" xmlns:ns2="http://www.garmin.com/xmlschemas/GpxExtensions/v3">
  <metadata>
    <name>CHARIP Rhythm_HAKUBA 250708</name>
    <link href="connect.garmin.com">
      <text>Garmin Connect</text>
    </link>
    <time>2025-07-08T14:05:42.000Z</time>
  </metadata>
  <trk>
    <name>CHARIP Rhythm_HAKUBA 250708</name>
    <trkseg>
      <trkpt lat="36.701360642910004" lon="137.84640043973923">
        <ele>742.23</ele>
        <time>2025-07-08T14:05:42.000Z</time>
      </trkpt>
      <trkpt lat="36.70123843476176" lon="137.84641108475626">
        <ele>741.93</ele>
        <time>2025-07-08T14:05:42.002Z</time>
      </trkpt>
      <trkpt lat="36.701238099485636" lon="137.84641108475626">
        <ele>741.63</ele>
        <time>2025-07-08T14:05:42.004Z</time>
      </trkpt>
      <trkpt lat="36.701238099485636" lon="137.8464111685753">
        <ele>741.01</ele>
        <time>2025-07-08T14:05:42.006Z</time>
      </trkpt>
      <trkpt lat="36.7011949326843" lon="137.84653446637094">
        <ele>740.65</ele>
        <time>2025-07-08T14:05:42.010Z</time>
      </trkpt>
      <trkpt lat="36.7011949326843" lon="137.84653455018997">
        <ele>740.3</ele>
        <time>2025-07-08T14:05:42.014Z</time>
      </trkpt>
      <trkpt lat="36.701195016503334" lon="137.84653446637094">
        <ele>739.95</ele>
        <time>2025-07-08T14:05:42.018Z</time>
      </trkpt>
      <trkpt lat="36.701195100322366" lon="137.84653446637094">
        <ele>739.6</ele>
        <time>2025-07-08T14:05:42.022Z</time>
      </trkpt>
      <trkpt lat="36.700961077585816" lon="137.8465000167489">
        <ele>739.31</ele>
        <time>2025-07-08T14:05:42.029Z</time>
      </trkpt>
      <trkpt lat="36.70096090994775" lon="137.84649993292987">
        <ele>738.98</ele>
        <time>2025-07-08T14:05:42.036Z</time>
      </trkpt>
      <trkpt lat="36.70096065849066" lon="137.84649993292987">
        <ele>738.64</ele>
        <time>2025-07-08T14:05:42.043Z</time>
      </trkpt>
      <trkpt lat="36.700960490852594" lon="137.84649993292987">
        <ele>738.29</ele>
        <time>2025-07-08T14:05:42.050Z</time>
      </trkpt>
      <trkpt lat="36.700959987938404" lon="137.84649993292987">
        <ele>737.93</ele>
        <time>2025-07-08T14:05:42.057Z</time>
      </trkpt>
      <trkpt lat="36.700645331293344" lon="137.8464727755636">
        <ele>737.48</ele>
        <time>2025-07-08T14:05:42.070Z</time>
      </trkpt>
      <trkpt lat="36.700330674648285" lon="137.84644561819732">
        <ele>736.87</ele>
        <time>2025-07-08T14:05:42.088Z</time>
      </trkpt>
      <trkpt lat="36.70014996081591" lon="137.8464299440384">
        <ele>736.21</ele>
        <time>2025-07-08T14:05:42.108Z</time>
      </trkpt>
      <trkpt lat="36.69983513653278" lon="137.84640689380467">
        <ele>735.42</ele>
        <time>2025-07-08T14:05:42.133Z</time>
      </trkpt>
      <trkpt lat="36.699739918112755" lon="137.84639993682504">
        <ele>734.77</ele>
        <time>2025-07-08T14:05:42.160Z</time>
      </trkpt>
      <trkpt lat="36.69942467473447" lon="137.84639071673155">
        <ele>734.14</ele>
        <time>2025-07-08T14:05:42.192Z</time>
      </trkpt>
      <trkpt lat="36.69939994812012" lon="137.84638996236026">
        <ele>733.63</ele>
        <time>2025-07-08T14:05:42.224Z</time>
      </trkpt>
      <trkpt lat="36.69940992258489" lon="137.84628996625543">
        <ele>733.2</ele>
        <time>2025-07-08T14:05:42.258Z</time>
      </trkpt>
      <trkpt lat="36.6992799192667" lon="137.84627999179065">
        <ele>732.85</ele>
        <time>2025-07-08T14:05:42.294Z</time>
      </trkpt>
      <trkpt lat="36.699179923161864" lon="137.84626993350685">
        <ele>732.56</ele>
        <time>2025-07-08T14:05:42.331Z</time>
      </trkpt>
      <trkpt lat="36.69896995648742" lon="137.84625995904207">
        <ele>732.3</ele>
        <time>2025-07-08T14:05:42.372Z</time>
      </trkpt>
      <trkpt lat="36.69877993874252" lon="137.8462399262935">
        <ele>732.19</ele>
        <time>2025-07-08T14:05:42.416Z</time>
      </trkpt>
      <trkpt lat="36.698799803853035" lon="137.84589920192957">
        <ele>732.25</ele>
        <time>2025-07-08T14:05:42.464Z</time>
      </trkpt>
      <trkpt lat="36.69879988767207" lon="137.84589886665344">
        <ele>732.3</ele>
        <time>2025-07-08T14:05:42.512Z</time>
      </trkpt>
      <trkpt lat="36.6987999714911" lon="137.8458987828344">
        <ele>732.39</ele>
        <time>2025-07-08T14:05:42.560Z</time>
      </trkpt>
      <trkpt lat="36.6987999714911" lon="137.84589936956763">
        <ele>732.53</ele>
        <time>2025-07-08T14:05:42.608Z</time>
      </trkpt>
      <trkpt lat="36.6987999714911" lon="137.84589995630085">
        <ele>732.71</ele>
        <time>2025-07-08T14:05:42.656Z</time>
      </trkpt>
      <trkpt lat="36.69881992042065" lon="137.84553995355964">
        <ele>732.98</ele>
        <time>2025-07-08T14:05:42.709Z</time>
      </trkpt>
      <trkpt lat="36.69886945746839" lon="137.8453210182488">
        <ele>733.26</ele>
        <time>2025-07-08T14:05:42.765Z</time>
      </trkpt>
      <trkpt lat="36.698869625106454" lon="137.84532068297267">
        <ele>733.54</ele>
        <time>2025-07-08T14:05:42.821Z</time>
      </trkpt>
      <trkpt lat="36.69886996038258" lon="137.84531950950623">
        <ele>733.83</ele>
        <time>2025-07-08T14:05:42.877Z</time>
      </trkpt>
      <trkpt lat="36.69886996038258" lon="137.8453196771443">
        <ele>734.13</ele>
        <time>2025-07-08T14:05:42.933Z</time>
      </trkpt>
      <trkpt lat="36.69886996038258" lon="137.84531992860138">
        <ele>734.45</ele>
        <time>2025-07-08T14:05:42.989Z</time>
      </trkpt>
      <trkpt lat="36.698989989236" lon="137.84498993307352">
        <ele>734.91</ele>
        <time>2025-07-08T14:05:43.050Z</time>
      </trkpt>
      <trkpt lat="36.699153017252684" lon="137.8446547407657">
        <ele>735.3</ele>
        <time>2025-07-08T14:05:43.116Z</time>
      </trkpt>
      <trkpt lat="36.69916994869709" lon="137.84461995586753">
        <ele>735.67</ele>
        <time>2025-07-08T14:05:43.182Z</time>
      </trkpt>
      <trkpt lat="36.69929995201528" lon="137.84433991648257">
        <ele>735.89</ele>
        <time>2025-07-08T14:05:43.252Z</time>
      </trkpt>
      <trkpt lat="36.69936994090676" lon="137.84412994980812">
        <ele>736.16</ele>
        <time>2025-07-08T14:05:43.325Z</time>
      </trkpt>
      <trkpt lat="36.6994199808687" lon="137.84386994317174">
        <ele>736.45</ele>
        <time>2025-07-08T14:05:43.402Z</time>
      </trkpt>
      <trkpt lat="36.69946909882128" lon="137.84348303452134">
        <ele>736.99</ele>
        <time>2025-07-08T14:05:43.484Z</time>
      </trkpt>
      <trkpt lat="36.699499944224954" lon="137.84323995932937">
        <ele>737.5</ele>
        <time>2025-07-08T14:05:43.569Z</time>
      </trkpt>
      <trkpt lat="36.699547469615936" lon="137.84285279922187">
        <ele>738.04</ele>
        <time>2025-07-08T14:05:43.659Z</time>
      </trkpt>
      <trkpt lat="36.699569933116436" lon="137.8426699899137">
        <ele>738.49</ele>
        <time>2025-07-08T14:05:43.751Z</time>
      </trkpt>
      <trkpt lat="36.699569849297404" lon="137.84247167408466">
        <ele>738.95</ele>
        <time>2025-07-08T14:05:43.846Z</time>
      </trkpt>
      <trkpt lat="36.699569849297404" lon="137.8424712549895">
        <ele>739.38</ele>
        <time>2025-07-08T14:05:43.941Z</time>
      </trkpt>
      <trkpt lat="36.699569849297404" lon="137.84246974624693">
        <ele>739.8</ele>
        <time>2025-07-08T14:05:44.036Z</time>
      </trkpt>
      <trkpt lat="36.699569933116436" lon="137.84246999770403">
        <ele>740.22</ele>
        <time>2025-07-08T14:05:44.131Z</time>
      </trkpt>
      <trkpt lat="36.69954998418689" lon="137.84221996553242">
        <ele>740.64</ele>
        <time>2025-07-08T14:05:44.229Z</time>
      </trkpt>
      <trkpt lat="36.69948996976018" lon="137.84207998774946">
        <ele>741.06</ele>
        <time>2025-07-08T14:05:44.329Z</time>
      </trkpt>
      <trkpt lat="36.699349991977215" lon="137.8419199772179">
        <ele>741.5</ele>
        <time>2025-07-08T14:05:44.432Z</time>
      </trkpt>
      <trkpt lat="36.6992799192667" lon="137.84183993004262">
        <ele>741.94</ele>
        <time>2025-07-08T14:05:44.537Z</time>
      </trkpt>
      <trkpt lat="36.6992299631238" lon="137.8417399339378">
        <ele>742.39</ele>
        <time>2025-07-08T14:05:44.643Z</time>
      </trkpt>
      <trkpt lat="36.699104653671384" lon="137.8413805179298">
        <ele>742.84</ele>
        <time>2025-07-08T14:05:44.754Z</time>
      </trkpt>
      <trkpt lat="36.69899996370077" lon="137.84107994288206">
        <ele>743.31</ele>
        <time>2025-07-08T14:05:44.869Z</time>
      </trkpt>
      <trkpt lat="36.698879934847355" lon="137.84079998731613">
        <ele>743.79</ele>
        <time>2025-07-08T14:05:44.988Z</time>
      </trkpt>
      <trkpt lat="36.698749931529164" lon="137.8405699878931">
        <ele>744.29</ele>
        <time>2025-07-08T14:05:45.111Z</time>
      </trkpt>
      <trkpt lat="36.6986099537462" lon="137.84039991907775">
        <ele>744.81</ele>
        <time>2025-07-08T14:05:45.237Z</time>
      </trkpt>
      <trkpt lat="36.69847181998193" lon="137.8402617853135">
        <ele>745.35</ele>
        <time>2025-07-08T14:05:45.366Z</time>
      </trkpt>
      <trkpt lat="36.69847156852484" lon="137.8402615338564">
        <ele>745.87</ele>
        <time>2025-07-08T14:05:45.495Z</time>
      </trkpt>
      <trkpt lat="36.69847056269646" lon="137.840260528028">
        <ele>746.42</ele>
        <time>2025-07-08T14:05:45.624Z</time>
      </trkpt>
      <trkpt lat="36.69847022742033" lon="137.84026019275188">
        <ele>746.97</ele>
        <time>2025-07-08T14:05:45.753Z</time>
      </trkpt>
      <trkpt lat="36.698469975963235" lon="137.8402599412948">
        <ele>747.55</ele>
        <time>2025-07-08T14:05:45.882Z</time>
      </trkpt>
      <trkpt lat="36.69820393435657" lon="137.84004955552518">
        <ele>748.2</ele>
        <time>2025-07-08T14:05:46.016Z</time>
      </trkpt>
      <trkpt lat="36.69793797656894" lon="137.83983908593655">
        <ele>748.96</ele>
        <time>2025-07-08T14:05:46.155Z</time>
      </trkpt>
      <trkpt lat="36.6977999266237" lon="137.83972995355725">
        <ele>749.71</ele>
        <time>2025-07-08T14:05:46.297Z</time>
      </trkpt>
      <trkpt lat="36.69752097688615" lon="137.8395472280681">
        <ele>750.5</ele>
        <time>2025-07-08T14:05:46.444Z</time>
      </trkpt>
      <trkpt lat="36.697509996593" lon="137.83953993581235">
        <ele>751.22</ele>
        <time>2025-07-08T14:05:46.591Z</time>
      </trkpt>
      <trkpt lat="36.697322661057115" lon="137.83944128081203">
        <ele>751.99</ele>
        <time>2025-07-08T14:05:46.741Z</time>
      </trkpt>
      <trkpt lat="36.69732232578099" lon="137.83944111317396">
        <ele>752.73</ele>
        <time>2025-07-08T14:05:46.891Z</time>
      </trkpt>
      <trkpt lat="36.697321152314544" lon="137.83944052644074">
        <ele>753.48</ele>
        <time>2025-07-08T14:05:47.041Z</time>
      </trkpt>
      <trkpt lat="36.69732048176229" lon="137.8394401911646">
        <ele>754.23</ele>
        <time>2025-07-08T14:05:47.191Z</time>
      </trkpt>
      <trkpt lat="36.6973199788481" lon="137.83943993970752">
        <ele>754.99</ele>
        <time>2025-07-08T14:05:47.341Z</time>
      </trkpt>
      <trkpt lat="36.69702686369419" lon="137.83929543569684">
        <ele>755.81</ele>
        <time>2025-07-08T14:05:47.496Z</time>
      </trkpt>
      <trkpt lat="36.69673366472125" lon="137.83915084786713">
        <ele>756.61</ele>
        <time>2025-07-08T14:05:47.656Z</time>
      </trkpt>
      <trkpt lat="36.69658999890089" lon="137.8390799369663">
        <ele>757.45</ele>
        <time>2025-07-08T14:05:47.819Z</time>
      </trkpt>
      <trkpt lat="36.69637994840741" lon="137.83892998471856">
        <ele>758.36</ele>
        <time>2025-07-08T14:05:47.986Z</time>
      </trkpt>
      <trkpt lat="36.696130419149995" lon="137.83869042992592">
        <ele>759.36</ele>
        <time>2025-07-08T14:05:48.158Z</time>
      </trkpt>
      <trkpt lat="36.696129916235805" lon="137.83868992701173">
        <ele>760.17</ele>
        <time>2025-07-08T14:05:48.330Z</time>
      </trkpt>
      <trkpt lat="36.69602187350392" lon="137.83858188427985">
        <ele>761.06</ele>
        <time>2025-07-08T14:05:48.504Z</time>
      </trkpt>
      <trkpt lat="36.69602162204683" lon="137.83858163282275">
        <ele>761.84</ele>
        <time>2025-07-08T14:05:48.678Z</time>
      </trkpt>
      <trkpt lat="36.69602070003748" lon="137.8385807108134">
        <ele>762.6</ele>
        <time>2025-07-08T14:05:48.852Z</time>
      </trkpt>
      <trkpt lat="36.69602019712329" lon="137.8385802078992">
        <ele>763.33</ele>
        <time>2025-07-08T14:05:49.026Z</time>
      </trkpt>
      <trkpt lat="36.696019945666194" lon="137.83857995644212">
        <ele>764.04</ele>
        <time>2025-07-08T14:05:49.200Z</time>
      </trkpt>
      <trkpt lat="36.69590997509658" lon="137.83850996755064">
        <ele>764.81</ele>
        <time>2025-07-08T14:05:49.376Z</time>
      </trkpt>
      <trkpt lat="36.695596575737" lon="137.83846596255898">
        <ele>765.61</ele>
        <time>2025-07-08T14:05:49.557Z</time>
      </trkpt>
      <trkpt lat="36.69533992186189" lon="137.83842992037535">
        <ele>766.34</ele>
        <time>2025-07-08T14:05:49.742Z</time>
      </trkpt>
      <trkpt lat="36.6950267739594" lon="137.8383833169937">
        <ele>766.94</ele>
        <time>2025-07-08T14:05:49.932Z</time>
      </trkpt>
      <trkpt lat="36.69486994855106" lon="137.83835993148386">
        <ele>767.48</ele>
        <time>2025-07-08T14:05:50.125Z</time>
      </trkpt>
      <trkpt lat="36.6947899851948" lon="137.8383499570191">
        <ele>768.03</ele>
        <time>2025-07-08T14:05:50.319Z</time>
      </trkpt>
      <trkpt lat="36.69471999630332" lon="137.83828994259238">
        <ele>768.57</ele>
        <time>2025-07-08T14:05:50.514Z</time>
      </trkpt>
      <trkpt lat="36.694601476192474" lon="137.8381221368909">
        <ele>769.14</ele>
        <time>2025-07-08T14:05:50.712Z</time>
      </trkpt>
      <trkpt lat="36.69460130855441" lon="137.8381218854338">
        <ele>769.65</ele>
        <time>2025-07-08T14:05:50.910Z</time>
      </trkpt>
      <trkpt lat="36.694600470364094" lon="137.83812071196735">
        <ele>770.14</ele>
        <time>2025-07-08T14:05:51.108Z</time>
      </trkpt>
      <trkpt lat="36.69460013508797" lon="137.83812020905316">
        <ele>770.61</ele>
        <time>2025-07-08T14:05:51.306Z</time>
      </trkpt>
      <trkpt lat="36.6945999674499" lon="137.83811995759606">
        <ele>771.07</ele>
        <time>2025-07-08T14:05:51.504Z</time>
      </trkpt>
      <trkpt lat="36.69440584257245" lon="137.8378113359213">
        <ele>771.58</ele>
        <time>2025-07-08T14:05:51.707Z</time>
      </trkpt>
      <trkpt lat="36.694211633875966" lon="137.83750263042748">
        <ele>772.04</ele>
        <time>2025-07-08T14:05:51.915Z</time>
      </trkpt>
      <trkpt lat="36.69401750899851" lon="137.8371940087527">
        <ele>772.55</ele>
        <time>2025-07-08T14:05:52.128Z</time>
      </trkpt>
      <trkpt lat="36.69382338412106" lon="137.83688538707793">
        <ele>773.05</ele>
        <time>2025-07-08T14:05:52.346Z</time>
      </trkpt>
      <trkpt lat="36.69381994754076" lon="137.83687993884087">
        <ele>773.48</ele>
        <time>2025-07-08T14:05:52.565Z</time>
      </trkpt>
      <trkpt lat="36.69368994422257" lon="137.83652999438345">
        <ele>774.03</ele>
        <time>2025-07-08T14:05:52.789Z</time>
      </trkpt>
      <trkpt lat="36.69366999529302" lon="137.83644994720817">
        <ele>774.48</ele>
        <time>2025-07-08T14:05:53.014Z</time>
      </trkpt>
      <trkpt lat="36.693659937009215" lon="137.83637995831668">
        <ele>774.91</ele>
        <time>2025-07-08T14:05:53.240Z</time>
      </trkpt>
      <trkpt lat="36.69362992979586" lon="137.8363699838519">
        <ele>775.32</ele>
        <time>2025-07-08T14:05:53.466Z</time>
      </trkpt>
      <trkpt lat="36.693569999188185" lon="137.83634995110333">
        <ele>775.72</ele>
        <time>2025-07-08T14:05:53.693Z</time>
      </trkpt>
      <trkpt lat="36.69350998476148" lon="137.83632991835475">
        <ele>776.11</ele>
        <time>2025-07-08T14:05:53.921Z</time>
      </trkpt>
      <trkpt lat="36.69344997033477" lon="137.83628993667662">
        <ele>776.5</ele>
        <time>2025-07-08T14:05:54.150Z</time>
      </trkpt>
      <trkpt lat="36.69340998865664" lon="137.8362299222499">
        <ele>776.87</ele>
        <time>2025-07-08T14:05:54.380Z</time>
      </trkpt>
      <trkpt lat="36.69339079409838" lon="137.83617259003222">
        <ele>777.22</ele>
        <time>2025-07-08T14:05:54.611Z</time>
      </trkpt>
      <trkpt lat="36.693390710279346" lon="137.8361722547561">
        <ele>777.55</ele>
        <time>2025-07-08T14:05:54.842Z</time>
      </trkpt>
      <trkpt lat="36.693390207365155" lon="137.83617082983255">
        <ele>777.87</ele>
        <time>2025-07-08T14:05:55.073Z</time>
      </trkpt>
      <trkpt lat="36.69339003972709" lon="137.83617024309933">
        <ele>778.18</ele>
        <time>2025-07-08T14:05:55.304Z</time>
      </trkpt>
      <trkpt lat="36.69338995590806" lon="137.83616999164224">
        <ele>778.49</ele>
        <time>2025-07-08T14:05:55.535Z</time>
      </trkpt>
      <trkpt lat="36.69336992315948" lon="137.8359999228269">
        <ele>778.8</ele>
        <time>2025-07-08T14:05:55.768Z</time>
      </trkpt>
      <trkpt lat="36.69333999976516" lon="137.8358199633658">
        <ele>779.14</ele>
        <time>2025-07-08T14:05:56.004Z</time>
      </trkpt>
      <trkpt lat="36.693289959803224" lon="137.8357399161905">
        <ele>779.47</ele>
        <time>2025-07-08T14:05:56.241Z</time>
      </trkpt>
      <trkpt lat="36.69312994927168" lon="137.83565995283425">
        <ele>779.81</ele>
        <time>2025-07-08T14:05:56.481Z</time>
      </trkpt>
      <trkpt lat="36.69308996759355" lon="137.83564997836947">
        <ele>780.12</ele>
        <time>2025-07-08T14:05:56.721Z</time>
      </trkpt>
      <trkpt lat="36.69302995316684" lon="137.83558996394277">
        <ele>780.44</ele>
        <time>2025-07-08T14:05:56.962Z</time>
      </trkpt>
      <trkpt lat="36.692949989810586" lon="137.83542995341122">
        <ele>780.8</ele>
        <time>2025-07-08T14:05:57.206Z</time>
      </trkpt>
      <trkpt lat="36.69285041280091" lon="137.83507187850773">
        <ele>781.19</ele>
        <time>2025-07-08T14:05:57.455Z</time>
      </trkpt>
      <trkpt lat="36.692850328981876" lon="137.8350715432316">
        <ele>781.52</ele>
        <time>2025-07-08T14:05:57.704Z</time>
      </trkpt>
      <trkpt lat="36.69284990988672" lon="137.83507003448904">
        <ele>781.86</ele>
        <time>2025-07-08T14:05:57.953Z</time>
      </trkpt>
      <trkpt lat="36.69284990988672" lon="137.83506986685097">
        <ele>782.2</ele>
        <time>2025-07-08T14:05:58.202Z</time>
      </trkpt>
      <trkpt lat="36.69284999370575" lon="137.83506995067">
        <ele>782.56</ele>
        <time>2025-07-08T14:05:58.451Z</time>
      </trkpt>
      <trkpt lat="36.69260230846703" lon="137.83482746221125">
        <ele>783.04</ele>
        <time>2025-07-08T14:05:58.705Z</time>
      </trkpt>
      <trkpt lat="36.692564841359854" lon="137.83479066565633">
        <ele>783.44</ele>
        <time>2025-07-08T14:05:58.960Z</time>
      </trkpt>
      <trkpt lat="36.69256458990276" lon="137.83479041419923">
        <ele>783.83</ele>
        <time>2025-07-08T14:05:59.215Z</time>
      </trkpt>
      <trkpt lat="36.69256358407438" lon="137.83478949218988">
        <ele>784.24</ele>
        <time>2025-07-08T14:05:59.470Z</time>
      </trkpt>
      <trkpt lat="36.692562913522124" lon="137.83478890545666">
        <ele>784.65</ele>
        <time>2025-07-08T14:05:59.725Z</time>
      </trkpt>
      <trkpt lat="36.692562578246" lon="137.83478857018054">
        <ele>785.08</ele>
        <time>2025-07-08T14:05:59.980Z</time>
      </trkpt>
      <trkpt lat="36.69242385774851" lon="137.83472562208772">
        <ele>785.61</ele>
        <time>2025-07-08T14:06:00.237Z</time>
      </trkpt>
      <trkpt lat="36.69242352247238" lon="137.83472553826869">
        <ele>786.07</ele>
        <time>2025-07-08T14:06:00.494Z</time>
      </trkpt>
      <trkpt lat="36.69242234900594" lon="137.8347250353545">
        <ele>786.54</ele>
        <time>2025-07-08T14:06:00.751Z</time>
      </trkpt>
      <trkpt lat="36.69242134317756" lon="137.83472461625934">
        <ele>787.03</ele>
        <time>2025-07-08T14:06:01.008Z</time>
      </trkpt>
      <trkpt lat="36.69242058880627" lon="137.8347242809832">
        <ele>787.54</ele>
        <time>2025-07-08T14:06:01.265Z</time>
      </trkpt>
      <trkpt lat="36.69218111783266" lon="137.8344694711268">
        <ele>788.19</ele>
        <time>2025-07-08T14:06:01.527Z</time>
      </trkpt>
      <trkpt lat="36.69213032349944" lon="137.83441565930843">
        <ele>788.75</ele>
        <time>2025-07-08T14:06:01.790Z</time>
      </trkpt>
      <trkpt lat="36.692130072042346" lon="137.83441540785134">
        <ele>789.31</ele>
        <time>2025-07-08T14:06:02.053Z</time>
      </trkpt>
      <trkpt lat="36.692129150033" lon="137.83441440202296">
        <ele>789.88</ele>
        <time>2025-07-08T14:06:02.316Z</time>
      </trkpt>
      <trkpt lat="36.69212847948074" lon="137.83441364765167">
        <ele>790.47</ele>
        <time>2025-07-08T14:06:02.579Z</time>
      </trkpt>
      <trkpt lat="36.692128060385585" lon="137.83441314473748">
        <ele>791.08</ele>
        <time>2025-07-08T14:06:02.842Z</time>
      </trkpt>
      <trkpt lat="36.69197056442499" lon="137.8340738452971">
        <ele>791.76</ele>
        <time>2025-07-08T14:06:03.110Z</time>
      </trkpt>
      <trkpt lat="36.6918130684644" lon="137.83373454585671">
        <ele>792.49</ele>
        <time>2025-07-08T14:06:03.383Z</time>
      </trkpt>
      <trkpt lat="36.69179840013385" lon="137.83370294608176">
        <ele>793.15</ele>
        <time>2025-07-08T14:06:03.657Z</time>
      </trkpt>
      <trkpt lat="36.691798232495785" lon="137.83370261080563">
        <ele>793.81</ele>
        <time>2025-07-08T14:06:03.931Z</time>
      </trkpt>
      <trkpt lat="36.69179756194353" lon="137.8337011858821">
        <ele>794.48</ele>
        <time>2025-07-08T14:06:04.205Z</time>
      </trkpt>
      <trkpt lat="36.69179714284837" lon="137.8337001800537">
        <ele>795.16</ele>
        <time>2025-07-08T14:06:04.479Z</time>
      </trkpt>
      <trkpt lat="36.69179689139128" lon="137.8336995933205">
        <ele>795.85</ele>
        <time>2025-07-08T14:06:04.753Z</time>
      </trkpt>
      <trkpt lat="36.69161047786474" lon="137.83338359557092">
        <ele>796.68</ele>
        <time>2025-07-08T14:06:05.032Z</time>
      </trkpt>
      <trkpt lat="36.69142414815724" lon="137.8330676816404">
        <ele>797.39</ele>
        <time>2025-07-08T14:06:05.316Z</time>
      </trkpt>
      <trkpt lat="36.691237734630704" lon="137.83275176770985">
        <ele>798.1</ele>
        <time>2025-07-08T14:06:05.605Z</time>
      </trkpt>
      <trkpt lat="36.691140504553914" lon="137.83258706331253">
        <ele>798.81</ele>
        <time>2025-07-08T14:06:05.897Z</time>
      </trkpt>
      <trkpt lat="36.69114033691585" lon="137.8325867280364">
        <ele>799.49</ele>
        <time>2025-07-08T14:06:06.189Z</time>
      </trkpt>
      <trkpt lat="36.691139582544565" lon="137.8325853869319">
        <ele>800.15</ele>
        <time>2025-07-08T14:06:06.481Z</time>
      </trkpt>
      <trkpt lat="36.691139079630375" lon="137.83258446492255">
        <ele>800.8</ele>
        <time>2025-07-08T14:06:06.773Z</time>
      </trkpt>
      <trkpt lat="36.69113874435425" lon="137.83258387818933">
        <ele>801.43</ele>
        <time>2025-07-08T14:06:07.065Z</time>
      </trkpt>
      <trkpt lat="36.69106213375926" lon="137.83220392651856">
        <ele>802.12</ele>
        <time>2025-07-08T14:06:07.362Z</time>
      </trkpt>
      <trkpt lat="36.69098552316427" lon="137.83182405866683">
        <ele>802.84</ele>
        <time>2025-07-08T14:06:07.664Z</time>
      </trkpt>
      <trkpt lat="36.69094579294324" lon="137.8316270839423">
        <ele>803.47</ele>
        <time>2025-07-08T14:06:07.968Z</time>
      </trkpt>
      <trkpt lat="36.69094579294324" lon="137.83162674866617">
        <ele>804.0</ele>
        <time>2025-07-08T14:06:08.272Z</time>
      </trkpt>
      <trkpt lat="36.69094545766711" lon="137.83162507228553">
        <ele>804.47</ele>
        <time>2025-07-08T14:06:08.576Z</time>
      </trkpt>
      <trkpt lat="36.69094529002905" lon="137.83162423409522">
        <ele>804.91</ele>
        <time>2025-07-08T14:06:08.880Z</time>
      </trkpt>
      <trkpt lat="36.69094520621002" lon="137.83162373118103">
        <ele>805.29</ele>
        <time>2025-07-08T14:06:09.184Z</time>
      </trkpt>
      <trkpt lat="36.69078469276428" lon="137.83128661103547">
        <ele>805.7</ele>
        <time>2025-07-08T14:06:09.493Z</time>
      </trkpt>
      <trkpt lat="36.69062417931855" lon="137.83094940707088">
        <ele>806.0</ele>
        <time>2025-07-08T14:06:09.807Z</time>
      </trkpt>
      <trkpt lat="36.690538013353944" lon="137.8307686932385">
        <ele>806.28</ele>
        <time>2025-07-08T14:06:10.124Z</time>
      </trkpt>
      <trkpt lat="36.69053784571588" lon="137.83076835796237">
        <ele>806.45</ele>
        <time>2025-07-08T14:06:10.441Z</time>
      </trkpt>
      <trkpt lat="36.69053717516363" lon="137.83076693303883">
        <ele>806.56</ele>
        <time>2025-07-08T14:06:10.758Z</time>
      </trkpt>
      <trkpt lat="36.69053675606847" lon="137.83076592721045">
        <ele>806.61</ele>
        <time>2025-07-08T14:06:11.075Z</time>
      </trkpt>
      <trkpt lat="36.69053650461137" lon="137.8307652566582">
        <ele>806.6</ele>
        <time>2025-07-08T14:06:11.392Z</time>
      </trkpt>
      <trkpt lat="36.69043617323041" lon="137.8306661825627">
        <ele>806.52</ele>
        <time>2025-07-08T14:06:11.711Z</time>
      </trkpt>
      <trkpt lat="36.690435921773314" lon="137.8306659311056">
        <ele>806.39</ele>
        <time>2025-07-08T14:06:12.030Z</time>
      </trkpt>
      <trkpt lat="36.690434915944934" lon="137.83066492527723">
        <ele>806.2</ele>
        <time>2025-07-08T14:06:12.349Z</time>
      </trkpt>
      <trkpt lat="36.690433993935585" lon="137.83066400326788">
        <ele>805.95</ele>
        <time>2025-07-08T14:06:12.668Z</time>
      </trkpt>
      <trkpt lat="36.69043332338333" lon="137.83066333271563">
        <ele>805.65</ele>
        <time>2025-07-08T14:06:12.987Z</time>
      </trkpt>
      <trkpt lat="36.69042997062206" lon="137.83065997995436">
        <ele>805.29</ele>
        <time>2025-07-08T14:06:13.306Z</time>
      </trkpt>
      <trkpt lat="36.69039996340871" lon="137.83091998659074">
        <ele>804.76</ele>
        <time>2025-07-08T14:06:13.629Z</time>
      </trkpt>
      <trkpt lat="36.69041999615729" lon="137.83111997880042">
        <ele>804.26</ele>
        <time>2025-07-08T14:06:13.954Z</time>
      </trkpt>
      <trkpt lat="36.69043994508684" lon="137.83120991662145">
        <ele>803.75</ele>
        <time>2025-07-08T14:06:14.281Z</time>
      </trkpt>
      <trkpt lat="36.69060632586479" lon="137.83154267817736">
        <ele>803.23</ele>
        <time>2025-07-08T14:06:14.613Z</time>
      </trkpt>
      <trkpt lat="36.69065997004509" lon="137.83164996653795">
        <ele>802.64</ele>
        <time>2025-07-08T14:06:14.946Z</time>
      </trkpt>
      <trkpt lat="36.690759966149926" lon="137.83189999870956">
        <ele>801.98</ele>
        <time>2025-07-08T14:06:15.283Z</time>
      </trkpt>
      <trkpt lat="36.69088996946812" lon="137.8322399687022">
        <ele>801.23</ele>
        <time>2025-07-08T14:06:15.625Z</time>
      </trkpt>
      <trkpt lat="36.690929951146245" lon="137.83239997923374">
        <ele>800.56</ele>
        <time>2025-07-08T14:06:15.969Z</time>
      </trkpt>
      <trkpt lat="36.69098502025008" lon="137.83278554677963">
        <ele>799.88</ele>
        <time>2025-07-08T14:06:16.318Z</time>
      </trkpt>
      <trkpt lat="36.69098996557295" lon="137.83281999640167">
        <ele>799.21</ele>
        <time>2025-07-08T14:06:16.667Z</time>
      </trkpt>
      <trkpt lat="36.69096993282437" lon="137.83287992700934">
        <ele>798.55</ele>
        <time>2025-07-08T14:06:17.017Z</time>
      </trkpt>
      <trkpt lat="36.6907699406147" lon="137.83299995586276">
        <ele>797.94</ele>
        <time>2025-07-08T14:06:17.371Z</time>
      </trkpt>
      <trkpt lat="36.69090086594224" lon="137.83335627056658">
        <ele>797.21</ele>
        <time>2025-07-08T14:06:17.730Z</time>
      </trkpt>
      <trkpt lat="36.690949983894825" lon="137.83348996192217">
        <ele>796.54</ele>
        <time>2025-07-08T14:06:18.091Z</time>
      </trkpt>
      <trkpt lat="36.69099994003773" lon="137.8336599469185">
        <ele>795.87</ele>
        <time>2025-07-08T14:06:18.454Z</time>
      </trkpt>
      <trkpt lat="36.69098996557295" lon="137.83369992859662">
        <ele>795.23</ele>
        <time>2025-07-08T14:06:18.817Z</time>
      </trkpt>
      <trkpt lat="36.69068779796362" lon="137.83381216228008">
        <ele>794.57</ele>
        <time>2025-07-08T14:06:19.185Z</time>
      </trkpt>
      <trkpt lat="36.69063993729651" lon="137.8338299319148">
        <ele>793.99</ele>
        <time>2025-07-08T14:06:19.554Z</time>
      </trkpt>
      <trkpt lat="36.69033885933459" lon="137.83394660800695">
        <ele>793.39</ele>
        <time>2025-07-08T14:06:19.928Z</time>
      </trkpt>
      <trkpt lat="36.690037781372666" lon="137.8340632840991">
        <ele>792.76</ele>
        <time>2025-07-08T14:06:20.307Z</time>
      </trkpt>
      <trkpt lat="36.68983996845782" lon="137.83413997851312">
        <ele>792.28</ele>
        <time>2025-07-08T14:06:20.690Z</time>
      </trkpt>
      <trkpt lat="36.68960996903479" lon="137.83421994186938">
        <ele>791.82</ele>
        <time>2025-07-08T14:06:21.077Z</time>
      </trkpt>
      <trkpt lat="36.689308220520616" lon="137.83433385193348">
        <ele>791.45</ele>
        <time>2025-07-08T14:06:21.469Z</time>
      </trkpt>
      <trkpt lat="36.689079981297255" lon="137.83441993407905">
        <ele>791.12</ele>
        <time>2025-07-08T14:06:21.864Z</time>
      </trkpt>
      <trkpt lat="36.68877420946956" lon="137.8345162421465">
        <ele>790.81</ele>
        <time>2025-07-08T14:06:22.264Z</time>
      </trkpt>
      <trkpt lat="36.68853993527591" lon="137.83458991907537">
        <ele>790.49</ele>
        <time>2025-07-08T14:06:22.668Z</time>
      </trkpt>
      <trkpt lat="36.68823156505823" lon="137.8346718940884">
        <ele>790.15</ele>
        <time>2025-07-08T14:06:23.077Z</time>
      </trkpt>
      <trkpt lat="36.68792311102152" lon="137.83475378528237">
        <ele>789.9</ele>
        <time>2025-07-08T14:06:23.491Z</time>
      </trkpt>
      <trkpt lat="36.687899976968765" lon="137.83475998789072">
        <ele>789.74</ele>
        <time>2025-07-08T14:06:23.906Z</time>
      </trkpt>
      <trkpt lat="36.68768992647529" lon="137.8348199184984">
        <ele>789.66</ele>
        <time>2025-07-08T14:06:24.324Z</time>
      </trkpt>
      <trkpt lat="36.687378538772464" lon="137.83488219603896">
        <ele>789.66</ele>
        <time>2025-07-08T14:06:24.747Z</time>
      </trkpt>
      <trkpt lat="36.687339982017875" lon="137.8348899912089">
        <ele>789.66</ele>
        <time>2025-07-08T14:06:25.171Z</time>
      </trkpt>
      <trkpt lat="36.687319949269295" lon="137.8349599801004">
        <ele>789.7</ele>
        <time>2025-07-08T14:06:25.596Z</time>
      </trkpt>
      <trkpt lat="36.68726999312639" lon="137.8349599801004">
        <ele>789.81</ele>
        <time>2025-07-08T14:06:26.022Z</time>
      </trkpt>
      <trkpt lat="36.68719992041588" lon="137.8349599801004">
        <ele>789.99</ele>
        <time>2025-07-08T14:06:26.449Z</time>
      </trkpt>
      <trkpt lat="36.686891382560134" lon="137.83504078164697">
        <ele>790.21</ele>
        <time>2025-07-08T14:06:26.881Z</time>
      </trkpt>
      <trkpt lat="36.686779987066984" lon="137.83506995067">
        <ele>790.52</ele>
        <time>2025-07-08T14:06:27.315Z</time>
      </trkpt>
      <trkpt lat="36.68647103011608" lon="137.83514882437885">
        <ele>790.88</ele>
        <time>2025-07-08T14:06:27.754Z</time>
      </trkpt>
      <trkpt lat="36.686309929937124" lon="137.83518997952342">
        <ele>791.28</ele>
        <time>2025-07-08T14:06:28.195Z</time>
      </trkpt>
      <trkpt lat="36.686378829181194" lon="137.83480784855783">
        <ele>791.85</ele>
        <time>2025-07-08T14:06:28.641Z</time>
      </trkpt>
      <trkpt lat="36.68641998432577" lon="137.8345799446106">
        <ele>792.42</ele>
        <time>2025-07-08T14:06:29.090Z</time>
      </trkpt>
      <trkpt lat="36.68641998432577" lon="137.8341927845031">
        <ele>793.01</ele>
        <time>2025-07-08T14:06:29.544Z</time>
      </trkpt>
      <trkpt lat="36.68641998432577" lon="137.83419244922698">
        <ele>793.72</ele>
        <time>2025-07-08T14:06:29.998Z</time>
      </trkpt>
      <trkpt lat="36.68641998432577" lon="137.83419077284634">
        <ele>794.5</ele>
        <time>2025-07-08T14:06:30.452Z</time>
      </trkpt>
      <trkpt lat="36.68641998432577" lon="137.83419018611312">
        <ele>795.35</ele>
        <time>2025-07-08T14:06:30.906Z</time>
      </trkpt>
      <trkpt lat="36.68641998432577" lon="137.83418993465602">
        <ele>796.28</ele>
        <time>2025-07-08T14:06:31.360Z</time>
      </trkpt>
      <trkpt lat="36.68641537427902" lon="137.83379841595888">
        <ele>797.3</ele>
        <time>2025-07-08T14:06:31.819Z</time>
      </trkpt>
      <trkpt lat="36.68641084805131" lon="137.8334068134427">
        <ele>798.53</ele>
        <time>2025-07-08T14:06:32.283Z</time>
      </trkpt>
      <trkpt lat="36.6864063218236" lon="137.83301529474556">
        <ele>799.86</ele>
        <time>2025-07-08T14:06:32.752Z</time>
      </trkpt>
      <trkpt lat="36.68640171177685" lon="137.8326236922294">
        <ele>801.17</ele>
        <time>2025-07-08T14:06:33.226Z</time>
      </trkpt>
      <trkpt lat="36.68639995157719" lon="137.83246996812522">
        <ele>802.46</ele>
        <time>2025-07-08T14:06:33.702Z</time>
      </trkpt>
      <trkpt lat="36.686407662928104" lon="137.83207844942808">
        <ele>803.88</ele>
        <time>2025-07-08T14:06:34.183Z</time>
      </trkpt>
      <trkpt lat="36.68641529045999" lon="137.83168701454997">
        <ele>805.14</ele>
        <time>2025-07-08T14:06:34.670Z</time>
      </trkpt>
      <trkpt lat="36.68642300181091" lon="137.83129549585283">
        <ele>806.56</ele>
        <time>2025-07-08T14:06:35.162Z</time>
      </trkpt>
      <trkpt lat="36.68642995879054" lon="137.8309399355203">
        <ele>808.04</ele>
        <time>2025-07-08T14:06:35.658Z</time>
      </trkpt>
      <trkpt lat="36.6863801702857" lon="137.830553278327">
        <ele>809.51</ele>
        <time>2025-07-08T14:06:36.159Z</time>
      </trkpt>
      <trkpt lat="36.68633038178086" lon="137.83016653731465">
        <ele>811.04</ele>
        <time>2025-07-08T14:06:36.665Z</time>
      </trkpt>
      <trkpt lat="36.68629995547235" lon="137.82992991618812">
        <ele>812.63</ele>
        <time>2025-07-08T14:06:37.174Z</time>
      </trkpt>
      <trkpt lat="36.68631663545966" lon="137.82953890040517">
        <ele>814.24</ele>
        <time>2025-07-08T14:06:37.688Z</time>
      </trkpt>
      <trkpt lat="36.68631998822093" lon="137.8294599428773">
        <ele>815.79</ele>
        <time>2025-07-08T14:06:38.203Z</time>
      </trkpt>
      <trkpt lat="36.686392994597554" lon="137.82907898537815">
        <ele>817.44</ele>
        <time>2025-07-08T14:06:38.723Z</time>
      </trkpt>
      <trkpt lat="36.68646600097418" lon="137.828698027879">
        <ele>819.14</ele>
        <time>2025-07-08T14:06:39.248Z</time>
      </trkpt>
      <trkpt lat="36.6865390073508" lon="137.82831707037985">
        <ele>820.81</ele>
        <time>2025-07-08T14:06:39.778Z</time>
      </trkpt>
      <trkpt lat="36.68654998764396" lon="137.82825998961926">
        <ele>822.37</ele>
        <time>2025-07-08T14:06:40.309Z</time>
      </trkpt>
      <trkpt lat="36.68656415306032" lon="137.8278687223792">
        <ele>823.96</ele>
        <time>2025-07-08T14:06:40.845Z</time>
      </trkpt>
      <trkpt lat="36.68657840229571" lon="137.8274775389582">
        <ele>825.55</ele>
        <time>2025-07-08T14:06:41.386Z</time>
      </trkpt>
      <trkpt lat="36.6865926515311" lon="137.82708635553718">
        <ele>827.14</ele>
        <time>2025-07-08T14:06:41.932Z</time>
      </trkpt>
      <trkpt lat="36.68660681694746" lon="137.82669508829713">
        <ele>828.76</ele>
        <time>2025-07-08T14:06:42.483Z</time>
      </trkpt>
      <trkpt lat="36.68662106618285" lon="137.8263039048761">
        <ele>830.3</ele>
        <time>2025-07-08T14:06:43.039Z</time>
      </trkpt>
      <trkpt lat="36.68663531541824" lon="137.8259127214551">
        <ele>831.77</ele>
        <time>2025-07-08T14:06:43.600Z</time>
      </trkpt>
      <trkpt lat="36.686649564653635" lon="137.82552153803408">
        <ele>833.2</ele>
        <time>2025-07-08T14:06:44.167Z</time>
      </trkpt>
      <trkpt lat="36.686649983748794" lon="137.8255099710077">
        <ele>834.56</ele>
        <time>2025-07-08T14:06:44.734Z</time>
      </trkpt>
      <trkpt lat="36.68665995821357" lon="137.8251499682665">
        <ele>835.88</ele>
        <time>2025-07-08T14:06:45.305Z</time>
      </trkpt>
      <trkpt lat="36.686649983748794" lon="137.8249099943787">
        <ele>837.18</ele>
        <time>2025-07-08T14:06:45.879Z</time>
      </trkpt>
      <trkpt lat="36.686670519411564" lon="137.8245191462338">
        <ele>838.46</ele>
        <time>2025-07-08T14:06:46.458Z</time>
      </trkpt>
      <trkpt lat="36.68667999096215" lon="137.824339941144">
        <ele>839.7</ele>
        <time>2025-07-08T14:06:47.040Z</time>
      </trkpt>
      <trkpt lat="36.686719972640276" lon="137.82395152375102">
        <ele>841.01</ele>
        <time>2025-07-08T14:06:47.627Z</time>
      </trkpt>
      <trkpt lat="36.68674997985363" lon="137.82365991733968">
        <ele>842.13</ele>
        <time>2025-07-08T14:06:48.218Z</time>
      </trkpt>
      <trkpt lat="36.68676992878318" lon="137.82355992123485">
        <ele>843.15</ele>
        <time>2025-07-08T14:06:48.810Z</time>
      </trkpt>
      <trkpt lat="36.68681996874511" lon="137.82344995066524">
        <ele>844.15</ele>
        <time>2025-07-08T14:06:49.404Z</time>
      </trkpt>
      <trkpt lat="36.68694687075913" lon="137.82331290654838">
        <ele>845.15</ele>
        <time>2025-07-08T14:06:50.000Z</time>
      </trkpt>
      <trkpt lat="36.686947206035256" lon="137.82331265509129">
        <ele>845.93</ele>
        <time>2025-07-08T14:06:50.596Z</time>
      </trkpt>
      <trkpt lat="36.68694821186364" lon="137.8233116492629">
        <ele>846.62</ele>
        <time>2025-07-08T14:06:51.192Z</time>
      </trkpt>
      <trkpt lat="36.686949133872986" lon="137.82331072725356">
        <ele>847.25</ele>
        <time>2025-07-08T14:06:51.788Z</time>
      </trkpt>
      <trkpt lat="36.6869499720633" lon="137.82330997288227">
        <ele>847.78</ele>
        <time>2025-07-08T14:06:52.384Z</time>
      </trkpt>
      <trkpt lat="36.6868638060987" lon="137.82303613610566">
        <ele>848.34</ele>
        <time>2025-07-08T14:06:52.984Z</time>
      </trkpt>
      <trkpt lat="36.68686372227967" lon="137.82303580082953">
        <ele>848.72</ele>
        <time>2025-07-08T14:06:53.584Z</time>
      </trkpt>
      <trkpt lat="36.68686330318451" lon="137.82303420826793">
        <ele>849.01</ele>
        <time>2025-07-08T14:06:54.184Z</time>
      </trkpt>
      <trkpt lat="36.686863051727414" lon="137.82303320243955">
        <ele>849.22</ele>
        <time>2025-07-08T14:06:54.784Z</time>
      </trkpt>
      <trkpt lat="36.68686288408935" lon="137.8230325318873">
        <ele>849.36</ele>
        <time>2025-07-08T14:06:55.384Z</time>
      </trkpt>
      <trkpt lat="36.686658449471" lon="137.8229508921504">
        <ele>849.35</ele>
        <time>2025-07-08T14:06:55.988Z</time>
      </trkpt>
      <trkpt lat="36.686658365651965" lon="137.82295080833137">
        <ele>849.33</ele>
        <time>2025-07-08T14:06:56.592Z</time>
      </trkpt>
      <trkpt lat="36.68665710836649" lon="137.8229503892362">
        <ele>849.25</ele>
        <time>2025-07-08T14:06:57.196Z</time>
      </trkpt>
      <trkpt lat="36.68665559962392" lon="137.822949802503">
        <ele>849.09</ele>
        <time>2025-07-08T14:06:57.800Z</time>
      </trkpt>
      <trkpt lat="36.68665425851941" lon="137.8229492995888">
        <ele>848.88</ele>
        <time>2025-07-08T14:06:58.404Z</time>
      </trkpt>
      <trkpt lat="36.68656180612743" lon="137.82295952551067">
        <ele>848.59</ele>
        <time>2025-07-08T14:06:59.009Z</time>
      </trkpt>
      <trkpt lat="36.6865614708513" lon="137.8229596093297">
        <ele>848.25</ele>
        <time>2025-07-08T14:06:59.614Z</time>
      </trkpt>
      <trkpt lat="36.686560129746795" lon="137.82295977696776">
        <ele>847.87</ele>
        <time>2025-07-08T14:07:00.219Z</time>
      </trkpt>
      <trkpt lat="36.686558704823256" lon="137.82295994460583">
        <ele>847.41</ele>
        <time>2025-07-08T14:07:00.824Z</time>
      </trkpt>
      <trkpt lat="36.68655744753778" lon="137.8229601122439">
        <ele>846.93</ele>
        <time>2025-07-08T14:07:01.429Z</time>
      </trkpt>
      <trkpt lat="36.68655744753778" lon="137.82313814386725">
        <ele>846.32</ele>
        <time>2025-07-08T14:07:02.036Z</time>
      </trkpt>
      <trkpt lat="36.68655744753778" lon="137.8231385629624">
        <ele>845.76</ele>
        <time>2025-07-08T14:07:02.643Z</time>
      </trkpt>
      <trkpt lat="36.68655744753778" lon="137.82314023934305">
        <ele>845.17</ele>
        <time>2025-07-08T14:07:03.250Z</time>
      </trkpt>
      <trkpt lat="36.68655744753778" lon="137.8231414128095">
        <ele>844.56</ele>
        <time>2025-07-08T14:07:03.857Z</time>
      </trkpt>
      <trkpt lat="36.68655744753778" lon="137.8231425024569">
        <ele>843.92</ele>
        <time>2025-07-08T14:07:04.464Z</time>
      </trkpt>
      <trkpt lat="36.686502043157816" lon="137.82344919629395">
        <ele>843.13</ele>
        <time>2025-07-08T14:07:05.076Z</time>
      </trkpt>
      <trkpt lat="36.686502043157816" lon="137.82344953157008">
        <ele>842.46</ele>
        <time>2025-07-08T14:07:05.688Z</time>
      </trkpt>
      <trkpt lat="36.68650179170072" lon="137.8234512079507">
        <ele>841.78</ele>
        <time>2025-07-08T14:07:06.300Z</time>
      </trkpt>
      <trkpt lat="36.68650162406266" lon="137.82345238141716">
        <ele>841.1</ele>
        <time>2025-07-08T14:07:06.912Z</time>
      </trkpt>
      <trkpt lat="36.686501540243626" lon="137.82345321960747">
        <ele>840.41</ele>
        <time>2025-07-08T14:07:07.524Z</time>
      </trkpt>
      <trkpt lat="36.686414955183864" lon="137.82382981851697">
        <ele>839.61</ele>
        <time>2025-07-08T14:07:08.141Z</time>
      </trkpt>
      <trkpt lat="36.6863283701241" lon="137.82420633360744">
        <ele>838.74</ele>
        <time>2025-07-08T14:07:08.763Z</time>
      </trkpt>
      <trkpt lat="36.68632619082928" lon="137.82421538606286">
        <ele>838.06</ele>
        <time>2025-07-08T14:07:09.385Z</time>
      </trkpt>
      <trkpt lat="36.686326107010245" lon="137.82421580515802">
        <ele>837.4</ele>
        <time>2025-07-08T14:07:10.007Z</time>
      </trkpt>
      <trkpt lat="36.68632577173412" lon="137.82421739771962">
        <ele>836.76</ele>
        <time>2025-07-08T14:07:10.629Z</time>
      </trkpt>
      <trkpt lat="36.68632543645799" lon="137.82421907410026">
        <ele>836.14</ele>
        <time>2025-07-08T14:07:11.251Z</time>
      </trkpt>
      <trkpt lat="36.6863251850009" lon="137.82422041520476">
        <ele>835.53</ele>
        <time>2025-07-08T14:07:11.873Z</time>
      </trkpt>
      <trkpt lat="36.68647547252476" lon="137.82425151206553">
        <ele>834.99</ele>
        <time>2025-07-08T14:07:12.497Z</time>
      </trkpt>
      <trkpt lat="36.686475556343794" lon="137.82425151206553">
        <ele>834.41</ele>
        <time>2025-07-08T14:07:13.121Z</time>
      </trkpt>
      <trkpt lat="36.68647681362927" lon="137.82425184734166">
        <ele>833.85</ele>
        <time>2025-07-08T14:07:13.745Z</time>
      </trkpt>
      <trkpt lat="36.686478490009904" lon="137.82425226643682">
        <ele>833.31</ele>
        <time>2025-07-08T14:07:14.369Z</time>
      </trkpt>
      <trkpt lat="36.686479998752475" lon="137.82425260171294">
        <ele>832.78</ele>
        <time>2025-07-08T14:07:14.993Z</time>
      </trkpt>
      <trkpt lat="36.68644471094012" lon="137.8246417734772">
        <ele>832.15</ele>
        <time>2025-07-08T14:07:15.622Z</time>
      </trkpt>
      <trkpt lat="36.68640942312777" lon="137.82503094524145">
        <ele>831.63</ele>
        <time>2025-07-08T14:07:16.256Z</time>
      </trkpt>
      <trkpt lat="36.68639852665365" lon="137.82514904625714">
        <ele>831.13</ele>
        <time>2025-07-08T14:07:16.892Z</time>
      </trkpt>
      <trkpt lat="36.68639852665365" lon="137.82514938153327">
        <ele>830.64</ele>
        <time>2025-07-08T14:07:17.528Z</time>
      </trkpt>
      <trkpt lat="36.686398442834616" lon="137.82515114173293">
        <ele>830.17</ele>
        <time>2025-07-08T14:07:18.164Z</time>
      </trkpt>
      <trkpt lat="36.686398359015584" lon="137.8251526504755">
        <ele>829.7</ele>
        <time>2025-07-08T14:07:18.800Z</time>
      </trkpt>
      <trkpt lat="36.68639827519655" lon="137.82515399158">
        <ele>829.24</ele>
        <time>2025-07-08T14:07:19.436Z</time>
      </trkpt>
      <trkpt lat="36.686369106173515" lon="137.82554391771555">
        <ele>828.73</ele>
        <time>2025-07-08T14:07:20.077Z</time>
      </trkpt>
      <trkpt lat="36.68633993715048" lon="137.8259338438511">
        <ele>828.15</ele>
        <time>2025-07-08T14:07:20.723Z</time>
      </trkpt>
      <trkpt lat="36.686338344588876" lon="137.8259534575045">
        <ele>827.7</ele>
        <time>2025-07-08T14:07:21.369Z</time>
      </trkpt>
      <trkpt lat="36.686338344588876" lon="137.82595379278064">
        <ele>827.27</ele>
        <time>2025-07-08T14:07:22.015Z</time>
      </trkpt>
      <trkpt lat="36.686338260769844" lon="137.82595546916127">
        <ele>826.84</ele>
        <time>2025-07-08T14:07:22.661Z</time>
      </trkpt>
      <trkpt lat="36.68633817695081" lon="137.82595731317997">
        <ele>826.42</ele>
        <time>2025-07-08T14:07:23.307Z</time>
      </trkpt>
      <trkpt lat="36.68633809313178" lon="137.82595890574157">
        <ele>826.0</ele>
        <time>2025-07-08T14:07:23.953Z</time>
      </trkpt>
      <trkpt lat="36.68632535263896" lon="137.82635017298162">
        <ele>825.52</ele>
        <time>2025-07-08T14:07:24.604Z</time>
      </trkpt>
      <trkpt lat="36.68631261214614" lon="137.82674144022167">
        <ele>825.06</ele>
        <time>2025-07-08T14:07:25.261Z</time>
      </trkpt>
      <trkpt lat="36.68631227687001" lon="137.82674722373486">
        <ele>824.64</ele>
        <time>2025-07-08T14:07:25.918Z</time>
      </trkpt>
      <trkpt lat="36.68631227687001" lon="137.82674764283001">
        <ele>824.24</ele>
        <time>2025-07-08T14:07:26.575Z</time>
      </trkpt>
      <trkpt lat="36.68631227687001" lon="137.82674931921065">
        <ele>823.83</ele>
        <time>2025-07-08T14:07:27.232Z</time>
      </trkpt>
      <trkpt lat="36.68631227687001" lon="137.82675124704838">
        <ele>823.43</ele>
        <time>2025-07-08T14:07:27.889Z</time>
      </trkpt>
      <trkpt lat="36.68631227687001" lon="137.826752923429">
        <ele>823.02</ele>
        <time>2025-07-08T14:07:28.546Z</time>
      </trkpt>
      <trkpt lat="36.68626634404063" lon="137.8271403349936">
        <ele>822.52</ele>
        <time>2025-07-08T14:07:29.208Z</time>
      </trkpt>
      <trkpt lat="36.68622225522995" lon="137.82751039601862">
        <ele>822.03</ele>
        <time>2025-07-08T14:07:29.875Z</time>
      </trkpt>
      <trkpt lat="36.68622225522995" lon="137.82751081511378">
        <ele>821.63</ele>
        <time>2025-07-08T14:07:30.542Z</time>
      </trkpt>
      <trkpt lat="36.68622208759189" lon="137.82751249149442">
        <ele>821.22</ele>
        <time>2025-07-08T14:07:31.209Z</time>
      </trkpt>
      <trkpt lat="36.686222003772855" lon="137.8275137487799">
        <ele>820.82</ele>
        <time>2025-07-08T14:07:31.876Z</time>
      </trkpt>
      <trkpt lat="36.68622191995382" lon="137.82751475460827">
        <ele>820.42</ele>
        <time>2025-07-08T14:07:32.543Z</time>
      </trkpt>
      <trkpt lat="36.68617129325867" lon="137.82790132798254">
        <ele>819.88</ele>
        <time>2025-07-08T14:07:33.215Z</time>
      </trkpt>
      <trkpt lat="36.686153607442975" lon="137.8280351869762">
        <ele>819.46</ele>
        <time>2025-07-08T14:07:33.888Z</time>
      </trkpt>
      <trkpt lat="36.686153607442975" lon="137.82803560607135">
        <ele>819.06</ele>
        <time>2025-07-08T14:07:34.561Z</time>
      </trkpt>
      <trkpt lat="36.68615343980491" lon="137.828037282452">
        <ele>818.65</ele>
        <time>2025-07-08T14:07:35.234Z</time>
      </trkpt>
      <trkpt lat="36.68615327216685" lon="137.82803904265165">
        <ele>818.24</ele>
        <time>2025-07-08T14:07:35.907Z</time>
      </trkpt>
      <trkpt lat="36.686153104528785" lon="137.82804055139422">
        <ele>817.83</ele>
        <time>2025-07-08T14:07:36.580Z</time>
      </trkpt>
      <trkpt lat="36.686138017103076" lon="137.82843173481524">
        <ele>817.4</ele>
        <time>2025-07-08T14:07:37.258Z</time>
      </trkpt>
      <trkpt lat="36.686127288267016" lon="137.8287062421441">
        <ele>816.93</ele>
        <time>2025-07-08T14:07:37.940Z</time>
      </trkpt>
      <trkpt lat="36.686127288267016" lon="137.82870666123927">
        <ele>816.5</ele>
        <time>2025-07-08T14:07:38.622Z</time>
      </trkpt>
      <trkpt lat="36.686127288267016" lon="137.8287083376199">
        <ele>816.07</ele>
        <time>2025-07-08T14:07:39.304Z</time>
      </trkpt>
      <trkpt lat="36.686127288267016" lon="137.8287099301815">
        <ele>815.63</ele>
        <time>2025-07-08T14:07:39.986Z</time>
      </trkpt>
      <trkpt lat="36.686127288267016" lon="137.828711271286">
        <ele>815.18</ele>
        <time>2025-07-08T14:07:40.668Z</time>
      </trkpt>
      <trkpt lat="36.68611722998321" lon="137.8291026223451">
        <ele>814.6</ele>
        <time>2025-07-08T14:07:41.355Z</time>
      </trkpt>
      <trkpt lat="36.686107171699405" lon="137.8294940572232">
        <ele>814.1</ele>
        <time>2025-07-08T14:07:42.047Z</time>
      </trkpt>
      <trkpt lat="36.68609719723463" lon="137.82988104969263">
        <ele>813.55</ele>
        <time>2025-07-08T14:07:42.744Z</time>
      </trkpt>
      <trkpt lat="36.68609719723463" lon="137.82988138496876">
        <ele>813.07</ele>
        <time>2025-07-08T14:07:43.441Z</time>
      </trkpt>
      <trkpt lat="36.68609719723463" lon="137.82988314516842">
        <ele>812.59</ele>
        <time>2025-07-08T14:07:44.138Z</time>
      </trkpt>
      <trkpt lat="36.68609719723463" lon="137.82988448627293">
        <ele>812.1</ele>
        <time>2025-07-08T14:07:44.835Z</time>
      </trkpt>
      <trkpt lat="36.68609719723463" lon="137.8298854921013">
        <ele>811.6</ele>
        <time>2025-07-08T14:07:45.532Z</time>
      </trkpt>
      <trkpt lat="36.68609719723463" lon="137.82988565973938">
        <ele>811.1</ele>
        <time>2025-07-08T14:07:46.229Z</time>
      </trkpt>
      <trkpt lat="36.686151595786214" lon="137.83027139492333">
        <ele>810.43</ele>
        <time>2025-07-08T14:07:46.931Z</time>
      </trkpt>
      <trkpt lat="36.686178082600236" lon="137.83045956864953">
        <ele>809.89</ele>
        <time>2025-07-08T14:07:47.636Z</time>
      </trkpt>
      <trkpt lat="36.68617816641927" lon="137.8304599877447">
        <ele>809.37</ele>
        <time>2025-07-08T14:07:48.341Z</time>
      </trkpt>
      <trkpt lat="36.68617841787636" lon="137.83046166412532">
        <ele>808.84</ele>
        <time>2025-07-08T14:07:49.046Z</time>
      </trkpt>
      <trkpt lat="36.68617866933346" lon="137.830463424325">
        <ele>808.3</ele>
        <time>2025-07-08T14:07:49.751Z</time>
      </trkpt>
      <trkpt lat="36.68617892079055" lon="137.83046510070562">
        <ele>807.75</ele>
        <time>2025-07-08T14:07:50.456Z</time>
      </trkpt>
      <trkpt lat="36.6861938405782" lon="137.8308562003076">
        <ele>807.23</ele>
        <time>2025-07-08T14:07:51.166Z</time>
      </trkpt>
      <trkpt lat="36.686208844184875" lon="137.83124738372862">
        <ele>806.58</ele>
        <time>2025-07-08T14:07:51.881Z</time>
      </trkpt>
      <trkpt lat="36.68622384779155" lon="137.83163856714964">
        <ele>805.94</ele>
        <time>2025-07-08T14:07:52.601Z</time>
      </trkpt>
      <trkpt lat="36.6862387675792" lon="137.83202975057065">
        <ele>805.46</ele>
        <time>2025-07-08T14:07:53.326Z</time>
      </trkpt>
      <trkpt lat="36.68625167571008" lon="137.83236980438232">
        <ele>804.83</ele>
        <time>2025-07-08T14:07:54.055Z</time>
      </trkpt>
      <trkpt lat="36.686251759529114" lon="137.83237022347748">
        <ele>804.23</ele>
        <time>2025-07-08T14:07:54.784Z</time>
      </trkpt>
      <trkpt lat="36.686251843348145" lon="137.83237189985812">
        <ele>803.63</ele>
        <time>2025-07-08T14:07:55.513Z</time>
      </trkpt>
      <trkpt lat="36.68625192716718" lon="137.8323734086007">
        <ele>803.02</ele>
        <time>2025-07-08T14:07:56.242Z</time>
      </trkpt>
      <trkpt lat="36.68625201098621" lon="137.8323747497052">
        <ele>802.4</ele>
        <time>2025-07-08T14:07:56.971Z</time>
      </trkpt>
      <trkpt lat="36.68624857440591" lon="137.83276635222137">
        <ele>801.64</ele>
        <time>2025-07-08T14:07:57.705Z</time>
      </trkpt>
      <trkpt lat="36.68624513782561" lon="137.83315795473754">
        <ele>800.84</ele>
        <time>2025-07-08T14:07:58.444Z</time>
      </trkpt>
      <trkpt lat="36.686243461444974" lon="137.83334554173052">
        <ele>800.16</ele>
        <time>2025-07-08T14:07:59.186Z</time>
      </trkpt>
      <trkpt lat="36.686243461444974" lon="137.83334596082568">
        <ele>799.56</ele>
        <time>2025-07-08T14:07:59.928Z</time>
      </trkpt>
      <trkpt lat="36.686243461444974" lon="137.83334763720632">
        <ele>798.98</ele>
        <time>2025-07-08T14:08:00.670Z</time>
      </trkpt>
      <trkpt lat="36.686243461444974" lon="137.833349481225">
        <ele>798.41</ele>
        <time>2025-07-08T14:08:01.412Z</time>
      </trkpt>
      <trkpt lat="36.686243461444974" lon="137.83335124142468">
        <ele>797.85</ele>
        <time>2025-07-08T14:08:02.154Z</time>
      </trkpt>
      <trkpt lat="36.686200965195894" lon="137.83373932354152">
        <ele>797.17</ele>
        <time>2025-07-08T14:08:02.901Z</time>
      </trkpt>
      <trkpt lat="36.68619233183563" lon="137.83381719142199">
        <ele>796.64</ele>
        <time>2025-07-08T14:08:03.649Z</time>
      </trkpt>
      <trkpt lat="36.68619233183563" lon="137.83381761051714">
        <ele>796.14</ele>
        <time>2025-07-08T14:08:04.397Z</time>
      </trkpt>
      <trkpt lat="36.686192164197564" lon="137.83381928689778">
        <ele>795.67</ele>
        <time>2025-07-08T14:08:05.145Z</time>
      </trkpt>
      <trkpt lat="36.6861919965595" lon="137.83382138237357">
        <ele>795.23</ele>
        <time>2025-07-08T14:08:05.893Z</time>
      </trkpt>
      <trkpt lat="36.68619182892144" lon="137.83382339403033">
        <ele>794.8</ele>
        <time>2025-07-08T14:08:06.641Z</time>
      </trkpt>
      <trkpt lat="36.686115469783545" lon="137.83413419499993">
        <ele>794.39</ele>
        <time>2025-07-08T14:08:07.393Z</time>
      </trkpt>
      <trkpt lat="36.68611538596451" lon="137.8341346140951">
        <ele>794.01</ele>
        <time>2025-07-08T14:08:08.145Z</time>
      </trkpt>
      <trkpt lat="36.686115050688386" lon="137.8341362066567">
        <ele>793.65</ele>
        <time>2025-07-08T14:08:08.897Z</time>
      </trkpt>
      <trkpt lat="36.68611471541226" lon="137.83413788303733">
        <ele>793.3</ele>
        <time>2025-07-08T14:08:09.649Z</time>
      </trkpt>
      <trkpt lat="36.68611438013613" lon="137.83413955941796">
        <ele>792.98</ele>
        <time>2025-07-08T14:08:10.401Z</time>
      </trkpt>
      <trkpt lat="36.68609912507236" lon="137.83453065901995">
        <ele>792.69</ele>
        <time>2025-07-08T14:08:11.158Z</time>
      </trkpt>
      <trkpt lat="36.686084289103746" lon="137.83490700647235">
        <ele>792.39</ele>
        <time>2025-07-08T14:08:11.920Z</time>
      </trkpt>
      <trkpt lat="36.686084289103746" lon="137.8349074255675">
        <ele>792.12</ele>
        <time>2025-07-08T14:08:12.682Z</time>
      </trkpt>
      <trkpt lat="36.686084289103746" lon="137.83490910194814">
        <ele>791.86</ele>
        <time>2025-07-08T14:08:13.444Z</time>
      </trkpt>
      <trkpt lat="36.686084289103746" lon="137.8349106106907">
        <ele>791.62</ele>
        <time>2025-07-08T14:08:14.206Z</time>
      </trkpt>
      <trkpt lat="36.686084289103746" lon="137.83491211943328">
        <ele>791.4</ele>
        <time>2025-07-08T14:08:14.968Z</time>
      </trkpt>
      <trkpt lat="36.68599359691143" lon="137.8352872096002">
        <ele>791.04</ele>
        <time>2025-07-08T14:08:15.735Z</time>
      </trkpt>
      <trkpt lat="36.68592184782028" lon="137.83558250404894">
        <ele>790.69</ele>
        <time>2025-07-08T14:08:16.506Z</time>
      </trkpt>
      <trkpt lat="36.68592176400125" lon="137.8355829231441">
        <ele>790.51</ele>
        <time>2025-07-08T14:08:17.277Z</time>
      </trkpt>
      <trkpt lat="36.68592142872512" lon="137.83558459952474">
        <ele>790.35</ele>
        <time>2025-07-08T14:08:18.048Z</time>
      </trkpt>
      <trkpt lat="36.685921093449" lon="137.8355863597244">
        <ele>790.21</ele>
        <time>2025-07-08T14:08:18.819Z</time>
      </trkpt>
      <trkpt lat="36.68592075817287" lon="137.83558811992407">
        <ele>790.08</ele>
        <time>2025-07-08T14:08:19.590Z</time>
      </trkpt>
      <trkpt lat="36.68596685864031" lon="137.8358345478773">
        <ele>789.99</ele>
        <time>2025-07-08T14:08:20.365Z</time>
      </trkpt>
      <trkpt lat="36.685966942459345" lon="137.83583488315344">
        <ele>789.88</ele>
        <time>2025-07-08T14:08:21.140Z</time>
      </trkpt>
      <trkpt lat="36.68596727773547" lon="137.83583655953407">
        <ele>789.78</ele>
        <time>2025-07-08T14:08:21.915Z</time>
      </trkpt>
      <trkpt lat="36.68596769683063" lon="137.83583840355277">
        <ele>789.68</ele>
        <time>2025-07-08T14:08:22.690Z</time>
      </trkpt>
      <trkpt lat="36.68596811592579" lon="137.8358403313905">
        <ele>789.58</ele>
        <time>2025-07-08T14:08:23.465Z</time>
      </trkpt>
      <trkpt lat="36.685866359621286" lon="137.83617803826928">
        <ele>789.53</ele>
        <time>2025-07-08T14:08:24.244Z</time>
      </trkpt>
      <trkpt lat="36.685866275802255" lon="137.8361783735454">
        <ele>789.42</ele>
        <time>2025-07-08T14:08:25.023Z</time>
      </trkpt>
      <trkpt lat="36.685865856707096" lon="137.83618004992604">
        <ele>789.3</ele>
        <time>2025-07-08T14:08:25.802Z</time>
      </trkpt>
      <trkpt lat="36.685865353792906" lon="137.8361818101257">
        <ele>789.17</ele>
        <time>2025-07-08T14:08:26.581Z</time>
      </trkpt>
      <trkpt lat="36.685864850878716" lon="137.8361836541444">
        <ele>789.02</ele>
        <time>2025-07-08T14:08:27.360Z</time>
      </trkpt>
      <trkpt lat="36.68577189557254" lon="137.83620863221586">
        <ele>788.81</ele>
        <time>2025-07-08T14:08:28.141Z</time>
      </trkpt>
      <trkpt lat="36.685771560296416" lon="137.83620879985392">
        <ele>788.62</ele>
        <time>2025-07-08T14:08:28.922Z</time>
      </trkpt>
      <trkpt lat="36.68577030301094" lon="137.83620921894908">
        <ele>788.42</ele>
        <time>2025-07-08T14:08:29.703Z</time>
      </trkpt>
      <trkpt lat="36.685768039897084" lon="137.83620988950133">
        <ele>788.19</ele>
        <time>2025-07-08T14:08:30.484Z</time>
      </trkpt>
      <trkpt lat="36.68576594442129" lon="137.83621047623456">
        <ele>787.93</ele>
        <time>2025-07-08T14:08:31.265Z</time>
      </trkpt>
      <trkpt lat="36.68567843735218" lon="137.83638146705925">
        <ele>787.55</ele>
        <time>2025-07-08T14:08:32.049Z</time>
      </trkpt>
      <trkpt lat="36.68567826971412" lon="137.8363818861544">
        <ele>787.24</ele>
        <time>2025-07-08T14:08:32.833Z</time>
      </trkpt>
      <trkpt lat="36.68567759916186" lon="137.83638339489698">
        <ele>786.91</ele>
        <time>2025-07-08T14:08:33.617Z</time>
      </trkpt>
      <trkpt lat="36.68567659333348" lon="137.83638549037278">
        <ele>786.54</ele>
        <time>2025-07-08T14:08:34.401Z</time>
      </trkpt>
      <trkpt lat="36.6856755875051" lon="137.83638758584857">
        <ele>786.15</ele>
        <time>2025-07-08T14:08:35.185Z</time>
      </trkpt>
      <trkpt lat="36.685658656060696" lon="137.83662244677544">
        <ele>785.62</ele>
        <time>2025-07-08T14:08:35.972Z</time>
      </trkpt>
      <trkpt lat="36.685658656060696" lon="137.8366228658706">
        <ele>785.17</ele>
        <time>2025-07-08T14:08:36.759Z</time>
      </trkpt>
      <trkpt lat="36.685658572241664" lon="137.83662462607026">
        <ele>784.69</ele>
        <time>2025-07-08T14:08:37.546Z</time>
      </trkpt>
      <trkpt lat="36.68565848842263" lon="137.83662688918412">
        <ele>784.18</ele>
        <time>2025-07-08T14:08:38.333Z</time>
      </trkpt>
      <trkpt lat="36.6856584046036" lon="137.8366289846599">
        <ele>783.65</ele>
        <time>2025-07-08T14:08:39.120Z</time>
      </trkpt>
      <trkpt lat="36.68555329553783" lon="137.83699820749462">
        <ele>782.96</ele>
        <time>2025-07-08T14:08:39.912Z</time>
      </trkpt>
      <trkpt lat="36.68549227528274" lon="137.8372121974826">
        <ele>782.32</ele>
        <time>2025-07-08T14:08:40.707Z</time>
      </trkpt>
      <trkpt lat="36.68549219146371" lon="137.8372125327587">
        <ele>781.71</ele>
        <time>2025-07-08T14:08:41.502Z</time>
      </trkpt>
      <trkpt lat="36.68549177236855" lon="137.83721420913935">
        <ele>781.08</ele>
        <time>2025-07-08T14:08:42.297Z</time>
      </trkpt>
      <trkpt lat="36.68549118563533" lon="137.83721655607224">
        <ele>780.42</ele>
        <time>2025-07-08T14:08:43.092Z</time>
      </trkpt>
      <trkpt lat="36.685490598902106" lon="137.8372188191861">
        <ele>779.74</ele>
        <time>2025-07-08T14:08:43.887Z</time>
      </trkpt>
      <trkpt lat="36.685398230329156" lon="137.83759323880076">
        <ele>778.93</ele>
        <time>2025-07-08T14:08:44.687Z</time>
      </trkpt>
      <trkpt lat="36.685305861756206" lon="137.83796765841544">
        <ele>778.16</ele>
        <time>2025-07-08T14:08:45.492Z</time>
      </trkpt>
      <trkpt lat="36.685213493183255" lon="137.8383420780301">
        <ele>777.42</ele>
        <time>2025-07-08T14:08:46.302Z</time>
      </trkpt>
      <trkpt lat="36.68513067997992" lon="137.8386771865189">
        <ele>776.62</ele>
        <time>2025-07-08T14:08:47.117Z</time>
      </trkpt>
      <trkpt lat="36.68513059616089" lon="137.83867760561407">
        <ele>775.88</ele>
        <time>2025-07-08T14:08:47.932Z</time>
      </trkpt>
      <trkpt lat="36.68513026088476" lon="137.8386792819947">
        <ele>775.12</ele>
        <time>2025-07-08T14:08:48.747Z</time>
      </trkpt>
      <trkpt lat="36.68512975797057" lon="137.83868146128953">
        <ele>774.36</ele>
        <time>2025-07-08T14:08:49.562Z</time>
      </trkpt>
      <trkpt lat="36.68512925505638" lon="137.83868355676532">
        <ele>773.6</ele>
        <time>2025-07-08T14:08:50.377Z</time>
      </trkpt>
      <trkpt lat="36.68503831140697" lon="137.83905847929418">
        <ele>772.77</ele>
        <time>2025-07-08T14:08:51.197Z</time>
      </trkpt>
      <trkpt lat="36.68494736775756" lon="137.83943348564208">
        <ele>771.95</ele>
        <time>2025-07-08T14:08:52.022Z</time>
      </trkpt>
      <trkpt lat="36.68485650792718" lon="137.83980840817094">
        <ele>771.18</ele>
        <time>2025-07-08T14:08:52.852Z</time>
      </trkpt>
      <trkpt lat="36.68476556427777" lon="137.84018341451883">
        <ele>770.35</ele>
        <time>2025-07-08T14:08:53.687Z</time>
      </trkpt>
      <trkpt lat="36.684683253988624" lon="137.8405223786831">
        <ele>769.46</ele>
        <time>2025-07-08T14:08:54.526Z</time>
      </trkpt>
      <trkpt lat="36.68468317016959" lon="137.84052279777825">
        <ele>768.71</ele>
        <time>2025-07-08T14:08:55.365Z</time>
      </trkpt>
      <trkpt lat="36.684682834893465" lon="137.84052447415888">
        <ele>767.98</ele>
        <time>2025-07-08T14:08:56.204Z</time>
      </trkpt>
      <trkpt lat="36.684682331979275" lon="137.8405266534537">
        <ele>767.26</ele>
        <time>2025-07-08T14:08:57.043Z</time>
      </trkpt>
      <trkpt lat="36.684681829065084" lon="137.8405287489295">
        <ele>766.56</ele>
        <time>2025-07-08T14:08:57.882Z</time>
      </trkpt>
      <trkpt lat="36.6845893766731" lon="137.84090316854417">
        <ele>765.85</ele>
        <time>2025-07-08T14:08:58.726Z</time>
      </trkpt>
      <trkpt lat="36.68449692428112" lon="137.84127758815885">
        <ele>765.14</ele>
        <time>2025-07-08T14:08:59.576Z</time>
      </trkpt>
      <trkpt lat="36.68440447188914" lon="137.8416519239545">
        <ele>764.37</ele>
        <time>2025-07-08T14:09:00.431Z</time>
      </trkpt>
      <trkpt lat="36.684312019497156" lon="137.84202634356916">
        <ele>763.57</ele>
        <time>2025-07-08T14:09:01.291Z</time>
      </trkpt>
      <trkpt lat="36.684266086667776" lon="137.84221149981022">
        <ele>762.94</ele>
        <time>2025-07-08T14:09:02.153Z</time>
      </trkpt>
      <trkpt lat="36.684266002848744" lon="137.84221191890538">
        <ele>762.39</ele>
        <time>2025-07-08T14:09:03.015Z</time>
      </trkpt>
      <trkpt lat="36.68426566757262" lon="137.84221351146698">
        <ele>761.88</ele>
        <time>2025-07-08T14:09:03.877Z</time>
      </trkpt>
      <trkpt lat="36.684265080839396" lon="137.84221602603793">
        <ele>761.4</ele>
        <time>2025-07-08T14:09:04.739Z</time>
      </trkpt>
      <trkpt lat="36.684264577925205" lon="137.84221845678985">
        <ele>760.95</ele>
        <time>2025-07-08T14:09:05.601Z</time>
      </trkpt>
      <trkpt lat="36.68416449800134" lon="137.84258985891938">
        <ele>760.58</ele>
        <time>2025-07-08T14:09:06.468Z</time>
      </trkpt>
      <trkpt lat="36.684081265702844" lon="137.8428985644132">
        <ele>760.22</ele>
        <time>2025-07-08T14:09:07.339Z</time>
      </trkpt>
      <trkpt lat="36.68408118188381" lon="137.84289898350835">
        <ele>759.85</ele>
        <time>2025-07-08T14:09:08.210Z</time>
      </trkpt>
      <trkpt lat="36.68408076278865" lon="137.84290057606995">
        <ele>759.49</ele>
        <time>2025-07-08T14:09:09.081Z</time>
      </trkpt>
      <trkpt lat="36.68408017605543" lon="137.84290300682187">
        <ele>759.16</ele>
        <time>2025-07-08T14:09:09.952Z</time>
      </trkpt>
      <trkpt lat="36.68407958932221" lon="137.84290526993573">
        <ele>758.83</ele>
        <time>2025-07-08T14:09:10.823Z</time>
      </trkpt>
      <trkpt lat="36.68397347442806" lon="137.84327398985624">
        <ele>758.45</ele>
        <time>2025-07-08T14:09:11.700Z</time>
      </trkpt>
      <trkpt lat="36.68393952772021" lon="137.8433915041387">
        <ele>758.11</ele>
        <time>2025-07-08T14:09:12.578Z</time>
      </trkpt>
      <trkpt lat="36.68393944390118" lon="137.84339192323387">
        <ele>757.82</ele>
        <time>2025-07-08T14:09:13.456Z</time>
      </trkpt>
      <trkpt lat="36.68393902480602" lon="137.84339351579547">
        <ele>757.53</ele>
        <time>2025-07-08T14:09:14.334Z</time>
      </trkpt>
      <trkpt lat="36.68393827043474" lon="137.84339619800448">
        <ele>757.24</ele>
        <time>2025-07-08T14:09:15.212Z</time>
      </trkpt>
      <trkpt lat="36.68393759988248" lon="137.8433988802135">
        <ele>756.94</ele>
        <time>2025-07-08T14:09:16.090Z</time>
      </trkpt>
      <trkpt lat="36.68386082164943" lon="137.8437786642462">
        <ele>756.59</ele>
        <time>2025-07-08T14:09:16.973Z</time>
      </trkpt>
      <trkpt lat="36.68380977585912" lon="137.84403012134135">
        <ele>756.25</ele>
        <time>2025-07-08T14:09:17.860Z</time>
      </trkpt>
      <trkpt lat="36.683809692040086" lon="137.84403062425554">
        <ele>755.94</ele>
        <time>2025-07-08T14:09:18.747Z</time>
      </trkpt>
      <trkpt lat="36.68380944058299" lon="137.84403221681714">
        <ele>755.61</ele>
        <time>2025-07-08T14:09:19.634Z</time>
      </trkpt>
      <trkpt lat="36.6838089376688" lon="137.84403481520712">
        <ele>755.28</ele>
        <time>2025-07-08T14:09:20.521Z</time>
      </trkpt>
      <trkpt lat="36.68380851857364" lon="137.84403732977808">
        <ele>754.93</ele>
        <time>2025-07-08T14:09:21.408Z</time>
      </trkpt>
      <trkpt lat="36.683680610731244" lon="137.8441550116986">
        <ele>754.52</ele>
        <time>2025-07-08T14:09:22.297Z</time>
      </trkpt>
      <trkpt lat="36.68368035927415" lon="137.84415534697473">
        <ele>754.13</ele>
        <time>2025-07-08T14:09:23.186Z</time>
      </trkpt>
      <trkpt lat="36.68367935344577" lon="137.8441563528031">
        <ele>753.73</ele>
        <time>2025-07-08T14:09:24.075Z</time>
      </trkpt>
      <trkpt lat="36.683677257969975" lon="137.84415836445987">
        <ele>753.3</ele>
        <time>2025-07-08T14:09:24.964Z</time>
      </trkpt>
      <trkpt lat="36.68367516249418" lon="137.84416037611663">
        <ele>752.85</ele>
        <time>2025-07-08T14:09:25.853Z</time>
      </trkpt>
      <trkpt lat="36.68351129628718" lon="137.8444948978722">
        <ele>752.32</ele>
        <time>2025-07-08T14:09:26.747Z</time>
      </trkpt>
      <trkpt lat="36.683347346261144" lon="137.84482941962779">
        <ele>751.75</ele>
        <time>2025-07-08T14:09:27.646Z</time>
      </trkpt>
      <trkpt lat="36.68320510536432" lon="137.84511926583946">
        <ele>751.12</ele>
        <time>2025-07-08T14:09:28.550Z</time>
      </trkpt>
      <trkpt lat="36.68320493772626" lon="137.84511968493462">
        <ele>750.58</ele>
        <time>2025-07-08T14:09:29.454Z</time>
      </trkpt>
      <trkpt lat="36.683204267174006" lon="137.84512110985816">
        <ele>750.02</ele>
        <time>2025-07-08T14:09:30.358Z</time>
      </trkpt>
      <trkpt lat="36.68320309370756" lon="137.8451236244291">
        <ele>749.45</ele>
        <time>2025-07-08T14:09:31.262Z</time>
      </trkpt>
      <trkpt lat="36.68320200406015" lon="137.84512605518103">
        <ele>748.85</ele>
        <time>2025-07-08T14:09:32.166Z</time>
      </trkpt>
      <trkpt lat="36.68303109705448" lon="137.84545521251857">
        <ele>748.19</ele>
        <time>2025-07-08T14:09:33.075Z</time>
      </trkpt>
      <trkpt lat="36.682860273867846" lon="137.84578436985612">
        <ele>747.5</ele>
        <time>2025-07-08T14:09:33.989Z</time>
      </trkpt>
      <trkpt lat="36.68268936686218" lon="137.84611352719367">
        <ele>746.8</ele>
        <time>2025-07-08T14:09:34.908Z</time>
      </trkpt>
      <trkpt lat="36.68251854367554" lon="137.8464426845312">
        <ele>746.09</ele>
        <time>2025-07-08T14:09:35.832Z</time>
      </trkpt>
      <trkpt lat="36.682347720488906" lon="137.84677184186876">
        <ele>745.31</ele>
        <time>2025-07-08T14:09:36.761Z</time>
      </trkpt>
      <trkpt lat="36.682345205917954" lon="137.8467764519155">
        <ele>744.66</ele>
        <time>2025-07-08T14:09:37.690Z</time>
      </trkpt>
      <trkpt lat="36.68234503827989" lon="137.84677678719163">
        <ele>744.0</ele>
        <time>2025-07-08T14:09:38.619Z</time>
      </trkpt>
      <trkpt lat="36.682344283908606" lon="137.8467782959342">
        <ele>743.34</ele>
        <time>2025-07-08T14:09:39.548Z</time>
      </trkpt>
      <trkpt lat="36.6823429428041" lon="137.84678097814322">
        <ele>742.68</ele>
        <time>2025-07-08T14:09:40.477Z</time>
      </trkpt>
      <trkpt lat="36.68234160169959" lon="137.84678366035223">
        <ele>742.02</ele>
        <time>2025-07-08T14:09:41.406Z</time>
      </trkpt>
      <trkpt lat="36.68219022452831" lon="137.84712723456323">
        <ele>741.29</ele>
        <time>2025-07-08T14:09:42.340Z</time>
      </trkpt>
      <trkpt lat="36.682038847357035" lon="137.8474707249552">
        <ele>740.64</ele>
        <time>2025-07-08T14:09:43.279Z</time>
      </trkpt>
      <trkpt lat="36.681914292275906" lon="137.84775302745402">
        <ele>739.92</ele>
        <time>2025-07-08T14:09:44.223Z</time>
      </trkpt>
      <trkpt lat="36.68191412463784" lon="137.84775344654918">
        <ele>739.27</ele>
        <time>2025-07-08T14:09:45.167Z</time>
      </trkpt>
      <trkpt lat="36.68191353790462" lon="137.84775495529175">
        <ele>738.62</ele>
        <time>2025-07-08T14:09:46.111Z</time>
      </trkpt>
      <trkpt lat="36.68191244825721" lon="137.84775755368173">
        <ele>737.97</ele>
        <time>2025-07-08T14:09:47.055Z</time>
      </trkpt>
      <trkpt lat="36.681911358609796" lon="137.84776015207171">
        <ele>737.33</ele>
        <time>2025-07-08T14:09:47.999Z</time>
      </trkpt>
      <trkpt lat="36.68177339248359" lon="137.84811227582395">
        <ele>736.67</ele>
        <time>2025-07-08T14:09:48.948Z</time>
      </trkpt>
      <trkpt lat="36.68163542635739" lon="137.8484643995762">
        <ele>736.09</ele>
        <time>2025-07-08T14:09:49.902Z</time>
      </trkpt>
      <trkpt lat="36.681497460231185" lon="137.84881652332842">
        <ele>735.35</ele>
        <time>2025-07-08T14:09:50.861Z</time>
      </trkpt>
      <trkpt lat="36.68135949410498" lon="137.84916864708066">
        <ele>734.61</ele>
        <time>2025-07-08T14:09:51.825Z</time>
      </trkpt>
      <trkpt lat="36.68127299286425" lon="137.8493886720389">
        <ele>733.94</ele>
        <time>2025-07-08T14:09:52.792Z</time>
      </trkpt>
      <trkpt lat="36.68127290904522" lon="137.84938909113407">
        <ele>733.34</ele>
        <time>2025-07-08T14:09:53.759Z</time>
      </trkpt>
      <trkpt lat="36.681272322312" lon="137.84939068369567">
        <ele>732.76</ele>
        <time>2025-07-08T14:09:54.726Z</time>
      </trkpt>
      <trkpt lat="36.68127131648362" lon="137.84939344972372">
        <ele>732.2</ele>
        <time>2025-07-08T14:09:55.693Z</time>
      </trkpt>
      <trkpt lat="36.681270310655236" lon="137.84939613193274">
        <ele>731.64</ele>
        <time>2025-07-08T14:09:56.660Z</time>
      </trkpt>
      <trkpt lat="36.68111893348396" lon="137.8497396223247">
        <ele>731.11</ele>
        <time>2025-07-08T14:09:57.632Z</time>
      </trkpt>
      <trkpt lat="36.68096755631268" lon="137.8500831965357">
        <ele>730.5</ele>
        <time>2025-07-08T14:09:58.609Z</time>
      </trkpt>
      <trkpt lat="36.68084308505058" lon="137.85036507993937">
        <ele>729.92</ele>
        <time>2025-07-08T14:09:59.590Z</time>
      </trkpt>
      <trkpt lat="36.68084300123155" lon="137.85036549903452">
        <ele>729.43</ele>
        <time>2025-07-08T14:10:00.571Z</time>
      </trkpt>
      <trkpt lat="36.68084241449833" lon="137.8503670077771">
        <ele>728.96</ele>
        <time>2025-07-08T14:10:01.552Z</time>
      </trkpt>
      <trkpt lat="36.680841241031885" lon="137.85036977380514">
        <ele>728.5</ele>
        <time>2025-07-08T14:10:02.533Z</time>
      </trkpt>
      <trkpt lat="36.68084015138447" lon="137.85037237219512">
        <ele>728.07</ele>
        <time>2025-07-08T14:10:03.514Z</time>
      </trkpt>
      <trkpt lat="36.6806383151561" lon="137.85064461641014">
        <ele>727.63</ele>
        <time>2025-07-08T14:10:04.500Z</time>
      </trkpt>
      <trkpt lat="36.68063814751804" lon="137.85064495168626">
        <ele>727.23</ele>
        <time>2025-07-08T14:10:05.486Z</time>
      </trkpt>
      <trkpt lat="36.68063722550869" lon="137.85064629279077">
        <ele>726.86</ele>
        <time>2025-07-08T14:10:06.472Z</time>
      </trkpt>
      <trkpt lat="36.68063538148999" lon="137.85064880736172">
        <ele>726.49</ele>
        <time>2025-07-08T14:10:07.458Z</time>
      </trkpt>
      <trkpt lat="36.680633621290326" lon="137.85065132193267">
        <ele>726.15</ele>
        <time>2025-07-08T14:10:08.444Z</time>
      </trkpt>
      <trkpt lat="36.68051099404693" lon="137.85101207904518">
        <ele>725.8</ele>
        <time>2025-07-08T14:10:09.435Z</time>
      </trkpt>
      <trkpt lat="36.68040806427598" lon="137.85131433047354">
        <ele>725.42</ele>
        <time>2025-07-08T14:10:10.431Z</time>
      </trkpt>
      <trkpt lat="36.68040798045695" lon="137.8513147495687">
        <ele>725.13</ele>
        <time>2025-07-08T14:10:11.427Z</time>
      </trkpt>
      <trkpt lat="36.68040747754276" lon="137.8513163421303">
        <ele>724.87</ele>
        <time>2025-07-08T14:10:12.423Z</time>
      </trkpt>
      <trkpt lat="36.68040655553341" lon="137.85131919197738">
        <ele>724.63</ele>
        <time>2025-07-08T14:10:13.419Z</time>
      </trkpt>
      <trkpt lat="36.68040563352406" lon="137.85132204182446">
        <ele>724.42</ele>
        <time>2025-07-08T14:10:14.415Z</time>
      </trkpt>
      <trkpt lat="36.68034712783992" lon="137.85157148726285">
        <ele>724.14</ele>
        <time>2025-07-08T14:10:15.414Z</time>
      </trkpt>
      <trkpt lat="36.68034704402089" lon="137.851571906358">
        <ele>723.97</ele>
        <time>2025-07-08T14:10:16.413Z</time>
      </trkpt>
      <trkpt lat="36.680346708744764" lon="137.85157358273864">
        <ele>723.83</ele>
        <time>2025-07-08T14:10:17.412Z</time>
      </trkpt>
      <trkpt lat="36.68034603819251" lon="137.85157660022378">
        <ele>723.7</ele>
        <time>2025-07-08T14:10:18.411Z</time>
      </trkpt>
      <trkpt lat="36.68034536764026" lon="137.8515795338899">
        <ele>723.61</ele>
        <time>2025-07-08T14:10:19.410Z</time>
      </trkpt>
      <trkpt lat="36.68033044785261" lon="137.85197063349187">
        <ele>723.5</ele>
        <time>2025-07-08T14:10:20.414Z</time>
      </trkpt>
      <trkpt lat="36.68032835237682" lon="137.85202109254897">
        <ele>723.45</ele>
        <time>2025-07-08T14:10:21.419Z</time>
      </trkpt>
      <trkpt lat="36.68032835237682" lon="137.85202151164412">
        <ele>723.43</ele>
        <time>2025-07-08T14:10:22.424Z</time>
      </trkpt>
      <trkpt lat="36.68032835237682" lon="137.85202318802476">
        <ele>723.44</ele>
        <time>2025-07-08T14:10:23.429Z</time>
      </trkpt>
      <trkpt lat="36.68032826855779" lon="137.8520267084241">
        <ele>723.48</ele>
        <time>2025-07-08T14:10:24.434Z</time>
      </trkpt>
      <trkpt lat="36.680328184738755" lon="137.85203022882342">
        <ele>723.54</ele>
        <time>2025-07-08T14:10:25.439Z</time>
      </trkpt>
      <trkpt lat="36.68045793659985" lon="137.85207054577768">
        <ele>723.64</ele>
        <time>2025-07-08T14:10:26.446Z</time>
      </trkpt>
      <trkpt lat="36.68045827187598" lon="137.85207071341574">
        <ele>723.75</ele>
        <time>2025-07-08T14:10:27.453Z</time>
      </trkpt>
      <trkpt lat="36.680459612980485" lon="137.8520711325109">
        <ele>723.88</ele>
        <time>2025-07-08T14:10:28.460Z</time>
      </trkpt>
      <trkpt lat="36.68046271428466" lon="137.85207213833928">
        <ele>724.03</ele>
        <time>2025-07-08T14:10:29.467Z</time>
      </trkpt>
      <trkpt lat="36.68046581558883" lon="137.85207314416766">
        <ele>724.21</ele>
        <time>2025-07-08T14:10:30.474Z</time>
      </trkpt>
      <trkpt lat="36.68058886192739" lon="137.85193987190723">
        <ele>724.44</ele>
        <time>2025-07-08T14:10:31.484Z</time>
      </trkpt>
      <trkpt lat="36.680589113384485" lon="137.85193962045014">
        <ele>724.65</ele>
        <time>2025-07-08T14:10:32.494Z</time>
      </trkpt>
      <trkpt lat="36.6805902030319" lon="137.85193853080273">
        <ele>724.88</ele>
        <time>2025-07-08T14:10:33.504Z</time>
      </trkpt>
      <trkpt lat="36.680592549964786" lon="137.8519361000508">
        <ele>725.12</ele>
        <time>2025-07-08T14:10:34.514Z</time>
      </trkpt>
      <trkpt lat="36.680594896897674" lon="137.8519336692989">
        <ele>725.37</ele>
        <time>2025-07-08T14:10:35.524Z</time>
      </trkpt>
      <trkpt lat="36.68075457215309" lon="137.8518977947533">
        <ele>725.67</ele>
        <time>2025-07-08T14:10:36.536Z</time>
      </trkpt>
      <trkpt lat="36.68075457215309" lon="137.85189771093428">
        <ele>725.94</ele>
        <time>2025-07-08T14:10:37.548Z</time>
      </trkpt>
      <trkpt lat="36.6807559132576" lon="137.85189754329622">
        <ele>726.21</ele>
        <time>2025-07-08T14:10:38.560Z</time>
      </trkpt>
      <trkpt lat="36.6807593498379" lon="137.85189678892493">
        <ele>726.49</ele>
        <time>2025-07-08T14:10:39.573Z</time>
      </trkpt>
      <trkpt lat="36.68076270259917" lon="137.85189611837268">
        <ele>726.78</ele>
        <time>2025-07-08T14:10:40.586Z</time>
      </trkpt>
      <trkpt lat="36.68099211528897" lon="137.85162731073797">
        <ele>727.15</ele>
        <time>2025-07-08T14:10:41.604Z</time>
      </trkpt>
      <trkpt lat="36.681040646508336" lon="137.8515700623393">
        <ele>727.44</ele>
        <time>2025-07-08T14:10:42.623Z</time>
      </trkpt>
      <trkpt lat="36.68104098178446" lon="137.8515698108822">
        <ele>727.72</ele>
        <time>2025-07-08T14:10:43.642Z</time>
      </trkpt>
      <trkpt lat="36.68104198761284" lon="137.8515687212348">
        <ele>727.99</ele>
        <time>2025-07-08T14:10:44.661Z</time>
      </trkpt>
      <trkpt lat="36.68104433454573" lon="137.85156603902578">
        <ele>728.25</ele>
        <time>2025-07-08T14:10:45.680Z</time>
      </trkpt>
      <trkpt lat="36.68104659765959" lon="137.8515634406358">
        <ele>728.5</ele>
        <time>2025-07-08T14:10:46.699Z</time>
      </trkpt>
      <trkpt lat="36.681090937927365" lon="137.8514273185283">
        <ele>728.77</ele>
        <time>2025-07-08T14:10:47.720Z</time>
      </trkpt>
      <trkpt lat="36.68109110556543" lon="137.85142689943314">
        <ele>728.99</ele>
        <time>2025-07-08T14:10:48.741Z</time>
      </trkpt>
      <trkpt lat="36.68109169229865" lon="137.85142530687153">
        <ele>729.2</ele>
        <time>2025-07-08T14:10:49.762Z</time>
      </trkpt>
      <trkpt lat="36.681092865765095" lon="137.85142187029123">
        <ele>729.39</ele>
        <time>2025-07-08T14:10:50.783Z</time>
      </trkpt>
      <trkpt lat="36.68109395541251" lon="137.851418601349">
        <ele>729.57</ele>
        <time>2025-07-08T14:10:51.804Z</time>
      </trkpt>
      <trkpt lat="36.680806539952755" lon="137.851257417351">
        <ele>729.72</ele>
        <time>2025-07-08T14:10:52.830Z</time>
      </trkpt>
      <trkpt lat="36.68051904067397" lon="137.85109623335302">
        <ele>729.83</ele>
        <time>2025-07-08T14:10:53.861Z</time>
      </trkpt>
      <trkpt lat="36.68023162521422" lon="137.85093513317406">
        <ele>729.95</ele>
        <time>2025-07-08T14:10:54.897Z</time>
      </trkpt>
      <trkpt lat="36.67994420975447" lon="137.85077394917607">
        <ele>730.12</ele>
        <time>2025-07-08T14:10:55.938Z</time>
      </trkpt>
      <trkpt lat="36.67965671047568" lon="137.85061276517808">
        <ele>730.27</ele>
        <time>2025-07-08T14:10:56.984Z</time>
      </trkpt>
      <trkpt lat="36.67936929501593" lon="137.8504515811801">
        <ele>730.31</ele>
        <time>2025-07-08T14:10:58.035Z</time>
      </trkpt>
      <trkpt lat="36.67908187955618" lon="137.85029048100114">
        <ele>730.33</ele>
        <time>2025-07-08T14:10:59.091Z</time>
      </trkpt>
      <trkpt lat="36.678794380277395" lon="137.85012929700315">
        <ele>730.35</ele>
        <time>2025-07-08T14:11:00.152Z</time>
      </trkpt>
      <trkpt lat="36.678546611219645" lon="137.84999032504857">
        <ele>730.35</ele>
        <time>2025-07-08T14:11:01.218Z</time>
      </trkpt>
      <trkpt lat="36.67854627594352" lon="137.8499901574105">
        <ele>730.32</ele>
        <time>2025-07-08T14:11:02.284Z</time>
      </trkpt>
      <trkpt lat="36.67854493483901" lon="137.84998940303922">
        <ele>730.27</ele>
        <time>2025-07-08T14:11:03.350Z</time>
      </trkpt>
      <trkpt lat="36.67854166589677" lon="137.84998755902052">
        <ele>730.2</ele>
        <time>2025-07-08T14:11:04.416Z</time>
      </trkpt>
      <trkpt lat="36.67853848077357" lon="137.84998579882085">
        <ele>730.11</ele>
        <time>2025-07-08T14:11:05.482Z</time>
      </trkpt>
      <trkpt lat="36.67826673947275" lon="137.8497868962586">
        <ele>729.97</ele>
        <time>2025-07-08T14:11:06.553Z</time>
      </trkpt>
      <trkpt lat="36.67799508199096" lon="137.84958799369633">
        <ele>729.79</ele>
        <time>2025-07-08T14:11:07.629Z</time>
      </trkpt>
      <trkpt lat="36.67772342450917" lon="137.84938909113407">
        <ele>729.64</ele>
        <time>2025-07-08T14:11:08.710Z</time>
      </trkpt>
      <trkpt lat="36.677608005702496" lon="137.84930451773107">
        <ele>729.48</ele>
        <time>2025-07-08T14:11:09.793Z</time>
      </trkpt>
      <trkpt lat="36.67760767042637" lon="137.849304350093">
        <ele>729.3</ele>
        <time>2025-07-08T14:11:10.876Z</time>
      </trkpt>
      <trkpt lat="36.67760641314089" lon="137.84930342808366">
        <ele>729.1</ele>
        <time>2025-07-08T14:11:11.959Z</time>
      </trkpt>
      <trkpt lat="36.67760339565575" lon="137.84930124878883">
        <ele>728.88</ele>
        <time>2025-07-08T14:11:13.042Z</time>
      </trkpt>
      <trkpt lat="36.67760054580867" lon="137.84929915331304">
        <ele>728.65</ele>
        <time>2025-07-08T14:11:14.125Z</time>
      </trkpt>
      <trkpt lat="36.6772953607142" lon="137.8492004983127">
        <ele>728.42</ele>
        <time>2025-07-08T14:11:15.213Z</time>
      </trkpt>
      <trkpt lat="36.67706284672022" lon="137.84912531264126">
        <ele>728.14</ele>
        <time>2025-07-08T14:11:16.305Z</time>
      </trkpt>
      <trkpt lat="36.67706276290119" lon="137.84912522882223">
        <ele>727.88</ele>
        <time>2025-07-08T14:11:17.397Z</time>
      </trkpt>
      <trkpt lat="36.67706142179668" lon="137.8491248935461">
        <ele>727.62</ele>
        <time>2025-07-08T14:11:18.489Z</time>
      </trkpt>
      <trkpt lat="36.677057733759284" lon="137.84912372007966">
        <ele>727.35</ele>
        <time>2025-07-08T14:11:19.581Z</time>
      </trkpt>
      <trkpt lat="36.67705412954092" lon="137.84912254661322">
        <ele>727.08</ele>
        <time>2025-07-08T14:11:20.673Z</time>
      </trkpt>
      <trkpt lat="36.67699193581939" lon="137.8488849196583">
        <ele>726.8</ele>
        <time>2025-07-08T14:11:21.768Z</time>
      </trkpt>
      <trkpt lat="36.676991852000356" lon="137.84888450056314">
        <ele>726.53</ele>
        <time>2025-07-08T14:11:22.863Z</time>
      </trkpt>
      <trkpt lat="36.6769914329052" lon="137.84888274036348">
        <ele>726.27</ele>
        <time>2025-07-08T14:11:23.958Z</time>
      </trkpt>
      <trkpt lat="36.67699051089585" lon="137.84887921996415">
        <ele>726.01</ele>
        <time>2025-07-08T14:11:25.053Z</time>
      </trkpt>
      <trkpt lat="36.6769895888865" lon="137.84887569956481">
        <ele>725.77</ele>
        <time>2025-07-08T14:11:26.148Z</time>
      </trkpt>
      <trkpt lat="36.676713405177" lon="137.84868677146733">
        <ele>725.39</ele>
        <time>2025-07-08T14:11:27.248Z</time>
      </trkpt>
      <trkpt lat="36.67646429501474" lon="137.8485161997378">
        <ele>725.14</ele>
        <time>2025-07-08T14:11:28.353Z</time>
      </trkpt>
      <trkpt lat="36.67646395973861" lon="137.84851603209972">
        <ele>724.94</ele>
        <time>2025-07-08T14:11:29.458Z</time>
      </trkpt>
      <trkpt lat="36.676462618634105" lon="137.8485151939094">
        <ele>724.77</ele>
        <time>2025-07-08T14:11:30.563Z</time>
      </trkpt>
      <trkpt lat="36.67645934969187" lon="137.84851301461458">
        <ele>724.62</ele>
        <time>2025-07-08T14:11:31.668Z</time>
      </trkpt>
      <trkpt lat="36.67645616456866" lon="137.84851083531976">
        <ele>724.49</ele>
        <time>2025-07-08T14:11:32.773Z</time>
      </trkpt>
      <trkpt lat="36.676236893981695" lon="137.84843338653445">
        <ele>724.42</ele>
        <time>2025-07-08T14:11:33.882Z</time>
      </trkpt>
      <trkpt lat="36.67623681016266" lon="137.84843330271542">
        <ele>724.35</ele>
        <time>2025-07-08T14:11:34.991Z</time>
      </trkpt>
      <trkpt lat="36.676235469058156" lon="137.84843288362026">
        <ele>724.31</ele>
        <time>2025-07-08T14:11:36.100Z</time>
      </trkpt>
      <trkpt lat="36.67623178102076" lon="137.8484316263348">
        <ele>724.3</ele>
        <time>2025-07-08T14:11:37.209Z</time>
      </trkpt>
      <trkpt lat="36.676228092983365" lon="137.8484303690493">
        <ele>724.32</ele>
        <time>2025-07-08T14:11:38.318Z</time>
      </trkpt>
      <trkpt lat="36.676344936713576" lon="137.8480666782707">
        <ele>724.43</ele>
        <time>2025-07-08T14:11:39.432Z</time>
      </trkpt>
      <trkpt lat="36.6763452719897" lon="137.84806516952813">
        <ele>724.52</ele>
        <time>2025-07-08T14:11:40.546Z</time>
      </trkpt>
      <trkpt lat="36.67634543962777" lon="137.848064834252">
        <ele>724.63</ele>
        <time>2025-07-08T14:11:41.660Z</time>
      </trkpt>
      <trkpt lat="36.67634602636099" lon="137.84806307405233">
        <ele>724.78</ele>
        <time>2025-07-08T14:11:42.774Z</time>
      </trkpt>
      <trkpt lat="36.676347283646464" lon="137.84805921837687">
        <ele>724.96</ele>
        <time>2025-07-08T14:11:43.888Z</time>
      </trkpt>
      <trkpt lat="36.67634854093194" lon="137.84805527888238">
        <ele>725.17</ele>
        <time>2025-07-08T14:11:45.002Z</time>
      </trkpt>
      <trkpt lat="36.67661567218602" lon="137.84822174347937">
        <ele>725.31</ele>
        <time>2025-07-08T14:11:46.121Z</time>
      </trkpt>
      <trkpt lat="36.67661575600505" lon="137.84822174347937">
        <ele>725.58</ele>
        <time>2025-07-08T14:11:47.240Z</time>
      </trkpt>
      <trkpt lat="36.67661692947149" lon="137.8482225816697">
        <ele>725.88</ele>
        <time>2025-07-08T14:11:48.359Z</time>
      </trkpt>
      <trkpt lat="36.67662036605179" lon="137.84822467714548">
        <ele>726.2</ele>
        <time>2025-07-08T14:11:49.478Z</time>
      </trkpt>
      <trkpt lat="36.67662397027016" lon="137.84822694025934">
        <ele>726.55</ele>
        <time>2025-07-08T14:11:50.597Z</time>
      </trkpt>
      <trkpt lat="36.6768238786608" lon="137.84792410209775">
        <ele>727.0</ele>
        <time>2025-07-08T14:11:51.721Z</time>
      </trkpt>
      <trkpt lat="36.676940973848104" lon="137.84774632193148">
        <ele>727.45</ele>
        <time>2025-07-08T14:11:52.848Z</time>
      </trkpt>
      <trkpt lat="36.6769412253052" lon="137.8477460704744">
        <ele>727.86</ele>
        <time>2025-07-08T14:11:53.975Z</time>
      </trkpt>
      <trkpt lat="36.67694223113358" lon="137.84774464555085">
        <ele>728.28</ele>
        <time>2025-07-08T14:11:55.102Z</time>
      </trkpt>
      <trkpt lat="36.676944410428405" lon="137.84774146042764">
        <ele>728.71</ele>
        <time>2025-07-08T14:11:56.229Z</time>
      </trkpt>
      <trkpt lat="36.67694658972323" lon="137.8477381914854">
        <ele>729.15</ele>
        <time>2025-07-08T14:11:57.356Z</time>
      </trkpt>
      <trkpt lat="36.677060667425394" lon="137.84737315960228">
        <ele>729.73</ele>
        <time>2025-07-08T14:11:58.488Z</time>
      </trkpt>
      <trkpt lat="36.67717474512756" lon="137.84700804390013">
        <ele>730.55</ele>
        <time>2025-07-08T14:11:59.625Z</time>
      </trkpt>
      <trkpt lat="36.677201483398676" lon="137.84692196175456">
        <ele>731.06</ele>
        <time>2025-07-08T14:12:00.763Z</time>
      </trkpt>
      <trkpt lat="36.67720165103674" lon="137.8469215426594">
        <ele>731.45</ele>
        <time>2025-07-08T14:12:01.901Z</time>
      </trkpt>
      <trkpt lat="36.67720223776996" lon="137.84691978245974">
        <ele>731.82</ele>
        <time>2025-07-08T14:12:03.039Z</time>
      </trkpt>
      <trkpt lat="36.67720349505544" lon="137.84691584296525">
        <ele>732.19</ele>
        <time>2025-07-08T14:12:04.178Z</time>
      </trkpt>
      <trkpt lat="36.67720475234091" lon="137.84691190347075">
        <ele>732.51</ele>
        <time>2025-07-08T14:12:05.317Z</time>
      </trkpt>
      <trkpt lat="36.67722914367914" lon="137.84652155824006">
        <ele>732.99</ele>
        <time>2025-07-08T14:12:06.461Z</time>
      </trkpt>
      <trkpt lat="36.67725345119834" lon="137.84613112919033">
        <ele>732.92</ele>
        <time>2025-07-08T14:12:07.610Z</time>
      </trkpt>
      <trkpt lat="36.67726409621537" lon="137.84595712088048">
        <ele>732.98</ele>
        <time>2025-07-08T14:12:08.761Z</time>
      </trkpt>
      <trkpt lat="36.6772641800344" lon="137.84595670178533">
        <ele>733.23</ele>
        <time>2025-07-08T14:12:09.912Z</time>
      </trkpt>
      <trkpt lat="36.67726434767246" lon="137.84595469012856">
        <ele>733.46</ele>
        <time>2025-07-08T14:12:11.063Z</time>
      </trkpt>
      <trkpt lat="36.67726468294859" lon="137.84595066681504">
        <ele>733.71</ele>
        <time>2025-07-08T14:12:12.214Z</time>
      </trkpt>
      <trkpt lat="36.677265018224716" lon="137.84594664350152">
        <ele>733.95</ele>
        <time>2025-07-08T14:12:13.365Z</time>
      </trkpt>
      <trkpt lat="36.67727247811854" lon="137.8455552086234">
        <ele>734.09</ele>
        <time>2025-07-08T14:12:14.521Z</time>
      </trkpt>
      <trkpt lat="36.67728002183139" lon="137.8451637737453">
        <ele>734.43</ele>
        <time>2025-07-08T14:12:15.682Z</time>
      </trkpt>
      <trkpt lat="36.67728186585009" lon="137.84506159834564">
        <ele>734.72</ele>
        <time>2025-07-08T14:12:16.844Z</time>
      </trkpt>
      <trkpt lat="36.67728194966912" lon="137.84506109543145">
        <ele>735.02</ele>
        <time>2025-07-08T14:12:18.006Z</time>
      </trkpt>
      <trkpt lat="36.677282033488154" lon="137.84505916759372">
        <ele>735.33</ele>
        <time>2025-07-08T14:12:19.168Z</time>
      </trkpt>
      <trkpt lat="36.677282117307186" lon="137.8450548928231">
        <ele>735.67</ele>
        <time>2025-07-08T14:12:20.331Z</time>
      </trkpt>
      <trkpt lat="36.67728220112622" lon="137.84505070187151">
        <ele>736.02</ele>
        <time>2025-07-08T14:12:21.494Z</time>
      </trkpt>
      <trkpt lat="36.6773815266788" lon="137.8446790482849">
        <ele>736.32</ele>
        <time>2025-07-08T14:12:22.662Z</time>
      </trkpt>
      <trkpt lat="36.677480936050415" lon="137.8443074785173">
        <ele>736.71</ele>
        <time>2025-07-08T14:12:23.835Z</time>
      </trkpt>
      <trkpt lat="36.677580261603" lon="137.84393582493067">
        <ele>737.28</ele>
        <time>2025-07-08T14:12:25.013Z</time>
      </trkpt>
      <trkpt lat="36.67767958715558" lon="137.84356417134404">
        <ele>737.99</ele>
        <time>2025-07-08T14:12:26.196Z</time>
      </trkpt>
      <trkpt lat="36.67773096822202" lon="137.84337121993303">
        <ele>738.59</ele>
        <time>2025-07-08T14:12:27.381Z</time>
      </trkpt>
      <trkpt lat="36.677731135860085" lon="137.84337080083787">
        <ele>739.04</ele>
        <time>2025-07-08T14:12:28.566Z</time>
      </trkpt>
      <trkpt lat="36.677731638774276" lon="137.84336895681918">
        <ele>739.51</ele>
        <time>2025-07-08T14:12:29.751Z</time>
      </trkpt>
      <trkpt lat="36.67773281224072" lon="137.84336493350565">
        <ele>739.97</ele>
        <time>2025-07-08T14:12:30.936Z</time>
      </trkpt>
      <trkpt lat="36.67773390188813" lon="137.8433610778302">
        <ele>740.44</ele>
        <time>2025-07-08T14:12:32.122Z</time>
      </trkpt>
      <trkpt lat="36.67781503871083" lon="137.842982634902">
        <ele>740.91</ele>
        <time>2025-07-08T14:12:33.313Z</time>
      </trkpt>
      <trkpt lat="36.67784764431417" lon="137.84282974898815">
        <ele>741.37</ele>
        <time>2025-07-08T14:12:34.506Z</time>
      </trkpt>
      <trkpt lat="36.67784781195223" lon="137.842829329893">
        <ele>741.83</ele>
        <time>2025-07-08T14:12:35.699Z</time>
      </trkpt>
      <trkpt lat="36.67784823104739" lon="137.84282740205526">
        <ele>742.29</ele>
        <time>2025-07-08T14:12:36.892Z</time>
      </trkpt>
      <trkpt lat="36.67784915305674" lon="137.84282321110368">
        <ele>742.74</ele>
        <time>2025-07-08T14:12:38.085Z</time>
      </trkpt>
      <trkpt lat="36.67785007506609" lon="137.84281918779016">
        <ele>743.18</ele>
        <time>2025-07-08T14:12:39.278Z</time>
      </trkpt>
      <trkpt lat="36.677993992343545" lon="137.84247075207531">
        <ele>743.62</ele>
        <time>2025-07-08T14:12:40.476Z</time>
      </trkpt>
      <trkpt lat="36.678137909621" lon="137.84212231636047">
        <ele>744.13</ele>
        <time>2025-07-08T14:12:41.679Z</time>
      </trkpt>
      <trkpt lat="36.67813824489713" lon="137.84212122671306">
        <ele>744.55</ele>
        <time>2025-07-08T14:12:42.882Z</time>
      </trkpt>
      <trkpt lat="36.67813841253519" lon="137.84212089143693">
        <ele>744.95</ele>
        <time>2025-07-08T14:12:44.085Z</time>
      </trkpt>
      <trkpt lat="36.678139166906476" lon="137.84211913123727">
        <ele>745.33</ele>
        <time>2025-07-08T14:12:45.288Z</time>
      </trkpt>
      <trkpt lat="36.67814092710614" lon="137.84211494028568">
        <ele>745.7</ele>
        <time>2025-07-08T14:12:46.491Z</time>
      </trkpt>
      <trkpt lat="36.67814268730581" lon="137.84211091697216">
        <ele>746.06</ele>
        <time>2025-07-08T14:12:47.694Z</time>
      </trkpt>
      <trkpt lat="36.67834058403969" lon="137.8418060671538">
        <ele>746.44</ele>
        <time>2025-07-08T14:12:48.902Z</time>
      </trkpt>
      <trkpt lat="36.67853848077357" lon="137.84150121733546">
        <ele>746.79</ele>
        <time>2025-07-08T14:12:50.115Z</time>
      </trkpt>
      <trkpt lat="36.67857536114752" lon="137.8414439689368">
        <ele>747.09</ele>
        <time>2025-07-08T14:12:51.329Z</time>
      </trkpt>
      <trkpt lat="36.67857561260462" lon="137.8414437174797">
        <ele>747.37</ele>
        <time>2025-07-08T14:12:52.543Z</time>
      </trkpt>
      <trkpt lat="36.67857670225203" lon="137.8414421249181">
        <ele>747.61</ele>
        <time>2025-07-08T14:12:53.757Z</time>
      </trkpt>
      <trkpt lat="36.67857913300395" lon="137.8414384368807">
        <ele>747.84</ele>
        <time>2025-07-08T14:12:54.971Z</time>
      </trkpt>
      <trkpt lat="36.67858147993684" lon="137.84143491648138">
        <ele>748.03</ele>
        <time>2025-07-08T14:12:56.185Z</time>
      </trkpt>
      <trkpt lat="36.67873947881162" lon="137.84114917740226">
        <ele>748.28</ele>
        <time>2025-07-08T14:12:57.404Z</time>
      </trkpt>
      <trkpt lat="36.67873973026872" lon="137.84114892594516">
        <ele>748.42</ele>
        <time>2025-07-08T14:12:58.623Z</time>
      </trkpt>
      <trkpt lat="36.6787407360971" lon="137.84114724956453">
        <ele>748.52</ele>
        <time>2025-07-08T14:12:59.842Z</time>
      </trkpt>
      <trkpt lat="36.67874291539192" lon="137.84114339388907">
        <ele>748.6</ele>
        <time>2025-07-08T14:13:01.061Z</time>
      </trkpt>
      <trkpt lat="36.67874492704868" lon="137.84113987348974">
        <ele>748.65</ele>
        <time>2025-07-08T14:13:02.280Z</time>
      </trkpt>
      <trkpt lat="36.67884500697255" lon="137.84079588018358">
        <ele>748.68</ele>
        <time>2025-07-08T14:13:03.503Z</time>
      </trkpt>
      <trkpt lat="36.678845174610615" lon="137.84079546108842">
        <ele>748.66</ele>
        <time>2025-07-08T14:13:04.726Z</time>
      </trkpt>
      <trkpt lat="36.67884576134384" lon="137.8407935332507">
        <ele>748.61</ele>
        <time>2025-07-08T14:13:05.950Z</time>
      </trkpt>
      <trkpt lat="36.67884701862931" lon="137.84078950993717">
        <ele>748.53</ele>
        <time>2025-07-08T14:13:07.174Z</time>
      </trkpt>
      <trkpt lat="36.67884819209576" lon="137.84078573808074">
        <ele>748.42</ele>
        <time>2025-07-08T14:13:08.398Z</time>
      </trkpt>
      <trkpt lat="36.678761104121804" lon="137.84075464121997">
        <ele>748.24</ele>
        <time>2025-07-08T14:13:09.623Z</time>
      </trkpt>
      <trkpt lat="36.67876076884568" lon="137.84075455740094">
        <ele>748.07</ele>
        <time>2025-07-08T14:13:10.848Z</time>
      </trkpt>
      <trkpt lat="36.678759176284075" lon="137.84075397066772">
        <ele>747.87</ele>
        <time>2025-07-08T14:13:12.073Z</time>
      </trkpt>
      <trkpt lat="36.67875515297055" lon="137.84075254574418">
        <ele>747.64</ele>
        <time>2025-07-08T14:13:13.298Z</time>
      </trkpt>
      <trkpt lat="36.678751381114125" lon="137.84075120463967">
        <ele>747.38</ele>
        <time>2025-07-08T14:13:14.523Z</time>
      </trkpt>
      <trkpt lat="36.678446531295776" lon="137.8408517036587">
        <ele>746.99</ele>
        <time>2025-07-08T14:13:15.753Z</time>
      </trkpt>
      <trkpt lat="36.678320383653045" lon="137.84089302644134">
        <ele>746.64</ele>
        <time>2025-07-08T14:13:16.985Z</time>
      </trkpt>
      <trkpt lat="36.67832004837692" lon="137.8408931940794">
        <ele>746.32</ele>
        <time>2025-07-08T14:13:18.217Z</time>
      </trkpt>
      <trkpt lat="36.678318455815315" lon="137.84089378081262">
        <ele>745.98</ele>
        <time>2025-07-08T14:13:19.449Z</time>
      </trkpt>
      <trkpt lat="36.67831434868276" lon="137.84089520573616">
        <ele>745.62</ele>
        <time>2025-07-08T14:13:20.681Z</time>
      </trkpt>
      <trkpt lat="36.67831040918827" lon="137.84089654684067">
        <ele>745.25</ele>
        <time>2025-07-08T14:13:21.914Z</time>
      </trkpt>
      <trkpt lat="36.678013522177935" lon="137.84076453186572">
        <ele>744.81</ele>
        <time>2025-07-08T14:13:23.152Z</time>
      </trkpt>
      <trkpt lat="36.67771655134857" lon="137.8406326007098">
        <ele>744.42</ele>
        <time>2025-07-08T14:13:24.395Z</time>
      </trkpt>
      <trkpt lat="36.67758881114423" lon="137.8405757714063">
        <ele>744.0</ele>
        <time>2025-07-08T14:13:25.640Z</time>
      </trkpt>
      <trkpt lat="36.677588475868106" lon="137.84057560376823">
        <ele>743.57</ele>
        <time>2025-07-08T14:13:26.885Z</time>
      </trkpt>
      <trkpt lat="36.6775868833065" lon="137.84057493321598">
        <ele>743.13</ele>
        <time>2025-07-08T14:13:28.130Z</time>
      </trkpt>
      <trkpt lat="36.67758285999298" lon="137.8405731730163">
        <ele>742.69</ele>
        <time>2025-07-08T14:13:29.375Z</time>
      </trkpt>
      <trkpt lat="36.677579088136554" lon="137.84057149663568">
        <ele>742.23</ele>
        <time>2025-07-08T14:13:30.620Z</time>
      </trkpt>
      <trkpt lat="36.6774661000818" lon="137.84093711525202">
        <ele>741.79</ele>
        <time>2025-07-08T14:13:31.870Z</time>
      </trkpt>
      <trkpt lat="36.67735319584608" lon="137.84130273386836">
        <ele>741.21</ele>
        <time>2025-07-08T14:13:33.125Z</time>
      </trkpt>
      <trkpt lat="36.67724029161036" lon="137.8416683524847">
        <ele>740.51</ele>
        <time>2025-07-08T14:13:34.385Z</time>
      </trkpt>
      <trkpt lat="36.67712738737464" lon="137.84203397110105">
        <ele>739.98</ele>
        <time>2025-07-08T14:13:35.650Z</time>
      </trkpt>
      <trkpt lat="36.67701448313892" lon="137.8423995897174">
        <ele>739.6</ele>
        <time>2025-07-08T14:13:36.920Z</time>
      </trkpt>
      <trkpt lat="36.6769015789032" lon="137.84276520833373">
        <ele>739.15</ele>
        <time>2025-07-08T14:13:38.195Z</time>
      </trkpt>
      <trkpt lat="36.67689839377999" lon="137.8427749313414">
        <ele>738.67</ele>
        <time>2025-07-08T14:13:39.470Z</time>
      </trkpt>
      <trkpt lat="36.67689830996096" lon="137.84277535043657">
        <ele>738.18</ele>
        <time>2025-07-08T14:13:40.745Z</time>
      </trkpt>
      <trkpt lat="36.67689772322774" lon="137.8427772782743">
        <ele>737.7</ele>
        <time>2025-07-08T14:13:42.020Z</time>
      </trkpt>
      <trkpt lat="36.6768962983042" lon="137.84278197214007">
        <ele>737.21</ele>
        <time>2025-07-08T14:13:43.295Z</time>
      </trkpt>
      <trkpt lat="36.67689495719969" lon="137.84278658218682">
        <ele>736.72</ele>
        <time>2025-07-08T14:13:44.570Z</time>
      </trkpt>
      <trkpt lat="36.676599495112896" lon="137.84264953806996">
        <ele>736.11</ele>
        <time>2025-07-08T14:13:45.850Z</time>
      </trkpt>
      <trkpt lat="36.67630411684513" lon="137.8425124939531">
        <ele>735.52</ele>
        <time>2025-07-08T14:13:47.136Z</time>
      </trkpt>
      <trkpt lat="36.676008654758334" lon="137.84237544983625">
        <ele>734.98</ele>
        <time>2025-07-08T14:13:48.427Z</time>
      </trkpt>
      <trkpt lat="36.67571319267154" lon="137.8422384057194">
        <ele>734.52</ele>
        <time>2025-07-08T14:13:49.723Z</time>
      </trkpt>
      <trkpt lat="36.67541773058474" lon="137.84210136160254">
        <ele>734.06</ele>
        <time>2025-07-08T14:13:51.024Z</time>
      </trkpt>
      <trkpt lat="36.675122268497944" lon="137.84196440130472">
        <ele>733.61</ele>
        <time>2025-07-08T14:13:52.330Z</time>
      </trkpt>
      <trkpt lat="36.67482680641115" lon="137.84182735718787">
        <ele>733.12</ele>
        <time>2025-07-08T14:13:53.641Z</time>
      </trkpt>
      <trkpt lat="36.67453134432435" lon="137.841690313071">
        <ele>732.69</ele>
        <time>2025-07-08T14:13:54.957Z</time>
      </trkpt>
      <trkpt lat="36.674235966056585" lon="137.84155326895416">
        <ele>732.25</ele>
        <time>2025-07-08T14:13:56.278Z</time>
      </trkpt>
      <trkpt lat="36.67394050396979" lon="137.8414162248373">
        <ele>731.76</ele>
        <time>2025-07-08T14:13:57.604Z</time>
      </trkpt>
      <trkpt lat="36.67364504188299" lon="137.84127918072045">
        <ele>731.24</ele>
        <time>2025-07-08T14:13:58.935Z</time>
      </trkpt>
      <trkpt lat="36.673349579796195" lon="137.8411421366036">
        <ele>730.83</ele>
        <time>2025-07-08T14:14:00.271Z</time>
      </trkpt>
      <trkpt lat="36.67334203608334" lon="137.84113861620426">
        <ele>730.36</ele>
        <time>2025-07-08T14:14:01.607Z</time>
      </trkpt>
      <trkpt lat="36.673341700807214" lon="137.8411384485662">
        <ele>729.9</ele>
        <time>2025-07-08T14:14:02.943Z</time>
      </trkpt>
      <trkpt lat="36.67334010824561" lon="137.8411376941949">
        <ele>729.43</ele>
        <time>2025-07-08T14:14:04.279Z</time>
      </trkpt>
      <trkpt lat="36.67333625257015" lon="137.84113593399525">
        <ele>728.96</ele>
        <time>2025-07-08T14:14:05.615Z</time>
      </trkpt>
      <trkpt lat="36.67333256453276" lon="137.8411342576146">
        <ele>728.5</ele>
        <time>2025-07-08T14:14:06.951Z</time>
      </trkpt>
      <trkpt lat="36.67322133667767" lon="137.84150063060224">
        <ele>728.06</ele>
        <time>2025-07-08T14:14:08.292Z</time>
      </trkpt>
      <trkpt lat="36.673110192641616" lon="137.8418670874089">
        <ele>727.49</ele>
        <time>2025-07-08T14:14:09.638Z</time>
      </trkpt>
      <trkpt lat="36.67299896478653" lon="137.84223346039653">
        <ele>726.88</ele>
        <time>2025-07-08T14:14:10.989Z</time>
      </trkpt>
      <trkpt lat="36.67288773693144" lon="137.84259983338416">
        <ele>726.44</ele>
        <time>2025-07-08T14:14:12.345Z</time>
      </trkpt>
      <trkpt lat="36.67277659289539" lon="137.84296629019082">
        <ele>726.04</ele>
        <time>2025-07-08T14:14:13.706Z</time>
      </trkpt>
      <trkpt lat="36.6726653650403" lon="137.84333266317844">
        <ele>725.56</ele>
        <time>2025-07-08T14:14:15.072Z</time>
      </trkpt>
      <trkpt lat="36.67255422100425" lon="137.84369903616607">
        <ele>725.18</ele>
        <time>2025-07-08T14:14:16.444Z</time>
      </trkpt>
      <trkpt lat="36.67244299314916" lon="137.8440654091537">
        <ele>724.87</ele>
        <time>2025-07-08T14:14:17.821Z</time>
      </trkpt>
      <trkpt lat="36.67233184911311" lon="137.84443186596036">
        <ele>724.6</ele>
        <time>2025-07-08T14:14:19.203Z</time>
      </trkpt>
      <trkpt lat="36.67222556658089" lon="137.84478130750358">
        <ele>724.31</ele>
        <time>2025-07-08T14:14:20.589Z</time>
      </trkpt>
      <trkpt lat="36.67222548276186" lon="137.84478181041777">
        <ele>724.14</ele>
        <time>2025-07-08T14:14:21.975Z</time>
      </trkpt>
      <trkpt lat="36.67222497984767" lon="137.8447837382555">
        <ele>724.01</ele>
        <time>2025-07-08T14:14:23.361Z</time>
      </trkpt>
      <trkpt lat="36.672223722562194" lon="137.84478801302612">
        <ele>723.93</ele>
        <time>2025-07-08T14:14:24.747Z</time>
      </trkpt>
      <trkpt lat="36.67222246527672" lon="137.84479228779674">
        <ele>723.9</ele>
        <time>2025-07-08T14:14:26.134Z</time>
      </trkpt>
      <trkpt lat="36.67221995070577" lon="137.84478994086385">
        <ele>723.92</ele>
        <time>2025-07-08T14:14:27.521Z</time>
      </trkpt>
      <trkpt lat="36.67219991795719" lon="137.84486998803914">
        <ele>723.98</ele>
        <time>2025-07-08T14:14:28.909Z</time>
      </trkpt>
      <trkpt lat="36.67209992185235" lon="137.84485992975533">
        <ele>724.14</ele>
        <time>2025-07-08T14:14:30.298Z</time>
      </trkpt>
      <trkpt lat="36.67178627103567" lon="137.84481919370592">
        <ele>724.33</ele>
        <time>2025-07-08T14:14:31.692Z</time>
      </trkpt>
      <trkpt lat="36.67147262021899" lon="137.8447784576565">
        <ele>724.5</ele>
        <time>2025-07-08T14:14:33.091Z</time>
      </trkpt>
      <trkpt lat="36.67115888558328" lon="137.8447377216071">
        <ele>724.79</ele>
        <time>2025-07-08T14:14:34.495Z</time>
      </trkpt>
      <trkpt lat="36.6708452347666" lon="137.84469698555768">
        <ele>725.07</ele>
        <time>2025-07-08T14:14:35.904Z</time>
      </trkpt>
      <trkpt lat="36.670559998601675" lon="137.84465993754566">
        <ele>725.48</ele>
        <time>2025-07-08T14:14:37.318Z</time>
      </trkpt>
      <trkpt lat="36.67050995863974" lon="137.844689944759">
        <ele>725.89</ele>
        <time>2025-07-08T14:14:38.733Z</time>
      </trkpt>
      <trkpt lat="36.67025682516396" lon="137.8449235484004">
        <ele>726.45</ele>
        <time>2025-07-08T14:14:40.153Z</time>
      </trkpt>
      <trkpt lat="36.67000377550721" lon="137.84515723586082">
        <ele>727.03</ele>
        <time>2025-07-08T14:14:41.578Z</time>
      </trkpt>
      <trkpt lat="36.66985994204879" lon="137.84528992138803">
        <ele>727.55</ele>
        <time>2025-07-08T14:14:43.006Z</time>
      </trkpt>
      <trkpt lat="36.669849967584014" lon="137.8452599979937">
        <ele>728.05</ele>
        <time>2025-07-08T14:14:44.434Z</time>
      </trkpt>
      <trkpt lat="36.669659949839115" lon="137.84526997245848">
        <ele>728.66</ele>
        <time>2025-07-08T14:14:45.865Z</time>
      </trkpt>
      <trkpt lat="36.669549979269505" lon="137.84528992138803">
        <ele>729.18</ele>
        <time>2025-07-08T14:14:47.298Z</time>
      </trkpt>
      <trkpt lat="36.669469932094216" lon="137.84527994692326">
        <ele>729.7</ele>
        <time>2025-07-08T14:14:48.732Z</time>
      </trkpt>
      <trkpt lat="36.66932995431125" lon="137.84522999078035">
        <ele>730.2</ele>
        <time>2025-07-08T14:14:50.169Z</time>
      </trkpt>
      <trkpt lat="36.66916994377971" lon="137.84517995081842">
        <ele>730.66</ele>
        <time>2025-07-08T14:14:51.608Z</time>
      </trkpt>
      <trkpt lat="36.66897992603481" lon="137.84517995081842">
        <ele>731.06</ele>
        <time>2025-07-08T14:14:53.050Z</time>
      </trkpt>
      <trkpt lat="36.66880994103849" lon="137.84523996524513">
        <ele>731.6</ele>
        <time>2025-07-08T14:14:54.495Z</time>
      </trkpt>
      <trkpt lat="36.6686799377203" lon="137.8453299868852">
        <ele>732.18</ele>
        <time>2025-07-08T14:14:55.943Z</time>
      </trkpt>
      <trkpt lat="36.66848849505186" lon="137.8455020673573">
        <ele>732.79</ele>
        <time>2025-07-08T14:14:57.394Z</time>
      </trkpt>
      <trkpt lat="36.668488243594766" lon="137.84550240263343">
        <ele>733.28</ele>
        <time>2025-07-08T14:14:58.845Z</time>
      </trkpt>
      <trkpt lat="36.66848690249026" lon="137.8455036599189">
        <ele>733.75</ele>
        <time>2025-07-08T14:15:00.296Z</time>
      </trkpt>
      <trkpt lat="36.668483382090926" lon="137.8455068450421">
        <ele>734.22</ele>
        <time>2025-07-08T14:15:01.747Z</time>
      </trkpt>
      <trkpt lat="36.668479945510626" lon="137.84550994634628">
        <ele>734.67</ele>
        <time>2025-07-08T14:15:03.199Z</time>
      </trkpt>
      <trkpt lat="36.668218933045864" lon="137.84572971984744">
        <ele>735.03</ele>
        <time>2025-07-08T14:15:04.656Z</time>
      </trkpt>
      <trkpt lat="36.66809999383986" lon="137.84582996740937">
        <ele>735.43</ele>
        <time>2025-07-08T14:15:06.115Z</time>
      </trkpt>
      <trkpt lat="36.667899917811155" lon="137.8459799196571">
        <ele>735.83</ele>
        <time>2025-07-08T14:15:07.578Z</time>
      </trkpt>
      <trkpt lat="36.66764996945858" lon="137.8461899701506">
        <ele>736.26</ele>
        <time>2025-07-08T14:15:09.045Z</time>
      </trkpt>
      <trkpt lat="36.66749993339181" lon="137.8463599551469">
        <ele>736.68</ele>
        <time>2025-07-08T14:15:10.516Z</time>
      </trkpt>
      <trkpt lat="36.6674399189651" lon="137.84644997678697">
        <ele>737.05</ele>
        <time>2025-07-08T14:15:11.988Z</time>
      </trkpt>
      <trkpt lat="36.66740999557078" lon="137.84649993292987">
        <ele>737.39</ele>
        <time>2025-07-08T14:15:13.461Z</time>
      </trkpt>
      <trkpt lat="36.6673899628222" lon="137.84647998400033">
        <ele>737.73</ele>
        <time>2025-07-08T14:15:14.934Z</time>
      </trkpt>
      <trkpt lat="36.667339922860265" lon="137.84644997678697">
        <ele>738.07</ele>
        <time>2025-07-08T14:15:16.408Z</time>
      </trkpt>
      <trkpt lat="36.66728996671736" lon="137.84638996236026">
        <ele>738.4</ele>
        <time>2025-07-08T14:15:17.883Z</time>
      </trkpt>
      <trkpt lat="36.66721997782588" lon="137.8462499845773">
        <ele>738.75</ele>
        <time>2025-07-08T14:15:19.360Z</time>
      </trkpt>
      <trkpt lat="36.66713993065059" lon="137.84607999958098">
        <ele>739.1</ele>
        <time>2025-07-08T14:15:20.840Z</time>
      </trkpt>
      <trkpt lat="36.66694396175444" lon="137.8457732219249">
        <ele>739.47</ele>
        <time>2025-07-08T14:15:22.325Z</time>
      </trkpt>
      <trkpt lat="36.666909931227565" lon="137.84571999683976">
        <ele>739.7</ele>
        <time>2025-07-08T14:15:23.811Z</time>
      </trkpt>
      <trkpt lat="36.66685997508466" lon="137.84560994245112">
        <ele>739.89</ele>
        <time>2025-07-08T14:15:25.299Z</time>
      </trkpt>
      <trkpt lat="36.66685997508466" lon="137.8454999718815">
        <ele>740.02</ele>
        <time>2025-07-08T14:15:26.788Z</time>
      </trkpt>
      <trkpt lat="36.66657188907266" lon="137.84565947949886">
        <ele>740.15</ele>
        <time>2025-07-08T14:15:28.282Z</time>
      </trkpt>
      <trkpt lat="36.66628388687968" lon="137.84581898711622">
        <ele>740.13</ele>
        <time>2025-07-08T14:15:29.781Z</time>
      </trkpt>
      <trkpt lat="36.66621943004429" lon="137.8458543587476">
        <ele>740.16</ele>
        <time>2025-07-08T14:15:31.281Z</time>
      </trkpt>
      <trkpt lat="36.6662191785872" lon="137.8458546102047">
        <ele>740.18</ele>
        <time>2025-07-08T14:15:32.781Z</time>
      </trkpt>
      <trkpt lat="36.66621766984463" lon="137.84585553221405">
        <ele>740.16</ele>
        <time>2025-07-08T14:15:34.281Z</time>
      </trkpt>
      <trkpt lat="36.66621373035014" lon="137.8458577953279">
        <ele>740.11</ele>
        <time>2025-07-08T14:15:35.781Z</time>
      </trkpt>
      <trkpt lat="36.66620995849371" lon="137.84585997462273">
        <ele>740.03</ele>
        <time>2025-07-08T14:15:37.281Z</time>
      </trkpt>
      <trkpt lat="36.66601994074881" lon="137.84595997072756">
        <ele>739.88</ele>
        <time>2025-07-08T14:15:38.785Z</time>
      </trkpt>
      <trkpt lat="36.66597995907068" lon="137.84583994187415">
        <ele>739.76</ele>
        <time>2025-07-08T14:15:40.290Z</time>
      </trkpt>
      <trkpt lat="36.665859930217266" lon="137.8455499280244">
        <ele>739.59</ele>
        <time>2025-07-08T14:15:41.800Z</time>
      </trkpt>
      <trkpt lat="36.665809974074364" lon="137.84552997909486">
        <ele>739.43</ele>
        <time>2025-07-08T14:15:43.310Z</time>
      </trkpt>
      <trkpt lat="36.665639989078045" lon="137.84557993523777">
        <ele>739.26</ele>
        <time>2025-07-08T14:15:44.823Z</time>
      </trkpt>
      <trkpt lat="36.665336983278394" lon="137.84568873234093">
        <ele>739.06</ele>
        <time>2025-07-08T14:15:46.341Z</time>
      </trkpt>
      <trkpt lat="36.66503397747874" lon="137.84579744562507">
        <ele>738.86</ele>
        <time>2025-07-08T14:15:47.864Z</time>
      </trkpt>
      <trkpt lat="36.6648599691689" lon="137.84585997462273">
        <ele>738.54</ele>
        <time>2025-07-08T14:15:49.390Z</time>
      </trkpt>
      <trkpt lat="36.66459996253252" lon="137.8459499962628">
        <ele>738.15</ele>
        <time>2025-07-08T14:15:50.920Z</time>
      </trkpt>
      <trkpt lat="36.66448999196291" lon="137.8459999524057">
        <ele>737.82</ele>
        <time>2025-07-08T14:15:52.452Z</time>
      </trkpt>
      <trkpt lat="36.664459984749556" lon="137.84604999236763">
        <ele>737.52</ele>
        <time>2025-07-08T14:15:53.985Z</time>
      </trkpt>
      <trkpt lat="36.664439952000976" lon="137.8461099229753">
        <ele>737.21</ele>
        <time>2025-07-08T14:15:55.519Z</time>
      </trkpt>
      <trkpt lat="36.664439952000976" lon="137.84638996236026">
        <ele>736.89</ele>
        <time>2025-07-08T14:15:57.057Z</time>
      </trkpt>
      <trkpt lat="36.664419919252396" lon="137.84655994735658">
        <ele>736.55</ele>
        <time>2025-07-08T14:15:58.597Z</time>
      </trkpt>
      <trkpt lat="36.664419919252396" lon="137.84665994346142">
        <ele>736.22</ele>
        <time>2025-07-08T14:16:00.138Z</time>
      </trkpt>
      <trkpt lat="36.6644299775362" lon="137.84670998342335">
        <ele>735.9</ele>
        <time>2025-07-08T14:16:01.680Z</time>
      </trkpt>
      <trkpt lat="36.6644299775362" lon="137.84710141830146">
        <ele>735.52</ele>
        <time>2025-07-08T14:16:03.227Z</time>
      </trkpt>
      <trkpt lat="36.6644299775362" lon="137.84712991677225">
        <ele>735.22</ele>
        <time>2025-07-08T14:16:04.774Z</time>
      </trkpt>
      <trkpt lat="36.664415979757905" lon="137.84752110019326">
        <ele>734.93</ele>
        <time>2025-07-08T14:16:06.326Z</time>
      </trkpt>
      <trkpt lat="36.66441028006375" lon="137.8476776741445">
        <ele>734.68</ele>
        <time>2025-07-08T14:16:07.880Z</time>
      </trkpt>
      <trkpt lat="36.66441028006375" lon="137.8476781770587">
        <ele>734.44</ele>
        <time>2025-07-08T14:16:09.434Z</time>
      </trkpt>
      <trkpt lat="36.66441028006375" lon="137.8476802725345">
        <ele>734.22</ele>
        <time>2025-07-08T14:16:10.988Z</time>
      </trkpt>
      <trkpt lat="36.664410112425685" lon="137.84768521785736">
        <ele>734.02</ele>
        <time>2025-07-08T14:16:12.542Z</time>
      </trkpt>
      <trkpt lat="36.66440994478762" lon="137.84768999554217">
        <ele>733.85</ele>
        <time>2025-07-08T14:16:14.096Z</time>
      </trkpt>
      <trkpt lat="36.664402820169926" lon="137.84808134660125">
        <ele>733.66</ele>
        <time>2025-07-08T14:16:15.655Z</time>
      </trkpt>
      <trkpt lat="36.66439997032285" lon="137.84823993220925">
        <ele>733.52</ele>
        <time>2025-07-08T14:16:17.216Z</time>
      </trkpt>
      <trkpt lat="36.664419919252396" lon="137.84859993495047">
        <ele>733.39</ele>
        <time>2025-07-08T14:16:18.782Z</time>
      </trkpt>
      <trkpt lat="36.66410484351218" lon="137.84861686639488">
        <ele>733.33</ele>
        <time>2025-07-08T14:16:20.353Z</time>
      </trkpt>
      <trkpt lat="36.663859924301505" lon="137.84862994216383">
        <ele>733.33</ele>
        <time>2025-07-08T14:16:21.928Z</time>
      </trkpt>
      <trkpt lat="36.66354501619935" lon="137.84865098074079">
        <ele>733.33</ele>
        <time>2025-07-08T14:16:23.508Z</time>
      </trkpt>
      <trkpt lat="36.66340998373926" lon="137.84865994937718">
        <ele>733.35</ele>
        <time>2025-07-08T14:16:25.090Z</time>
      </trkpt>
      <trkpt lat="36.66309725493193" lon="137.84871065989137">
        <ele>733.43</ele>
        <time>2025-07-08T14:16:26.677Z</time>
      </trkpt>
      <trkpt lat="36.66303992271423" lon="137.8487199638039">
        <ele>733.51</ele>
        <time>2025-07-08T14:16:28.265Z</time>
      </trkpt>
      <trkpt lat="36.662759967148304" lon="137.84873999655247">
        <ele>733.65</ele>
        <time>2025-07-08T14:16:29.858Z</time>
      </trkpt>
      <trkpt lat="36.662640860304236" lon="137.84875810146332">
        <ele>733.79</ele>
        <time>2025-07-08T14:16:31.453Z</time>
      </trkpt>
      <trkpt lat="36.66264052502811" lon="137.84875818528235">
        <ele>733.93</ele>
        <time>2025-07-08T14:16:33.048Z</time>
      </trkpt>
      <trkpt lat="36.66263876482844" lon="137.84875852055848">
        <ele>734.09</ele>
        <time>2025-07-08T14:16:34.643Z</time>
      </trkpt>
      <trkpt lat="36.6626341547817" lon="137.84875927492976">
        <ele>734.27</ele>
        <time>2025-07-08T14:16:36.238Z</time>
      </trkpt>
      <trkpt lat="36.66262996383011" lon="137.84875994548202">
        <ele>734.47</ele>
        <time>2025-07-08T14:16:37.833Z</time>
      </trkpt>
      <trkpt lat="36.662589982151985" lon="137.84880998544395">
        <ele>734.67</ele>
        <time>2025-07-08T14:16:39.429Z</time>
      </trkpt>
      <trkpt lat="36.662589982151985" lon="137.84884996712208">
        <ele>734.89</ele>
        <time>2025-07-08T14:16:41.025Z</time>
      </trkpt>
      <trkpt lat="36.66257992386818" lon="137.84893998876214">
        <ele>735.11</ele>
        <time>2025-07-08T14:16:42.622Z</time>
      </trkpt>
      <trkpt lat="36.6623199172318" lon="137.84892993047833">
        <ele>735.39</ele>
        <time>2025-07-08T14:16:44.224Z</time>
      </trkpt>
      <trkpt lat="36.66205999441445" lon="137.84891995601356">
        <ele>735.68</ele>
        <time>2025-07-08T14:16:45.830Z</time>
      </trkpt>
      <trkpt lat="36.661949940025806" lon="137.84891995601356">
        <ele>735.95</ele>
        <time>2025-07-08T14:16:47.437Z</time>
      </trkpt>
      <trkpt lat="36.6618899255991" lon="137.84897997044027">
        <ele>736.24</ele>
        <time>2025-07-08T14:16:49.046Z</time>
      </trkpt>
      <trkpt lat="36.66179998777807" lon="137.84900997765362">
        <ele>736.55</ele>
        <time>2025-07-08T14:16:50.656Z</time>
      </trkpt>
      <trkpt lat="36.66160997003317" lon="137.84904995933175">
        <ele>736.88</ele>
        <time>2025-07-08T14:16:52.269Z</time>
      </trkpt>
      <trkpt lat="36.66147996671498" lon="137.84911994822323">
        <ele>737.19</ele>
        <time>2025-07-08T14:16:53.885Z</time>
      </trkpt>
      <trkpt lat="36.66123999282718" lon="137.84924995154142">
        <ele>737.51</ele>
        <time>2025-07-08T14:16:55.505Z</time>
      </trkpt>
      <trkpt lat="36.660932041704655" lon="137.84933452494442">
        <ele>737.83</ele>
        <time>2025-07-08T14:16:57.130Z</time>
      </trkpt>
      <trkpt lat="36.66072995401919" lon="137.8493899293244">
        <ele>738.09</ele>
        <time>2025-07-08T14:16:58.758Z</time>
      </trkpt>
      <trkpt lat="36.660459972918034" lon="137.8493399731815">
        <ele>738.39</ele>
        <time>2025-07-08T14:17:00.390Z</time>
      </trkpt>
      <trkpt lat="36.66021999903023" lon="137.8492099698633">
        <ele>738.67</ele>
        <time>2025-07-08T14:17:02.027Z</time>
      </trkpt>
      <trkpt lat="36.66005998849869" lon="137.84917996264994">
        <ele>738.88</ele>
        <time>2025-07-08T14:17:03.666Z</time>
      </trkpt>
      <trkpt lat="36.659861421212554" lon="137.84916093572974">
        <ele>739.06</ele>
        <time>2025-07-08T14:17:05.308Z</time>
      </trkpt>
      <trkpt lat="36.659861002117395" lon="137.84916093572974">
        <ele>739.25</ele>
        <time>2025-07-08T14:17:06.950Z</time>
      </trkpt>
      <trkpt lat="36.65985932573676" lon="137.84916076809168">
        <ele>739.43</ele>
        <time>2025-07-08T14:17:08.592Z</time>
      </trkpt>
      <trkpt lat="36.65985438041389" lon="137.84916034899652">
        <ele>739.58</ele>
        <time>2025-07-08T14:17:10.234Z</time>
      </trkpt>
      <trkpt lat="36.65984993800521" lon="137.84915992990136">
        <ele>739.72</ele>
        <time>2025-07-08T14:17:11.877Z</time>
      </trkpt>
      <trkpt lat="36.65984993800521" lon="137.84916998818517">
        <ele>739.83</ele>
        <time>2025-07-08T14:17:13.520Z</time>
      </trkpt>
      <trkpt lat="36.659649945795536" lon="137.84910997375846">
        <ele>739.92</ele>
        <time>2025-07-08T14:17:15.166Z</time>
      </trkpt>
      <trkpt lat="36.6593720857054" lon="137.84892473369837">
        <ele>740.08</ele>
        <time>2025-07-08T14:17:16.817Z</time>
      </trkpt>
      <trkpt lat="36.65934995748103" lon="137.8489099815488">
        <ele>740.14</ele>
        <time>2025-07-08T14:17:18.468Z</time>
      </trkpt>
      <trkpt lat="36.659279968589544" lon="137.84886999987066">
        <ele>740.19</ele>
        <time>2025-07-08T14:17:20.121Z</time>
      </trkpt>
      <trkpt lat="36.65926999412477" lon="137.84889992326498">
        <ele>740.18</ele>
        <time>2025-07-08T14:17:21.774Z</time>
      </trkpt>
      <trkpt lat="36.659199921414256" lon="137.84909999929368">
        <ele>740.13</ele>
        <time>2025-07-08T14:17:23.430Z</time>
      </trkpt>
      <trkpt lat="36.65917997248471" lon="137.84922991879284">
        <ele>740.06</ele>
        <time>2025-07-08T14:17:25.088Z</time>
      </trkpt>
      <trkpt lat="36.65918994694948" lon="137.84949998371303">
        <ele>739.95</ele>
        <time>2025-07-08T14:17:26.749Z</time>
      </trkpt>
      <trkpt lat="36.65922992862761" lon="137.84980994649231">
        <ele>739.81</ele>
        <time>2025-07-08T14:17:28.414Z</time>
      </trkpt>
      <trkpt lat="36.659239986911416" lon="137.84989996813238">
        <ele>739.69</ele>
        <time>2025-07-08T14:17:30.080Z</time>
      </trkpt>
      <trkpt lat="36.65918994694948" lon="137.84994992427528">
        <ele>739.56</ele>
        <time>2025-07-08T14:17:31.747Z</time>
      </trkpt>
      <trkpt lat="36.65901996195316" lon="137.8500199969858">
        <ele>739.41</ele>
        <time>2025-07-08T14:17:33.417Z</time>
      </trkpt>
      <trkpt lat="36.65879993699491" lon="137.85008998587728">
        <ele>739.26</ele>
        <time>2025-07-08T14:17:35.091Z</time>
      </trkpt>
      <trkpt lat="36.65870999917388" lon="137.85014991648495">
        <ele>739.11</ele>
        <time>2025-07-08T14:17:36.766Z</time>
      </trkpt>
      <trkpt lat="36.65859994478524" lon="137.85022996366024">
        <ele>738.94</ele>
        <time>2025-07-08T14:17:38.443Z</time>
      </trkpt>
      <trkpt lat="36.658399952575564" lon="137.85022996366024">
        <ele>738.8</ele>
        <time>2025-07-08T14:17:40.124Z</time>
      </trkpt>
      <trkpt lat="36.65813994593918" lon="137.85029995255172">
        <ele>738.65</ele>
        <time>2025-07-08T14:17:41.809Z</time>
      </trkpt>
      <trkpt lat="36.65803994983435" lon="137.8503199853003">
        <ele>738.5</ele>
        <time>2025-07-08T14:17:43.495Z</time>
      </trkpt>
      <trkpt lat="36.65803123265505" lon="137.85071125254035">
        <ele>738.36</ele>
        <time>2025-07-08T14:17:45.187Z</time>
      </trkpt>
      <trkpt lat="36.65802997536957" lon="137.85076992586255">
        <ele>738.21</ele>
        <time>2025-07-08T14:17:46.879Z</time>
      </trkpt>
      <trkpt lat="36.65797993540764" lon="137.85096991807222">
        <ele>738.05</ele>
        <time>2025-07-08T14:17:48.574Z</time>
      </trkpt>
      <trkpt lat="36.65793995372951" lon="137.8510499652475">
        <ele>737.92</ele>
        <time>2025-07-08T14:17:50.270Z</time>
      </trkpt>
      <trkpt lat="36.65784993208945" lon="137.85115993581712">
        <ele>737.76</ele>
        <time>2025-07-08T14:17:51.968Z</time>
      </trkpt>
      <trkpt lat="36.65762999095023" lon="137.85142991691828">
        <ele>737.54</ele>
        <time>2025-07-08T14:17:53.671Z</time>
      </trkpt>
      <trkpt lat="36.65754994377494" lon="137.8515499457717">
        <ele>737.41</ele>
        <time>2025-07-08T14:17:55.376Z</time>
      </trkpt>
      <trkpt lat="36.65752999484539" lon="137.85158992744982">
        <ele>737.3</ele>
        <time>2025-07-08T14:17:57.082Z</time>
      </trkpt>
      <trkpt lat="36.65750996209681" lon="137.85153997130692">
        <ele>737.2</ele>
        <time>2025-07-08T14:17:58.788Z</time>
      </trkpt>
      <trkpt lat="36.657479954883456" lon="137.85142991691828">
        <ele>737.12</ele>
        <time>2025-07-08T14:18:00.496Z</time>
      </trkpt>
      <trkpt lat="36.65746998041868" lon="137.85124995745718">
        <ele>737.05</ele>
        <time>2025-07-08T14:18:02.206Z</time>
      </trkpt>
      <trkpt lat="36.657478949055076" lon="137.8511125780642">
        <ele>737.03</ele>
        <time>2025-07-08T14:18:03.918Z</time>
      </trkpt>
      <trkpt lat="36.65747903287411" lon="137.85111207515">
        <ele>737.0</ele>
        <time>2025-07-08T14:18:05.630Z</time>
      </trkpt>
      <trkpt lat="36.65747920051217" lon="137.8511098958552">
        <ele>736.98</ele>
        <time>2025-07-08T14:18:07.342Z</time>
      </trkpt>
      <trkpt lat="36.65747961960733" lon="137.8511046152562">
        <ele>736.97</ele>
        <time>2025-07-08T14:18:09.054Z</time>
      </trkpt>
      <trkpt lat="36.657479954883456" lon="137.85109992139041">
        <ele>736.98</ele>
        <time>2025-07-08T14:18:10.766Z</time>
      </trkpt>
      <trkpt lat="36.65750996209681" lon="137.85081996582448">
        <ele>737.11</ele>
        <time>2025-07-08T14:18:12.482Z</time>
      </trkpt>
      <trkpt lat="36.65746998041868" lon="137.85076992586255">
        <ele>737.14</ele>
        <time>2025-07-08T14:18:14.199Z</time>
      </trkpt>
      <trkpt lat="36.65729999542236" lon="137.85075995139778">
        <ele>737.11</ele>
        <time>2025-07-08T14:18:15.919Z</time>
      </trkpt>
      <trkpt lat="36.657219948247075" lon="137.8507399186492">
        <ele>737.14</ele>
        <time>2025-07-08T14:18:17.640Z</time>
      </trkpt>
      <trkpt lat="36.65719999931753" lon="137.85065995529294">
        <ele>737.22</ele>
        <time>2025-07-08T14:18:19.362Z</time>
      </trkpt>
      <trkpt lat="36.65717996656895" lon="137.85038997419178">
        <ele>737.35</ele>
        <time>2025-07-08T14:18:21.087Z</time>
      </trkpt>
      <trkpt lat="36.65715993382037" lon="137.85029995255172">
        <ele>737.4</ele>
        <time>2025-07-08T14:18:22.814Z</time>
      </trkpt>
      <trkpt lat="36.657089944928885" lon="137.85023993812501">
        <ele>737.43</ele>
        <time>2025-07-08T14:18:24.542Z</time>
      </trkpt>
      <trkpt lat="36.65688995271921" lon="137.8501999564469">
        <ele>737.47</ele>
        <time>2025-07-08T14:18:26.273Z</time>
      </trkpt>
      <trkpt lat="36.65686991997063" lon="137.85023993812501">
        <ele>737.51</ele>
        <time>2025-07-08T14:18:28.005Z</time>
      </trkpt>
      <trkpt lat="36.65681996382773" lon="137.8502599708736">
        <ele>737.55</ele>
        <time>2025-07-08T14:18:29.738Z</time>
      </trkpt>
      <trkpt lat="36.65673991665244" lon="137.85023993812501">
        <ele>737.59</ele>
        <time>2025-07-08T14:18:31.472Z</time>
      </trkpt>
      <trkpt lat="36.65669993497431" lon="137.85020993091166">
        <ele>737.64</ele>
        <time>2025-07-08T14:18:33.207Z</time>
      </trkpt>
      <trkpt lat="36.65662994608283" lon="137.85020993091166">
        <ele>737.67</ele>
        <time>2025-07-08T14:18:34.943Z</time>
      </trkpt>
      <trkpt lat="36.65644998662174" lon="137.85021998919547">
        <ele>737.7</ele>
        <time>2025-07-08T14:18:36.682Z</time>
      </trkpt>
      <trkpt lat="36.656339932233095" lon="137.85028997808695">
        <ele>737.73</ele>
        <time>2025-07-08T14:18:38.423Z</time>
      </trkpt>
      <trkpt lat="36.65623993612826" lon="137.85034999251366">
        <ele>737.76</ele>
        <time>2025-07-08T14:18:40.165Z</time>
      </trkpt>
      <trkpt lat="36.65593307465315" lon="137.85044018179178">
        <ele>737.8</ele>
        <time>2025-07-08T14:18:41.912Z</time>
      </trkpt>
      <trkpt lat="36.65591052733362" lon="137.85044663585722">
        <ele>737.85</ele>
        <time>2025-07-08T14:18:43.660Z</time>
      </trkpt>
      <trkpt lat="36.65591019205749" lon="137.8504468034953">
        <ele>737.9</ele>
        <time>2025-07-08T14:18:45.408Z</time>
      </trkpt>
      <trkpt lat="36.655908431857824" lon="137.8504473902285">
        <ele>737.96</ele>
        <time>2025-07-08T14:18:47.156Z</time>
      </trkpt>
      <trkpt lat="36.65590398944914" lon="137.85044873133302">
        <ele>738.01</ele>
        <time>2025-07-08T14:18:48.904Z</time>
      </trkpt>
      <trkpt lat="36.65589996613562" lon="137.8504499886185">
        <ele>738.07</ele>
        <time>2025-07-08T14:18:50.652Z</time>
      </trkpt>
      <trkpt lat="36.6557299811393" lon="137.8504999447614">
        <ele>738.14</ele>
        <time>2025-07-08T14:18:52.403Z</time>
      </trkpt>
      <trkpt lat="36.655499981716275" lon="137.85052995197475">
        <ele>738.2</ele>
        <time>2025-07-08T14:18:54.157Z</time>
      </trkpt>
      <trkpt lat="36.655479948967695" lon="137.850379999727">
        <ele>738.23</ele>
        <time>2025-07-08T14:18:55.913Z</time>
      </trkpt>
      <trkpt lat="36.655459916219115" lon="137.85008998587728">
        <ele>738.26</ele>
        <time>2025-07-08T14:18:57.673Z</time>
      </trkpt>
      <trkpt lat="36.65543996728957" lon="137.84985998645425">
        <ele>738.38</ele>
        <time>2025-07-08T14:18:59.436Z</time>
      </trkpt>
      <trkpt lat="36.65540996007621" lon="137.8494703117758">
        <ele>738.49</ele>
        <time>2025-07-08T14:19:01.204Z</time>
      </trkpt>
      <trkpt lat="36.65540996007621" lon="137.84946997649968">
        <ele>738.54</ele>
        <time>2025-07-08T14:19:02.972Z</time>
      </trkpt>
      <trkpt lat="36.65540996007621" lon="137.84940996207297">
        <ele>738.59</ele>
        <time>2025-07-08T14:19:04.741Z</time>
      </trkpt>
      <trkpt lat="36.655289931222796" lon="137.84943996928632">
        <ele>738.62</ele>
        <time>2025-07-08T14:19:06.512Z</time>
      </trkpt>
      <trkpt lat="36.655179960653186" lon="137.84946997649968">
        <ele>738.64</ele>
        <time>2025-07-08T14:19:08.285Z</time>
      </trkpt>
      <trkpt lat="36.65490997955203" lon="137.8495699726045">
        <ele>738.64</ele>
        <time>2025-07-08T14:19:10.062Z</time>
      </trkpt>
      <trkpt lat="36.65460353717208" lon="137.84966259263456">
        <ele>738.67</ele>
        <time>2025-07-08T14:19:11.844Z</time>
      </trkpt>
      <trkpt lat="36.65447998791933" lon="137.8496999759227">
        <ele>738.67</ele>
        <time>2025-07-08T14:19:13.628Z</time>
      </trkpt>
      <trkpt lat="36.65426993742585" lon="137.8497699648142">
        <ele>738.69</ele>
        <time>2025-07-08T14:19:15.416Z</time>
      </trkpt>
      <trkpt lat="36.65404982864857" lon="137.849922766909">
        <ele>738.68</ele>
        <time>2025-07-08T14:19:17.208Z</time>
      </trkpt>
      <trkpt lat="36.65404949337244" lon="137.84992310218513">
        <ele>738.67</ele>
        <time>2025-07-08T14:19:19.000Z</time>
      </trkpt>
      <trkpt lat="36.65404798462987" lon="137.84992419183254">
        <ele>738.65</ele>
        <time>2025-07-08T14:19:20.792Z</time>
      </trkpt>
      <trkpt lat="36.654043793678284" lon="137.84992720931768">
        <ele>738.62</ele>
        <time>2025-07-08T14:19:22.584Z</time>
      </trkpt>
      <trkpt lat="36.654039938002825" lon="137.84992997534573">
        <ele>738.58</ele>
        <time>2025-07-08T14:19:24.376Z</time>
      </trkpt>
      <trkpt lat="36.6539999563247" lon="137.84994992427528">
        <ele>738.53</ele>
        <time>2025-07-08T14:19:26.169Z</time>
      </trkpt>
      <trkpt lat="36.65394991636276" lon="137.84990994259715">
        <ele>738.47</ele>
        <time>2025-07-08T14:19:27.963Z</time>
      </trkpt>
      <trkpt lat="36.65394396521151" lon="137.84989225678146">
        <ele>738.4</ele>
        <time>2025-07-08T14:19:29.757Z</time>
      </trkpt>
      <trkpt lat="36.65394388139248" lon="137.8498918376863">
        <ele>738.32</ele>
        <time>2025-07-08T14:19:31.551Z</time>
      </trkpt>
      <trkpt lat="36.653943210840225" lon="137.84988982602954">
        <ele>738.22</ele>
        <time>2025-07-08T14:19:33.345Z</time>
      </trkpt>
      <trkpt lat="36.65394145064056" lon="137.84988454543054">
        <ele>738.11</ele>
        <time>2025-07-08T14:19:35.139Z</time>
      </trkpt>
      <trkpt lat="36.65393994189799" lon="137.8498799353838">
        <ele>737.98</ele>
        <time>2025-07-08T14:19:36.933Z</time>
      </trkpt>
      <trkpt lat="36.6538892313838" lon="137.84987247548997">
        <ele>737.84</ele>
        <time>2025-07-08T14:19:38.728Z</time>
      </trkpt>
      <trkpt lat="36.653888896107674" lon="137.84987247548997">
        <ele>737.69</ele>
        <time>2025-07-08T14:19:40.523Z</time>
      </trkpt>
      <trkpt lat="36.65388713590801" lon="137.84987222403288">
        <ele>737.53</ele>
        <time>2025-07-08T14:19:42.318Z</time>
      </trkpt>
      <trkpt lat="36.65388244204223" lon="137.84987155348063">
        <ele>737.36</ele>
        <time>2025-07-08T14:19:44.113Z</time>
      </trkpt>
      <trkpt lat="36.653878251090646" lon="137.8498709667474">
        <ele>737.17</ele>
        <time>2025-07-08T14:19:45.908Z</time>
      </trkpt>
      <trkpt lat="36.65357273072004" lon="137.84996828064322">
        <ele>736.91</ele>
        <time>2025-07-08T14:19:47.708Z</time>
      </trkpt>
      <trkpt lat="36.65350173600018" lon="137.84999074414372">
        <ele>736.68</ele>
        <time>2025-07-08T14:19:49.509Z</time>
      </trkpt>
      <trkpt lat="36.65350140072405" lon="137.8499909117818">
        <ele>736.46</ele>
        <time>2025-07-08T14:19:51.310Z</time>
      </trkpt>
      <trkpt lat="36.65349972434342" lon="137.849991498515">
        <ele>736.24</ele>
        <time>2025-07-08T14:19:53.111Z</time>
      </trkpt>
      <trkpt lat="36.65349503047764" lon="137.84999300725758">
        <ele>736.01</ele>
        <time>2025-07-08T14:19:54.912Z</time>
      </trkpt>
      <trkpt lat="36.65349092334509" lon="137.8499943483621">
        <ele>735.77</ele>
        <time>2025-07-08T14:19:56.713Z</time>
      </trkpt>
      <trkpt lat="36.65345278568566" lon="137.8500242717564">
        <ele>735.52</ele>
        <time>2025-07-08T14:19:58.515Z</time>
      </trkpt>
      <trkpt lat="36.65345253422856" lon="137.8500245232135">
        <ele>735.27</ele>
        <time>2025-07-08T14:20:00.317Z</time>
      </trkpt>
      <trkpt lat="36.65345102548599" lon="137.85002578049898">
        <ele>735.02</ele>
        <time>2025-07-08T14:20:02.119Z</time>
      </trkpt>
      <trkpt lat="36.6534470859915" lon="137.8500289656222">
        <ele>734.77</ele>
        <time>2025-07-08T14:20:03.921Z</time>
      </trkpt>
      <trkpt lat="36.65344356559217" lon="137.8500318992883">
        <ele>734.51</ele>
        <time>2025-07-08T14:20:05.723Z</time>
      </trkpt>
      <trkpt lat="36.65313318371773" lon="137.85010155290365">
        <ele>734.2</ele>
        <time>2025-07-08T14:20:07.530Z</time>
      </trkpt>
      <trkpt lat="36.6529774479568" lon="137.8501363378018">
        <ele>733.88</ele>
        <time>2025-07-08T14:20:09.340Z</time>
      </trkpt>
      <trkpt lat="36.65297702886164" lon="137.85013650543988">
        <ele>733.63</ele>
        <time>2025-07-08T14:20:11.150Z</time>
      </trkpt>
      <trkpt lat="36.65297535248101" lon="137.85013692453504">
        <ele>733.39</ele>
        <time>2025-07-08T14:20:12.960Z</time>
      </trkpt>
      <trkpt lat="36.652970323339105" lon="137.85013809800148">
        <ele>733.16</ele>
        <time>2025-07-08T14:20:14.770Z</time>
      </trkpt>
      <trkpt lat="36.652965880930424" lon="137.8501391876489">
        <ele>732.93</ele>
        <time>2025-07-08T14:20:16.580Z</time>
      </trkpt>
      <trkpt lat="36.65295992977917" lon="137.85010993480682">
        <ele>732.71</ele>
        <time>2025-07-08T14:20:18.391Z</time>
      </trkpt>
      <trkpt lat="36.65292992256582" lon="137.85014991648495">
        <ele>732.48</ele>
        <time>2025-07-08T14:20:20.202Z</time>
      </trkpt>
      <trkpt lat="36.65292992256582" lon="137.85021998919547">
        <ele>732.25</ele>
        <time>2025-07-08T14:20:22.014Z</time>
      </trkpt>
      <trkpt lat="36.652989936992526" lon="137.8503699414432">
        <ele>732.04</ele>
        <time>2025-07-08T14:20:23.828Z</time>
      </trkpt>
      <trkpt lat="36.65296998806298" lon="137.85041998140514">
        <ele>731.84</ele>
        <time>2025-07-08T14:20:25.643Z</time>
      </trkpt>
      <trkpt lat="36.6529499553144" lon="137.8504299558699">
        <ele>731.66</ele>
        <time>2025-07-08T14:20:27.458Z</time>
      </trkpt>
      <trkpt lat="36.652634711936116" lon="137.8504428640008">
        <ele>731.49</ele>
        <time>2025-07-08T14:20:29.278Z</time>
      </trkpt>
      <trkpt lat="36.652471935376525" lon="137.85044931806624">
        <ele>731.36</ele>
        <time>2025-07-08T14:20:31.101Z</time>
      </trkpt>
      <trkpt lat="36.652471516281366" lon="137.85044940188527">
        <ele>731.22</ele>
        <time>2025-07-08T14:20:32.924Z</time>
      </trkpt>
      <trkpt lat="36.65246983990073" lon="137.8504494857043">
        <ele>731.09</ele>
        <time>2025-07-08T14:20:34.747Z</time>
      </trkpt>
      <trkpt lat="36.652464643120766" lon="137.8504497371614">
        <ele>730.97</ele>
        <time>2025-07-08T14:20:36.570Z</time>
      </trkpt>
      <trkpt lat="36.65245994925499" lon="137.8504499886185">
        <ele>730.86</ele>
        <time>2025-07-08T14:20:38.393Z</time>
      </trkpt>
      <trkpt lat="36.65214470587671" lon="137.850461890921">
        <ele>730.81</ele>
        <time>2025-07-08T14:20:40.221Z</time>
      </trkpt>
      <trkpt lat="36.65192996151745" lon="137.85046993754804">
        <ele>730.74</ele>
        <time>2025-07-08T14:20:42.053Z</time>
      </trkpt>
      <trkpt lat="36.651941780000925" lon="137.85086112096906">
        <ele>730.62</ele>
        <time>2025-07-08T14:20:43.890Z</time>
      </trkpt>
      <trkpt lat="36.65194999426603" lon="137.85112992860377">
        <ele>730.5</ele>
        <time>2025-07-08T14:20:45.730Z</time>
      </trkpt>
      <trkpt lat="36.65176995098591" lon="137.8510699979961">
        <ele>730.48</ele>
        <time>2025-07-08T14:20:47.573Z</time>
      </trkpt>
      <trkpt lat="36.65153995156288" lon="137.85095994360745">
        <ele>730.44</ele>
        <time>2025-07-08T14:20:49.420Z</time>
      </trkpt>
      <trkpt lat="36.651265444234014" lon="137.85076724365354">
        <ele>730.32</ele>
        <time>2025-07-08T14:20:51.272Z</time>
      </trkpt>
      <trkpt lat="36.65106997825205" lon="137.8506299480796">
        <ele>730.21</ele>
        <time>2025-07-08T14:20:53.128Z</time>
      </trkpt>
      <trkpt lat="36.651058830320835" lon="137.85061880014837">
        <ele>730.16</ele>
        <time>2025-07-08T14:20:54.984Z</time>
      </trkpt>
      <trkpt lat="36.65105849504471" lon="137.85061846487224">
        <ele>730.12</ele>
        <time>2025-07-08T14:20:56.840Z</time>
      </trkpt>
      <trkpt lat="36.6510571539402" lon="137.85061712376773">
        <ele>730.1</ele>
        <time>2025-07-08T14:20:58.696Z</time>
      </trkpt>
      <trkpt lat="36.651053382083774" lon="137.85061343573034">
        <ele>730.08</ele>
        <time>2025-07-08T14:21:00.552Z</time>
      </trkpt>
      <trkpt lat="36.65104994550347" lon="137.85060999915004">
        <ele>730.07</ele>
        <time>2025-07-08T14:21:02.408Z</time>
      </trkpt>
      <trkpt lat="36.650899993255734" lon="137.85045996308327">
        <ele>729.99</ele>
        <time>2025-07-08T14:21:04.267Z</time>
      </trkpt>
      <trkpt lat="36.65080997161567" lon="137.8501999564469">
        <ele>729.95</ele>
        <time>2025-07-08T14:21:06.130Z</time>
      </trkpt>
      <trkpt lat="36.65071994997561" lon="137.84991991706192">
        <ele>730.0</ele>
        <time>2025-07-08T14:21:07.997Z</time>
      </trkpt>
      <trkpt lat="36.6506599355489" lon="137.84979997202754">
        <ele>730.05</ele>
        <time>2025-07-08T14:21:09.866Z</time>
      </trkpt>
      <trkpt lat="36.650449968874454" lon="137.84955999813974">
        <ele>730.21</ele>
        <time>2025-07-08T14:21:11.739Z</time>
      </trkpt>
      <trkpt lat="36.650239918380976" lon="137.8493399731815">
        <ele>730.35</ele>
        <time>2025-07-08T14:21:13.616Z</time>
      </trkpt>
      <trkpt lat="36.65007999166846" lon="137.8492599260062">
        <ele>730.44</ele>
        <time>2025-07-08T14:21:15.496Z</time>
      </trkpt>
      <trkpt lat="36.6499899700284" lon="137.84917996264994">
        <ele>730.49</ele>
        <time>2025-07-08T14:21:17.378Z</time>
      </trkpt>
      <trkpt lat="36.649744380265474" lon="137.84893437288702">
        <ele>730.45</ele>
        <time>2025-07-08T14:21:19.265Z</time>
      </trkpt>
      <trkpt lat="36.64949879050255" lon="137.8486887831241">
        <ele>730.44</ele>
        <time>2025-07-08T14:21:21.157Z</time>
      </trkpt>
      <trkpt lat="36.64938999339938" lon="137.84857998602092">
        <ele>730.54</ele>
        <time>2025-07-08T14:21:23.051Z</time>
      </trkpt>
      <trkpt lat="36.64927993901074" lon="137.84849993884563">
        <ele>730.65</ele>
        <time>2025-07-08T14:21:24.947Z</time>
      </trkpt>
      <trkpt lat="36.64910995401442" lon="137.84842994995415">
        <ele>730.72</ele>
        <time>2025-07-08T14:21:26.846Z</time>
      </trkpt>
      <trkpt lat="36.648819940164685" lon="137.8483399283141">
        <ele>730.7</ele>
        <time>2025-07-08T14:21:28.750Z</time>
      </trkpt>
      <trkpt lat="36.64851592853665" lon="137.84823590889573">
        <ele>730.72</ele>
        <time>2025-07-08T14:21:30.659Z</time>
      </trkpt>
      <trkpt lat="36.64843998849392" lon="137.8482099249959">
        <ele>730.82</ele>
        <time>2025-07-08T14:21:32.569Z</time>
      </trkpt>
      <trkpt lat="36.64812482893467" lon="137.8481938317418">
        <ele>730.97</ele>
        <time>2025-07-08T14:21:34.484Z</time>
      </trkpt>
      <trkpt lat="36.64804997853935" lon="137.84818997606635">
        <ele>731.11</ele>
        <time>2025-07-08T14:21:36.401Z</time>
      </trkpt>
      <trkpt lat="36.6477348189801" lon="137.84820657223463">
        <ele>731.29</ele>
        <time>2025-07-08T14:21:38.323Z</time>
      </trkpt>
      <trkpt lat="36.64766994304955" lon="137.8482099249959">
        <ele>731.39</ele>
        <time>2025-07-08T14:21:40.246Z</time>
      </trkpt>
      <trkpt lat="36.64736073464155" lon="137.84828728996217">
        <ele>731.48</ele>
        <time>2025-07-08T14:21:42.174Z</time>
      </trkpt>
      <trkpt lat="36.64730994030833" lon="137.84829994663596">
        <ele>731.56</ele>
        <time>2025-07-08T14:21:44.102Z</time>
      </trkpt>
      <trkpt lat="36.64700995199382" lon="137.8483399283141">
        <ele>731.69</ele>
        <time>2025-07-08T14:21:46.035Z</time>
      </trkpt>
      <trkpt lat="36.64669454097748" lon="137.8483444545418">
        <ele>731.8</ele>
        <time>2025-07-08T14:21:47.973Z</time>
      </trkpt>
      <trkpt lat="36.646379213780165" lon="137.84834898076952">
        <ele>731.85</ele>
        <time>2025-07-08T14:21:49.916Z</time>
      </trkpt>
      <trkpt lat="36.64630997925997" lon="137.8483499865979">
        <ele>731.92</ele>
        <time>2025-07-08T14:21:51.860Z</time>
      </trkpt>
      <trkpt lat="36.64599456824362" lon="137.8483499865979">
        <ele>732.01</ele>
        <time>2025-07-08T14:21:53.810Z</time>
      </trkpt>
      <trkpt lat="36.64590999484062" lon="137.8483499865979">
        <ele>732.07</ele>
        <time>2025-07-08T14:21:55.761Z</time>
      </trkpt>
      <trkpt lat="36.64564998820424" lon="137.84836993552744">
        <ele>732.12</ele>
        <time>2025-07-08T14:21:57.716Z</time>
      </trkpt>
      <trkpt lat="36.645481176674366" lon="137.84844470210373">
        <ele>732.18</ele>
        <time>2025-07-08T14:21:59.674Z</time>
      </trkpt>
      <trkpt lat="36.64548084139824" lon="137.84844495356083">
        <ele>732.21</ele>
        <time>2025-07-08T14:22:01.632Z</time>
      </trkpt>
      <trkpt lat="36.64547924883664" lon="137.84844570793211">
        <ele>732.22</ele>
        <time>2025-07-08T14:22:03.590Z</time>
      </trkpt>
      <trkpt lat="36.6454743873328" lon="137.84844797104597">
        <ele>732.23</ele>
        <time>2025-07-08T14:22:05.548Z</time>
      </trkpt>
      <trkpt lat="36.645469944924116" lon="137.84844998270273">
        <ele>732.22</ele>
        <time>2025-07-08T14:22:07.506Z</time>
      </trkpt>
      <trkpt lat="36.645185463130474" lon="137.84861887805164">
        <ele>732.2</ele>
        <time>2025-07-08T14:22:09.469Z</time>
      </trkpt>
      <trkpt lat="36.64514992386103" lon="137.8486399166286">
        <ele>732.16</ele>
        <time>2025-07-08T14:22:11.433Z</time>
      </trkpt>
      <trkpt lat="36.64486829191446" lon="137.84881602041423">
        <ele>732.08</ele>
        <time>2025-07-08T14:22:13.402Z</time>
      </trkpt>
      <trkpt lat="36.644669976085424" lon="137.84893998876214">
        <ele>732.06</ele>
        <time>2025-07-08T14:22:15.374Z</time>
      </trkpt>
      <trkpt lat="36.64444995112717" lon="137.84910997375846">
        <ele>732.02</ele>
        <time>2025-07-08T14:22:17.350Z</time>
      </trkpt>
      <trkpt lat="36.64435992948711" lon="137.84873999655247">
        <ele>731.99</ele>
        <time>2025-07-08T14:22:19.331Z</time>
      </trkpt>
      <trkpt lat="36.644231183454394" lon="137.84838267602026">
        <ele>731.97</ele>
        <time>2025-07-08T14:22:21.318Z</time>
      </trkpt>
      <trkpt lat="36.64410235360265" lon="137.8480254393071">
        <ele>731.89</ele>
        <time>2025-07-08T14:22:23.310Z</time>
      </trkpt>
      <trkpt lat="36.644049966707826" lon="137.84787992946804">
        <ele>731.83</ele>
        <time>2025-07-08T14:22:25.304Z</time>
      </trkpt>
      <trkpt lat="36.643762132152915" lon="137.84803985618055">
        <ele>731.76</ele>
        <time>2025-07-08T14:22:27.303Z</time>
      </trkpt>
      <trkpt lat="36.643700608983636" lon="137.8480738028884">
        <ele>731.73</ele>
        <time>2025-07-08T14:22:29.303Z</time>
      </trkpt>
      <trkpt lat="36.64370027370751" lon="137.8480740543455">
        <ele>731.71</ele>
        <time>2025-07-08T14:22:31.303Z</time>
      </trkpt>
      <trkpt lat="36.64369868114591" lon="137.84807497635484">
        <ele>731.7</ele>
        <time>2025-07-08T14:22:33.303Z</time>
      </trkpt>
      <trkpt lat="36.643694154918194" lon="137.84807757474482">
        <ele>731.7</ele>
        <time>2025-07-08T14:22:35.303Z</time>
      </trkpt>
      <trkpt lat="36.64368996396661" lon="137.8480799216777">
        <ele>731.71</ele>
        <time>2025-07-08T14:22:37.303Z</time>
      </trkpt>
      <trkpt lat="36.64340657182038" lon="137.84825183451176">
        <ele>731.8</ele>
        <time>2025-07-08T14:22:39.308Z</time>
      </trkpt>
      <trkpt lat="36.64312326349318" lon="137.8484237473458">
        <ele>731.77</ele>
        <time>2025-07-08T14:22:41.318Z</time>
      </trkpt>
      <trkpt lat="36.64285806007683" lon="137.8485844284296">
        <ele>731.81</ele>
        <time>2025-07-08T14:22:43.333Z</time>
      </trkpt>
      <trkpt lat="36.6428579762578" lon="137.8485844284296">
        <ele>731.87</ele>
        <time>2025-07-08T14:22:45.348Z</time>
      </trkpt>
      <trkpt lat="36.64285646751523" lon="137.84858543425798">
        <ele>731.95</ele>
        <time>2025-07-08T14:22:47.363Z</time>
      </trkpt>
      <trkpt lat="36.64285168983042" lon="137.84858845174313">
        <ele>732.04</ele>
        <time>2025-07-08T14:22:49.378Z</time>
      </trkpt>
      <trkpt lat="36.64284724742174" lon="137.84859121777117">
        <ele>732.15</ele>
        <time>2025-07-08T14:22:51.393Z</time>
      </trkpt>
      <trkpt lat="36.64255295880139" lon="137.8487318661064">
        <ele>732.36</ele>
        <time>2025-07-08T14:22:53.413Z</time>
      </trkpt>
      <trkpt lat="36.64254390634596" lon="137.84873597323895">
        <ele>732.5</ele>
        <time>2025-07-08T14:22:55.433Z</time>
      </trkpt>
      <trkpt lat="36.64254357106984" lon="137.84873622469604">
        <ele>732.64</ele>
        <time>2025-07-08T14:22:57.453Z</time>
      </trkpt>
      <trkpt lat="36.642541978508234" lon="137.84873706288636">
        <ele>732.8</ele>
        <time>2025-07-08T14:22:59.473Z</time>
      </trkpt>
      <trkpt lat="36.64253728464246" lon="137.8487393260002">
        <ele>732.96</ele>
        <time>2025-07-08T14:23:01.493Z</time>
      </trkpt>
      <trkpt lat="36.64253300987184" lon="137.848741421476">
        <ele>733.14</ele>
        <time>2025-07-08T14:23:03.513Z</time>
      </trkpt>
      <trkpt lat="36.64221776649356" lon="137.84875399433076">
        <ele>733.26</ele>
        <time>2025-07-08T14:23:05.538Z</time>
      </trkpt>
      <trkpt lat="36.64190252311528" lon="137.84876656718552">
        <ele>733.45</ele>
        <time>2025-07-08T14:23:07.568Z</time>
      </trkpt>
      <trkpt lat="36.64158736355603" lon="137.8487792238593">
        <ele>733.74</ele>
        <time>2025-07-08T14:23:09.603Z</time>
      </trkpt>
      <trkpt lat="36.641272120177746" lon="137.84879179671407">
        <ele>734.01</ele>
        <time>2025-07-08T14:23:11.643Z</time>
      </trkpt>
      <trkpt lat="36.641202215105295" lon="137.84879439510405">
        <ele>734.22</ele>
        <time>2025-07-08T14:23:13.685Z</time>
      </trkpt>
      <trkpt lat="36.64120179601014" lon="137.84879447892308">
        <ele>734.43</ele>
        <time>2025-07-08T14:23:15.727Z</time>
      </trkpt>
      <trkpt lat="36.64120003581047" lon="137.8487945627421">
        <ele>734.63</ele>
        <time>2025-07-08T14:23:17.769Z</time>
      </trkpt>
      <trkpt lat="36.641194839030504" lon="137.8487948141992">
        <ele>734.83</ele>
        <time>2025-07-08T14:23:19.811Z</time>
      </trkpt>
      <trkpt lat="36.6411900613457" lon="137.8487950656563">
        <ele>735.03</ele>
        <time>2025-07-08T14:23:21.853Z</time>
      </trkpt>
      <trkpt lat="36.64089233614504" lon="137.84866598434746">
        <ele>735.31</ele>
        <time>2025-07-08T14:23:23.900Z</time>
      </trkpt>
      <trkpt lat="36.64059461094439" lon="137.84853690303862">
        <ele>735.57</ele>
        <time>2025-07-08T14:23:25.952Z</time>
      </trkpt>
      <trkpt lat="36.640296801924706" lon="137.84840782172978">
        <ele>735.66</ele>
        <time>2025-07-08T14:23:28.009Z</time>
      </trkpt>
      <trkpt lat="36.64008691906929" lon="137.8483167104423">
        <ele>735.76</ele>
        <time>2025-07-08T14:23:30.069Z</time>
      </trkpt>
      <trkpt lat="36.64008683525026" lon="137.84831662662327">
        <ele>735.93</ele>
        <time>2025-07-08T14:23:32.129Z</time>
      </trkpt>
      <trkpt lat="36.640085242688656" lon="137.84831603989005">
        <ele>736.09</ele>
        <time>2025-07-08T14:23:34.189Z</time>
      </trkpt>
      <trkpt lat="36.64008004590869" lon="137.84831386059523">
        <ele>736.25</ele>
        <time>2025-07-08T14:23:36.250Z</time>
      </trkpt>
      <trkpt lat="36.64007526822388" lon="137.84831176511943">
        <ele>736.4</ele>
        <time>2025-07-08T14:23:38.311Z</time>
      </trkpt>
      <trkpt lat="36.639760276302695" lon="137.8483328036964">
        <ele>736.46</ele>
        <time>2025-07-08T14:23:40.377Z</time>
      </trkpt>
      <trkpt lat="36.63944536820054" lon="137.84835384227335">
        <ele>736.59</ele>
        <time>2025-07-08T14:23:42.448Z</time>
      </trkpt>
      <trkpt lat="36.639130460098386" lon="137.84837488085032">
        <ele>736.79</ele>
        <time>2025-07-08T14:23:44.524Z</time>
      </trkpt>
      <trkpt lat="36.6388154681772" lon="137.8483960032463">
        <ele>737.05</ele>
        <time>2025-07-08T14:23:46.605Z</time>
      </trkpt>
      <trkpt lat="36.638500560075045" lon="137.84841704182327">
        <ele>737.21</ele>
        <time>2025-07-08T14:23:48.691Z</time>
      </trkpt>
      <trkpt lat="36.63832328282297" lon="137.84842869266868">
        <ele>737.34</ele>
        <time>2025-07-08T14:23:50.780Z</time>
      </trkpt>
      <trkpt lat="36.63824516348541" lon="137.8480494953692">
        <ele>737.48</ele>
        <time>2025-07-08T14:23:52.874Z</time>
      </trkpt>
      <trkpt lat="36.63822429254651" lon="137.84794807434082">
        <ele>737.55</ele>
        <time>2025-07-08T14:23:54.969Z</time>
      </trkpt>
      <trkpt lat="36.63815639913082" lon="137.8475658595562">
        <ele>737.6</ele>
        <time>2025-07-08T14:23:57.069Z</time>
      </trkpt>
      <trkpt lat="36.63809085264802" lon="137.84719705581665">
        <ele>737.78</ele>
        <time>2025-07-08T14:23:59.174Z</time>
      </trkpt>
      <trkpt lat="36.6377757769078" lon="137.84718113020062">
        <ele>737.93</ele>
        <time>2025-07-08T14:24:01.284Z</time>
      </trkpt>
      <trkpt lat="36.6377723403275" lon="137.84718096256256">
        <ele>737.98</ele>
        <time>2025-07-08T14:24:03.394Z</time>
      </trkpt>
      <trkpt lat="36.638060761615634" lon="137.84726679325104">
        <ele>737.88</ele>
        <time>2025-07-08T14:24:05.509Z</time>
      </trkpt>
      <trkpt lat="36.63812999613583" lon="137.8476485889405">
        <ele>737.85</ele>
        <time>2025-07-08T14:24:07.629Z</time>
      </trkpt>
      <trkpt lat="36.63819923065603" lon="137.84803038462996">
        <ele>737.91</ele>
        <time>2025-07-08T14:24:09.754Z</time>
      </trkpt>
      <trkpt lat="36.638263100758195" lon="137.8483825083822">
        <ele>737.88</ele>
        <time>2025-07-08T14:24:11.884Z</time>
      </trkpt>
      <trkpt lat="36.63794852793217" lon="137.84841142594814">
        <ele>737.85</ele>
        <time>2025-07-08T14:24:14.019Z</time>
      </trkpt>
      <trkpt lat="36.637854147702456" lon="137.8484200593084">
        <ele>737.82</ele>
        <time>2025-07-08T14:24:16.155Z</time>
      </trkpt>
      <trkpt lat="36.637545274570584" lon="137.8483407665044">
        <ele>737.68</ele>
        <time>2025-07-08T14:24:18.296Z</time>
      </trkpt>
      <trkpt lat="36.63723640143871" lon="137.84826155751944">
        <ele>737.61</ele>
        <time>2025-07-08T14:24:20.442Z</time>
      </trkpt>
      <trkpt lat="36.6371092479676" lon="137.84822886809707">
        <ele>737.6</ele>
        <time>2025-07-08T14:24:22.590Z</time>
      </trkpt>
      <trkpt lat="36.637107655406" lon="137.848228700459">
        <ele>737.6</ele>
        <time>2025-07-08T14:24:24.738Z</time>
      </trkpt>
      <trkpt lat="36.63710187189281" lon="137.84822777844965">
        <ele>737.61</ele>
        <time>2025-07-08T14:24:26.886Z</time>
      </trkpt>
      <trkpt lat="36.63709650747478" lon="137.84822694025934">
        <ele>737.61</ele>
        <time>2025-07-08T14:24:29.034Z</time>
      </trkpt>
      <trkpt lat="36.63703791797161" lon="137.84784246236086">
        <ele>737.75</ele>
        <time>2025-07-08T14:24:31.187Z</time>
      </trkpt>
      <trkpt lat="36.63698226213455" lon="137.84747818484902">
        <ele>737.96</ele>
        <time>2025-07-08T14:24:33.345Z</time>
      </trkpt>
      <trkpt lat="36.63698226213455" lon="137.84747768193483">
        <ele>737.97</ele>
        <time>2025-07-08T14:24:35.503Z</time>
      </trkpt>
      <trkpt lat="36.636981926858425" lon="137.84747541882098">
        <ele>737.97</ele>
        <time>2025-07-08T14:24:37.661Z</time>
      </trkpt>
      <trkpt lat="36.63698108866811" lon="137.84746971912682">
        <ele>737.97</ele>
        <time>2025-07-08T14:24:39.819Z</time>
      </trkpt>
      <trkpt lat="36.63698033429682" lon="137.8474646061659">
        <ele>737.97</ele>
        <time>2025-07-08T14:24:41.977Z</time>
      </trkpt>
      <trkpt lat="36.636667186394334" lon="137.84741741605103">
        <ele>737.92</ele>
        <time>2025-07-08T14:24:44.140Z</time>
      </trkpt>
      <trkpt lat="36.63656685501337" lon="137.84740216098726">
        <ele>737.89</ele>
        <time>2025-07-08T14:24:46.305Z</time>
      </trkpt>
      <trkpt lat="36.63656643591821" lon="137.84740216098726">
        <ele>737.86</ele>
        <time>2025-07-08T14:24:48.470Z</time>
      </trkpt>
      <trkpt lat="36.636564675718546" lon="137.84740190953016">
        <ele>737.81</ele>
        <time>2025-07-08T14:24:50.635Z</time>
      </trkpt>
      <trkpt lat="36.636559227481484" lon="137.84740115515888">
        <ele>737.76</ele>
        <time>2025-07-08T14:24:52.800Z</time>
      </trkpt>
      <trkpt lat="36.63655419833958" lon="137.8474004007876">
        <ele>737.7</ele>
        <time>2025-07-08T14:24:54.965Z</time>
      </trkpt>
      <trkpt lat="36.63626686669886" lon="137.84723879769444">
        <ele>737.6</ele>
        <time>2025-07-08T14:24:57.135Z</time>
      </trkpt>
      <trkpt lat="36.63597961887717" lon="137.8470771946013">
        <ele>737.43</ele>
        <time>2025-07-08T14:24:59.310Z</time>
      </trkpt>
      <trkpt lat="36.63594575598836" lon="137.84705800004303">
        <ele>737.35</ele>
        <time>2025-07-08T14:25:01.486Z</time>
      </trkpt>
      <trkpt lat="36.63594542071223" lon="137.84705783240497">
        <ele>737.27</ele>
        <time>2025-07-08T14:25:03.662Z</time>
      </trkpt>
      <trkpt lat="36.6359437443316" lon="137.84705691039562">
        <ele>737.19</ele>
        <time>2025-07-08T14:25:05.838Z</time>
      </trkpt>
      <trkpt lat="36.63593888282776" lon="137.8470542281866">
        <ele>737.11</ele>
        <time>2025-07-08T14:25:08.014Z</time>
      </trkpt>
      <trkpt lat="36.635934272781014" lon="137.84705162979662">
        <ele>737.04</ele>
        <time>2025-07-08T14:25:10.190Z</time>
      </trkpt>
      <trkpt lat="36.63593837991357" lon="137.84666036255658">
        <ele>737.05</ele>
        <time>2025-07-08T14:25:12.371Z</time>
      </trkpt>
      <trkpt lat="36.63593837991357" lon="137.84665399231017">
        <ele>736.98</ele>
        <time>2025-07-08T14:25:14.552Z</time>
      </trkpt>
      <trkpt lat="36.63593837991357" lon="137.84665348939598">
        <ele>736.91</ele>
        <time>2025-07-08T14:25:16.733Z</time>
      </trkpt>
      <trkpt lat="36.6359384637326" lon="137.84665122628212">
        <ele>736.85</ele>
        <time>2025-07-08T14:25:18.914Z</time>
      </trkpt>
      <trkpt lat="36.63593854755163" lon="137.84664460457861">
        <ele>736.79</ele>
        <time>2025-07-08T14:25:21.095Z</time>
      </trkpt>
      <trkpt lat="36.635938631370664" lon="137.8466384857893">
        <ele>736.75</ele>
        <time>2025-07-08T14:25:23.276Z</time>
      </trkpt>
      <trkpt lat="36.635709051042795" lon="137.84637009724975">
        <ele>736.7</ele>
        <time>2025-07-08T14:25:25.463Z</time>
      </trkpt>
      <trkpt lat="36.635599080473185" lon="137.8462415188551">
        <ele>736.65</ele>
        <time>2025-07-08T14:25:27.652Z</time>
      </trkpt>
      <trkpt lat="36.63559882901609" lon="137.84624118357897">
        <ele>736.63</ele>
        <time>2025-07-08T14:25:29.841Z</time>
      </trkpt>
      <trkpt lat="36.63559748791158" lon="137.8462396748364">
        <ele>736.62</ele>
        <time>2025-07-08T14:25:32.030Z</time>
      </trkpt>
      <trkpt lat="36.63559354841709" lon="137.84623506478965">
        <ele>736.63</ele>
        <time>2025-07-08T14:25:34.219Z</time>
      </trkpt>
      <trkpt lat="36.63558994419873" lon="137.84623079001904">
        <ele>736.65</ele>
        <time>2025-07-08T14:25:36.408Z</time>
      </trkpt>
      <trkpt lat="36.63535340689123" lon="137.84617982804775">
        <ele>736.67</ele>
        <time>2025-07-08T14:25:38.601Z</time>
      </trkpt>
      <trkpt lat="36.63535323925316" lon="137.84617974422872">
        <ele>736.73</ele>
        <time>2025-07-08T14:25:40.794Z</time>
      </trkpt>
      <trkpt lat="36.63535156287253" lon="137.84617949277163">
        <ele>736.81</ele>
        <time>2025-07-08T14:25:42.987Z</time>
      </trkpt>
      <trkpt lat="36.63534577935934" lon="137.84617831930518">
        <ele>736.91</ele>
        <time>2025-07-08T14:25:45.180Z</time>
      </trkpt>
      <trkpt lat="36.63534024730325" lon="137.84617714583874">
        <ele>737.04</ele>
        <time>2025-07-08T14:25:47.373Z</time>
      </trkpt>
      <trkpt lat="36.6350404266268" lon="137.84629851579666">
        <ele>737.14</ele>
        <time>2025-07-08T14:25:49.571Z</time>
      </trkpt>
      <trkpt lat="36.634740605950356" lon="137.84641996957362">
        <ele>737.29</ele>
        <time>2025-07-08T14:25:51.774Z</time>
      </trkpt>
      <trkpt lat="36.63453516550362" lon="137.84650295041502">
        <ele>737.55</ele>
        <time>2025-07-08T14:25:53.981Z</time>
      </trkpt>
      <trkpt lat="36.634534830227494" lon="137.8465032018721">
        <ele>737.78</ele>
        <time>2025-07-08T14:25:56.188Z</time>
      </trkpt>
      <trkpt lat="36.63453315384686" lon="137.8465039562434">
        <ele>738.05</ele>
        <time>2025-07-08T14:25:58.395Z</time>
      </trkpt>
      <trkpt lat="36.63452762179077" lon="137.84650621935725">
        <ele>738.34</ele>
        <time>2025-07-08T14:26:00.602Z</time>
      </trkpt>
      <trkpt lat="36.63452234119177" lon="137.84650839865208">
        <ele>738.66</ele>
        <time>2025-07-08T14:26:02.809Z</time>
      </trkpt>
      <trkpt lat="36.6344999615103" lon="137.84652994014323">
        <ele>739.0</ele>
        <time>2025-07-08T14:26:05.016Z</time>
      </trkpt>
      <trkpt lat="36.63447305560112" lon="137.8461400140077">
        <ele>739.49</ele>
        <time>2025-07-08T14:26:07.228Z</time>
      </trkpt>
      <trkpt lat="36.63445997983217" lon="137.8459499962628">
        <ele>739.98</ele>
        <time>2025-07-08T14:26:09.443Z</time>
      </trkpt>
      <trkpt lat="36.63436995819211" lon="137.84559996798635">
        <ele>740.48</ele>
        <time>2025-07-08T14:26:11.663Z</time>
      </trkpt>
      <trkpt lat="36.63432997651398" lon="137.84550994634628">
        <ele>740.89</ele>
        <time>2025-07-08T14:26:13.884Z</time>
      </trkpt>
      <trkpt lat="36.6342599876225" lon="137.84555998630822">
        <ele>741.3</ele>
        <time>2025-07-08T14:26:16.106Z</time>
      </trkpt>
      <trkpt lat="36.63416996598244" lon="137.84563994966447">
        <ele>741.73</ele>
        <time>2025-07-08T14:26:18.330Z</time>
      </trkpt>
      <trkpt lat="36.63401992991567" lon="137.84571999683976">
        <ele>742.16</ele>
        <time>2025-07-08T14:26:20.557Z</time>
      </trkpt>
      <trkpt lat="36.63385991938412" lon="137.84578998573124">
        <ele>742.58</ele>
        <time>2025-07-08T14:26:22.786Z</time>
      </trkpt>
      <trkpt lat="36.6336899343878" lon="137.84582996740937">
        <ele>743.02</ele>
        <time>2025-07-08T14:26:25.018Z</time>
      </trkpt>
      <trkpt lat="36.633375948295" lon="137.84586659632623">
        <ele>743.51</ele>
        <time>2025-07-08T14:26:27.255Z</time>
      </trkpt>
      <trkpt lat="36.633089957758784" lon="137.84589995630085">
        <ele>744.01</ele>
        <time>2025-07-08T14:26:29.497Z</time>
      </trkpt>
      <trkpt lat="36.632979987189174" lon="137.8459499962628">
        <ele>744.45</ele>
        <time>2025-07-08T14:26:31.741Z</time>
      </trkpt>
      <trkpt lat="36.632939921692014" lon="137.84560994245112">
        <ele>744.99</ele>
        <time>2025-07-08T14:26:33.989Z</time>
      </trkpt>
      <trkpt lat="36.63288996554911" lon="137.84526997245848">
        <ele>745.51</ele>
        <time>2025-07-08T14:26:36.241Z</time>
      </trkpt>
      <trkpt lat="36.63289834745228" lon="137.84517534077168">
        <ele>745.97</ele>
        <time>2025-07-08T14:26:38.495Z</time>
      </trkpt>
      <trkpt lat="36.632898431271315" lon="137.84517483785748">
        <ele>746.42</ele>
        <time>2025-07-08T14:26:40.749Z</time>
      </trkpt>
      <trkpt lat="36.63289868272841" lon="137.84517257474363">
        <ele>746.86</ele>
        <time>2025-07-08T14:26:43.003Z</time>
      </trkpt>
      <trkpt lat="36.63289935328066" lon="137.8451661206782">
        <ele>747.3</ele>
        <time>2025-07-08T14:26:45.257Z</time>
      </trkpt>
      <trkpt lat="36.632899940013885" lon="137.84515991806984">
        <ele>747.73</ele>
        <time>2025-07-08T14:26:47.511Z</time>
      </trkpt>
      <trkpt lat="36.63296992890537" lon="137.8448999952525">
        <ele>748.15</ele>
        <time>2025-07-08T14:26:49.768Z</time>
      </trkpt>
      <trkpt lat="36.632979987189174" lon="137.844689944759">
        <ele>748.59</ele>
        <time>2025-07-08T14:26:52.028Z</time>
      </trkpt>
      <trkpt lat="36.633069925010204" lon="137.844689944759">
        <ele>749.02</ele>
        <time>2025-07-08T14:26:54.290Z</time>
      </trkpt>
      <trkpt lat="36.633109990507364" lon="137.8445199597627">
        <ele>749.48</ele>
        <time>2025-07-08T14:26:56.554Z</time>
      </trkpt>
      <trkpt lat="36.63316992111504" lon="137.84423992037773">
        <ele>749.98</ele>
        <time>2025-07-08T14:26:58.822Z</time>
      </trkpt>
      <trkpt lat="36.63318995386362" lon="137.8440099209547">
        <ele>750.47</ele>
        <time>2025-07-08T14:27:01.093Z</time>
      </trkpt>
      <trkpt lat="36.63318995386362" lon="137.84386524930596">
        <ele>750.92</ele>
        <time>2025-07-08T14:27:03.365Z</time>
      </trkpt>
      <trkpt lat="36.63318995386362" lon="137.8438648302108">
        <ele>751.35</ele>
        <time>2025-07-08T14:27:05.637Z</time>
      </trkpt>
      <trkpt lat="36.63318995386362" lon="137.84386248327792">
        <ele>751.78</ele>
        <time>2025-07-08T14:27:07.909Z</time>
      </trkpt>
      <trkpt lat="36.63318995386362" lon="137.84385594539344">
        <ele>752.21</ele>
        <time>2025-07-08T14:27:10.182Z</time>
      </trkpt>
      <trkpt lat="36.63318995386362" lon="137.8438499942422">
        <ele>752.64</ele>
        <time>2025-07-08T14:27:12.455Z</time>
      </trkpt>
      <trkpt lat="36.633199928328395" lon="137.84369995817542">
        <ele>753.1</ele>
        <time>2025-07-08T14:27:14.730Z</time>
      </trkpt>
      <trkpt lat="36.63328994996846" lon="137.84343995153904">
        <ele>753.65</ele>
        <time>2025-07-08T14:27:17.008Z</time>
      </trkpt>
      <trkpt lat="36.63330998271704" lon="137.84316997043788">
        <ele>754.23</ele>
        <time>2025-07-08T14:27:19.290Z</time>
      </trkpt>
      <trkpt lat="36.6332099866122" lon="137.84316997043788">
        <ele>754.7</ele>
        <time>2025-07-08T14:27:21.573Z</time>
      </trkpt>
      <trkpt lat="36.632899856194854" lon="137.84324155189097">
        <ele>755.17</ele>
        <time>2025-07-08T14:27:23.861Z</time>
      </trkpt>
      <trkpt lat="36.63268997333944" lon="137.8432899992913">
        <ele>755.62</ele>
        <time>2025-07-08T14:27:26.153Z</time>
      </trkpt>
      <trkpt lat="36.632384872063994" lon="137.84338915720582">
        <ele>756.11</ele>
        <time>2025-07-08T14:27:28.450Z</time>
      </trkpt>
      <trkpt lat="36.63230272941291" lon="137.8434155602008">
        <ele>756.6</ele>
        <time>2025-07-08T14:27:30.748Z</time>
      </trkpt>
      <trkpt lat="36.63230239413679" lon="137.84341572783887">
        <ele>757.1</ele>
        <time>2025-07-08T14:27:33.046Z</time>
      </trkpt>
      <trkpt lat="36.63230063393712" lon="137.84341639839113">
        <ele>757.62</ele>
        <time>2025-07-08T14:27:35.344Z</time>
      </trkpt>
      <trkpt lat="36.63229510188103" lon="137.84341824240983">
        <ele>758.16</ele>
        <time>2025-07-08T14:27:37.642Z</time>
      </trkpt>
      <trkpt lat="36.63228998892009" lon="137.84341991879046">
        <ele>758.72</ele>
        <time>2025-07-08T14:27:39.940Z</time>
      </trkpt>
      <trkpt lat="36.632099971175194" lon="137.84342997707427">
        <ele>759.36</ele>
        <time>2025-07-08T14:27:42.241Z</time>
      </trkpt>
      <trkpt lat="36.632019923999906" lon="137.84345998428762">
        <ele>759.99</ele>
        <time>2025-07-08T14:27:44.544Z</time>
      </trkpt>
      <trkpt lat="36.63194993510842" lon="137.84349996596575">
        <ele>760.66</ele>
        <time>2025-07-08T14:27:46.848Z</time>
      </trkpt>
      <trkpt lat="36.63189997896552" lon="137.84353994764388">
        <ele>761.35</ele>
        <time>2025-07-08T14:27:49.153Z</time>
      </trkpt>
      <trkpt lat="36.63185999728739" lon="137.8434499260038">
        <ele>762.08</ele>
        <time>2025-07-08T14:27:51.459Z</time>
      </trkpt>
      <trkpt lat="36.631779950112104" lon="137.8432199265808">
        <ele>762.89</ele>
        <time>2025-07-08T14:27:53.768Z</time>
      </trkpt>
      <trkpt lat="36.631739968433976" lon="137.84313996322453">
        <ele>763.7</ele>
        <time>2025-07-08T14:27:56.079Z</time>
      </trkpt>
      <trkpt lat="36.631589932367206" lon="137.84300995990634">
        <ele>764.62</ele>
        <time>2025-07-08T14:27:58.393Z</time>
      </trkpt>
      <trkpt lat="36.6315299179405" lon="137.8429099638015">
        <ele>765.54</ele>
        <time>2025-07-08T14:28:00.708Z</time>
      </trkpt>
      <trkpt lat="36.63146998733282" lon="137.84292999655008">
        <ele>766.45</ele>
        <time>2025-07-08T14:28:03.024Z</time>
      </trkpt>
      <trkpt lat="36.63142304867506" lon="137.84293762408197">
        <ele>767.37</ele>
        <time>2025-07-08T14:28:05.341Z</time>
      </trkpt>
      <trkpt lat="36.63142271339893" lon="137.842937707901">
        <ele>768.32</ele>
        <time>2025-07-08T14:28:07.658Z</time>
      </trkpt>
      <trkpt lat="36.631420869380236" lon="137.84293804317713">
        <ele>769.31</ele>
        <time>2025-07-08T14:28:09.975Z</time>
      </trkpt>
      <trkpt lat="36.63141516968608" lon="137.8429390490055">
        <ele>770.34</ele>
        <time>2025-07-08T14:28:12.292Z</time>
      </trkpt>
      <trkpt lat="36.63140997290611" lon="137.84293997101486">
        <ele>771.39</ele>
        <time>2025-07-08T14:28:14.609Z</time>
      </trkpt>
      <trkpt lat="36.63110235705972" lon="137.84302630461752">
        <ele>772.53</ele>
        <time>2025-07-08T14:28:16.931Z</time>
      </trkpt>
      <trkpt lat="36.630839919671416" lon="137.8430999815464">
        <ele>773.7</ele>
        <time>2025-07-08T14:28:19.257Z</time>
      </trkpt>
      <trkpt lat="36.63055711425841" lon="137.84292681142688">
        <ele>775.0</ele>
        <time>2025-07-08T14:28:21.589Z</time>
      </trkpt>
      <trkpt lat="36.63034999743104" lon="137.8427999932319">
        <ele>776.35</ele>
        <time>2025-07-08T14:28:23.924Z</time>
      </trkpt>
      <trkpt lat="36.630076579749584" lon="137.842604694888">
        <ele>777.86</ele>
        <time>2025-07-08T14:28:26.264Z</time>
      </trkpt>
      <trkpt lat="36.63001145236194" lon="137.8425581753254">
        <ele>779.12</ele>
        <time>2025-07-08T14:28:28.605Z</time>
      </trkpt>
      <trkpt lat="36.630011117085814" lon="137.8425579238683">
        <ele>780.32</ele>
        <time>2025-07-08T14:28:30.946Z</time>
      </trkpt>
      <trkpt lat="36.63000952452421" lon="137.84255675040185">
        <ele>781.53</ele>
        <time>2025-07-08T14:28:33.287Z</time>
      </trkpt>
      <trkpt lat="36.63000457920134" lon="137.84255323000252">
        <ele>782.75</ele>
        <time>2025-07-08T14:28:35.629Z</time>
      </trkpt>
      <trkpt lat="36.629999969154596" lon="137.84254996106029">
        <ele>783.97</ele>
        <time>2025-07-08T14:28:37.971Z</time>
      </trkpt>
      <trkpt lat="36.62981992587447" lon="137.84240998327732">
        <ele>785.24</ele>
        <time>2025-07-08T14:28:40.316Z</time>
      </trkpt>
      <trkpt lat="36.629549944773316" lon="137.84232993610203">
        <ele>786.44</ele>
        <time>2025-07-08T14:28:42.665Z</time>
      </trkpt>
      <trkpt lat="36.62924115546048" lon="137.842250559479">
        <ele>787.7</ele>
        <time>2025-07-08T14:28:45.020Z</time>
      </trkpt>
      <trkpt lat="36.62919991649687" lon="137.842239998281">
        <ele>788.93</ele>
        <time>2025-07-08T14:28:47.375Z</time>
      </trkpt>
      <trkpt lat="36.62901995703578" lon="137.8420399222523">
        <ele>790.31</ele>
        <time>2025-07-08T14:28:49.734Z</time>
      </trkpt>
      <trkpt lat="36.62889992818236" lon="137.84199994057417">
        <ele>791.53</ele>
        <time>2025-07-08T14:28:52.095Z</time>
      </trkpt>
      <trkpt lat="36.62864997982979" lon="137.84193992614746">
        <ele>792.78</ele>
        <time>2025-07-08T14:28:54.460Z</time>
      </trkpt>
      <trkpt lat="36.628559958189726" lon="137.84187999553978">
        <ele>794.0</ele>
        <time>2025-07-08T14:28:56.827Z</time>
      </trkpt>
      <trkpt lat="36.628409922122955" lon="137.8417399339378">
        <ele>795.25</ele>
        <time>2025-07-08T14:28:59.197Z</time>
      </trkpt>
      <trkpt lat="36.62824999541044" lon="137.8416099306196">
        <ele>796.56</ele>
        <time>2025-07-08T14:29:01.570Z</time>
      </trkpt>
      <trkpt lat="36.628059977665544" lon="137.84162996336818">
        <ele>797.8</ele>
        <time>2025-07-08T14:29:03.946Z</time>
      </trkpt>
      <trkpt lat="36.6279499232769" lon="137.84167991951108">
        <ele>798.99</ele>
        <time>2025-07-08T14:29:06.324Z</time>
      </trkpt>
      <trkpt lat="36.62787180393934" lon="137.84173171967268">
        <ele>800.11</ele>
        <time>2025-07-08T14:29:08.703Z</time>
      </trkpt>
      <trkpt lat="36.627871468663216" lon="137.8417320549488">
        <ele>801.21</ele>
        <time>2025-07-08T14:29:11.082Z</time>
      </trkpt>
      <trkpt lat="36.62786979228258" lon="137.84173322841525">
        <ele>802.3</ele>
        <time>2025-07-08T14:29:13.461Z</time>
      </trkpt>
      <trkpt lat="36.62786476314068" lon="137.84173666499555">
        <ele>803.37</ele>
        <time>2025-07-08T14:29:15.840Z</time>
      </trkpt>
      <trkpt lat="36.62785998545587" lon="137.8417399339378">
        <ele>804.43</ele>
        <time>2025-07-08T14:29:18.219Z</time>
      </trkpt>
      <trkpt lat="36.62766996771097" lon="137.84182995557785">
        <ele>805.59</ele>
        <time>2025-07-08T14:29:20.602Z</time>
      </trkpt>
      <trkpt lat="36.62752998992801" lon="137.84183993004262">
        <ele>806.73</ele>
        <time>2025-07-08T14:29:22.987Z</time>
      </trkpt>
      <trkpt lat="36.62722438573837" lon="137.84183029085398">
        <ele>807.99</ele>
        <time>2025-07-08T14:29:25.377Z</time>
      </trkpt>
      <trkpt lat="36.627224050462246" lon="137.84183029085398">
        <ele>809.0</ele>
        <time>2025-07-08T14:29:27.767Z</time>
      </trkpt>
      <trkpt lat="36.62722245790064" lon="137.84183029085398">
        <ele>809.99</ele>
        <time>2025-07-08T14:29:30.157Z</time>
      </trkpt>
      <trkpt lat="36.6272160038352" lon="137.8418301232159">
        <ele>810.97</ele>
        <time>2025-07-08T14:29:32.547Z</time>
      </trkpt>
      <trkpt lat="36.627214662730694" lon="137.8418301232159">
        <ele>811.94</ele>
        <time>2025-07-08T14:29:34.937Z</time>
      </trkpt>
      <trkpt lat="36.62720996886492" lon="137.84182995557785">
        <ele>812.91</ele>
        <time>2025-07-08T14:29:37.327Z</time>
      </trkpt>
      <trkpt lat="36.62689891643822" lon="137.8418948315084">
        <ele>813.96</ele>
        <time>2025-07-08T14:29:39.722Z</time>
      </trkpt>
      <trkpt lat="36.62685583345592" lon="137.84190371632576">
        <ele>814.94</ele>
        <time>2025-07-08T14:29:42.118Z</time>
      </trkpt>
      <trkpt lat="36.62685549817979" lon="137.8419038001448">
        <ele>815.89</ele>
        <time>2025-07-08T14:29:44.514Z</time>
      </trkpt>
      <trkpt lat="36.626853570342064" lon="137.84190421923995">
        <ele>816.84</ele>
        <time>2025-07-08T14:29:46.910Z</time>
      </trkpt>
      <trkpt lat="36.626847786828876" lon="137.84190547652543">
        <ele>817.8</ele>
        <time>2025-07-08T14:29:49.306Z</time>
      </trkpt>
      <trkpt lat="36.626842338591814" lon="137.84190664999187">
        <ele>818.75</ele>
        <time>2025-07-08T14:29:51.702Z</time>
      </trkpt>
      <trkpt lat="36.62652801722288" lon="137.84187513403594">
        <ele>820.1</ele>
        <time>2025-07-08T14:29:54.103Z</time>
      </trkpt>
      <trkpt lat="36.62621361203492" lon="137.84184370189905">
        <ele>821.13</ele>
        <time>2025-07-08T14:29:56.509Z</time>
      </trkpt>
      <trkpt lat="36.62589920684695" lon="137.84181218594313">
        <ele>821.96</ele>
        <time>2025-07-08T14:29:58.920Z</time>
      </trkpt>
      <trkpt lat="36.625891579315066" lon="137.8418113477528">
        <ele>822.91</ele>
        <time>2025-07-08T14:30:01.331Z</time>
      </trkpt>
      <trkpt lat="36.62589124403894" lon="137.8418113477528">
        <ele>823.86</ele>
        <time>2025-07-08T14:30:03.742Z</time>
      </trkpt>
      <trkpt lat="36.62588931620121" lon="137.84181118011475">
        <ele>824.81</ele>
        <time>2025-07-08T14:30:06.153Z</time>
      </trkpt>
      <trkpt lat="36.62588344886899" lon="137.84181059338152">
        <ele>825.77</ele>
        <time>2025-07-08T14:30:08.564Z</time>
      </trkpt>
      <trkpt lat="36.62587800063193" lon="137.84181009046733">
        <ele>826.72</ele>
        <time>2025-07-08T14:30:10.975Z</time>
      </trkpt>
      <trkpt lat="36.62567138671875" lon="137.84151437692344">
        <ele>827.85</ele>
        <time>2025-07-08T14:30:13.391Z</time>
      </trkpt>
      <trkpt lat="36.62560282275081" lon="137.8414162248373">
        <ele>828.83</ele>
        <time>2025-07-08T14:30:15.809Z</time>
      </trkpt>
      <trkpt lat="36.62560257129371" lon="137.84141588956118">
        <ele>829.8</ele>
        <time>2025-07-08T14:30:18.227Z</time>
      </trkpt>
      <trkpt lat="36.625601314008236" lon="137.84141404554248">
        <ele>830.76</ele>
        <time>2025-07-08T14:30:20.645Z</time>
      </trkpt>
      <trkpt lat="36.62559745833278" lon="137.84140851348639">
        <ele>831.72</ele>
        <time>2025-07-08T14:30:23.063Z</time>
      </trkpt>
      <trkpt lat="36.62559385411441" lon="137.84140340052545">
        <ele>832.68</ele>
        <time>2025-07-08T14:30:25.481Z</time>
      </trkpt>
      <trkpt lat="36.625285567715764" lon="137.84148604609072">
        <ele>833.9</ele>
        <time>2025-07-08T14:30:27.904Z</time>
      </trkpt>
      <trkpt lat="36.62509152665734" lon="137.84153767861426">
        <ele>835.3</ele>
        <time>2025-07-08T14:30:30.331Z</time>
      </trkpt>
      <trkpt lat="36.625091191381216" lon="137.84153784625232">
        <ele>836.21</ele>
        <time>2025-07-08T14:30:32.758Z</time>
      </trkpt>
      <trkpt lat="36.62508934736252" lon="137.84153843298554">
        <ele>837.1</ele>
        <time>2025-07-08T14:30:35.185Z</time>
      </trkpt>
      <trkpt lat="36.62508306093514" lon="137.8415401931852">
        <ele>837.96</ele>
        <time>2025-07-08T14:30:37.612Z</time>
      </trkpt>
      <trkpt lat="36.62507719360292" lon="137.8415417857468">
        <ele>838.8</ele>
        <time>2025-07-08T14:30:40.039Z</time>
      </trkpt>
      <trkpt lat="36.624924559146166" lon="137.84188418649137">
        <ele>839.72</ele>
        <time>2025-07-08T14:30:42.471Z</time>
      </trkpt>
      <trkpt lat="36.62491156719625" lon="137.84191285260022">
        <ele>840.5</ele>
        <time>2025-07-08T14:30:44.903Z</time>
      </trkpt>
      <trkpt lat="36.62491148337722" lon="137.84191327169538">
        <ele>841.22</ele>
        <time>2025-07-08T14:30:47.335Z</time>
      </trkpt>
      <trkpt lat="36.62491056136787" lon="137.8419154509902">
        <ele>841.91</ele>
        <time>2025-07-08T14:30:49.767Z</time>
      </trkpt>
      <trkpt lat="36.62490771152079" lon="137.84192198887467">
        <ele>842.58</ele>
        <time>2025-07-08T14:30:52.199Z</time>
      </trkpt>
      <trkpt lat="36.624905029311776" lon="137.841928107664">
        <ele>843.22</ele>
        <time>2025-07-08T14:30:54.631Z</time>
      </trkpt>
      <trkpt lat="36.62478516809642" lon="137.84229003824294">
        <ele>843.84</ele>
        <time>2025-07-08T14:30:57.068Z</time>
      </trkpt>
      <trkpt lat="36.62466530688107" lon="137.84265196882188">
        <ele>844.25</ele>
        <time>2025-07-08T14:30:59.511Z</time>
      </trkpt>
      <trkpt lat="36.62462582811713" lon="137.8427704051137">
        <ele>844.88</ele>
        <time>2025-07-08T14:31:01.955Z</time>
      </trkpt>
      <trkpt lat="36.6246257442981" lon="137.8427709080279">
        <ele>845.45</ele>
        <time>2025-07-08T14:31:04.399Z</time>
      </trkpt>
      <trkpt lat="36.62462507374585" lon="137.84277317114174">
        <ele>846.01</ele>
        <time>2025-07-08T14:31:06.843Z</time>
      </trkpt>
      <trkpt lat="36.62462289445102" lon="137.84278004430234">
        <ele>846.58</ele>
        <time>2025-07-08T14:31:09.287Z</time>
      </trkpt>
      <trkpt lat="36.62462088279426" lon="137.84278633072972">
        <ele>847.13</ele>
        <time>2025-07-08T14:31:11.731Z</time>
      </trkpt>
      <trkpt lat="36.62458366714418" lon="137.84317491576076">
        <ele>847.88</ele>
        <time>2025-07-08T14:31:14.180Z</time>
      </trkpt>
      <trkpt lat="36.62454653531313" lon="137.8435635007918">
        <ele>848.49</ele>
        <time>2025-07-08T14:31:16.634Z</time>
      </trkpt>
      <trkpt lat="36.62450931966305" lon="137.8439520020038">
        <ele>849.03</ele>
        <time>2025-07-08T14:31:19.094Z</time>
      </trkpt>
      <trkpt lat="36.624472187832" lon="137.84434058703482">
        <ele>849.6</ele>
        <time>2025-07-08T14:31:21.559Z</time>
      </trkpt>
      <trkpt lat="36.62446732632816" lon="137.84438936971128">
        <ele>850.22</ele>
        <time>2025-07-08T14:31:24.024Z</time>
      </trkpt>
      <trkpt lat="36.62446732632816" lon="137.84438987262547">
        <ele>850.83</ele>
        <time>2025-07-08T14:31:26.489Z</time>
      </trkpt>
      <trkpt lat="36.624467158690095" lon="137.8443923033774">
        <ele>851.46</ele>
        <time>2025-07-08T14:31:28.954Z</time>
      </trkpt>
      <trkpt lat="36.62446648813784" lon="137.84439967945218">
        <ele>852.1</ele>
        <time>2025-07-08T14:31:31.419Z</time>
      </trkpt>
      <trkpt lat="36.62446590140462" lon="137.8444066364318">
        <ele>852.75</ele>
        <time>2025-07-08T14:31:33.884Z</time>
      </trkpt>
      <trkpt lat="36.624356182292104" lon="137.84477351233363">
        <ele>853.67</ele>
        <time>2025-07-08T14:31:36.354Z</time>
      </trkpt>
      <trkpt lat="36.624306896701455" lon="137.84493771381676">
        <ele>854.36</ele>
        <time>2025-07-08T14:31:38.827Z</time>
      </trkpt>
      <trkpt lat="36.62430681288242" lon="137.84493821673095">
        <ele>855.04</ele>
        <time>2025-07-08T14:31:41.300Z</time>
      </trkpt>
      <trkpt lat="36.6243062261492" lon="137.8449404798448">
        <ele>855.72</ele>
        <time>2025-07-08T14:31:43.773Z</time>
      </trkpt>
      <trkpt lat="36.62430421449244" lon="137.8449473530054">
        <ele>856.41</ele>
        <time>2025-07-08T14:31:46.246Z</time>
      </trkpt>
      <trkpt lat="36.62430228665471" lon="137.84495389088988">
        <ele>857.09</ele>
        <time>2025-07-08T14:31:48.719Z</time>
      </trkpt>
      <trkpt lat="36.624059127643704" lon="137.84520308487117">
        <ele>858.07</ele>
        <time>2025-07-08T14:31:51.197Z</time>
      </trkpt>
      <trkpt lat="36.62392593920231" lon="137.8453392907977">
        <ele>858.78</ele>
        <time>2025-07-08T14:31:53.678Z</time>
      </trkpt>
      <trkpt lat="36.62392568774521" lon="137.84533962607384">
        <ele>859.43</ele>
        <time>2025-07-08T14:31:56.159Z</time>
      </trkpt>
      <trkpt lat="36.62392417900264" lon="137.84534121863544">
        <ele>860.07</ele>
        <time>2025-07-08T14:31:58.640Z</time>
      </trkpt>
      <trkpt lat="36.623919401317835" lon="137.8453461639583">
        <ele>860.68</ele>
        <time>2025-07-08T14:32:01.121Z</time>
      </trkpt>
      <trkpt lat="36.62391479127109" lon="137.84535094164312">
        <ele>861.28</ele>
        <time>2025-07-08T14:32:03.602Z</time>
      </trkpt>
      <trkpt lat="36.62362603470683" lon="137.84550835378468">
        <ele>861.95</ele>
        <time>2025-07-08T14:32:06.088Z</time>
      </trkpt>
      <trkpt lat="36.62351505830884" lon="137.84556861966848">
        <ele>862.5</ele>
        <time>2025-07-08T14:32:08.576Z</time>
      </trkpt>
      <trkpt lat="36.62351472303271" lon="137.84556887112558">
        <ele>863.0</ele>
        <time>2025-07-08T14:32:11.064Z</time>
      </trkpt>
      <trkpt lat="36.62351296283305" lon="137.84556987695396">
        <ele>863.48</ele>
        <time>2025-07-08T14:32:13.552Z</time>
      </trkpt>
      <trkpt lat="36.62350709550083" lon="137.8455731458962">
        <ele>863.92</ele>
        <time>2025-07-08T14:32:16.040Z</time>
      </trkpt>
      <trkpt lat="36.6235014796257" lon="137.84557624720037">
        <ele>864.33</ele>
        <time>2025-07-08T14:32:18.528Z</time>
      </trkpt>
      <trkpt lat="36.62318732589483" lon="137.8456106968224">
        <ele>864.95</ele>
        <time>2025-07-08T14:32:21.021Z</time>
      </trkpt>
      <trkpt lat="36.62287317216396" lon="137.84564514644444">
        <ele>865.47</ele>
        <time>2025-07-08T14:32:23.519Z</time>
      </trkpt>
      <trkpt lat="36.62255893461406" lon="137.84567951224744">
        <ele>865.59</ele>
        <time>2025-07-08T14:32:26.022Z</time>
      </trkpt>
      <trkpt lat="36.62224478088319" lon="137.84571396186948">
        <ele>865.59</ele>
        <time>2025-07-08T14:32:28.530Z</time>
      </trkpt>
      <trkpt lat="36.62194982171059" lon="137.84574614837766">
        <ele>865.65</ele>
        <time>2025-07-08T14:32:31.043Z</time>
      </trkpt>
      <trkpt lat="36.62194957025349" lon="137.84574614837766">
        <ele>865.78</ele>
        <time>2025-07-08T14:32:33.556Z</time>
      </trkpt>
      <trkpt lat="36.62194789387286" lon="137.84574639983475">
        <ele>865.86</ele>
        <time>2025-07-08T14:32:36.069Z</time>
      </trkpt>
      <trkpt lat="36.621940936893225" lon="137.84574723802507">
        <ele>865.9</ele>
        <time>2025-07-08T14:32:38.582Z</time>
      </trkpt>
      <trkpt lat="36.62193431518972" lon="137.84574799239635">
        <ele>865.9</ele>
        <time>2025-07-08T14:32:41.095Z</time>
      </trkpt>
      <trkpt lat="36.621667351573706" lon="137.8455396182835">
        <ele>865.68</ele>
        <time>2025-07-08T14:32:43.613Z</time>
      </trkpt>
      <trkpt lat="36.62140038795769" lon="137.84533124417067">
        <ele>865.46</ele>
        <time>2025-07-08T14:32:46.136Z</time>
      </trkpt>
      <trkpt lat="36.62113342434168" lon="137.84512287005782">
        <ele>865.53</ele>
        <time>2025-07-08T14:32:48.664Z</time>
      </trkpt>
      <trkpt lat="36.620866460725665" lon="137.84491449594498">
        <ele>865.63</ele>
        <time>2025-07-08T14:32:51.197Z</time>
      </trkpt>
      <trkpt lat="36.620793119072914" lon="137.84485716372728">
        <ele>865.49</ele>
        <time>2025-07-08T14:32:53.732Z</time>
      </trkpt>
      <trkpt lat="36.62079278379679" lon="137.8448569122702">
        <ele>865.29</ele>
        <time>2025-07-08T14:32:56.267Z</time>
      </trkpt>
      <trkpt lat="36.62079110741615" lon="137.8448556549847">
        <ele>865.06</ele>
        <time>2025-07-08T14:32:58.802Z</time>
      </trkpt>
      <trkpt lat="36.62078565917909" lon="137.8448513802141">
        <ele>864.78</ele>
        <time>2025-07-08T14:33:01.337Z</time>
      </trkpt>
      <trkpt lat="36.620780462399125" lon="137.84484735690057">
        <ele>864.47</ele>
        <time>2025-07-08T14:33:03.872Z</time>
      </trkpt>
      <trkpt lat="36.62046664394438" lon="137.84480796195567">
        <ele>864.07</ele>
        <time>2025-07-08T14:33:06.412Z</time>
      </trkpt>
      <trkpt lat="36.62015290930867" lon="137.84476856701076">
        <ele>863.54</ele>
        <time>2025-07-08T14:33:08.957Z</time>
      </trkpt>
      <trkpt lat="36.62002081051469" lon="137.84475188702345">
        <ele>863.09</ele>
        <time>2025-07-08T14:33:11.504Z</time>
      </trkpt>
      <trkpt lat="36.62002039141953" lon="137.84475188702345">
        <ele>862.64</ele>
        <time>2025-07-08T14:33:14.051Z</time>
      </trkpt>
      <trkpt lat="36.6200184635818" lon="137.84475163556635">
        <ele>862.16</ele>
        <time>2025-07-08T14:33:16.598Z</time>
      </trkpt>
      <trkpt lat="36.620011841878295" lon="137.84475079737604">
        <ele>861.65</ele>
        <time>2025-07-08T14:33:19.145Z</time>
      </trkpt>
      <trkpt lat="36.620005471631885" lon="137.84475004300475">
        <ele>861.11</ele>
        <time>2025-07-08T14:33:21.693Z</time>
      </trkpt>
      <trkpt lat="36.61974630318582" lon="137.84452716819942">
        <ele>860.65</ele>
        <time>2025-07-08T14:33:24.246Z</time>
      </trkpt>
      <trkpt lat="36.619487050920725" lon="137.84430420957506">
        <ele>860.02</ele>
        <time>2025-07-08T14:33:26.804Z</time>
      </trkpt>
      <trkpt lat="36.619406500831246" lon="137.8442348074168">
        <ele>859.36</ele>
        <time>2025-07-08T14:33:29.363Z</time>
      </trkpt>
      <trkpt lat="36.61940616555512" lon="137.8442345559597">
        <ele>858.72</ele>
        <time>2025-07-08T14:33:31.922Z</time>
      </trkpt>
      <trkpt lat="36.61940457299352" lon="137.8442332148552">
        <ele>858.06</ele>
        <time>2025-07-08T14:33:34.481Z</time>
      </trkpt>
      <trkpt lat="36.61939920857549" lon="137.84422860480845">
        <ele>857.4</ele>
        <time>2025-07-08T14:33:37.040Z</time>
      </trkpt>
      <trkpt lat="36.61939409561455" lon="137.8442242462188">
        <ele>856.7</ele>
        <time>2025-07-08T14:33:39.599Z</time>
      </trkpt>
      <trkpt lat="36.61911900155246" lon="137.84403280355036">
        <ele>855.81</ele>
        <time>2025-07-08T14:33:42.163Z</time>
      </trkpt>
      <trkpt lat="36.618843991309404" lon="137.84384136088192">
        <ele>854.93</ele>
        <time>2025-07-08T14:33:44.733Z</time>
      </trkpt>
      <trkpt lat="36.61882169544697" lon="137.84382585436106">
        <ele>854.21</ele>
        <time>2025-07-08T14:33:47.303Z</time>
      </trkpt>
      <trkpt lat="36.61882136017084" lon="137.84382560290396">
        <ele>853.51</ele>
        <time>2025-07-08T14:33:49.873Z</time>
      </trkpt>
      <trkpt lat="36.61881968379021" lon="137.84382442943752">
        <ele>852.82</ele>
        <time>2025-07-08T14:33:52.443Z</time>
      </trkpt>
      <trkpt lat="36.61881398409605" lon="137.84382048994303">
        <ele>852.13</ele>
        <time>2025-07-08T14:33:55.013Z</time>
      </trkpt>
      <trkpt lat="36.61880853585899" lon="137.8438167180866">
        <ele>851.48</ele>
        <time>2025-07-08T14:33:57.583Z</time>
      </trkpt>
      <trkpt lat="36.61858147010207" lon="137.8435450606048">
        <ele>850.85</ele>
        <time>2025-07-08T14:34:00.158Z</time>
      </trkpt>
      <trkpt lat="36.61835448816419" lon="137.84327348694205">
        <ele>850.32</ele>
        <time>2025-07-08T14:34:02.738Z</time>
      </trkpt>
      <trkpt lat="36.618173690512776" lon="137.8430571500212">
        <ele>849.55</ele>
        <time>2025-07-08T14:34:05.322Z</time>
      </trkpt>
      <trkpt lat="36.61817343905568" lon="137.84305681474507">
        <ele>848.97</ele>
        <time>2025-07-08T14:34:07.906Z</time>
      </trkpt>
      <trkpt lat="36.61817201413214" lon="137.84305513836443">
        <ele>848.43</ele>
        <time>2025-07-08T14:34:10.490Z</time>
      </trkpt>
      <trkpt lat="36.618167236447334" lon="137.84304943867028">
        <ele>847.91</ele>
        <time>2025-07-08T14:34:13.074Z</time>
      </trkpt>
      <trkpt lat="36.61816271021962" lon="137.84304407425225">
        <ele>847.43</ele>
        <time>2025-07-08T14:34:15.659Z</time>
      </trkpt>
      <trkpt lat="36.61787085235119" lon="137.8428957145661">
        <ele>846.61</ele>
        <time>2025-07-08T14:34:18.249Z</time>
      </trkpt>
      <trkpt lat="36.61775526590645" lon="137.84283678978682">
        <ele>846.17</ele>
        <time>2025-07-08T14:34:20.841Z</time>
      </trkpt>
      <trkpt lat="36.617754846811295" lon="137.84283662214875">
        <ele>845.82</ele>
        <time>2025-07-08T14:34:23.433Z</time>
      </trkpt>
      <trkpt lat="36.61775308661163" lon="137.8428357001394">
        <ele>845.53</ele>
        <time>2025-07-08T14:34:26.025Z</time>
      </trkpt>
      <trkpt lat="36.61774680018425" lon="137.8428325150162">
        <ele>845.28</ele>
        <time>2025-07-08T14:34:28.617Z</time>
      </trkpt>
      <trkpt lat="36.617740765213966" lon="137.84282949753106">
        <ele>845.08</ele>
        <time>2025-07-08T14:34:31.209Z</time>
      </trkpt>
      <trkpt lat="36.61747170612216" lon="137.84294106066227">
        <ele>844.9</ele>
        <time>2025-07-08T14:34:33.805Z</time>
      </trkpt>
      <trkpt lat="36.6174715384841" lon="137.84294106066227">
        <ele>844.79</ele>
        <time>2025-07-08T14:34:36.401Z</time>
      </trkpt>
      <trkpt lat="36.61746986210346" lon="137.8429418988526">
        <ele>844.72</ele>
        <time>2025-07-08T14:34:38.997Z</time>
      </trkpt>
      <trkpt lat="36.61746307276189" lon="137.84294474869967">
        <ele>844.69</ele>
        <time>2025-07-08T14:34:41.593Z</time>
      </trkpt>
      <trkpt lat="36.61745653487742" lon="137.8429475147277">
        <ele>844.69</ele>
        <time>2025-07-08T14:34:44.190Z</time>
      </trkpt>
      <trkpt lat="36.617449996992946" lon="137.84293997101486">
        <ele>844.71</ele>
        <time>2025-07-08T14:34:46.787Z</time>
      </trkpt>
      <trkpt lat="36.61713911220431" lon="137.84287367016077">
        <ele>844.84</ele>
        <time>2025-07-08T14:34:49.389Z</time>
      </trkpt>
      <trkpt lat="36.61682831123471" lon="137.84280736930668">
        <ele>845.01</ele>
        <time>2025-07-08T14:34:51.996Z</time>
      </trkpt>
      <trkpt lat="36.616699984297156" lon="137.8427799604833">
        <ele>845.13</ele>
        <time>2025-07-08T14:34:54.605Z</time>
      </trkpt>
      <trkpt lat="36.61648993380368" lon="137.84267996437848">
        <ele>845.33</ele>
        <time>2025-07-08T14:34:57.217Z</time>
      </trkpt>
      <trkpt lat="36.61620997823775" lon="137.842609975487">
        <ele>845.46</ele>
        <time>2025-07-08T14:34:59.834Z</time>
      </trkpt>
      <trkpt lat="36.61589993163943" lon="137.84256999380887">
        <ele>845.53</ele>
        <time>2025-07-08T14:35:02.456Z</time>
      </trkpt>
      <trkpt lat="36.61567999050021" lon="137.8425999172032">
        <ele>845.55</ele>
        <time>2025-07-08T14:35:05.082Z</time>
      </trkpt>
      <trkpt lat="36.61536583676934" lon="137.8426348697394">
        <ele>845.42</ele>
        <time>2025-07-08T14:35:07.713Z</time>
      </trkpt>
      <trkpt lat="36.61513994447887" lon="137.8426599316299">
        <ele>845.34</ele>
        <time>2025-07-08T14:35:10.347Z</time>
      </trkpt>
      <trkpt lat="36.61482478491962" lon="137.84267451614141">
        <ele>845.3</ele>
        <time>2025-07-08T14:35:12.986Z</time>
      </trkpt>
      <trkpt lat="36.61450962536037" lon="137.8426890168339">
        <ele>845.05</ele>
        <time>2025-07-08T14:35:15.630Z</time>
      </trkpt>
      <trkpt lat="36.61448992788792" lon="137.84268993884325">
        <ele>844.84</ele>
        <time>2025-07-08T14:35:18.275Z</time>
      </trkpt>
      <trkpt lat="36.61423997953534" lon="137.84268993884325">
        <ele>844.42</ele>
        <time>2025-07-08T14:35:20.924Z</time>
      </trkpt>
      <trkpt lat="36.61405993625522" lon="137.8427199460566">
        <ele>844.07</ele>
        <time>2025-07-08T14:35:23.576Z</time>
      </trkpt>
      <trkpt lat="36.61374896764755" lon="137.84278540872037">
        <ele>843.74</ele>
        <time>2025-07-08T14:35:26.233Z</time>
      </trkpt>
      <trkpt lat="36.61367998458445" lon="137.8427999932319">
        <ele>843.45</ele>
        <time>2025-07-08T14:35:28.891Z</time>
      </trkpt>
      <trkpt lat="36.613675374537706" lon="137.84279990941286">
        <ele>843.13</ele>
        <time>2025-07-08T14:35:31.549Z</time>
      </trkpt>
      <trkpt lat="36.61367503926158" lon="137.84279990941286">
        <ele>842.79</ele>
        <time>2025-07-08T14:35:34.207Z</time>
      </trkpt>
      <trkpt lat="36.61367311142385" lon="137.84279990941286">
        <ele>842.44</ele>
        <time>2025-07-08T14:35:36.865Z</time>
      </trkpt>
      <trkpt lat="36.61366640590131" lon="137.84279990941286">
        <ele>842.07</ele>
        <time>2025-07-08T14:35:39.523Z</time>
      </trkpt>
      <trkpt lat="36.61365995183587" lon="137.8427999932319">
        <ele>841.7</ele>
        <time>2025-07-08T14:35:42.181Z</time>
      </trkpt>
      <trkpt lat="36.61365995183587" lon="137.84280996769667">
        <ele>841.32</ele>
        <time>2025-07-08T14:35:44.839Z</time>
      </trkpt>
      <trkpt lat="36.613362058997154" lon="137.84293837845325">
        <ele>840.94</ele>
        <time>2025-07-08T14:35:47.502Z</time>
      </trkpt>
      <trkpt lat="36.6130799241364" lon="137.84305999986827">
        <ele>840.62</ele>
        <time>2025-07-08T14:35:50.170Z</time>
      </trkpt>
      <trkpt lat="36.6127812769264" lon="137.84318572841585">
        <ele>840.27</ele>
        <time>2025-07-08T14:35:52.843Z</time>
      </trkpt>
      <trkpt lat="36.612482629716396" lon="137.84331145696342">
        <ele>839.88</ele>
        <time>2025-07-08T14:35:55.521Z</time>
      </trkpt>
      <trkpt lat="36.61231993697584" lon="137.84337993711233">
        <ele>839.45</ele>
        <time>2025-07-08T14:35:58.202Z</time>
      </trkpt>
      <trkpt lat="36.612219940871" lon="137.84340994432569">
        <ele>839.08</ele>
        <time>2025-07-08T14:36:00.884Z</time>
      </trkpt>
      <trkpt lat="36.612119944766164" lon="137.84338999539614">
        <ele>838.81</ele>
        <time>2025-07-08T14:36:03.568Z</time>
      </trkpt>
      <trkpt lat="36.611811742186546" lon="137.84330676309764">
        <ele>838.55</ele>
        <time>2025-07-08T14:36:06.257Z</time>
      </trkpt>
      <trkpt lat="36.61150353960693" lon="137.84322361461818">
        <ele>838.34</ele>
        <time>2025-07-08T14:36:08.951Z</time>
      </trkpt>
      <trkpt lat="36.61148996092379" lon="137.8432199265808">
        <ele>838.18</ele>
        <time>2025-07-08T14:36:11.645Z</time>
      </trkpt>
      <trkpt lat="36.61117974668741" lon="137.843149099499">
        <ele>838.01</ele>
        <time>2025-07-08T14:36:14.344Z</time>
      </trkpt>
      <trkpt lat="36.61113993264735" lon="137.84313996322453">
        <ele>837.96</ele>
        <time>2025-07-08T14:36:17.044Z</time>
      </trkpt>
      <trkpt lat="36.61082737147808" lon="137.8430878277868">
        <ele>837.87</ele>
        <time>2025-07-08T14:36:19.749Z</time>
      </trkpt>
      <trkpt lat="36.61077992990613" lon="137.84307994879782">
        <ele>837.93</ele>
        <time>2025-07-08T14:36:22.455Z</time>
      </trkpt>
      <trkpt lat="36.610469464212656" lon="137.84301096573472">
        <ele>837.94</ele>
        <time>2025-07-08T14:36:25.166Z</time>
      </trkpt>
      <trkpt lat="36.61032998934388" lon="137.84297995269299">
        <ele>838.09</ele>
        <time>2025-07-08T14:36:27.879Z</time>
      </trkpt>
      <trkpt lat="36.61002262495458" lon="137.84289211034775">
        <ele>838.35</ele>
        <time>2025-07-08T14:36:30.597Z</time>
      </trkpt>
      <trkpt lat="36.60997996106744" lon="137.84287995658815">
        <ele>838.75</ele>
        <time>2025-07-08T14:36:33.316Z</time>
      </trkpt>
      <trkpt lat="36.60979991778731" lon="137.84285992383957">
        <ele>839.28</ele>
        <time>2025-07-08T14:36:36.038Z</time>
      </trkpt>
      <trkpt lat="36.60972992889583" lon="137.84288993105292">
        <ele>839.84</ele>
        <time>2025-07-08T14:36:38.761Z</time>
      </trkpt>
      <trkpt lat="36.609589951112866" lon="137.8430399671197">
        <ele>840.51</ele>
        <time>2025-07-08T14:36:41.487Z</time>
      </trkpt>
      <trkpt lat="36.60950998775661" lon="137.84319997765124">
        <ele>841.23</ele>
        <time>2025-07-08T14:36:44.215Z</time>
      </trkpt>
      <trkpt lat="36.60946992225945" lon="137.84341991879046">
        <ele>842.08</ele>
        <time>2025-07-08T14:36:46.946Z</time>
      </trkpt>
      <trkpt lat="36.60947830416262" lon="137.84381101839244">
        <ele>842.73</ele>
        <time>2025-07-08T14:36:49.682Z</time>
      </trkpt>
      <trkpt lat="36.609479980543256" lon="137.84388997592032">
        <ele>843.55</ele>
        <time>2025-07-08T14:36:52.419Z</time>
      </trkpt>
      <trkpt lat="36.6094499733299" lon="137.84404998645186">
        <ele>844.45</ele>
        <time>2025-07-08T14:36:55.158Z</time>
      </trkpt>
      <trkpt lat="36.60940999165177" lon="137.84411997534335">
        <ele>845.49</ele>
        <time>2025-07-08T14:36:57.899Z</time>
      </trkpt>
      <trkpt lat="36.60915954038501" lon="137.84435785375535">
        <ele>846.99</ele>
        <time>2025-07-08T14:37:00.645Z</time>
      </trkpt>
      <trkpt lat="36.609009923413396" lon="137.8444999270141">
        <ele>848.27</ele>
        <time>2025-07-08T14:37:03.394Z</time>
      </trkpt>
      <trkpt lat="36.608919985592365" lon="137.8446299303323">
        <ele>849.31</ele>
        <time>2025-07-08T14:37:06.145Z</time>
      </trkpt>
      <trkpt lat="36.60883993841708" lon="137.8448799625039">
        <ele>849.99</ele>
        <time>2025-07-08T14:37:08.899Z</time>
      </trkpt>
      <trkpt lat="36.608789982274175" lon="137.84498993307352">
        <ele>850.74</ele>
        <time>2025-07-08T14:37:11.655Z</time>
      </trkpt>
      <trkpt lat="36.60870993509889" lon="137.84504994750023">
        <ele>851.54</ele>
        <time>2025-07-08T14:37:14.412Z</time>
      </trkpt>
      <trkpt lat="36.608659978955984" lon="137.84503997303545">
        <ele>852.4</ele>
        <time>2025-07-08T14:37:17.170Z</time>
      </trkpt>
      <trkpt lat="36.60855998285115" lon="137.84497995860875">
        <ele>853.36</ele>
        <time>2025-07-08T14:37:19.930Z</time>
      </trkpt>
      <trkpt lat="36.608339957892895" lon="137.8448199480772">
        <ele>854.52</ele>
        <time>2025-07-08T14:37:22.694Z</time>
      </trkpt>
      <trkpt lat="36.608149940147996" lon="137.84477996639907">
        <ele>855.34</ele>
        <time>2025-07-08T14:37:25.461Z</time>
      </trkpt>
      <trkpt lat="36.608059918507934" lon="137.84478994086385">
        <ele>855.86</ele>
        <time>2025-07-08T14:37:28.230Z</time>
      </trkpt>
      <trkpt lat="36.60789999179542" lon="137.84482992254198">
        <ele>856.24</ele>
        <time>2025-07-08T14:37:31.001Z</time>
      </trkpt>
      <trkpt lat="36.60784475505352" lon="137.84485330805182">
        <ele>856.55</ele>
        <time>2025-07-08T14:37:33.773Z</time>
      </trkpt>
      <trkpt lat="36.60784441977739" lon="137.84485355950892">
        <ele>856.73</ele>
        <time>2025-07-08T14:37:36.545Z</time>
      </trkpt>
      <trkpt lat="36.607842575758696" lon="137.84485439769924">
        <ele>856.8</ele>
        <time>2025-07-08T14:37:39.317Z</time>
      </trkpt>
      <trkpt lat="36.607836205512285" lon="137.84485716372728">
        <ele>856.72</ele>
        <time>2025-07-08T14:37:42.089Z</time>
      </trkpt>
      <trkpt lat="36.60782991908491" lon="137.84485992975533">
        <ele>856.55</ele>
        <time>2025-07-08T14:37:44.861Z</time>
      </trkpt>
      <trkpt lat="36.60768994130194" lon="137.84496998414397">
        <ele>856.25</ele>
        <time>2025-07-08T14:37:47.636Z</time>
      </trkpt>
      <trkpt lat="36.60759991966188" lon="137.84509998746216">
        <ele>855.68</ele>
        <time>2025-07-08T14:37:50.413Z</time>
      </trkpt>
      <trkpt lat="36.6075299307704" lon="137.8453099541366">
        <ele>855.04</ele>
        <time>2025-07-08T14:37:53.193Z</time>
      </trkpt>
      <trkpt lat="36.60733999684453" lon="137.8455499280244">
        <ele>854.09</ele>
        <time>2025-07-08T14:37:55.977Z</time>
      </trkpt>
      <trkpt lat="36.60716992802918" lon="137.84576995298266">
        <ele>853.35</ele>
        <time>2025-07-08T14:37:58.765Z</time>
      </trkpt>
      <trkpt lat="36.60707999020815" lon="137.84584991633892">
        <ele>852.41</ele>
        <time>2025-07-08T14:38:01.555Z</time>
      </trkpt>
      <trkpt lat="36.60699994303286" lon="137.8458699490875">
        <ele>851.36</ele>
        <time>2025-07-08T14:38:04.346Z</time>
      </trkpt>
      <trkpt lat="36.60692995414138" lon="137.8458199929446">
        <ele>850.3</ele>
        <time>2025-07-08T14:38:07.139Z</time>
      </trkpt>
      <trkpt lat="36.606859965249896" lon="137.8456799313426">
        <ele>849.25</ele>
        <time>2025-07-08T14:38:09.934Z</time>
      </trkpt>
      <trkpt lat="36.60682995803654" lon="137.84550994634628">
        <ele>848.17</ele>
        <time>2025-07-08T14:38:12.731Z</time>
      </trkpt>
      <trkpt lat="36.606812942773104" lon="137.8451193496585">
        <ele>847.18</ele>
        <time>2025-07-08T14:38:15.533Z</time>
      </trkpt>
      <trkpt lat="36.60680992528796" lon="137.84504994750023">
        <ele>846.03</ele>
        <time>2025-07-08T14:38:18.336Z</time>
      </trkpt>
      <trkpt lat="36.60675996914506" lon="137.84483998082578">
        <ele>844.9</ele>
        <time>2025-07-08T14:38:21.142Z</time>
      </trkpt>
      <trkpt lat="36.60667992196977" lon="137.84471995197237">
        <ele>843.73</ele>
        <time>2025-07-08T14:38:23.950Z</time>
      </trkpt>
      <trkpt lat="36.606429973617196" lon="137.84456999972463">
        <ele>842.25</ele>
        <time>2025-07-08T14:38:26.762Z</time>
      </trkpt>
      <trkpt lat="36.60626996308565" lon="137.84445994533598">
        <ele>840.84</ele>
        <time>2025-07-08T14:38:29.577Z</time>
      </trkpt>
      <trkpt lat="36.606189999729395" lon="137.84441996365786">
        <ele>839.48</ele>
        <time>2025-07-08T14:38:32.394Z</time>
      </trkpt>
      <trkpt lat="36.60608991980553" lon="137.84440998919308">
        <ele>838.06</ele>
        <time>2025-07-08T14:38:35.212Z</time>
      </trkpt>
      <trkpt lat="36.60582630895078" lon="137.84462456591427">
        <ele>836.26</ele>
        <time>2025-07-08T14:38:38.035Z</time>
      </trkpt>
      <trkpt lat="36.60565992817283" lon="137.8447599336505">
        <ele>834.96</ele>
        <time>2025-07-08T14:38:40.861Z</time>
      </trkpt>
      <trkpt lat="36.60539489239454" lon="137.84497199580073">
        <ele>833.76</ele>
        <time>2025-07-08T14:38:43.692Z</time>
      </trkpt>
      <trkpt lat="36.605309983715415" lon="137.84503997303545">
        <ele>832.6</ele>
        <time>2025-07-08T14:38:46.525Z</time>
      </trkpt>
      <trkpt lat="36.60516992211342" lon="137.84509998746216">
        <ele>831.6</ele>
        <time>2025-07-08T14:38:49.360Z</time>
      </trkpt>
      <trkpt lat="36.60506992600858" lon="137.8451199363917">
        <ele>830.69</ele>
        <time>2025-07-08T14:38:52.197Z</time>
      </trkpt>
      <trkpt lat="36.604839926585555" lon="137.8451199363917">
        <ele>829.91</ele>
        <time>2025-07-08T14:38:55.038Z</time>
      </trkpt>
      <trkpt lat="36.6045250184834" lon="137.84509789198637">
        <ele>829.2</ele>
        <time>2025-07-08T14:38:57.884Z</time>
      </trkpt>
      <trkpt lat="36.60421019420028" lon="137.84507584758103">
        <ele>828.41</ele>
        <time>2025-07-08T14:39:00.735Z</time>
      </trkpt>
      <trkpt lat="36.60389528609812" lon="137.8450538031757">
        <ele>827.81</ele>
        <time>2025-07-08T14:39:03.591Z</time>
      </trkpt>
      <trkpt lat="36.60383996553719" lon="137.84504994750023">
        <ele>827.34</ele>
        <time>2025-07-08T14:39:06.448Z</time>
      </trkpt>
      <trkpt lat="36.60352530889213" lon="137.8450237121433">
        <ele>826.94</ele>
        <time>2025-07-08T14:39:09.310Z</time>
      </trkpt>
      <trkpt lat="36.60347996279597" lon="137.84501994028687">
        <ele>826.66</ele>
        <time>2025-07-08T14:39:12.173Z</time>
      </trkpt>
      <trkpt lat="36.60316455177963" lon="137.84501994028687">
        <ele>826.41</ele>
        <time>2025-07-08T14:39:15.041Z</time>
      </trkpt>
      <trkpt lat="36.60314996726811" lon="137.84501994028687">
        <ele>826.31</ele>
        <time>2025-07-08T14:39:17.909Z</time>
      </trkpt>
      <trkpt lat="36.602859953418374" lon="137.845059921965">
        <ele>826.43</ele>
        <time>2025-07-08T14:39:20.781Z</time>
      </trkpt>
      <trkpt lat="36.602689968422055" lon="137.84512999467552">
        <ele>826.62</ele>
        <time>2025-07-08T14:39:23.656Z</time>
      </trkpt>
      <trkpt lat="36.60242820158601" lon="137.84534809179604">
        <ele>826.85</ele>
        <time>2025-07-08T14:39:26.536Z</time>
      </trkpt>
      <trkpt lat="36.602343041449785" lon="137.84541875123978">
        <ele>827.11</ele>
        <time>2025-07-08T14:39:29.418Z</time>
      </trkpt>
      <trkpt lat="36.60234278999269" lon="137.8454190865159">
        <ele>827.33</ele>
        <time>2025-07-08T14:39:32.300Z</time>
      </trkpt>
      <trkpt lat="36.60234119743109" lon="137.84542051143944">
        <ele>827.6</ele>
        <time>2025-07-08T14:39:35.182Z</time>
      </trkpt>
      <trkpt lat="36.60233549773693" lon="137.84542528912425">
        <ele>827.9</ele>
        <time>2025-07-08T14:39:38.064Z</time>
      </trkpt>
      <trkpt lat="36.60232996568084" lon="137.84542998299003">
        <ele>828.23</ele>
        <time>2025-07-08T14:39:40.946Z</time>
      </trkpt>
      <trkpt lat="36.60217992961407" lon="137.84553995355964">
        <ele>828.68</ele>
        <time>2025-07-08T14:39:43.831Z</time>
      </trkpt>
      <trkpt lat="36.601864602416754" lon="137.84553207457066">
        <ele>829.52</ele>
        <time>2025-07-08T14:39:46.721Z</time>
      </trkpt>
      <trkpt lat="36.60177994519472" lon="137.84552997909486">
        <ele>829.91</ele>
        <time>2025-07-08T14:39:49.612Z</time>
      </trkpt>
      <trkpt lat="36.60166997462511" lon="137.84577992744744">
        <ele>829.65</ele>
        <time>2025-07-08T14:39:52.507Z</time>
      </trkpt>
      <trkpt lat="36.60168992355466" lon="137.84582996740937">
        <ele>829.9</ele>
        <time>2025-07-08T14:39:55.403Z</time>
      </trkpt>
      <trkpt lat="36.6016099601984" lon="137.8461199812591">
        <ele>829.97</ele>
        <time>2025-07-08T14:39:58.303Z</time>
      </trkpt>
      <trkpt lat="36.601809952408075" lon="137.8462499845773">
        <ele>830.26</ele>
        <time>2025-07-08T14:40:01.206Z</time>
      </trkpt>
      <trkpt lat="36.60188999958336" lon="137.84631997346878">
        <ele>830.6</ele>
        <time>2025-07-08T14:40:04.111Z</time>
      </trkpt>
      <trkpt lat="36.601999970152974" lon="137.84643991850317">
        <ele>830.97</ele>
        <time>2025-07-08T14:40:07.018Z</time>
      </trkpt>
      <trkpt lat="36.60213994793594" lon="137.84667997621">
        <ele>831.36</ele>
        <time>2025-07-08T14:40:09.929Z</time>
      </trkpt>
      <trkpt lat="36.60226374864578" lon="137.84703260287642">
        <ele>831.82</ele>
        <time>2025-07-08T14:40:12.845Z</time>
      </trkpt>
      <trkpt lat="36.602263916283846" lon="137.84703302197158">
        <ele>832.09</ele>
        <time>2025-07-08T14:40:15.761Z</time>
      </trkpt>
      <trkpt lat="36.60226475447416" lon="137.8470352012664">
        <ele>832.33</ele>
        <time>2025-07-08T14:40:18.677Z</time>
      </trkpt>
      <trkpt lat="36.60226592794061" lon="137.84703855402768">
        <ele>832.56</ele>
        <time>2025-07-08T14:40:21.593Z</time>
      </trkpt>
      <trkpt lat="36.602267269045115" lon="137.84704249352217">
        <ele>832.74</ele>
        <time>2025-07-08T14:40:24.509Z</time>
      </trkpt>
      <trkpt lat="36.60226995125413" lon="137.847049953416">
        <ele>832.89</ele>
        <time>2025-07-08T14:40:27.425Z</time>
      </trkpt>
      <trkpt lat="36.60236902534962" lon="137.84742135554552">
        <ele>833.23</ele>
        <time>2025-07-08T14:40:30.346Z</time>
      </trkpt>
      <trkpt lat="36.602429961785674" lon="137.847649930045">
        <ele>833.38</ele>
        <time>2025-07-08T14:40:33.270Z</time>
      </trkpt>
      <trkpt lat="36.6025114338845" lon="137.848027870059">
        <ele>833.34</ele>
        <time>2025-07-08T14:40:36.199Z</time>
      </trkpt>
      <trkpt lat="36.602539932355285" lon="137.848159968853">
        <ele>833.29</ele>
        <time>2025-07-08T14:40:39.130Z</time>
      </trkpt>
      <trkpt lat="36.60261679440737" lon="137.84853933379054">
        <ele>833.21</ele>
        <time>2025-07-08T14:40:42.066Z</time>
      </trkpt>
      <trkpt lat="36.60269365645945" lon="137.84891878254712">
        <ele>832.99</ele>
        <time>2025-07-08T14:40:45.007Z</time>
      </trkpt>
      <trkpt lat="36.60269994288683" lon="137.84894996322691">
        <ele>832.81</ele>
        <time>2025-07-08T14:40:47.949Z</time>
      </trkpt>
      <trkpt lat="36.60279340110719" lon="137.8493236284703">
        <ele>832.5</ele>
        <time>2025-07-08T14:40:50.896Z</time>
      </trkpt>
      <trkpt lat="36.60288677550852" lon="137.84969720989466">
        <ele>832.17</ele>
        <time>2025-07-08T14:40:53.848Z</time>
      </trkpt>
      <trkpt lat="36.60290999338031" lon="137.84978999756277">
        <ele>831.89</ele>
        <time>2025-07-08T14:40:56.801Z</time>
      </trkpt>
      <trkpt lat="36.60302993841469" lon="137.85007992759347">
        <ele>831.62</ele>
        <time>2025-07-08T14:40:59.758Z</time>
      </trkpt>
      <trkpt lat="36.60318844020367" lon="137.85041813738644">
        <ele>831.24</ele>
        <time>2025-07-08T14:41:02.720Z</time>
      </trkpt>
      <trkpt lat="36.6033299267292" lon="137.85071996971965">
        <ele>830.79</ele>
        <time>2025-07-08T14:41:05.687Z</time>
      </trkpt>
      <trkpt lat="36.60345045849681" lon="137.85108148120344">
        <ele>830.21</ele>
        <time>2025-07-08T14:41:08.659Z</time>
      </trkpt>
      <trkpt lat="36.60347996279597" lon="137.85116999410093">
        <ele>829.75</ele>
        <time>2025-07-08T14:41:11.632Z</time>
      </trkpt>
      <trkpt lat="36.603617928922176" lon="137.851521698758">
        <ele>829.3</ele>
        <time>2025-07-08T14:41:14.610Z</time>
      </trkpt>
      <trkpt lat="36.603679955005646" lon="137.85167994908988">
        <ele>828.98</ele>
        <time>2025-07-08T14:41:17.590Z</time>
      </trkpt>
      <trkpt lat="36.603719936683774" lon="137.8517399635166">
        <ele>828.58</ele>
        <time>2025-07-08T14:41:20.571Z</time>
      </trkpt>
      <trkpt lat="36.60390995442867" lon="137.85195998847485">
        <ele>828.14</ele>
        <time>2025-07-08T14:41:23.557Z</time>
      </trkpt>
      <trkpt lat="36.60403995774686" lon="137.85204992629588">
        <ele>827.71</ele>
        <time>2025-07-08T14:41:26.545Z</time>
      </trkpt>
      <trkpt lat="36.604239949956536" lon="137.8521499224007">
        <ele>827.26</ele>
        <time>2025-07-08T14:41:29.536Z</time>
      </trkpt>
      <trkpt lat="36.60439996048808" lon="137.85224991850555">
        <ele>826.8</ele>
        <time>2025-07-08T14:41:32.530Z</time>
      </trkpt>
      <trkpt lat="36.604599952697754" lon="137.8524199873209">
        <ele>826.33</ele>
        <time>2025-07-08T14:41:35.528Z</time>
      </trkpt>
      <trkpt lat="36.60485476255417" lon="137.85265048965812">
        <ele>825.94</ele>
        <time>2025-07-08T14:41:38.531Z</time>
      </trkpt>
      <trkpt lat="36.60501996986568" lon="137.85279993899167">
        <ele>825.61</ele>
        <time>2025-07-08T14:41:41.537Z</time>
      </trkpt>
      <trkpt lat="36.60523680970073" lon="137.8529980033636">
        <ele>825.21</ele>
        <time>2025-07-08T14:41:44.548Z</time>
      </trkpt>
      <trkpt lat="36.605237144976854" lon="137.8529982548207">
        <ele>824.81</ele>
        <time>2025-07-08T14:41:47.559Z</time>
      </trkpt>
      <trkpt lat="36.60523873753846" lon="137.85299967974424">
        <ele>824.41</ele>
        <time>2025-07-08T14:41:50.570Z</time>
      </trkpt>
      <trkpt lat="36.605244437232614" lon="137.8530048765242">
        <ele>824.01</ele>
        <time>2025-07-08T14:41:53.581Z</time>
      </trkpt>
      <trkpt lat="36.60524996928871" lon="137.85300998948514">
        <ele>823.62</ele>
        <time>2025-07-08T14:41:56.592Z</time>
      </trkpt>
      <trkpt lat="36.60550746135414" lon="137.85323588177562">
        <ele>823.21</ele>
        <time>2025-07-08T14:41:59.608Z</time>
      </trkpt>
      <trkpt lat="36.605739975348115" lon="137.85343998111784">
        <ele>822.88</ele>
        <time>2025-07-08T14:42:02.629Z</time>
      </trkpt>
      <trkpt lat="36.60591993480921" lon="137.85366998054087">
        <ele>822.56</ele>
        <time>2025-07-08T14:42:05.654Z</time>
      </trkpt>
      <trkpt lat="36.60609737969935" lon="137.85399343818426">
        <ele>822.21</ele>
        <time>2025-07-08T14:42:08.684Z</time>
      </trkpt>
      <trkpt lat="36.60625998862088" lon="137.85428998991847">
        <ele>821.73</ele>
        <time>2025-07-08T14:42:11.718Z</time>
      </trkpt>
      <trkpt lat="36.606339951977134" lon="137.85446994937956">
        <ele>821.33</ele>
        <time>2025-07-08T14:42:14.755Z</time>
      </trkpt>
      <trkpt lat="36.60646517761052" lon="137.85482903011143">
        <ele>820.84</ele>
        <time>2025-07-08T14:42:17.797Z</time>
      </trkpt>
      <trkpt lat="36.606489988043904" lon="137.85489994101226">
        <ele>820.47</ele>
        <time>2025-07-08T14:42:20.840Z</time>
      </trkpt>
      <trkpt lat="36.60653483122587" lon="137.85506187938154">
        <ele>820.11</ele>
        <time>2025-07-08T14:42:23.885Z</time>
      </trkpt>
      <trkpt lat="36.606534998863935" lon="137.8550622984767">
        <ele>819.81</ele>
        <time>2025-07-08T14:42:26.930Z</time>
      </trkpt>
      <trkpt lat="36.60653566941619" lon="137.85506464540958">
        <ele>819.54</ele>
        <time>2025-07-08T14:42:29.975Z</time>
      </trkpt>
      <trkpt lat="36.606537848711014" lon="137.85507244057953">
        <ele>819.3</ele>
        <time>2025-07-08T14:42:33.020Z</time>
      </trkpt>
      <trkpt lat="36.60653994418681" lon="137.8550799842924">
        <ele>819.08</ele>
        <time>2025-07-08T14:42:36.065Z</time>
      </trkpt>
      <trkpt lat="36.606658548116684" lon="137.85517612472177">
        <ele>818.84</ele>
        <time>2025-07-08T14:42:39.113Z</time>
      </trkpt>
      <trkpt lat="36.60665888339281" lon="137.85517637617886">
        <ele>818.69</ele>
        <time>2025-07-08T14:42:42.161Z</time>
      </trkpt>
      <trkpt lat="36.60666047595441" lon="137.85517771728337">
        <ele>818.56</ele>
        <time>2025-07-08T14:42:45.209Z</time>
      </trkpt>
      <trkpt lat="36.606666427105665" lon="137.8551825787872">
        <ele>818.46</ele>
        <time>2025-07-08T14:42:48.257Z</time>
      </trkpt>
      <trkpt lat="36.606672210618854" lon="137.85518727265298">
        <ele>818.41</ele>
        <time>2025-07-08T14:42:51.305Z</time>
      </trkpt>
      <trkpt lat="36.60657372325659" lon="137.8551466204226">
        <ele>818.42</ele>
        <time>2025-07-08T14:42:54.355Z</time>
      </trkpt>
      <trkpt lat="36.60657330416143" lon="137.85514645278454">
        <ele>818.43</ele>
        <time>2025-07-08T14:42:57.405Z</time>
      </trkpt>
      <trkpt lat="36.60657146014273" lon="137.85514569841325">
        <ele>818.47</ele>
        <time>2025-07-08T14:43:00.455Z</time>
      </trkpt>
      <trkpt lat="36.60656467080116" lon="137.8551429323852">
        <ele>818.55</ele>
        <time>2025-07-08T14:43:03.505Z</time>
      </trkpt>
      <trkpt lat="36.60655813291669" lon="137.8551402501762">
        <ele>818.65</ele>
        <time>2025-07-08T14:43:06.555Z</time>
      </trkpt>
      <trkpt lat="36.60669115372002" lon="137.8554732631892">
        <ele>818.79</ele>
        <time>2025-07-08T14:43:09.610Z</time>
      </trkpt>
      <trkpt lat="36.606691321358085" lon="137.85547368228436">
        <ele>818.95</ele>
        <time>2025-07-08T14:43:12.665Z</time>
      </trkpt>
      <trkpt lat="36.60669224336743" lon="137.85547586157918">
        <ele>819.15</ele>
        <time>2025-07-08T14:43:15.720Z</time>
      </trkpt>
      <trkpt lat="36.606695260852575" lon="137.85548323765397">
        <ele>819.37</ele>
        <time>2025-07-08T14:43:18.775Z</time>
      </trkpt>
      <trkpt lat="36.60668998025358" lon="137.8554899431765">
        <ele>819.62</ele>
        <time>2025-07-08T14:43:21.830Z</time>
      </trkpt>
      <trkpt lat="36.606769943609834" lon="137.85563997924328">
        <ele>819.93</ele>
        <time>2025-07-08T14:43:24.887Z</time>
      </trkpt>
      <trkpt lat="36.606919979676604" lon="137.85583997145295">
        <ele>820.27</ele>
        <time>2025-07-08T14:43:27.948Z</time>
      </trkpt>
      <trkpt lat="36.60708996467292" lon="137.8559899237007">
        <ele>820.62</ele>
        <time>2025-07-08T14:43:31.012Z</time>
      </trkpt>
      <trkpt lat="36.60724997520447" lon="137.85607994534075">
        <ele>820.97</ele>
        <time>2025-07-08T14:43:34.079Z</time>
      </trkpt>
      <trkpt lat="36.607545018196106" lon="137.85621824674308">
        <ele>821.29</ele>
        <time>2025-07-08T14:43:37.151Z</time>
      </trkpt>
      <trkpt lat="36.60756999626756" lon="137.85622998140752">
        <ele>821.65</ele>
        <time>2025-07-08T14:43:40.223Z</time>
      </trkpt>
      <trkpt lat="36.60782991908491" lon="137.85637993365526">
        <ele>821.96</ele>
        <time>2025-07-08T14:43:43.300Z</time>
      </trkpt>
      <trkpt lat="36.6079599224031" lon="137.85645998083055">
        <ele>822.3</ele>
        <time>2025-07-08T14:43:46.379Z</time>
      </trkpt>
      <trkpt lat="36.6081599984318" lon="137.85662996582687">
        <ele>822.78</ele>
        <time>2025-07-08T14:43:49.462Z</time>
      </trkpt>
      <trkpt lat="36.60841103643179" lon="137.85686667077243">
        <ele>823.37</ele>
        <time>2025-07-08T14:43:52.550Z</time>
      </trkpt>
      <trkpt lat="36.608509942889214" lon="137.85695996135473">
        <ele>823.79</ele>
        <time>2025-07-08T14:43:55.640Z</time>
      </trkpt>
      <trkpt lat="36.60864992067218" lon="137.8571599535644">
        <ele>824.19</ele>
        <time>2025-07-08T14:43:58.734Z</time>
      </trkpt>
      <trkpt lat="36.608789982274175" lon="137.85732993856072">
        <ele>824.45</ele>
        <time>2025-07-08T14:44:01.831Z</time>
      </trkpt>
      <trkpt lat="36.608879920095205" lon="137.857409985736">
        <ele>824.79</ele>
        <time>2025-07-08T14:44:04.930Z</time>
      </trkpt>
      <trkpt lat="36.60905996337533" lon="137.85751995630562">
        <ele>825.16</ele>
        <time>2025-07-08T14:44:08.032Z</time>
      </trkpt>
      <trkpt lat="36.60936573520303" lon="137.8576158452779">
        <ele>825.55</ele>
        <time>2025-07-08T14:44:11.139Z</time>
      </trkpt>
      <trkpt lat="36.609569918364286" lon="137.85767996683717">
        <ele>826.02</ele>
        <time>2025-07-08T14:44:14.249Z</time>
      </trkpt>
      <trkpt lat="36.60976999439299" lon="137.85769999958575">
        <ele>826.54</ele>
        <time>2025-07-08T14:44:17.362Z</time>
      </trkpt>
      <trkpt lat="36.609929921105504" lon="137.85770997405052">
        <ele>826.82</ele>
        <time>2025-07-08T14:44:20.478Z</time>
      </trkpt>
      <trkpt lat="36.61002991721034" lon="137.85772992298007">
        <ele>827.05</ele>
        <time>2025-07-08T14:44:23.596Z</time>
      </trkpt>
      <trkpt lat="36.61027994938195" lon="137.8578499518335">
        <ele>827.44</ele>
        <time>2025-07-08T14:44:26.718Z</time>
      </trkpt>
      <trkpt lat="36.61056443117559" lon="137.8580188471824">
        <ele>827.79</ele>
        <time>2025-07-08T14:44:29.845Z</time>
      </trkpt>
      <trkpt lat="36.61059997044504" lon="137.85803996957839">
        <ele>828.01</ele>
        <time>2025-07-08T14:44:32.972Z</time>
      </trkpt>
      <trkpt lat="36.610749922692776" lon="137.85806997679174">
        <ele>828.06</ele>
        <time>2025-07-08T14:44:36.102Z</time>
      </trkpt>
      <trkpt lat="36.61106399260461" lon="137.8580334316939">
        <ele>827.96</ele>
        <time>2025-07-08T14:44:39.237Z</time>
      </trkpt>
      <trkpt lat="36.61117999814451" lon="137.8580199368298">
        <ele>828.03</ele>
        <time>2025-07-08T14:44:42.374Z</time>
      </trkpt>
      <trkpt lat="36.611309917643666" lon="137.85804994404316">
        <ele>828.09</ele>
        <time>2025-07-08T14:44:45.513Z</time>
      </trkpt>
      <trkpt lat="36.61147998645902" lon="137.85810995846987">
        <ele>828.15</ele>
        <time>2025-07-08T14:44:48.655Z</time>
      </trkpt>
      <trkpt lat="36.611649971455336" lon="137.8582099545747">
        <ele>828.13</ele>
        <time>2025-07-08T14:44:51.800Z</time>
      </trkpt>
      <trkpt lat="36.61180998198688" lon="137.85831992514431">
        <ele>828.13</ele>
        <time>2025-07-08T14:44:54.948Z</time>
      </trkpt>
      <trkpt lat="36.612057918682694" lon="137.8585617430508">
        <ele>828.21</ele>
        <time>2025-07-08T14:44:58.101Z</time>
      </trkpt>
      <trkpt lat="36.612209966406226" lon="137.8587099350989">
        <ele>828.18</ele>
        <time>2025-07-08T14:45:01.257Z</time>
      </trkpt>
      <trkpt lat="36.612458657473326" lon="137.85895057953894">
        <ele>828.11</ele>
        <time>2025-07-08T14:45:04.418Z</time>
      </trkpt>
      <trkpt lat="36.61251992918551" lon="137.8590099234134">
        <ele>827.96</ele>
        <time>2025-07-08T14:45:07.580Z</time>
      </trkpt>
      <trkpt lat="36.6127794329077" lon="137.85923237912357">
        <ele>827.86</ele>
        <time>2025-07-08T14:45:10.747Z</time>
      </trkpt>
      <trkpt lat="36.612939946353436" lon="137.8593699261546">
        <ele>827.6</ele>
        <time>2025-07-08T14:45:13.917Z</time>
      </trkpt>
      <trkpt lat="36.613212022930384" lon="137.8595678228885">
        <ele>827.21</ele>
        <time>2025-07-08T14:45:17.092Z</time>
      </trkpt>
      <trkpt lat="36.6132699418813" lon="137.85960998386145">
        <ele>826.88</ele>
        <time>2025-07-08T14:45:20.268Z</time>
      </trkpt>
      <trkpt lat="36.613429952412844" lon="137.85970997996628">
        <ele>826.53</ele>
        <time>2025-07-08T14:45:23.447Z</time>
      </trkpt>
      <trkpt lat="36.61372248083353" lon="137.85985624417663">
        <ele>826.13</ele>
        <time>2025-07-08T14:45:26.631Z</time>
      </trkpt>
      <trkpt lat="36.613949965685606" lon="137.85996998660266">
        <ele>825.73</ele>
        <time>2025-07-08T14:45:29.819Z</time>
      </trkpt>
      <trkpt lat="36.61416999064386" lon="137.8600599244237">
        <ele>825.35</ele>
        <time>2025-07-08T14:45:33.011Z</time>
      </trkpt>
      <trkpt lat="36.614269986748695" lon="137.86007995717227">
        <ele>824.96</ele>
        <time>2025-07-08T14:45:36.205Z</time>
      </trkpt>
      <trkpt lat="36.61430049687624" lon="137.86007995717227">
        <ele>824.56</ele>
        <time>2025-07-08T14:45:39.399Z</time>
      </trkpt>
      <trkpt lat="36.61430083215237" lon="137.86007995717227">
        <ele>824.16</ele>
        <time>2025-07-08T14:45:42.593Z</time>
      </trkpt>
      <trkpt lat="36.61430284380913" lon="137.86007995717227">
        <ele>823.76</ele>
        <time>2025-07-08T14:45:45.787Z</time>
      </trkpt>
      <trkpt lat="36.614309968426824" lon="137.86007995717227">
        <ele>823.36</ele>
        <time>2025-07-08T14:45:48.981Z</time>
      </trkpt>
      <trkpt lat="36.61448992788792" lon="137.8600699827075">
        <ele>822.95</ele>
        <time>2025-07-08T14:45:52.178Z</time>
      </trkpt>
      <trkpt lat="36.61480039358139" lon="137.8600009996444">
        <ele>822.51</ele>
        <time>2025-07-08T14:45:55.380Z</time>
      </trkpt>
      <trkpt lat="36.615110859274864" lon="137.8599320165813">
        <ele>822.15</ele>
        <time>2025-07-08T14:45:58.587Z</time>
      </trkpt>
      <trkpt lat="36.61538997665048" lon="137.85986999049783">
        <ele>821.82</ele>
        <time>2025-07-08T14:46:01.799Z</time>
      </trkpt>
      <trkpt lat="36.615700190886855" lon="137.85979966633022">
        <ele>821.57</ele>
        <time>2025-07-08T14:46:05.016Z</time>
      </trkpt>
      <trkpt lat="36.616010488942266" lon="137.8597293421626">
        <ele>821.23</ele>
        <time>2025-07-08T14:46:08.238Z</time>
      </trkpt>
      <trkpt lat="36.616320786997676" lon="137.85965910181403">
        <ele>821.0</ele>
        <time>2025-07-08T14:46:11.465Z</time>
      </trkpt>
      <trkpt lat="36.616631001234055" lon="137.85958877764642">
        <ele>820.64</ele>
        <time>2025-07-08T14:46:14.697Z</time>
      </trkpt>
      <trkpt lat="36.6166699770838" lon="137.8595799766481">
        <ele>820.4</ele>
        <time>2025-07-08T14:46:17.929Z</time>
      </trkpt>
      <trkpt lat="36.616980442777276" lon="137.859510993585">
        <ele>820.14</ele>
        <time>2025-07-08T14:46:21.166Z</time>
      </trkpt>
      <trkpt lat="36.61702997982502" lon="137.8594999294728">
        <ele>820.03</ele>
        <time>2025-07-08T14:46:24.404Z</time>
      </trkpt>
      <trkpt lat="36.61733717657626" lon="137.85941133275628">
        <ele>820.01</ele>
        <time>2025-07-08T14:46:27.647Z</time>
      </trkpt>
      <trkpt lat="36.61754999309778" lon="137.85934997722507">
        <ele>819.98</ele>
        <time>2025-07-08T14:46:30.894Z</time>
      </trkpt>
      <trkpt lat="36.617857525125146" lon="137.85926322452724">
        <ele>819.99</ele>
        <time>2025-07-08T14:46:34.146Z</time>
      </trkpt>
      <trkpt lat="36.61816505715251" lon="137.85917647182941">
        <ele>820.04</ele>
        <time>2025-07-08T14:46:37.403Z</time>
      </trkpt>
      <trkpt lat="36.61832037381828" lon="137.8591325506568">
        <ele>820.14</ele>
        <time>2025-07-08T14:46:40.662Z</time>
      </trkpt>
      <trkpt lat="36.61832079291344" lon="137.85913246683776">
        <ele>820.33</ele>
        <time>2025-07-08T14:46:43.921Z</time>
      </trkpt>
      <trkpt lat="36.618322636932135" lon="137.85913196392357">
        <ele>820.57</ele>
        <time>2025-07-08T14:46:47.180Z</time>
      </trkpt>
      <trkpt lat="36.618329929187894" lon="137.8591299522668">
        <ele>820.88</ele>
        <time>2025-07-08T14:46:50.440Z</time>
      </trkpt>
      <trkpt lat="36.61836287006736" lon="137.85930689424276">
        <ele>821.27</ele>
        <time>2025-07-08T14:46:53.702Z</time>
      </trkpt>
      <trkpt lat="36.61836295388639" lon="137.85930731333792">
        <ele>821.69</ele>
        <time>2025-07-08T14:46:56.964Z</time>
      </trkpt>
      <trkpt lat="36.61836345680058" lon="137.8593096602708">
        <ele>822.16</ele>
        <time>2025-07-08T14:47:00.226Z</time>
      </trkpt>
      <trkpt lat="36.61836504936218" lon="137.85931795835495">
        <ele>822.68</ele>
        <time>2025-07-08T14:47:03.488Z</time>
      </trkpt>
      <trkpt lat="36.61845725029707" lon="137.85911595448852">
        <ele>823.23</ele>
        <time>2025-07-08T14:47:06.753Z</time>
      </trkpt>
      <trkpt lat="36.618457501754165" lon="137.8591156192124">
        <ele>823.84</ele>
        <time>2025-07-08T14:47:10.018Z</time>
      </trkpt>
      <trkpt lat="36.618458507582545" lon="137.8591135237366">
        <ele>824.49</ele>
        <time>2025-07-08T14:47:13.283Z</time>
      </trkpt>
      <trkpt lat="36.618461944162846" lon="137.8591061476618">
        <ele>825.18</ele>
        <time>2025-07-08T14:47:16.548Z</time>
      </trkpt>
      <trkpt lat="36.618459932506084" lon="137.85909994505346">
        <ele>825.89</ele>
        <time>2025-07-08T14:47:19.813Z</time>
      </trkpt>
      <trkpt lat="36.618766877800226" lon="137.8590096719563">
        <ele>826.71</ele>
        <time>2025-07-08T14:47:23.083Z</time>
      </trkpt>
      <trkpt lat="36.618799986317754" lon="137.85899994894862">
        <ele>827.47</ele>
        <time>2025-07-08T14:47:26.354Z</time>
      </trkpt>
      <trkpt lat="36.61904993467033" lon="137.85891998559237">
        <ele>828.33</ele>
        <time>2025-07-08T14:47:29.629Z</time>
      </trkpt>
      <trkpt lat="36.61921991966665" lon="137.85881998948753">
        <ele>829.13</ele>
        <time>2025-07-08T14:47:32.907Z</time>
      </trkpt>
      <trkpt lat="36.61948235705495" lon="137.85860281437635">
        <ele>830.05</ele>
        <time>2025-07-08T14:47:36.190Z</time>
      </trkpt>
      <trkpt lat="36.61950993351638" lon="137.8585799317807">
        <ele>830.77</ele>
        <time>2025-07-08T14:47:39.474Z</time>
      </trkpt>
      <trkpt lat="36.619761222973466" lon="137.85834347829223">
        <ele>831.67</ele>
        <time>2025-07-08T14:47:42.763Z</time>
      </trkpt>
      <trkpt lat="36.619842275977135" lon="137.8582670353353">
        <ele>832.35</ele>
        <time>2025-07-08T14:47:46.053Z</time>
      </trkpt>
      <trkpt lat="36.61984261125326" lon="137.8582667838782">
        <ele>832.9</ele>
        <time>2025-07-08T14:47:49.343Z</time>
      </trkpt>
      <trkpt lat="36.619844203814864" lon="137.85826535895467">
        <ele>833.37</ele>
        <time>2025-07-08T14:47:52.633Z</time>
      </trkpt>
      <trkpt lat="36.61984998732805" lon="137.85825999453664">
        <ele>833.77</ele>
        <time>2025-07-08T14:47:55.923Z</time>
      </trkpt>
      <trkpt lat="36.62010395899415" lon="137.85802806727588">
        <ele>834.27</ele>
        <time>2025-07-08T14:47:59.218Z</time>
      </trkpt>
      <trkpt lat="36.62030998617411" lon="137.8578399773687">
        <ele>834.52</ele>
        <time>2025-07-08T14:48:02.518Z</time>
      </trkpt>
      <trkpt lat="36.62054241634905" lon="137.85757544450462">
        <ele>834.72</ele>
        <time>2025-07-08T14:48:05.823Z</time>
      </trkpt>
      <trkpt lat="36.62059991620481" lon="137.85750998184085">
        <ele>834.75</ele>
        <time>2025-07-08T14:48:09.129Z</time>
      </trkpt>
      <trkpt lat="36.6207920294255" lon="137.8571995999664">
        <ele>834.69</ele>
        <time>2025-07-08T14:48:12.440Z</time>
      </trkpt>
      <trkpt lat="36.62085992284119" lon="137.85708996467292">
        <ele>834.5</ele>
        <time>2025-07-08T14:48:15.753Z</time>
      </trkpt>
      <trkpt lat="36.62100300192833" lon="137.856741277501">
        <ele>834.19</ele>
        <time>2025-07-08T14:48:19.071Z</time>
      </trkpt>
      <trkpt lat="36.62114608101547" lon="137.85639250651002">
        <ele>833.7</ele>
        <time>2025-07-08T14:48:22.394Z</time>
      </trkpt>
      <trkpt lat="36.62117994390428" lon="137.85630994476378">
        <ele>833.24</ele>
        <time>2025-07-08T14:48:25.718Z</time>
      </trkpt>
      <trkpt lat="36.621330147609115" lon="137.8559658676386">
        <ele>832.59</ele>
        <time>2025-07-08T14:48:29.047Z</time>
      </trkpt>
      <trkpt lat="36.62141991779208" lon="137.85575992427766">
        <ele>831.99</ele>
        <time>2025-07-08T14:48:32.379Z</time>
      </trkpt>
      <trkpt lat="36.62157992832363" lon="137.8554899431765">
        <ele>831.32</ele>
        <time>2025-07-08T14:48:35.715Z</time>
      </trkpt>
      <trkpt lat="36.621789978817105" lon="137.8552499692887">
        <ele>830.73</ele>
        <time>2025-07-08T14:48:39.056Z</time>
      </trkpt>
      <trkpt lat="36.62200991995633" lon="137.8550599515438">
        <ele>830.08</ele>
        <time>2025-07-08T14:48:42.401Z</time>
      </trkpt>
      <trkpt lat="36.62229389883578" lon="137.85488963127136">
        <ele>829.27</ele>
        <time>2025-07-08T14:48:45.751Z</time>
      </trkpt>
      <trkpt lat="36.62230999208987" lon="137.85487999208272">
        <ele>828.57</ele>
        <time>2025-07-08T14:48:49.101Z</time>
      </trkpt>
      <trkpt lat="36.62242993712425" lon="137.85478997044265">
        <ele>827.8</ele>
        <time>2025-07-08T14:48:52.454Z</time>
      </trkpt>
      <trkpt lat="36.622539991512895" lon="137.8547599632293">
        <ele>827.05</ele>
        <time>2025-07-08T14:48:55.809Z</time>
      </trkpt>
      <trkpt lat="36.62269991822541" lon="137.85477999597788">
        <ele>826.29</ele>
        <time>2025-07-08T14:48:59.166Z</time>
      </trkpt>
      <trkpt lat="36.6228299215436" lon="137.8548099193722">
        <ele>825.55</ele>
        <time>2025-07-08T14:49:02.525Z</time>
      </trkpt>
      <trkpt lat="36.622929917648435" lon="137.85484998486936">
        <ele>824.84</ele>
        <time>2025-07-08T14:49:05.886Z</time>
      </trkpt>
      <trkpt lat="36.622889935970306" lon="137.8550099954009">
        <ele>824.18</ele>
        <time>2025-07-08T14:49:09.249Z</time>
      </trkpt>
      <trkpt lat="36.623150864616036" lon="137.85512583330274">
        <ele>823.49</ele>
        <time>2025-07-08T14:49:12.616Z</time>
      </trkpt>
      <trkpt lat="36.6231510322541" lon="137.85512583330274">
        <ele>822.92</ele>
        <time>2025-07-08T14:49:15.983Z</time>
      </trkpt>
      <trkpt lat="36.623152708634734" lon="137.85512667149305">
        <ele>822.4</ele>
        <time>2025-07-08T14:49:19.350Z</time>
      </trkpt>
      <trkpt lat="36.62315991707146" lon="137.8551299404353">
        <ele>821.91</ele>
        <time>2025-07-08T14:49:22.718Z</time>
      </trkpt>
      <trkpt lat="36.62342998199165" lon="137.85523999482393">
        <ele>821.46</ele>
        <time>2025-07-08T14:49:26.090Z</time>
      </trkpt>
      <trkpt lat="36.62368998862803" lon="137.85527997650206">
        <ele>821.08</ele>
        <time>2025-07-08T14:49:29.466Z</time>
      </trkpt>
      <trkpt lat="36.62377992644906" lon="137.85526991821826">
        <ele>820.69</ele>
        <time>2025-07-08T14:49:32.844Z</time>
      </trkpt>
      <trkpt lat="36.623809933662415" lon="137.85525994375348">
        <ele>820.33</ele>
        <time>2025-07-08T14:49:36.222Z</time>
      </trkpt>
      <trkpt lat="36.62381999194622" lon="137.85530998371542">
        <ele>820.06</ele>
        <time>2025-07-08T14:49:39.601Z</time>
      </trkpt>
      <trkpt lat="36.62386994808912" lon="137.85536999814212">
        <ele>819.82</ele>
        <time>2025-07-08T14:49:42.981Z</time>
      </trkpt>
      <trkpt lat="36.62402995862067" lon="137.85528995096684">
        <ele>819.51</ele>
        <time>2025-07-08T14:49:46.364Z</time>
      </trkpt>
      <trkpt lat="36.62413992919028" lon="137.85527997650206">
        <ele>819.26</ele>
        <time>2025-07-08T14:49:49.749Z</time>
      </trkpt>
      <trkpt lat="36.624199943616986" lon="137.8553199581802">
        <ele>819.02</ele>
        <time>2025-07-08T14:49:53.135Z</time>
      </trkpt>
      <trkpt lat="36.624279990792274" lon="137.85540997982025">
        <ele>818.78</ele>
        <time>2025-07-08T14:49:56.522Z</time>
      </trkpt>
      <trkpt lat="36.624389961361885" lon="137.85552992485464">
        <ele>818.57</ele>
        <time>2025-07-08T14:49:59.912Z</time>
      </trkpt>
      <trkpt lat="36.62448995746672" lon="137.85558993928134">
        <ele>818.3</ele>
        <time>2025-07-08T14:50:03.303Z</time>
      </trkpt>
      <trkpt lat="36.624559946358204" lon="137.85559999756515">
        <ele>817.97</ele>
        <time>2025-07-08T14:50:06.696Z</time>
      </trkpt>
      <trkpt lat="36.62471040152013" lon="137.85559999756515">
        <ele>817.56</ele>
        <time>2025-07-08T14:50:10.091Z</time>
      </trkpt>
      <trkpt lat="36.624712413176894" lon="137.85559999756515">
        <ele>816.79</ele>
        <time>2025-07-08T14:50:13.486Z</time>
      </trkpt>
      <trkpt lat="36.62471995688975" lon="137.85559999756515">
        <ele>816.35</ele>
        <time>2025-07-08T14:50:16.881Z</time>
      </trkpt>
      <trkpt lat="36.624799920246005" lon="137.85558993928134">
        <ele>815.8</ele>
        <time>2025-07-08T14:50:20.277Z</time>
      </trkpt>
      <trkpt lat="36.62484996020794" lon="137.85554995760322">
        <ele>815.2</ele>
        <time>2025-07-08T14:50:23.674Z</time>
      </trkpt>
      <trkpt lat="36.62502991966903" lon="137.8553799726069">
        <ele>814.43</ele>
        <time>2025-07-08T14:50:27.075Z</time>
      </trkpt>
      <trkpt lat="36.62510996684432" lon="137.85532993264496">
        <ele>813.74</ele>
        <time>2025-07-08T14:50:30.477Z</time>
      </trkpt>
      <trkpt lat="36.6251799557358" lon="137.85530998371542">
        <ele>813.02</ele>
        <time>2025-07-08T14:50:33.881Z</time>
      </trkpt>
      <trkpt lat="36.62523997016251" lon="137.8553199581802">
        <ele>812.28</ele>
        <time>2025-07-08T14:50:37.286Z</time>
      </trkpt>
      <trkpt lat="36.625269977375865" lon="137.85534996539354">
        <ele>811.53</ele>
        <time>2025-07-08T14:50:40.691Z</time>
      </trkpt>
      <trkpt lat="36.62527995184064" lon="137.85547996871173">
        <ele>810.74</ele>
        <time>2025-07-08T14:50:44.098Z</time>
      </trkpt>
      <trkpt lat="36.625249944627285" lon="137.85563997924328">
        <ele>809.92</ele>
        <time>2025-07-08T14:50:47.507Z</time>
      </trkpt>
      <trkpt lat="36.6251799557358" lon="137.8558099642396">
        <ele>809.09</ele>
        <time>2025-07-08T14:50:50.918Z</time>
      </trkpt>
      <trkpt lat="36.6251299995929" lon="137.8559999819845">
        <ele>808.25</ele>
        <time>2025-07-08T14:50:54.332Z</time>
      </trkpt>
      <trkpt lat="36.62510996684432" lon="137.85607994534075">
        <ele>807.26</ele>
        <time>2025-07-08T14:50:57.747Z</time>
      </trkpt>
      <trkpt lat="36.625119941309094" lon="137.85631991922855">
        <ele>806.2</ele>
        <time>2025-07-08T14:51:01.165Z</time>
      </trkpt>
      <trkpt lat="36.62519588135183" lon="137.85669970326126">
        <ele>804.78</ele>
        <time>2025-07-08T14:51:04.588Z</time>
      </trkpt>
      <trkpt lat="36.62520996294916" lon="137.85676994360983">
        <ele>803.52</ele>
        <time>2025-07-08T14:51:08.012Z</time>
      </trkpt>
      <trkpt lat="36.62533996626735" lon="137.85705995745957">
        <ele>802.11</ele>
        <time>2025-07-08T14:51:11.440Z</time>
      </trkpt>
      <trkpt lat="36.625527050346136" lon="137.8573750331998">
        <ele>800.52</ele>
        <time>2025-07-08T14:51:14.873Z</time>
      </trkpt>
      <trkpt lat="36.625529984012246" lon="137.85737997852266">
        <ele>799.17</ele>
        <time>2025-07-08T14:51:18.307Z</time>
      </trkpt>
      <trkpt lat="36.62561992183328" lon="137.85743999294937">
        <ele>797.73</ele>
        <time>2025-07-08T14:51:21.742Z</time>
      </trkpt>
      <trkpt lat="36.6257999651134" lon="137.85743999294937">
        <ele>796.22</ele>
        <time>2025-07-08T14:51:25.180Z</time>
      </trkpt>
      <trkpt lat="36.625939942896366" lon="137.8573999274522">
        <ele>794.72</ele>
        <time>2025-07-08T14:51:28.620Z</time>
      </trkpt>
      <trkpt lat="36.62613993510604" lon="137.85733999684453">
        <ele>793.17</ele>
        <time>2025-07-08T14:51:32.064Z</time>
      </trkpt>
      <trkpt lat="36.62624998949468" lon="137.85732993856072">
        <ele>791.68</ele>
        <time>2025-07-08T14:51:35.509Z</time>
      </trkpt>
      <trkpt lat="36.626260969787836" lon="137.85733538679779">
        <ele>790.24</ele>
        <time>2025-07-08T14:51:38.955Z</time>
      </trkpt>
      <trkpt lat="36.626261388882995" lon="137.85733563825488">
        <ele>788.79</ele>
        <time>2025-07-08T14:51:42.401Z</time>
      </trkpt>
      <trkpt lat="36.62626314908266" lon="137.85733656026423">
        <ele>787.36</ele>
        <time>2025-07-08T14:51:45.847Z</time>
      </trkpt>
      <trkpt lat="36.62626993842423" lon="137.85733999684453">
        <ele>785.94</ele>
        <time>2025-07-08T14:51:49.293Z</time>
      </trkpt>
      <trkpt lat="36.626429948955774" lon="137.8573499713093">
        <ele>784.47</ele>
        <time>2025-07-08T14:51:52.741Z</time>
      </trkpt>
      <trkpt lat="36.626579985022545" lon="137.857409985736">
        <ele>783.03</ele>
        <time>2025-07-08T14:51:56.192Z</time>
      </trkpt>
      <trkpt lat="36.62667998112738" lon="137.8574799746275">
        <ele>781.65</ele>
        <time>2025-07-08T14:51:59.645Z</time>
      </trkpt>
      <trkpt lat="36.626819958910346" lon="137.8575299307704">
        <ele>780.26</ele>
        <time>2025-07-08T14:52:03.100Z</time>
      </trkpt>
      <trkpt lat="36.62701995112002" lon="137.8575399890542">
        <ele>778.87</ele>
        <time>2025-07-08T14:52:06.558Z</time>
      </trkpt>
      <trkpt lat="36.62733159027994" lon="137.85747938789427">
        <ele>777.37</ele>
        <time>2025-07-08T14:52:10.021Z</time>
      </trkpt>
      <trkpt lat="36.62737995386124" lon="137.8574699163437">
        <ele>776.12</ele>
        <time>2025-07-08T14:52:13.485Z</time>
      </trkpt>
      <trkpt lat="36.627609953284264" lon="137.85744996741414">
        <ele>774.8</ele>
        <time>2025-07-08T14:52:16.953Z</time>
      </trkpt>
      <trkpt lat="36.627719923853874" lon="137.85748994909227">
        <ele>773.67</ele>
        <time>2025-07-08T14:52:20.423Z</time>
      </trkpt>
      <trkpt lat="36.62779997102916" lon="137.8575399890542">
        <ele>772.63</ele>
        <time>2025-07-08T14:52:23.894Z</time>
      </trkpt>
      <trkpt lat="36.62796995602548" lon="137.85769999958575">
        <ele>771.65</ele>
        <time>2025-07-08T14:52:27.368Z</time>
      </trkpt>
      <trkpt lat="36.62809995934367" lon="137.8578499518335">
        <ele>770.8</ele>
        <time>2025-07-08T14:52:30.845Z</time>
      </trkpt>
      <trkpt lat="36.62833146750927" lon="137.85811574198306">
        <ele>770.04</ele>
        <time>2025-07-08T14:52:34.327Z</time>
      </trkpt>
      <trkpt lat="36.62836994044483" lon="137.8581599984318">
        <ele>769.36</ele>
        <time>2025-07-08T14:52:37.810Z</time>
      </trkpt>
      <trkpt lat="36.62854998372495" lon="137.85832998342812">
        <ele>768.75</ele>
        <time>2025-07-08T14:52:41.297Z</time>
      </trkpt>
      <trkpt lat="36.628709994256496" lon="137.8584599867463">
        <ele>768.19</ele>
        <time>2025-07-08T14:52:44.787Z</time>
      </trkpt>
      <trkpt lat="36.62886992096901" lon="137.85854992456734">
        <ele>767.69</ele>
        <time>2025-07-08T14:52:48.280Z</time>
      </trkpt>
      <trkpt lat="36.629099920392036" lon="137.85862997174263">
        <ele>767.24</ele>
        <time>2025-07-08T14:52:51.776Z</time>
      </trkpt>
      <trkpt lat="36.62916999310255" lon="137.8586399462074">
        <ele>766.9</ele>
        <time>2025-07-08T14:52:55.274Z</time>
      </trkpt>
      <trkpt lat="36.62942999973893" lon="137.85843995399773">
        <ele>766.59</ele>
        <time>2025-07-08T14:52:58.776Z</time>
      </trkpt>
      <trkpt lat="36.6296199336648" lon="137.8583399578929">
        <ele>766.42</ele>
        <time>2025-07-08T14:53:02.282Z</time>
      </trkpt>
      <trkpt lat="36.629925202578306" lon="137.85824147053063">
        <ele>766.32</ele>
        <time>2025-07-08T14:53:05.793Z</time>
      </trkpt>
      <trkpt lat="36.629929980263114" lon="137.85823996178806">
        <ele>766.23</ele>
        <time>2025-07-08T14:53:09.304Z</time>
      </trkpt>
      <trkpt lat="36.63015017285943" lon="137.8582303225994">
        <ele>766.19</ele>
        <time>2025-07-08T14:53:12.818Z</time>
      </trkpt>
      <trkpt lat="36.63015025667846" lon="137.85823023878038">
        <ele>766.17</ele>
        <time>2025-07-08T14:53:16.332Z</time>
      </trkpt>
      <trkpt lat="36.63015210069716" lon="137.8582303225994">
        <ele>766.19</ele>
        <time>2025-07-08T14:53:19.846Z</time>
      </trkpt>
      <trkpt lat="36.63015997968614" lon="137.85822998732328">
        <ele>766.23</ele>
        <time>2025-07-08T14:53:23.361Z</time>
      </trkpt>
      <trkpt lat="36.63047446869314" lon="137.8582599107176">
        <ele>766.37</ele>
        <time>2025-07-08T14:53:26.881Z</time>
      </trkpt>
      <trkpt lat="36.63057999685407" lon="137.8582699690014">
        <ele>766.45</ele>
        <time>2025-07-08T14:53:30.402Z</time>
      </trkpt>
      <trkpt lat="36.63065996021032" lon="137.85829997621477">
        <ele>766.5</ele>
        <time>2025-07-08T14:53:33.925Z</time>
      </trkpt>
      <trkpt lat="36.630879985168576" lon="137.85849996842444">
        <ele>766.57</ele>
        <time>2025-07-08T14:53:37.452Z</time>
      </trkpt>
      <trkpt lat="36.63096992298961" lon="137.85859996452928">
        <ele>766.62</ele>
        <time>2025-07-08T14:53:40.981Z</time>
      </trkpt>
      <trkpt lat="36.6310999263078" lon="137.8587199933827">
        <ele>766.64</ele>
        <time>2025-07-08T14:53:44.512Z</time>
      </trkpt>
      <trkpt lat="36.631329925730824" lon="137.85881998948753">
        <ele>766.63</ele>
        <time>2025-07-08T14:53:48.047Z</time>
      </trkpt>
      <trkpt lat="36.631479961797595" lon="137.85885997116566">
        <ele>766.54</ele>
        <time>2025-07-08T14:53:51.585Z</time>
      </trkpt>
      <trkpt lat="36.631609965115786" lon="137.85885997116566">
        <ele>766.38</ele>
        <time>2025-07-08T14:53:55.125Z</time>
      </trkpt>
      <trkpt lat="36.63167995400727" lon="137.85883993841708">
        <ele>766.21</ele>
        <time>2025-07-08T14:53:58.666Z</time>
      </trkpt>
      <trkpt lat="36.631779950112104" lon="137.85875997506082">
        <ele>765.95</ele>
        <time>2025-07-08T14:54:02.209Z</time>
      </trkpt>
      <trkpt lat="36.63185999728739" lon="137.85842997953296">
        <ele>765.61</ele>
        <time>2025-07-08T14:54:05.756Z</time>
      </trkpt>
      <trkpt lat="36.63195957429707" lon="137.85805866122246">
        <ele>765.3</ele>
        <time>2025-07-08T14:54:09.308Z</time>
      </trkpt>
      <trkpt lat="36.631969967857" lon="137.8580199368298">
        <ele>764.97</ele>
        <time>2025-07-08T14:54:12.861Z</time>
      </trkpt>
      <trkpt lat="36.632119081914425" lon="137.85767510533333">
        <ele>764.64</ele>
        <time>2025-07-08T14:54:16.419Z</time>
      </trkpt>
      <trkpt lat="36.63212997838855" lon="137.8576499596238">
        <ele>764.22</ele>
        <time>2025-07-08T14:54:19.977Z</time>
      </trkpt>
      <trkpt lat="36.63227465003729" lon="137.8573697526008">
        <ele>763.85</ele>
        <time>2025-07-08T14:54:23.540Z</time>
      </trkpt>
      <trkpt lat="36.632274901494384" lon="137.85736941732466">
        <ele>763.32</ele>
        <time>2025-07-08T14:54:27.103Z</time>
      </trkpt>
      <trkpt lat="36.632275991141796" lon="137.8573674056679">
        <ele>762.74</ele>
        <time>2025-07-08T14:54:30.666Z</time>
      </trkpt>
      <trkpt lat="36.63227993063629" lon="137.85735994577408">
        <ele>762.11</ele>
        <time>2025-07-08T14:54:34.229Z</time>
      </trkpt>
      <trkpt lat="36.63244723342359" lon="137.85702819004655">
        <ele>761.5</ele>
        <time>2025-07-08T14:54:37.797Z</time>
      </trkpt>
      <trkpt lat="36.63261445239186" lon="137.8566963505">
        <ele>760.58</ele>
        <time>2025-07-08T14:54:41.370Z</time>
      </trkpt>
      <trkpt lat="36.632781671360135" lon="137.85636459477246">
        <ele>759.49</ele>
        <time>2025-07-08T14:54:44.948Z</time>
      </trkpt>
      <trkpt lat="36.632899940013885" lon="137.8561299853027">
        <ele>758.61</ele>
        <time>2025-07-08T14:54:48.529Z</time>
      </trkpt>
      <trkpt lat="36.633069925010204" lon="137.8558599203825">
        <ele>757.7</ele>
        <time>2025-07-08T14:54:52.115Z</time>
      </trkpt>
      <trkpt lat="36.633239993825555" lon="137.85562992095947">
        <ele>756.87</ele>
        <time>2025-07-08T14:54:55.705Z</time>
      </trkpt>
      <trkpt lat="36.633488181978464" lon="137.8553884383291">
        <ele>755.99</ele>
        <time>2025-07-08T14:54:59.300Z</time>
      </trkpt>
      <trkpt lat="36.63373637013137" lon="137.85514695569873">
        <ele>754.96</ele>
        <time>2025-07-08T14:55:02.900Z</time>
      </trkpt>
      <trkpt lat="36.63397994823754" lon="137.85490999929607">
        <ele>753.94</ele>
        <time>2025-07-08T14:55:06.505Z</time>
      </trkpt>
      <trkpt lat="36.63419997319579" lon="137.85479994490743">
        <ele>753.13</ele>
        <time>2025-07-08T14:55:10.114Z</time>
      </trkpt>
      <trkpt lat="36.63443994708359" lon="137.8547599632293">
        <ele>752.37</ele>
        <time>2025-07-08T14:55:13.727Z</time>
      </trkpt>
      <trkpt lat="36.63458998315036" lon="137.85471998155117">
        <ele>751.63</ele>
        <time>2025-07-08T14:55:17.342Z</time>
      </trkpt>
      <trkpt lat="36.6346899792552" lon="137.8546299599111">
        <ele>750.81</ele>
        <time>2025-07-08T14:55:20.959Z</time>
      </trkpt>
      <trkpt lat="36.6347399353981" lon="137.85454999655485">
        <ele>749.96</ele>
        <time>2025-07-08T14:55:24.577Z</time>
      </trkpt>
      <trkpt lat="36.634769942611456" lon="137.8544399421662">
        <ele>749.14</ele>
        <time>2025-07-08T14:55:28.197Z</time>
      </trkpt>
      <trkpt lat="36.634769942611456" lon="137.85404859110713">
        <ele>748.24</ele>
        <time>2025-07-08T14:55:31.822Z</time>
      </trkpt>
      <trkpt lat="36.634769942611456" lon="137.85403995774686">
        <ele>747.46</ele>
        <time>2025-07-08T14:55:35.447Z</time>
      </trkpt>
      <trkpt lat="36.634758124127984" lon="137.85364885814488">
        <ele>746.65</ele>
        <time>2025-07-08T14:55:39.077Z</time>
      </trkpt>
      <trkpt lat="36.63474622182548" lon="137.85325784236193">
        <ele>745.98</ele>
        <time>2025-07-08T14:55:42.712Z</time>
      </trkpt>
      <trkpt lat="36.63473440334201" lon="137.85286674275994">
        <ele>745.22</ele>
        <time>2025-07-08T14:55:46.352Z</time>
      </trkpt>
      <trkpt lat="36.63473021239042" lon="137.85273179411888">
        <ele>744.48</ele>
        <time>2025-07-08T14:55:49.994Z</time>
      </trkpt>
      <trkpt lat="36.63473021239042" lon="137.8527312912047">
        <ele>743.8</ele>
        <time>2025-07-08T14:55:53.636Z</time>
      </trkpt>
      <trkpt lat="36.63473021239042" lon="137.85272886045277">
        <ele>743.13</ele>
        <time>2025-07-08T14:55:57.278Z</time>
      </trkpt>
      <trkpt lat="36.63472996093333" lon="137.8527199756354">
        <ele>742.49</ele>
        <time>2025-07-08T14:56:00.920Z</time>
      </trkpt>
      <trkpt lat="36.634716130793095" lon="137.85232895985246">
        <ele>741.74</ele>
        <time>2025-07-08T14:56:04.567Z</time>
      </trkpt>
      <trkpt lat="36.63470238447189" lon="137.85193802788854">
        <ele>741.03</ele>
        <time>2025-07-08T14:56:08.219Z</time>
      </trkpt>
      <trkpt lat="36.634699953719974" lon="137.85186996683478">
        <ele>740.44</ele>
        <time>2025-07-08T14:56:11.872Z</time>
      </trkpt>
      <trkpt lat="36.63501486182213" lon="137.8518485929817">
        <ele>739.85</ele>
        <time>2025-07-08T14:56:15.530Z</time>
      </trkpt>
      <trkpt lat="36.63528995588422" lon="137.85182998515666">
        <ele>739.39</ele>
        <time>2025-07-08T14:56:19.192Z</time>
      </trkpt>
      <trkpt lat="36.63560511544347" lon="137.8518139757216">
        <ele>738.91</ele>
        <time>2025-07-08T14:56:22.859Z</time>
      </trkpt>
      <trkpt lat="36.63587995804846" lon="137.8517999779433">
        <ele>738.37</ele>
        <time>2025-07-08T14:56:26.531Z</time>
      </trkpt>
      <trkpt lat="36.636195285245776" lon="137.85179067403078">
        <ele>737.91</ele>
        <time>2025-07-08T14:56:30.208Z</time>
      </trkpt>
      <trkpt lat="36.63651061244309" lon="137.85178137011826">
        <ele>737.57</ele>
        <time>2025-07-08T14:56:33.890Z</time>
      </trkpt>
      <trkpt lat="36.63655998185277" lon="137.85177994519472">
        <ele>737.22</ele>
        <time>2025-07-08T14:56:37.573Z</time>
      </trkpt>
      <trkpt lat="36.63687380030751" lon="137.85181917250156">
        <ele>737.05</ele>
        <time>2025-07-08T14:56:41.261Z</time>
      </trkpt>
      <trkpt lat="36.636959966272116" lon="137.85182998515666">
        <ele>736.78</ele>
        <time>2025-07-08T14:56:44.950Z</time>
      </trkpt>
      <trkpt lat="36.63726984523237" lon="137.85190274007618">
        <ele>736.5</ele>
        <time>2025-07-08T14:56:48.644Z</time>
      </trkpt>
      <trkpt lat="36.63757972419262" lon="137.8519754949957">
        <ele>735.98</ele>
        <time>2025-07-08T14:56:52.343Z</time>
      </trkpt>
      <trkpt lat="36.6378896869719" lon="137.85204824991524">
        <ele>735.64</ele>
        <time>2025-07-08T14:56:56.047Z</time>
      </trkpt>
      <trkpt lat="36.63810996338725" lon="137.8520999662578">
        <ele>735.33</ele>
        <time>2025-07-08T14:56:59.755Z</time>
      </trkpt>
      <trkpt lat="36.63827986456454" lon="137.8521282132715">
        <ele>735.13</ele>
        <time>2025-07-08T14:57:03.466Z</time>
      </trkpt>
      <trkpt lat="36.6382802836597" lon="137.85212829709053">
        <ele>734.96</ele>
        <time>2025-07-08T14:57:07.177Z</time>
      </trkpt>
      <trkpt lat="36.638282127678394" lon="137.85212863236666">
        <ele>734.82</ele>
        <time>2025-07-08T14:57:10.888Z</time>
      </trkpt>
      <trkpt lat="36.638289922848344" lon="137.85212997347116">
        <ele>734.71</ele>
        <time>2025-07-08T14:57:14.599Z</time>
      </trkpt>
      <trkpt lat="36.63860499858856" lon="137.8521488327533">
        <ele>734.75</ele>
        <time>2025-07-08T14:57:18.315Z</time>
      </trkpt>
      <trkpt lat="36.63878998719156" lon="137.85215998068452">
        <ele>734.74</ele>
        <time>2025-07-08T14:57:22.034Z</time>
      </trkpt>
      <trkpt lat="36.63910531438887" lon="137.8521517664194">
        <ele>734.7</ele>
        <time>2025-07-08T14:57:25.758Z</time>
      </trkpt>
      <trkpt lat="36.639420641586185" lon="137.85214363597333">
        <ele>734.62</ele>
        <time>2025-07-08T14:57:29.487Z</time>
      </trkpt>
      <trkpt lat="36.6397359687835" lon="137.85213550552726">
        <ele>734.56</ele>
        <time>2025-07-08T14:57:33.221Z</time>
      </trkpt>
      <trkpt lat="36.63994995877147" lon="137.85212997347116">
        <ele>734.54</ele>
        <time>2025-07-08T14:57:36.958Z</time>
      </trkpt>
      <trkpt lat="36.64026469923556" lon="137.85215511918068">
        <ele>734.61</ele>
        <time>2025-07-08T14:57:40.700Z</time>
      </trkpt>
      <trkpt lat="36.64044993929565" lon="137.8521699551493">
        <ele>734.75</ele>
        <time>2025-07-08T14:57:44.445Z</time>
      </trkpt>
      <trkpt lat="36.64076174609363" lon="137.85222896374762">
        <ele>734.97</ele>
        <time>2025-07-08T14:57:48.195Z</time>
      </trkpt>
      <trkpt lat="36.64081991650164" lon="137.85223994404078">
        <ele>735.14</ele>
        <time>2025-07-08T14:57:51.946Z</time>
      </trkpt>
      <trkpt lat="36.641124933958054" lon="137.85233952105045">
        <ele>735.36</ele>
        <time>2025-07-08T14:57:55.702Z</time>
      </trkpt>
      <trkpt lat="36.64130992256105" lon="137.85239995457232">
        <ele>735.58</ele>
        <time>2025-07-08T14:57:59.461Z</time>
      </trkpt>
      <trkpt lat="36.641603372991085" lon="137.85254345275462">
        <ele>735.87</ele>
        <time>2025-07-08T14:58:03.225Z</time>
      </trkpt>
      <trkpt lat="36.64175994694233" lon="137.85261997953057">
        <ele>736.16</ele>
        <time>2025-07-08T14:58:06.992Z</time>
      </trkpt>
      <trkpt lat="36.642046608030796" lon="137.85278325900435">
        <ele>736.44</ele>
        <time>2025-07-08T14:58:10.764Z</time>
      </trkpt>
      <trkpt lat="36.64233326911926" lon="137.85294653847814">
        <ele>736.67</ele>
        <time>2025-07-08T14:58:14.541Z</time>
      </trkpt>
      <trkpt lat="36.64254994131625" lon="137.85306992009282">
        <ele>736.96</ele>
        <time>2025-07-08T14:58:18.322Z</time>
      </trkpt>
      <trkpt lat="36.64283140562475" lon="137.8532466944307">
        <ele>737.33</ele>
        <time>2025-07-08T14:58:22.108Z</time>
      </trkpt>
      <trkpt lat="36.64297993294895" lon="137.853339985013">
        <ele>737.68</ele>
        <time>2025-07-08T14:58:25.897Z</time>
      </trkpt>
      <trkpt lat="36.64297993294895" lon="137.85342992283404">
        <ele>738.06</ele>
        <time>2025-07-08T14:58:29.687Z</time>
      </trkpt>
      <trkpt lat="36.64302997291088" lon="137.85350997000933">
        <ele>738.44</ele>
        <time>2025-07-08T14:58:33.478Z</time>
      </trkpt>
      <trkpt lat="36.64326265454292" lon="137.8537741675973">
        <ele>738.82</ele>
        <time>2025-07-08T14:58:37.274Z</time>
      </trkpt>
      <trkpt lat="36.643495336174965" lon="137.8540384490043">
        <ele>739.21</ele>
        <time>2025-07-08T14:58:41.075Z</time>
      </trkpt>
      <trkpt lat="36.643619975075126" lon="137.85417993552983">
        <ele>739.59</ele>
        <time>2025-07-08T14:58:44.879Z</time>
      </trkpt>
      <trkpt lat="36.64386556483805" lon="137.85442552529275">
        <ele>740.02</ele>
        <time>2025-07-08T14:58:48.688Z</time>
      </trkpt>
      <trkpt lat="36.64395994506776" lon="137.8545199893415">
        <ele>740.39</ele>
        <time>2025-07-08T14:58:52.499Z</time>
      </trkpt>
      <trkpt lat="36.644089948385954" lon="137.85470992326736">
        <ele>740.75</ele>
        <time>2025-07-08T14:58:56.313Z</time>
      </trkpt>
      <trkpt lat="36.64422992616892" lon="137.85490999929607">
        <ele>741.09</ele>
        <time>2025-07-08T14:59:00.130Z</time>
      </trkpt>
      <trkpt lat="36.64441281929612" lon="137.85522884689271">
        <ele>741.39</ele>
        <time>2025-07-08T14:59:03.953Z</time>
      </trkpt>
      <trkpt lat="36.644595712423325" lon="137.85554769448936">
        <ele>741.71</ele>
        <time>2025-07-08T14:59:07.781Z</time>
      </trkpt>
      <trkpt lat="36.64461993612349" lon="137.85558993928134">
        <ele>742.05</ele>
        <time>2025-07-08T14:59:11.609Z</time>
      </trkpt>
      <trkpt lat="36.64469998329878" lon="137.85578993149102">
        <ele>742.41</ele>
        <time>2025-07-08T14:59:15.440Z</time>
      </trkpt>
      <trkpt lat="36.64470995776355" lon="137.85589998587966">
        <ele>742.77</ele>
        <time>2025-07-08T14:59:19.273Z</time>
      </trkpt>
      <trkpt lat="36.6446799505502" lon="137.8562399558723">
        <ele>743.16</ele>
        <time>2025-07-08T14:59:23.110Z</time>
      </trkpt>
      <trkpt lat="36.64465991780162" lon="137.85646995529532">
        <ele>743.54</ele>
        <time>2025-07-08T14:59:26.950Z</time>
      </trkpt>
      <trkpt lat="36.6446799505502" lon="137.8565599769354">
        <ele>743.92</ele>
        <time>2025-07-08T14:59:30.791Z</time>
      </trkpt>
      <trkpt lat="36.6446955408901" lon="137.85659903660417">
        <ele>744.31</ele>
        <time>2025-07-08T14:59:34.633Z</time>
      </trkpt>
      <trkpt lat="36.64469579234719" lon="137.85659953951836">
        <ele>744.7</ele>
        <time>2025-07-08T14:59:38.475Z</time>
      </trkpt>
      <trkpt lat="36.64469663053751" lon="137.85660163499415">
        <ele>745.11</ele>
        <time>2025-07-08T14:59:42.317Z</time>
      </trkpt>
      <trkpt lat="36.64469998329878" lon="137.8566099330783">
        <ele>745.55</ele>
        <time>2025-07-08T14:59:46.159Z</time>
      </trkpt>
      <trkpt lat="36.64478992111981" lon="137.85668998025358">
        <ele>746.04</ele>
        <time>2025-07-08T14:59:50.003Z</time>
      </trkpt>
      <trkpt lat="36.64506082423031" lon="137.8568903915584">
        <ele>746.47</ele>
        <time>2025-07-08T14:59:53.852Z</time>
      </trkpt>
      <trkpt lat="36.64528998546302" lon="137.85705995745957">
        <ele>746.92</ele>
        <time>2025-07-08T14:59:57.705Z</time>
      </trkpt>
      <trkpt lat="36.645419988781214" lon="137.85718996077776">
        <ele>747.46</ele>
        <time>2025-07-08T15:00:01.561Z</time>
      </trkpt>
      <trkpt lat="36.645489977672696" lon="137.8572899568826">
        <ele>748.05</ele>
        <time>2025-07-08T15:00:05.418Z</time>
      </trkpt>
      <trkpt lat="36.6455399338156" lon="137.8574199602008">
        <ele>748.64</ele>
        <time>2025-07-08T15:00:09.277Z</time>
      </trkpt>
      <trkpt lat="36.64555996656418" lon="137.85770997405052">
        <ele>749.24</ele>
        <time>2025-07-08T15:00:13.140Z</time>
      </trkpt>
      <trkpt lat="36.645549992099404" lon="137.8578299190849">
        <ele>749.92</ele>
        <time>2025-07-08T15:00:17.004Z</time>
      </trkpt>
      <trkpt lat="36.645454186946154" lon="137.85820291377604">
        <ele>750.81</ele>
        <time>2025-07-08T15:00:20.873Z</time>
      </trkpt>
      <trkpt lat="36.645359974354506" lon="137.85856995731592">
        <ele>751.76</ele>
        <time>2025-07-08T15:00:24.747Z</time>
      </trkpt>
      <trkpt lat="36.64526433683932" lon="137.85894295200706">
        <ele>752.66</ele>
        <time>2025-07-08T15:00:28.626Z</time>
      </trkpt>
      <trkpt lat="36.64525997824967" lon="137.8589599672705">
        <ele>753.5</ele>
        <time>2025-07-08T15:00:32.506Z</time>
      </trkpt>
      <trkpt lat="36.64523994550109" lon="137.85916993394494">
        <ele>754.4</ele>
        <time>2025-07-08T15:00:36.388Z</time>
      </trkpt>
      <trkpt lat="36.645019920542836" lon="137.85924998112023">
        <ele>755.29</ele>
        <time>2025-07-08T15:00:40.274Z</time>
      </trkpt>
      <trkpt lat="36.644799979403615" lon="137.85929993726313">
        <ele>756.16</ele>
        <time>2025-07-08T15:00:44.164Z</time>
      </trkpt>
      <trkpt lat="36.64472999051213" lon="137.85945994779468">
        <ele>757.12</ele>
        <time>2025-07-08T15:00:48.056Z</time>
      </trkpt>
      <trkpt lat="36.644664192572236" lon="137.8596191201359">
        <ele>758.08</ele>
        <time>2025-07-08T15:00:51.950Z</time>
      </trkpt>
      <trkpt lat="36.64466402493417" lon="137.8596196230501">
        <ele>758.97</ele>
        <time>2025-07-08T15:00:55.844Z</time>
      </trkpt>
      <trkpt lat="36.644663186743855" lon="137.85962180234492">
        <ele>759.85</ele>
        <time>2025-07-08T15:00:59.738Z</time>
      </trkpt>
      <trkpt lat="36.64465991780162" lon="137.859629932791">
        <ele>760.71</ele>
        <time>2025-07-08T15:01:03.632Z</time>
      </trkpt>
      <trkpt lat="36.644629994407296" lon="137.85969992168248">
        <ele>761.57</ele>
        <time>2025-07-08T15:01:07.527Z</time>
      </trkpt>
      <trkpt lat="36.64456997998059" lon="137.85978994332254">
        <ele>762.41</ele>
        <time>2025-07-08T15:01:11.424Z</time>
      </trkpt>
      <trkpt lat="36.64448934607208" lon="137.85982556641102">
        <ele>763.18</ele>
        <time>2025-07-08T15:01:15.322Z</time>
      </trkpt>
      <trkpt lat="36.64448892697692" lon="137.8598258178681">
        <ele>763.86</ele>
        <time>2025-07-08T15:01:19.220Z</time>
      </trkpt>
      <trkpt lat="36.64448716677725" lon="137.85982665605843">
        <ele>764.48</ele>
        <time>2025-07-08T15:01:23.118Z</time>
      </trkpt>
      <trkpt lat="36.644479958340526" lon="137.85982992500067">
        <ele>765.02</ele>
        <time>2025-07-08T15:01:27.017Z</time>
      </trkpt>
      <trkpt lat="36.644368562847376" lon="137.86019613035023">
        <ele>766.05</ele>
        <time>2025-07-08T15:01:30.921Z</time>
      </trkpt>
      <trkpt lat="36.64425725117326" lon="137.8605623356998">
        <ele>767.12</ele>
        <time>2025-07-08T15:01:34.830Z</time>
      </trkpt>
      <trkpt lat="36.644210731610656" lon="137.86071497015655">
        <ele>767.59</ele>
        <time>2025-07-08T15:01:38.741Z</time>
      </trkpt>
      <trkpt lat="36.644210647791624" lon="137.86071547307074">
        <ele>767.69</ele>
        <time>2025-07-08T15:01:42.652Z</time>
      </trkpt>
      <trkpt lat="36.64420997723937" lon="137.8607177361846">
        <ele>767.65</ele>
        <time>2025-07-08T15:01:46.563Z</time>
      </trkpt>
      <trkpt lat="36.64420737884939" lon="137.86072636954486">
        <ele>767.51</ele>
        <time>2025-07-08T15:01:50.474Z</time>
      </trkpt>
      <trkpt lat="36.64434450678527" lon="137.8603739105165">
        <ele>766.57</ele>
        <time>2025-07-08T15:01:54.390Z</time>
      </trkpt>
      <trkpt lat="36.64448163472116" lon="137.86002145148814">
        <ele>765.49</ele>
        <time>2025-07-08T15:01:58.311Z</time>
      </trkpt>
      <trkpt lat="36.64454726502299" lon="137.8598522208631">
        <ele>764.78</ele>
        <time>2025-07-08T15:02:02.234Z</time>
      </trkpt>
      <trkpt lat="36.64454751648009" lon="137.85985180176795">
        <ele>764.21</ele>
        <time>2025-07-08T15:02:06.157Z</time>
      </trkpt>
      <trkpt lat="36.64454843848944" lon="137.85984962247312">
        <ele>763.56</ele>
        <time>2025-07-08T15:02:10.080Z</time>
      </trkpt>
      <trkpt lat="36.644551707431674" lon="137.85984132438898">
        <ele>762.85</ele>
        <time>2025-07-08T15:02:14.004Z</time>
      </trkpt>
      <trkpt lat="36.644539972767234" lon="137.85980997607112">
        <ele>762.06</ele>
        <time>2025-07-08T15:02:17.928Z</time>
      </trkpt>
      <trkpt lat="36.644629994407296" lon="137.85969992168248">
        <ele>761.57</ele>
        <time>2025-07-08T15:02:21.854Z</time>
      </trkpt>
      <trkpt lat="36.644765781238675" lon="137.85934670828283">
        <ele>760.19</ele>
        <time>2025-07-08T15:02:25.785Z</time>
      </trkpt>
      <trkpt lat="36.644779946655035" lon="137.85930999554694">
        <ele>759.31</ele>
        <time>2025-07-08T15:02:29.717Z</time>
      </trkpt>
      <trkpt lat="36.6448699682951" lon="137.85927998833358">
        <ele>758.44</ele>
        <time>2025-07-08T15:02:33.650Z</time>
      </trkpt>
      <trkpt lat="36.64517582394183" lon="137.8591843508184">
        <ele>757.56</ele>
        <time>2025-07-08T15:02:37.588Z</time>
      </trkpt>
      <trkpt lat="36.64518998935819" lon="137.85917999222875">
        <ele>756.66</ele>
        <time>2025-07-08T15:02:41.526Z</time>
      </trkpt>
      <trkpt lat="36.6452999599278" lon="137.85917999222875">
        <ele>755.76</ele>
        <time>2025-07-08T15:02:45.466Z</time>
      </trkpt>
      <trkpt lat="36.645419988781214" lon="137.85921997390687">
        <ele>754.86</ele>
        <time>2025-07-08T15:02:49.408Z</time>
      </trkpt>
      <trkpt lat="36.64572341367602" lon="137.85932659171522">
        <ele>753.97</ele>
        <time>2025-07-08T15:02:53.355Z</time>
      </trkpt>
      <trkpt lat="36.645789965987206" lon="137.85934997722507">
        <ele>753.1</ele>
        <time>2025-07-08T15:02:57.303Z</time>
      </trkpt>
      <trkpt lat="36.645899936556816" lon="137.85942994058132">
        <ele>752.28</ele>
        <time>2025-07-08T15:03:01.253Z</time>
      </trkpt>
      <trkpt lat="36.64601996541023" lon="137.8595699183643">
        <ele>751.49</ele>
        <time>2025-07-08T15:03:05.206Z</time>
      </trkpt>
      <trkpt lat="36.6462064627558" lon="137.85925433970988">
        <ele>750.52</ele>
        <time>2025-07-08T15:03:09.164Z</time>
      </trkpt>
      <trkpt lat="36.64627402089536" lon="137.85913984291255">
        <ele>749.73</ele>
        <time>2025-07-08T15:03:13.124Z</time>
      </trkpt>
      <trkpt lat="36.64627427235246" lon="137.85913950763643">
        <ele>749.0</ele>
        <time>2025-07-08T15:03:17.084Z</time>
      </trkpt>
      <trkpt lat="36.6462754458189" lon="137.8591375797987">
        <ele>748.31</ele>
        <time>2025-07-08T15:03:21.044Z</time>
      </trkpt>
      <trkpt lat="36.646279972046614" lon="137.8591299522668">
        <ele>747.66</ele>
        <time>2025-07-08T15:03:25.004Z</time>
      </trkpt>
      <trkpt lat="36.64645993150771" lon="137.8588299639523">
        <ele>746.94</ele>
        <time>2025-07-08T15:03:28.969Z</time>
      </trkpt>
      <trkpt lat="36.646539978682995" lon="137.85859996452928">
        <ele>746.38</ele>
        <time>2025-07-08T15:03:32.937Z</time>
      </trkpt>
      <trkpt lat="36.64654995314777" lon="137.85853995010257">
        <ele>745.85</ele>
        <time>2025-07-08T15:03:36.906Z</time>
      </trkpt>
      <trkpt lat="36.646539056673646" lon="137.85814876668155">
        <ele>745.44</ele>
        <time>2025-07-08T15:03:40.880Z</time>
      </trkpt>
      <trkpt lat="36.64652992039919" lon="137.85781994462013">
        <ele>744.98</ele>
        <time>2025-07-08T15:03:44.858Z</time>
      </trkpt>
      <trkpt lat="36.64652992039919" lon="137.8576599340886">
        <ele>744.56</ele>
        <time>2025-07-08T15:03:48.838Z</time>
      </trkpt>
      <trkpt lat="36.64684466086328" lon="137.85763369873166">
        <ele>744.1</ele>
        <time>2025-07-08T15:03:52.823Z</time>
      </trkpt>
      <trkpt lat="36.64688992314041" lon="137.85762992687523">
        <ele>743.71</ele>
        <time>2025-07-08T15:03:56.809Z</time>
      </trkpt>
      <trkpt lat="36.647204998880625" lon="137.85761249251664">
        <ele>743.33</ele>
        <time>2025-07-08T15:04:00.800Z</time>
      </trkpt>
      <trkpt lat="36.647520158439875" lon="137.857594974339">
        <ele>742.91</ele>
        <time>2025-07-08T15:04:04.796Z</time>
      </trkpt>
      <trkpt lat="36.64778997190297" lon="137.85757997073233">
        <ele>742.51</ele>
        <time>2025-07-08T15:04:08.796Z</time>
      </trkpt>
      <trkpt lat="36.64810488000512" lon="137.85755868069828">
        <ele>742.22</ele>
        <time>2025-07-08T15:04:12.801Z</time>
      </trkpt>
      <trkpt lat="36.648419788107276" lon="137.85753739066422">
        <ele>741.87</ele>
        <time>2025-07-08T15:04:16.811Z</time>
      </trkpt>
      <trkpt lat="36.64852992631495" lon="137.8575299307704">
        <ele>741.63</ele>
        <time>2025-07-08T15:04:20.823Z</time>
      </trkpt>
      <trkpt lat="36.64884516969323" lon="137.85751710645854">
        <ele>741.46</ele>
        <time>2025-07-08T15:04:24.840Z</time>
      </trkpt>
      <trkpt lat="36.64900979027152" lon="137.85751023329794">
        <ele>741.31</ele>
        <time>2025-07-08T15:04:28.860Z</time>
      </trkpt>
      <trkpt lat="36.64901180192828" lon="137.85751023329794">
        <ele>741.07</ele>
        <time>2025-07-08T15:04:32.880Z</time>
      </trkpt>
      <trkpt lat="36.64901993237436" lon="137.85750998184085">
        <ele>740.97</ele>
        <time>2025-07-08T15:04:36.900Z</time>
      </trkpt>
      <trkpt lat="36.6493353433907" lon="137.85750294104218">
        <ele>740.94</ele>
        <time>2025-07-08T15:04:40.925Z</time>
      </trkpt>
      <trkpt lat="36.64946995675564" lon="137.85749992355704">
        <ele>740.91</ele>
        <time>2025-07-08T15:04:44.952Z</time>
      </trkpt>
      <trkpt lat="36.64957992732525" lon="137.8575299307704">
        <ele>740.86</ele>
        <time>2025-07-08T15:04:48.981Z</time>
      </trkpt>
      <trkpt lat="36.64970993064344" lon="137.85757997073233">
        <ele>740.82</ele>
        <time>2025-07-08T15:04:53.012Z</time>
      </trkpt>
      <trkpt lat="36.649889973923564" lon="137.85768994130194">
        <ele>740.76</ele>
        <time>2025-07-08T15:04:57.046Z</time>
      </trkpt>
      <trkpt lat="36.65006993338466" lon="137.85748994909227">
        <ele>740.77</ele>
        <time>2025-07-08T15:05:01.084Z</time>
      </trkpt>
      <trkpt lat="36.65036086924374" lon="137.85733865574002">
        <ele>740.72</ele>
        <time>2025-07-08T15:05:05.127Z</time>
      </trkpt>
      <trkpt lat="36.65056999772787" lon="137.8572299424559">
        <ele>740.62</ele>
        <time>2025-07-08T15:05:09.174Z</time>
      </trkpt>
      <trkpt lat="36.650709975510836" lon="137.8572199679911">
        <ele>740.49</ele>
        <time>2025-07-08T15:05:13.223Z</time>
      </trkpt>
      <trkpt lat="36.65102421306074" lon="137.85725341178477">
        <ele>740.28</ele>
        <time>2025-07-08T15:05:17.277Z</time>
      </trkpt>
      <trkpt lat="36.6511694714427" lon="137.85726866684854">
        <ele>740.1</ele>
        <time>2025-07-08T15:05:21.333Z</time>
      </trkpt>
      <trkpt lat="36.65116989053786" lon="137.85726875066757">
        <ele>739.97</ele>
        <time>2025-07-08T15:05:25.389Z</time>
      </trkpt>
      <trkpt lat="36.65117181837559" lon="137.85726900212467">
        <ele>739.82</ele>
        <time>2025-07-08T15:05:29.445Z</time>
      </trkpt>
      <trkpt lat="36.651179948821664" lon="137.85726992413402">
        <ele>739.65</ele>
        <time>2025-07-08T15:05:33.502Z</time>
      </trkpt>
      <trkpt lat="36.651199981570244" lon="137.85725994966924">
        <ele>739.47</ele>
        <time>2025-07-08T15:05:37.559Z</time>
      </trkpt>
      <trkpt lat="36.651310035958886" lon="137.85689315758646">
        <ele>739.22</ele>
        <time>2025-07-08T15:05:41.621Z</time>
      </trkpt>
      <trkpt lat="36.65131992660463" lon="137.8568599652499">
        <ele>739.02</ele>
        <time>2025-07-08T15:05:45.683Z</time>
      </trkpt>
      <trkpt lat="36.651465352624655" lon="137.85651261918247">
        <ele>738.81</ele>
        <time>2025-07-08T15:05:49.750Z</time>
      </trkpt>
      <trkpt lat="36.65149996988475" lon="137.8564299736172">
        <ele>738.6</ele>
        <time>2025-07-08T15:05:53.819Z</time>
      </trkpt>
      <trkpt lat="36.65166995488107" lon="137.85613995976746">
        <ele>738.36</ele>
        <time>2025-07-08T15:05:57.892Z</time>
      </trkpt>
      <trkpt lat="36.65180314332247" lon="137.85594935528934">
        <ele>738.09</ele>
        <time>2025-07-08T15:06:01.969Z</time>
      </trkpt>
      <trkpt lat="36.651803478598595" lon="137.8559490200132">
        <ele>737.85</ele>
        <time>2025-07-08T15:06:06.046Z</time>
      </trkpt>
      <trkpt lat="36.6518048197031" lon="137.85594717599452">
        <ele>737.59</ele>
        <time>2025-07-08T15:06:10.123Z</time>
      </trkpt>
      <trkpt lat="36.65180993266404" lon="137.8559399675578">
        <ele>737.33</ele>
        <time>2025-07-08T15:06:14.200Z</time>
      </trkpt>
      <trkpt lat="36.6518499981612" lon="137.85587995313108">
        <ele>737.04</ele>
        <time>2025-07-08T15:06:18.278Z</time>
      </trkpt>
      <trkpt lat="36.651889979839325" lon="137.8559399675578">
        <ele>736.78</ele>
        <time>2025-07-08T15:06:22.357Z</time>
      </trkpt>
      <trkpt lat="36.65196994319558" lon="137.85602998919785">
        <ele>736.49</ele>
        <time>2025-07-08T15:06:26.437Z</time>
      </trkpt>
      <trkpt lat="36.6522850189358" lon="137.8560116328299">
        <ele>736.12</ele>
        <time>2025-07-08T15:06:30.522Z</time>
      </trkpt>
      <trkpt lat="36.65260009467602" lon="137.855993360281">
        <ele>735.81</ele>
        <time>2025-07-08T15:06:34.612Z</time>
      </trkpt>
      <trkpt lat="36.65282992646098" lon="137.85597994923592">
        <ele>735.56</ele>
        <time>2025-07-08T15:06:38.706Z</time>
      </trkpt>
      <trkpt lat="36.65290938690305" lon="137.85597986541688">
        <ele>735.34</ele>
        <time>2025-07-08T15:06:42.801Z</time>
      </trkpt>
      <trkpt lat="36.652909805998206" lon="137.85597986541688">
        <ele>735.11</ele>
        <time>2025-07-08T15:06:46.896Z</time>
      </trkpt>
      <trkpt lat="36.65291181765497" lon="137.85597986541688">
        <ele>734.88</ele>
        <time>2025-07-08T15:06:50.991Z</time>
      </trkpt>
      <trkpt lat="36.652919948101044" lon="137.85597994923592">
        <ele>734.67</ele>
        <time>2025-07-08T15:06:55.087Z</time>
      </trkpt>
      <trkpt lat="36.653235191479325" lon="137.85596611909568">
        <ele>734.52</ele>
        <time>2025-07-08T15:06:59.188Z</time>
      </trkpt>
      <trkpt lat="36.653550351038575" lon="137.85595228895545">
        <ele>734.25</ele>
        <time>2025-07-08T15:07:03.294Z</time>
      </trkpt>
      <trkpt lat="36.65382997132838" lon="137.8559399675578">
        <ele>734.0</ele>
        <time>2025-07-08T15:07:07.404Z</time>
      </trkpt>
      <trkpt lat="36.65382997132838" lon="137.855929993093">
        <ele>733.83</ele>
        <time>2025-07-08T15:07:11.514Z</time>
      </trkpt>
      <trkpt lat="36.653929967433214" lon="137.8559199348092">
        <ele>733.65</ele>
        <time>2025-07-08T15:07:15.626Z</time>
      </trkpt>
      <trkpt lat="36.654245210811496" lon="137.85590979270637">
        <ele>733.54</ele>
        <time>2025-07-08T15:07:19.743Z</time>
      </trkpt>
      <trkpt lat="36.65454997681081" lon="137.85589998587966">
        <ele>733.37</ele>
        <time>2025-07-08T15:07:23.865Z</time>
      </trkpt>
      <trkpt lat="36.65457948110998" lon="137.85589990206063">
        <ele>733.25</ele>
        <time>2025-07-08T15:07:27.987Z</time>
      </trkpt>
      <trkpt lat="36.654579900205135" lon="137.85589990206063">
        <ele>733.14</ele>
        <time>2025-07-08T15:07:32.109Z</time>
      </trkpt>
      <trkpt lat="36.6545819118619" lon="137.85589990206063">
        <ele>733.04</ele>
        <time>2025-07-08T15:07:36.231Z</time>
      </trkpt>
      <trkpt lat="36.65458995848894" lon="137.85589998587966">
        <ele>732.94</ele>
        <time>2025-07-08T15:07:40.353Z</time>
      </trkpt>
      <trkpt lat="36.65490511804819" lon="137.85588380880654">
        <ele>732.89</ele>
        <time>2025-07-08T15:07:44.480Z</time>
      </trkpt>
      <trkpt lat="36.65522019378841" lon="137.85586771555245">
        <ele>732.86</ele>
        <time>2025-07-08T15:07:48.613Z</time>
      </trkpt>
      <trkpt lat="36.65553535334766" lon="137.85585162229836">
        <ele>732.82</ele>
        <time>2025-07-08T15:07:52.751Z</time>
      </trkpt>
      <trkpt lat="36.65585051290691" lon="137.85583552904427">
        <ele>732.76</ele>
        <time>2025-07-08T15:07:56.894Z</time>
      </trkpt>
      <trkpt lat="36.65616558864713" lon="137.85581935197115">
        <ele>732.57</ele>
        <time>2025-07-08T15:08:01.042Z</time>
      </trkpt>
      <trkpt lat="36.65648074820638" lon="137.85580325871706">
        <ele>732.36</ele>
        <time>2025-07-08T15:08:05.195Z</time>
      </trkpt>
      <trkpt lat="36.65679590776563" lon="137.85578716546297">
        <ele>732.29</ele>
        <time>2025-07-08T15:08:09.353Z</time>
      </trkpt>
      <trkpt lat="36.657110983505845" lon="137.85577107220888">
        <ele>732.28</ele>
        <time>2025-07-08T15:08:13.516Z</time>
      </trkpt>
      <trkpt lat="36.657426143065095" lon="137.85575489513576">
        <ele>732.2</ele>
        <time>2025-07-08T15:08:17.684Z</time>
      </trkpt>
      <trkpt lat="36.65774121880531" lon="137.85573880188167">
        <ele>732.1</ele>
        <time>2025-07-08T15:08:21.857Z</time>
      </trkpt>
      <trkpt lat="36.65805637836456" lon="137.85572270862758">
        <ele>731.98</ele>
        <time>2025-07-08T15:08:26.035Z</time>
      </trkpt>
      <trkpt lat="36.65810993872583" lon="137.85571994259953">
        <ele>731.84</ele>
        <time>2025-07-08T15:08:30.214Z</time>
      </trkpt>
      <trkpt lat="36.65842518210411" lon="137.8557074535638">
        <ele>731.64</ele>
        <time>2025-07-08T15:08:34.398Z</time>
      </trkpt>
      <trkpt lat="36.65874042548239" lon="137.85569488070905">
        <ele>731.45</ele>
        <time>2025-07-08T15:08:38.587Z</time>
      </trkpt>
      <trkpt lat="36.659055668860674" lon="137.85568239167333">
        <ele>731.34</ele>
        <time>2025-07-08T15:08:42.781Z</time>
      </trkpt>
      <trkpt lat="36.659370912238955" lon="137.85566981881857">
        <ele>731.15</ele>
        <time>2025-07-08T15:08:46.980Z</time>
      </trkpt>
      <trkpt lat="36.65961993858218" lon="137.85565992817283">
        <ele>730.94</ele>
        <time>2025-07-08T15:08:51.183Z</time>
      </trkpt>
      <trkpt lat="36.65961239486933" lon="137.85526857711375">
        <ele>730.82</ele>
        <time>2025-07-08T15:08:55.391Z</time>
      </trkpt>
      <trkpt lat="36.659604934975505" lon="137.85487722605467">
        <ele>730.59</ele>
        <time>2025-07-08T15:08:59.604Z</time>
      </trkpt>
      <trkpt lat="36.6596001572907" lon="137.854632306844">
        <ele>730.27</ele>
        <time>2025-07-08T15:09:03.820Z</time>
      </trkpt>
      <trkpt lat="36.6596001572907" lon="137.8546318039298">
        <ele>730.09</ele>
        <time>2025-07-08T15:09:08.036Z</time>
      </trkpt>
      <trkpt lat="36.6596001572907" lon="137.85462920553982">
        <ele>729.92</ele>
        <time>2025-07-08T15:09:12.252Z</time>
      </trkpt>
      <trkpt lat="36.659599989652634" lon="137.85461998544633">
        <ele>729.74</ele>
        <time>2025-07-08T15:09:16.468Z</time>
      </trkpt>
      <trkpt lat="36.65958993136883" lon="137.85457991994917">
        <ele>729.56</ele>
        <time>2025-07-08T15:09:20.685Z</time>
      </trkpt>
      <trkpt lat="36.659904923290014" lon="137.8545598872006">
        <ele>729.42</ele>
        <time>2025-07-08T15:09:24.907Z</time>
      </trkpt>
      <trkpt lat="36.66005998849869" lon="137.85454999655485">
        <ele>729.26</ele>
        <time>2025-07-08T15:09:29.131Z</time>
      </trkpt>
      <trkpt lat="36.66025998070836" lon="137.85453993827105">
        <ele>729.04</ele>
        <time>2025-07-08T15:09:33.359Z</time>
      </trkpt>
      <trkpt lat="36.660575307905674" lon="137.85453122109175">
        <ele>728.88</ele>
        <time>2025-07-08T15:09:37.592Z</time>
      </trkpt>
      <trkpt lat="36.66061998344958" lon="137.85452996380627">
        <ele>728.76</ele>
        <time>2025-07-08T15:09:41.825Z</time>
      </trkpt>
      <trkpt lat="36.66079994291067" lon="137.8545199893415">
        <ele>728.73</ele>
        <time>2025-07-08T15:09:46.061Z</time>
      </trkpt>
      <trkpt lat="36.66096992790699" lon="137.85448998212814">
        <ele>728.66</ele>
        <time>2025-07-08T15:09:50.300Z</time>
      </trkpt>
      <trkpt lat="36.66107998229563" lon="137.85444991663098">
        <ele>728.57</ele>
        <time>2025-07-08T15:09:54.541Z</time>
      </trkpt>
      <trkpt lat="36.66113999672234" lon="137.8543299715966">
        <ele>728.41</ele>
        <time>2025-07-08T15:09:58.784Z</time>
      </trkpt>
      <trkpt lat="36.66116992011666" lon="137.85421991720796">
        <ele>728.28</ele>
        <time>2025-07-08T15:10:03.028Z</time>
      </trkpt>
      <trkpt lat="36.6612199600786" lon="137.85415998660028">
        <ele>728.16</ele>
        <time>2025-07-08T15:10:07.273Z</time>
      </trkpt>
      <trkpt lat="36.66143998503685" lon="137.8540099505335">
        <ele>728.08</ele>
        <time>2025-07-08T15:10:11.522Z</time>
      </trkpt>
      <trkpt lat="36.661469992250204" lon="137.85393996164203">
        <ele>727.97</ele>
        <time>2025-07-08T15:10:15.772Z</time>
      </trkpt>
      <trkpt lat="36.66147996671498" lon="137.85369998775423">
        <ele>727.91</ele>
        <time>2025-07-08T15:10:20.025Z</time>
      </trkpt>
      <trkpt lat="36.661465633660555" lon="137.85330888815224">
        <ele>727.7</ele>
        <time>2025-07-08T15:10:24.283Z</time>
      </trkpt>
      <trkpt lat="36.66145130060613" lon="137.85291778855026">
        <ele>727.42</ele>
        <time>2025-07-08T15:10:28.546Z</time>
      </trkpt>
      <trkpt lat="36.661449959501624" lon="137.85287998616695">
        <ele>727.26</ele>
        <time>2025-07-08T15:10:32.810Z</time>
      </trkpt>
      <trkpt lat="36.66147996671498" lon="137.85281997174025">
        <ele>727.09</ele>
        <time>2025-07-08T15:10:37.075Z</time>
      </trkpt>
      <trkpt lat="36.661579962819815" lon="137.85279993899167">
        <ele>726.92</ele>
        <time>2025-07-08T15:10:41.341Z</time>
      </trkpt>
      <trkpt lat="36.661895206198096" lon="137.8527873661369">
        <ele>726.78</ele>
        <time>2025-07-08T15:10:45.612Z</time>
      </trkpt>
      <trkpt lat="36.66221044957638" lon="137.85277470946312">
        <ele>726.76</ele>
        <time>2025-07-08T15:10:49.888Z</time>
      </trkpt>
      <trkpt lat="36.66252569295466" lon="137.85276213660836">
        <ele>726.69</ele>
        <time>2025-07-08T15:10:54.170Z</time>
      </trkpt>
      <trkpt lat="36.662829956039786" lon="137.85274998284876">
        <ele>726.51</ele>
        <time>2025-07-08T15:10:58.456Z</time>
      </trkpt>
      <trkpt lat="36.66290991939604" lon="137.8527199756354">
        <ele>726.34</ele>
        <time>2025-07-08T15:11:02.744Z</time>
      </trkpt>
      <trkpt lat="36.66292995214462" lon="137.85269994288683">
        <ele>726.2</ele>
        <time>2025-07-08T15:11:07.032Z</time>
      </trkpt>
      <trkpt lat="36.6629399266094" lon="137.85243993625045">
        <ele>725.94</ele>
        <time>2025-07-08T15:11:11.323Z</time>
      </trkpt>
      <trkpt lat="36.66298099793494" lon="137.85240691155195">
        <ele>725.8</ele>
        <time>2025-07-08T15:11:15.615Z</time>
      </trkpt>
      <trkpt lat="36.662981333211064" lon="137.8524067439139">
        <ele>725.7</ele>
        <time>2025-07-08T15:11:19.907Z</time>
      </trkpt>
      <trkpt lat="36.66298309341073" lon="137.85240540280938">
        <ele>725.6</ele>
        <time>2025-07-08T15:11:24.199Z</time>
      </trkpt>
      <trkpt lat="36.66298996657133" lon="137.85239995457232">
        <ele>725.51</ele>
        <time>2025-07-08T15:11:28.491Z</time>
      </trkpt>
      <trkpt lat="36.66305995546281" lon="137.85238998010755">
        <ele>725.41</ele>
        <time>2025-07-08T15:11:32.785Z</time>
      </trkpt>
      <trkpt lat="36.66337528266013" lon="137.85238117910922">
        <ele>725.39</ele>
        <time>2025-07-08T15:11:37.084Z</time>
      </trkpt>
      <trkpt lat="36.66341995820403" lon="137.85237992182374">
        <ele>725.36</ele>
        <time>2025-07-08T15:11:41.383Z</time>
      </trkpt>
      <trkpt lat="36.663469998165965" lon="137.8524699434638">
        <ele>725.38</ele>
        <time>2025-07-08T15:11:45.684Z</time>
      </trkpt>
      <trkpt lat="36.663563875481486" lon="137.85263917408884">
        <ele>725.49</ele>
        <time>2025-07-08T15:11:49.987Z</time>
      </trkpt>
      <trkpt lat="36.66356412693858" lon="137.852639593184">
        <ele>725.41</ele>
        <time>2025-07-08T15:11:54.290Z</time>
      </trkpt>
      <trkpt lat="36.66356538422406" lon="137.85264177247882">
        <ele>725.32</ele>
        <time>2025-07-08T15:11:58.593Z</time>
      </trkpt>
      <trkpt lat="36.6635699942708" lon="137.85264998674393">
        <ele>725.23</ele>
        <time>2025-07-08T15:12:02.897Z</time>
      </trkpt>
      <trkpt lat="36.663469998165965" lon="137.8524699434638">
        <ele>725.38</ele>
        <time>2025-07-08T15:12:07.203Z</time>
      </trkpt>
      <trkpt lat="36.66341995820403" lon="137.85237992182374">
        <ele>725.36</ele>
        <time>2025-07-08T15:12:11.511Z</time>
      </trkpt>
      <trkpt lat="36.66338995099068" lon="137.8521499224007">
        <ele>724.53</ele>
        <time>2025-07-08T15:12:15.822Z</time>
      </trkpt>
      <trkpt lat="36.6633699182421" lon="137.8519799374044">
        <ele>724.42</ele>
        <time>2025-07-08T15:12:20.135Z</time>
      </trkpt>
      <trkpt lat="36.66334996931255" lon="137.85187994129956">
        <ele>724.34</ele>
        <time>2025-07-08T15:12:24.449Z</time>
      </trkpt>
      <trkpt lat="36.66334996931255" lon="137.851873151958">
        <ele>724.25</ele>
        <time>2025-07-08T15:12:28.763Z</time>
      </trkpt>
      <trkpt lat="36.66334996931255" lon="137.8518726490438">
        <ele>724.16</ele>
        <time>2025-07-08T15:12:33.077Z</time>
      </trkpt>
      <trkpt lat="36.66334996931255" lon="137.85187005065382">
        <ele>724.07</ele>
        <time>2025-07-08T15:12:37.391Z</time>
      </trkpt>
      <trkpt lat="36.66334996931255" lon="137.85185999237">
        <ele>723.99</ele>
        <time>2025-07-08T15:12:41.706Z</time>
      </trkpt>
      <trkpt lat="36.66329238563776" lon="137.8516028355807">
        <ele>724.02</ele>
        <time>2025-07-08T15:12:46.024Z</time>
      </trkpt>
      <trkpt lat="36.66329230181873" lon="137.85160233266652">
        <ele>723.94</ele>
        <time>2025-07-08T15:12:50.342Z</time>
      </trkpt>
      <trkpt lat="36.66329179890454" lon="137.85159981809556">
        <ele>723.88</ele>
        <time>2025-07-08T15:12:54.660Z</time>
      </trkpt>
      <trkpt lat="36.663289703428745" lon="137.851590430364">
        <ele>723.81</ele>
        <time>2025-07-08T15:12:58.978Z</time>
      </trkpt>
      <trkpt lat="36.66359916329384" lon="137.85151440650225">
        <ele>723.74</ele>
        <time>2025-07-08T15:13:03.301Z</time>
      </trkpt>
      <trkpt lat="36.6639085393399" lon="137.85143829882145">
        <ele>723.72</ele>
        <time>2025-07-08T15:13:07.629Z</time>
      </trkpt>
      <trkpt lat="36.66421690955758" lon="137.85136235877872">
        <ele>723.57</ele>
        <time>2025-07-08T15:13:11.962Z</time>
      </trkpt>
      <trkpt lat="36.664217161014676" lon="137.85136227495968">
        <ele>723.52</ele>
        <time>2025-07-08T15:13:16.295Z</time>
      </trkpt>
      <trkpt lat="36.66421791538596" lon="137.85136219114065">
        <ele>723.47</ele>
        <time>2025-07-08T15:13:20.628Z</time>
      </trkpt>
      <trkpt lat="36.66421967558563" lon="137.85136168822646">
        <ele>723.43</ele>
        <time>2025-07-08T15:13:24.961Z</time>
      </trkpt>
      <trkpt lat="36.664227806031704" lon="137.85135976038873">
        <ele>723.4</ele>
        <time>2025-07-08T15:13:29.294Z</time>
      </trkpt>
      <trkpt lat="36.664540115743876" lon="137.85130536183715">
        <ele>723.34</ele>
        <time>2025-07-08T15:13:33.632Z</time>
      </trkpt>
      <trkpt lat="36.66461697779596" lon="137.851291783154">
        <ele>723.29</ele>
        <time>2025-07-08T15:13:37.972Z</time>
      </trkpt>
      <trkpt lat="36.66461739689112" lon="137.851291783154">
        <ele>723.28</ele>
        <time>2025-07-08T15:13:42.312Z</time>
      </trkpt>
      <trkpt lat="36.66461957618594" lon="137.85129144787788">
        <ele>723.28</ele>
        <time>2025-07-08T15:13:46.652Z</time>
      </trkpt>
      <trkpt lat="36.66462795808911" lon="137.85129002295434">
        <ele>723.29</ele>
        <time>2025-07-08T15:13:50.992Z</time>
      </trkpt>
      <trkpt lat="36.6649429500103" lon="137.8513099718839">
        <ele>723.21</ele>
        <time>2025-07-08T15:13:55.337Z</time>
      </trkpt>
      <trkpt lat="36.6652106679976" lon="137.85132681950927">
        <ele>723.28</ele>
        <time>2025-07-08T15:13:59.686Z</time>
      </trkpt>
      <trkpt lat="36.665210919454694" lon="137.85132681950927">
        <ele>723.32</ele>
        <time>2025-07-08T15:14:04.035Z</time>
      </trkpt>
      <trkpt lat="36.66521284729242" lon="137.85132698714733">
        <ele>723.37</ele>
        <time>2025-07-08T15:14:08.384Z</time>
      </trkpt>
      <trkpt lat="36.66522181592882" lon="137.85132757388055">
        <ele>723.43</ele>
        <time>2025-07-08T15:14:12.733Z</time>
      </trkpt>
      <trkpt lat="36.66553119197488" lon="137.85140393301845">
        <ele>723.6</ele>
        <time>2025-07-08T15:14:17.087Z</time>
      </trkpt>
      <trkpt lat="36.665645437315106" lon="137.85143201239407">
        <ele>723.71</ele>
        <time>2025-07-08T15:14:21.443Z</time>
      </trkpt>
      <trkpt lat="36.665645856410265" lon="137.85143218003213">
        <ele>723.77</ele>
        <time>2025-07-08T15:14:25.799Z</time>
      </trkpt>
      <trkpt lat="36.66564795188606" lon="137.85143276676536">
        <ele>723.84</ele>
        <time>2025-07-08T15:14:30.155Z</time>
      </trkpt>
      <trkpt lat="36.66565641760826" lon="137.85143486224115">
        <ele>723.9</ele>
        <time>2025-07-08T15:14:34.511Z</time>
      </trkpt>
      <trkpt lat="36.66596923023462" lon="137.85148448310792">
        <ele>724.03</ele>
        <time>2025-07-08T15:14:38.873Z</time>
      </trkpt>
      <trkpt lat="36.66628212668002" lon="137.85153418779373">
        <ele>724.07</ele>
        <time>2025-07-08T15:14:43.240Z</time>
      </trkpt>
      <trkpt lat="36.666355300694704" lon="137.85154567100108">
        <ele>724.11</ele>
        <time>2025-07-08T15:14:47.608Z</time>
      </trkpt>
      <trkpt lat="36.66635571978986" lon="137.8515457548201">
        <ele>724.14</ele>
        <time>2025-07-08T15:14:51.976Z</time>
      </trkpt>
      <trkpt lat="36.666357815265656" lon="137.85154609009624">
        <ele>724.15</ele>
        <time>2025-07-08T15:14:56.344Z</time>
      </trkpt>
      <trkpt lat="36.66636636480689" lon="137.85154751501977">
        <ele>724.16</ele>
        <time>2025-07-08T15:15:00.712Z</time>
      </trkpt>
      <trkpt lat="36.666671968996525" lon="137.85164449363947">
        <ele>724.24</ele>
        <time>2025-07-08T15:15:05.085Z</time>
      </trkpt>
      <trkpt lat="36.66697757318616" lon="137.85174138844013">
        <ele>724.27</ele>
        <time>2025-07-08T15:15:09.463Z</time>
      </trkpt>
      <trkpt lat="36.66728309355676" lon="137.85183836705983">
        <ele>724.11</ele>
        <time>2025-07-08T15:15:13.846Z</time>
      </trkpt>
      <trkpt lat="36.667319387197495" lon="137.85184976644814">
        <ele>724.05</ele>
        <time>2025-07-08T15:15:18.230Z</time>
      </trkpt>
      <trkpt lat="36.66731980629265" lon="137.8518499340862">
        <ele>723.99</ele>
        <time>2025-07-08T15:15:22.614Z</time>
      </trkpt>
      <trkpt lat="36.667321901768446" lon="137.85185060463846">
        <ele>723.92</ele>
        <time>2025-07-08T15:15:26.998Z</time>
      </trkpt>
      <trkpt lat="36.66733028367162" lon="137.85185328684747">
        <ele>723.83</ele>
        <time>2025-07-08T15:15:31.382Z</time>
      </trkpt>
      <trkpt lat="36.66764544323087" lon="137.85183954052627">
        <ele>723.63</ele>
        <time>2025-07-08T15:15:35.771Z</time>
      </trkpt>
      <trkpt lat="36.66780503466725" lon="137.8518324997276">
        <ele>723.52</ele>
        <time>2025-07-08T15:15:40.162Z</time>
      </trkpt>
      <trkpt lat="36.66780545376241" lon="137.8518324997276">
        <ele>723.43</ele>
        <time>2025-07-08T15:15:44.553Z</time>
      </trkpt>
      <trkpt lat="36.667807549238205" lon="137.85183241590858">
        <ele>723.36</ele>
        <time>2025-07-08T15:15:48.944Z</time>
      </trkpt>
      <trkpt lat="36.6678165178746" lon="137.85183208063245">
        <ele>723.28</ele>
        <time>2025-07-08T15:15:53.336Z</time>
      </trkpt>
      <trkpt lat="36.66788751259446" lon="137.8514506202191">
        <ele>723.12</ele>
        <time>2025-07-08T15:15:57.733Z</time>
      </trkpt>
      <trkpt lat="36.667958507314324" lon="137.85106915980577">
        <ele>723.04</ele>
        <time>2025-07-08T15:16:02.135Z</time>
      </trkpt>
      <trkpt lat="36.667994633316994" lon="137.85087411291897">
        <ele>723.02</ele>
        <time>2025-07-08T15:16:06.539Z</time>
      </trkpt>
      <trkpt lat="36.66799480095506" lon="137.85087361000478">
        <ele>723.0</ele>
        <time>2025-07-08T15:16:10.943Z</time>
      </trkpt>
      <trkpt lat="36.66799530386925" lon="137.8508710116148">
        <ele>723.0</ele>
        <time>2025-07-08T15:16:15.347Z</time>
      </trkpt>
      <trkpt lat="36.66799723170698" lon="137.85086103715003">
        <ele>723.01</ele>
        <time>2025-07-08T15:16:19.751Z</time>
      </trkpt>
      <trkpt lat="36.66809655725956" lon="137.85048946738243">
        <ele>723.11</ele>
        <time>2025-07-08T15:16:24.160Z</time>
      </trkpt>
      <trkpt lat="36.668191608041525" lon="137.85013332031667">
        <ele>723.18</ele>
        <time>2025-07-08T15:16:28.574Z</time>
      </trkpt>
      <trkpt lat="36.66819177567959" lon="137.8501329012215">
        <ele>723.24</ele>
        <time>2025-07-08T15:16:32.988Z</time>
      </trkpt>
      <trkpt lat="36.668192530050874" lon="137.85013038665056">
        <ele>723.32</ele>
        <time>2025-07-08T15:16:37.402Z</time>
      </trkpt>
      <trkpt lat="36.66819512844086" lon="137.85012083128095">
        <ele>723.4</ele>
        <time>2025-07-08T15:16:41.816Z</time>
      </trkpt>
      <trkpt lat="36.66834348812699" lon="137.84977532923222">
        <ele>723.6</ele>
        <time>2025-07-08T15:16:46.235Z</time>
      </trkpt>
      <trkpt lat="36.668353294953704" lon="137.84975219517946">
        <ele>723.72</ele>
        <time>2025-07-08T15:16:50.655Z</time>
      </trkpt>
      <trkpt lat="36.6683535464108" lon="137.8497517760843">
        <ele>723.82</ele>
        <time>2025-07-08T15:16:55.075Z</time>
      </trkpt>
      <trkpt lat="36.66835455223918" lon="137.84974951297045">
        <ele>723.93</ele>
        <time>2025-07-08T15:16:59.495Z</time>
      </trkpt>
      <trkpt lat="36.668358659371734" lon="137.84974004141986">
        <ele>724.05</ele>
        <time>2025-07-08T15:17:03.915Z</time>
      </trkpt>
      <trkpt lat="36.66862185113132" lon="137.84995570778847">
        <ele>724.13</ele>
        <time>2025-07-08T15:17:08.340Z</time>
      </trkpt>
      <trkpt lat="36.66866334155202" lon="137.84998973831534">
        <ele>724.24</ele>
        <time>2025-07-08T15:17:12.766Z</time>
      </trkpt>
      <trkpt lat="36.668663676828146" lon="137.84999007359147">
        <ele>724.35</ele>
        <time>2025-07-08T15:17:17.192Z</time>
      </trkpt>
      <trkpt lat="36.66866543702781" lon="137.849991498515">
        <ele>724.45</ele>
        <time>2025-07-08T15:17:21.618Z</time>
      </trkpt>
      <trkpt lat="36.66867272928357" lon="137.84999744966626">
        <ele>724.55</ele>
        <time>2025-07-08T15:17:26.044Z</time>
      </trkpt>
      <trkpt lat="36.66873022913933" lon="137.84970995038748">
        <ele>724.64</ele>
        <time>2025-07-08T15:17:30.474Z</time>
      </trkpt>
      <trkpt lat="36.66873039677739" lon="137.84970953129232">
        <ele>724.71</ele>
        <time>2025-07-08T15:17:34.904Z</time>
      </trkpt>
      <trkpt lat="36.66873098351061" lon="137.84970693290234">
        <ele>724.78</ele>
        <time>2025-07-08T15:17:39.334Z</time>
      </trkpt>
      <trkpt lat="36.668732995167375" lon="137.84969712607563">
        <ele>724.83</ele>
        <time>2025-07-08T15:17:43.764Z</time>
      </trkpt>
      <trkpt lat="36.668447172269225" lon="137.849531583488">
        <ele>724.94</ele>
        <time>2025-07-08T15:17:48.199Z</time>
      </trkpt>
      <trkpt lat="36.668446250259876" lon="137.84953099675477">
        <ele>724.97</ele>
        <time>2025-07-08T15:17:52.634Z</time>
      </trkpt>
      <trkpt lat="36.66844583116472" lon="137.84953074529767">
        <ele>724.97</ele>
        <time>2025-07-08T15:17:57.069Z</time>
      </trkpt>
      <trkpt lat="36.66844390332699" lon="137.84952965565026">
        <ele>724.95</ele>
        <time>2025-07-08T15:18:01.504Z</time>
      </trkpt>
      <trkpt lat="36.66843610815704" lon="137.84952521324158">
        <ele>724.92</ele>
        <time>2025-07-08T15:18:05.939Z</time>
      </trkpt>
      <trkpt lat="36.66857843287289" lon="137.8491758555174">
        <ele>724.87</ele>
        <time>2025-07-08T15:18:10.379Z</time>
      </trkpt>
      <trkpt lat="36.668714974075556" lon="137.8488402441144">
        <ele>724.79</ele>
        <time>2025-07-08T15:18:14.824Z</time>
      </trkpt>
      <trkpt lat="36.66871522553265" lon="137.84883982501924">
        <ele>724.69</ele>
        <time>2025-07-08T15:18:19.269Z</time>
      </trkpt>
      <trkpt lat="36.66871623136103" lon="137.84883739426732">
        <ele>724.57</ele>
        <time>2025-07-08T15:18:23.714Z</time>
      </trkpt>
      <trkpt lat="36.66872008703649" lon="137.84882817417383">
        <ele>724.42</ele>
        <time>2025-07-08T15:18:28.159Z</time>
      </trkpt>
      <trkpt lat="36.66870994493365" lon="137.84881995990872">
        <ele>724.27</ele>
        <time>2025-07-08T15:18:32.604Z</time>
      </trkpt>
      <trkpt lat="36.66872997768223" lon="137.84878995269537">
        <ele>724.08</ele>
        <time>2025-07-08T15:18:37.050Z</time>
      </trkpt>
      <trkpt lat="36.66895997710526" lon="137.84889992326498">
        <ele>723.86</ele>
        <time>2025-07-08T15:18:41.500Z</time>
      </trkpt>
      <trkpt lat="36.669249990954995" lon="137.84905373118818">
        <ele>723.58</ele>
        <time>2025-07-08T15:18:45.955Z</time>
      </trkpt>
      <trkpt lat="36.66954000480473" lon="137.84920753911138">
        <ele>723.27</ele>
        <time>2025-07-08T15:18:50.415Z</time>
      </trkpt>
      <trkpt lat="36.66961996816099" lon="137.84924995154142">
        <ele>723.01</ele>
        <time>2025-07-08T15:18:54.876Z</time>
      </trkpt>
      <trkpt lat="36.66991090402007" lon="137.8494010772556">
        <ele>722.72</ele>
        <time>2025-07-08T15:18:59.342Z</time>
      </trkpt>
      <trkpt lat="36.670201839879155" lon="137.8495522029698">
        <ele>722.51</ele>
        <time>2025-07-08T15:19:03.813Z</time>
      </trkpt>
      <trkpt lat="36.670389929786325" lon="137.84964993596077">
        <ele>722.29</ele>
        <time>2025-07-08T15:19:08.288Z</time>
      </trkpt>
      <trkpt lat="36.67068078182638" lon="137.84980139695108">
        <ele>722.06</ele>
        <time>2025-07-08T15:19:12.768Z</time>
      </trkpt>
      <trkpt lat="36.67097163386643" lon="137.84995294176042">
        <ele>721.8</ele>
        <time>2025-07-08T15:19:17.253Z</time>
      </trkpt>
      <trkpt lat="36.67126248590648" lon="137.85010440275073">
        <ele>721.54</ele>
        <time>2025-07-08T15:19:21.743Z</time>
      </trkpt>
      <trkpt lat="36.671553337946534" lon="137.85025586374104">
        <ele>721.26</ele>
        <time>2025-07-08T15:19:26.238Z</time>
      </trkpt>
      <trkpt lat="36.671844106167555" lon="137.85040732473135">
        <ele>721.0</ele>
        <time>2025-07-08T15:19:30.738Z</time>
      </trkpt>
      <trkpt lat="36.67213495820761" lon="137.85055878572166">
        <ele>720.84</ele>
        <time>2025-07-08T15:19:35.243Z</time>
      </trkpt>
      <trkpt lat="36.672299075871706" lon="137.85064419731498">
        <ele>720.65</ele>
        <time>2025-07-08T15:19:39.751Z</time>
      </trkpt>
      <trkpt lat="36.672299494966865" lon="137.85064444877207">
        <ele>720.45</ele>
        <time>2025-07-08T15:19:44.259Z</time>
      </trkpt>
      <trkpt lat="36.672301506623626" lon="137.85064553841949">
        <ele>720.25</ele>
        <time>2025-07-08T15:19:48.767Z</time>
      </trkpt>
      <trkpt lat="36.67230997234583" lon="137.85064998082817">
        <ele>720.05</ele>
        <time>2025-07-08T15:19:53.275Z</time>
      </trkpt>
      <trkpt lat="36.67259830981493" lon="137.85080856643617">
        <ele>719.85</ele>
        <time>2025-07-08T15:19:57.788Z</time>
      </trkpt>
      <trkpt lat="36.67288664728403" lon="137.85096715204418">
        <ele>719.64</ele>
        <time>2025-07-08T15:20:02.306Z</time>
      </trkpt>
      <trkpt lat="36.673175068572164" lon="137.85112573765218">
        <ele>719.51</ele>
        <time>2025-07-08T15:20:06.829Z</time>
      </trkpt>
      <trkpt lat="36.673309933394194" lon="137.85119991749525">
        <ele>719.39</ele>
        <time>2025-07-08T15:20:11.354Z</time>
      </trkpt>
      <trkpt lat="36.67360254563391" lon="137.85134626552463">
        <ele>719.25</ele>
        <time>2025-07-08T15:20:15.885Z</time>
      </trkpt>
      <trkpt lat="36.67378996498883" lon="137.85143997520208">
        <ele>719.03</ele>
        <time>2025-07-08T15:20:20.419Z</time>
      </trkpt>
      <trkpt lat="36.673938408493996" lon="137.8514770232141">
        <ele>718.82</ele>
        <time>2025-07-08T15:20:24.955Z</time>
      </trkpt>
      <trkpt lat="36.67393874377012" lon="137.85147710703313">
        <ele>718.65</ele>
        <time>2025-07-08T15:20:29.491Z</time>
      </trkpt>
      <trkpt lat="36.67394092306495" lon="137.85147769376636">
        <ele>718.49</ele>
        <time>2025-07-08T15:20:34.027Z</time>
      </trkpt>
      <trkpt lat="36.67394997552037" lon="137.8514799568802">
        <ele>718.34</ele>
        <time>2025-07-08T15:20:38.563Z</time>
      </trkpt>
      <trkpt lat="36.67404997162521" lon="137.85142991691828">
        <ele>718.14</ele>
        <time>2025-07-08T15:20:43.101Z</time>
      </trkpt>
      <trkpt lat="36.674325903877616" lon="137.85161951556802">
        <ele>717.92</ele>
        <time>2025-07-08T15:20:47.644Z</time>
      </trkpt>
      <trkpt lat="36.674601919949055" lon="137.85180903039873">
        <ele>717.8</ele>
        <time>2025-07-08T15:20:52.192Z</time>
      </trkpt>
      <trkpt lat="36.67487793602049" lon="137.85199854522943">
        <ele>717.73</ele>
        <time>2025-07-08T15:20:56.745Z</time>
      </trkpt>
      <trkpt lat="36.674879947677255" lon="137.85199997015297">
        <ele>717.61</ele>
        <time>2025-07-08T15:21:01.298Z</time>
      </trkpt>
      <trkpt lat="36.67516065761447" lon="137.85217858850956">
        <ele>717.51</ele>
        <time>2025-07-08T15:21:05.856Z</time>
      </trkpt>
      <trkpt lat="36.67520994320512" lon="137.85220993682742">
        <ele>717.42</ele>
        <time>2025-07-08T15:21:10.415Z</time>
      </trkpt>
      <trkpt lat="36.675249924883246" lon="137.8521199990064">
        <ele>717.32</ele>
        <time>2025-07-08T15:21:14.975Z</time>
      </trkpt>
      <trkpt lat="36.675329972058535" lon="137.8521699551493">
        <ele>717.25</ele>
        <time>2025-07-08T15:21:19.537Z</time>
      </trkpt>
      <trkpt lat="36.675618812441826" lon="137.85232711583376">
        <ele>717.12</ele>
        <time>2025-07-08T15:21:24.104Z</time>
      </trkpt>
      <trkpt lat="36.6758999414742" lon="137.85247991792858">
        <ele>717.02</ele>
        <time>2025-07-08T15:21:28.676Z</time>
      </trkpt>
      <trkpt lat="36.67606892064214" lon="137.8525643236935">
        <ele>716.95</ele>
        <time>2025-07-08T15:21:33.251Z</time>
      </trkpt>
      <trkpt lat="36.676069339737296" lon="137.8525645751506">
        <ele>716.93</ele>
        <time>2025-07-08T15:21:37.826Z</time>
      </trkpt>
      <trkpt lat="36.67607143521309" lon="137.85256566479802">
        <ele>716.92</ele>
        <time>2025-07-08T15:21:42.401Z</time>
      </trkpt>
      <trkpt lat="36.676079984754324" lon="137.85256993956864">
        <ele>716.92</ele>
        <time>2025-07-08T15:21:46.976Z</time>
      </trkpt>
      <trkpt lat="36.67636605910957" lon="137.852734727785">
        <ele>717.01</ele>
        <time>2025-07-08T15:21:51.556Z</time>
      </trkpt>
      <trkpt lat="36.67640998028219" lon="137.85275995731354">
        <ele>717.05</ele>
        <time>2025-07-08T15:21:56.137Z</time>
      </trkpt>
      <trkpt lat="36.676701586693525" lon="137.85290915519">
        <ele>717.11</ele>
        <time>2025-07-08T15:22:00.723Z</time>
      </trkpt>
      <trkpt lat="36.67683997191489" lon="137.8529799822718">
        <ele>717.14</ele>
        <time>2025-07-08T15:22:05.311Z</time>
      </trkpt>
      <trkpt lat="36.677133087068796" lon="137.8531243186444">
        <ele>717.19</ele>
        <time>2025-07-08T15:22:09.904Z</time>
      </trkpt>
      <trkpt lat="36.67742628604174" lon="137.85326873883605">
        <ele>717.28</ele>
        <time>2025-07-08T15:22:14.502Z</time>
      </trkpt>
      <trkpt lat="36.67750993743539" lon="137.85330997779965">
        <ele>717.35</ele>
        <time>2025-07-08T15:22:19.102Z</time>
      </trkpt>
      <trkpt lat="36.67779500596225" lon="137.85347761586308">
        <ele>717.46</ele>
        <time>2025-07-08T15:22:23.707Z</time>
      </trkpt>
      <trkpt lat="36.67801997624338" lon="137.85360996611416">
        <ele>717.56</ele>
        <time>2025-07-08T15:22:28.316Z</time>
      </trkpt>
      <trkpt lat="36.67829565703869" lon="137.85380023531616">
        <ele>717.58</ele>
        <time>2025-07-08T15:22:32.930Z</time>
      </trkpt>
      <trkpt lat="36.67857125401497" lon="137.85399042069912">
        <ele>717.49</ele>
        <time>2025-07-08T15:22:37.549Z</time>
      </trkpt>
      <trkpt lat="36.678729923442006" lon="137.85409997217357">
        <ele>717.46</ele>
        <time>2025-07-08T15:22:42.171Z</time>
      </trkpt>
      <trkpt lat="36.67898993007839" lon="137.8542699571699">
        <ele>717.37</ele>
        <time>2025-07-08T15:22:46.797Z</time>
      </trkpt>
      <trkpt lat="36.679219929501414" lon="137.8543899860233">
        <ele>717.45</ele>
        <time>2025-07-08T15:22:51.427Z</time>
      </trkpt>
      <trkpt lat="36.67951941490173" lon="137.85451278090477">
        <ele>717.72</ele>
        <time>2025-07-08T15:22:56.062Z</time>
      </trkpt>
      <trkpt lat="36.679609939455986" lon="137.85454999655485">
        <ele>717.85</ele>
        <time>2025-07-08T15:23:00.699Z</time>
      </trkpt>
      <trkpt lat="36.679912861436605" lon="137.85465921275318">
        <ele>718.07</ele>
        <time>2025-07-08T15:23:05.341Z</time>
      </trkpt>
      <trkpt lat="36.6802085749805" lon="137.85476583056152">
        <ele>718.2</ele>
        <time>2025-07-08T15:23:09.988Z</time>
      </trkpt>
      <trkpt lat="36.68020874261856" lon="137.85476591438055">
        <ele>718.24</ele>
        <time>2025-07-08T15:23:14.635Z</time>
      </trkpt>
      <trkpt lat="36.680210838094354" lon="137.85476666875184">
        <ele>718.28</ele>
        <time>2025-07-08T15:23:19.282Z</time>
      </trkpt>
      <trkpt lat="36.68021569959819" lon="137.8547684289515">
        <ele>718.3</ele>
        <time>2025-07-08T15:23:23.929Z</time>
      </trkpt>
      <trkpt lat="36.68021997436881" lon="137.85476993769407">
        <ele>718.31</ele>
        <time>2025-07-08T15:23:28.576Z</time>
      </trkpt>
      <trkpt lat="36.68051669374108" lon="137.8549027070403">
        <ele>718.28</ele>
        <time>2025-07-08T15:23:33.228Z</time>
      </trkpt>
      <trkpt lat="36.68059992603958" lon="137.8549399226904">
        <ele>718.27</ele>
        <time>2025-07-08T15:23:37.882Z</time>
      </trkpt>
      <trkpt lat="36.680888598784804" lon="137.85509783774614">
        <ele>718.2</ele>
        <time>2025-07-08T15:23:42.541Z</time>
      </trkpt>
      <trkpt lat="36.681177187711" lon="137.85525566898286">
        <ele>718.17</ele>
        <time>2025-07-08T15:23:47.205Z</time>
      </trkpt>
      <trkpt lat="36.681239968165755" lon="137.85528995096684">
        <ele>718.13</ele>
        <time>2025-07-08T15:23:51.870Z</time>
      </trkpt>
      <trkpt lat="36.68153048492968" lon="137.8554423339665">
        <ele>718.02</ele>
        <time>2025-07-08T15:23:56.540Z</time>
      </trkpt>
      <trkpt lat="36.681821001693606" lon="137.85559480078518">
        <ele>717.95</ele>
        <time>2025-07-08T15:24:01.215Z</time>
      </trkpt>
      <trkpt lat="36.68211151845753" lon="137.85574718378484">
        <ele>717.93</ele>
        <time>2025-07-08T15:24:05.895Z</time>
      </trkpt>
      <trkpt lat="36.68240203522146" lon="137.8558995667845">
        <ele>717.94</ele>
        <time>2025-07-08T15:24:10.580Z</time>
      </trkpt>
      <trkpt lat="36.68245995417237" lon="137.855929993093">
        <ele>717.95</ele>
        <time>2025-07-08T15:24:15.266Z</time>
      </trkpt>
      <trkpt lat="36.68274896219373" lon="137.85608673468232">
        <ele>717.98</ele>
        <time>2025-07-08T15:24:19.957Z</time>
      </trkpt>
      <trkpt lat="36.68303797021508" lon="137.85624347627163">
        <ele>718.01</ele>
        <time>2025-07-08T15:24:24.653Z</time>
      </trkpt>
      <trkpt lat="36.68304995633662" lon="137.85624993033707">
        <ele>718.07</ele>
        <time>2025-07-08T15:24:29.349Z</time>
      </trkpt>
      <trkpt lat="36.68323712423444" lon="137.85593477077782">
        <ele>718.19</ele>
        <time>2025-07-08T15:24:34.050Z</time>
      </trkpt>
      <trkpt lat="36.683239974081516" lon="137.855929993093">
        <ele>718.27</ele>
        <time>2025-07-08T15:24:38.751Z</time>
      </trkpt>
      <trkpt lat="36.68329244479537" lon="137.85585103556514">
        <ele>718.37</ele>
        <time>2025-07-08T15:24:43.454Z</time>
      </trkpt>
      <trkpt lat="36.6832927800715" lon="137.85585061646998">
        <ele>718.49</ele>
        <time>2025-07-08T15:24:48.157Z</time>
      </trkpt>
      <trkpt lat="36.68329428881407" lon="137.85584843717515">
        <ele>718.61</ele>
        <time>2025-07-08T15:24:52.860Z</time>
      </trkpt>
      <trkpt lat="36.683299988508224" lon="137.85583997145295">
        <ele>718.75</ele>
        <time>2025-07-08T15:24:57.563Z</time>
      </trkpt>
      <trkpt lat="36.68339998461306" lon="137.8556799609214">
        <ele>718.9</ele>
        <time>2025-07-08T15:25:02.268Z</time>
      </trkpt>
      <trkpt lat="36.68344994075596" lon="137.85564995370805">
        <ele>719.06</ele>
        <time>2025-07-08T15:25:06.974Z</time>
      </trkpt>
      <trkpt lat="36.683539962396026" lon="137.8556199464947">
        <ele>719.24</ele>
        <time>2025-07-08T15:25:11.682Z</time>
      </trkpt>
      <trkpt lat="36.68379996903241" lon="137.85558993928134">
        <ele>719.46</ele>
        <time>2025-07-08T15:25:16.394Z</time>
      </trkpt>
      <trkpt lat="36.68404991738498" lon="137.85546999424696">
        <ele>719.68</ele>
        <time>2025-07-08T15:25:21.110Z</time>
      </trkpt>
      <trkpt lat="36.68429994955659" lon="137.85549991764128">
        <ele>719.88</ele>
        <time>2025-07-08T15:25:25.830Z</time>
      </trkpt>
      <trkpt lat="36.684479992836714" lon="137.855559932068">
        <ele>720.03</ele>
        <time>2025-07-08T15:25:30.553Z</time>
      </trkpt>
      <trkpt lat="36.68472994118929" lon="137.85557996481657">
        <ele>720.22</ele>
        <time>2025-07-08T15:25:35.280Z</time>
      </trkpt>
      <trkpt lat="36.68485994450748" lon="137.85552992485464">
        <ele>720.33</ele>
        <time>2025-07-08T15:25:40.009Z</time>
      </trkpt>
      <trkpt lat="36.68487997725606" lon="137.85551995038986">
        <ele>720.45</ele>
        <time>2025-07-08T15:25:44.739Z</time>
      </trkpt>
      <trkpt lat="36.684889951720834" lon="137.85546999424696">
        <ele>720.57</ele>
        <time>2025-07-08T15:25:49.469Z</time>
      </trkpt>
      <trkpt lat="36.684999922290444" lon="137.8551299404353">
        <ele>720.7</ele>
        <time>2025-07-08T15:25:54.204Z</time>
      </trkpt>
      <trkpt lat="36.68507996946573" lon="137.8550099954009">
        <ele>720.77</ele>
        <time>2025-07-08T15:25:58.941Z</time>
      </trkpt>
      <trkpt lat="36.6852199472487" lon="137.85492994822562">
        <ele>720.82</ele>
        <time>2025-07-08T15:26:03.681Z</time>
      </trkpt>
      <trkpt lat="36.68528121896088" lon="137.854859624058">
        <ele>720.9</ele>
        <time>2025-07-08T15:26:08.422Z</time>
      </trkpt>
      <trkpt lat="36.68528155423701" lon="137.8548593726009">
        <ele>720.91</ele>
        <time>2025-07-08T15:26:13.163Z</time>
      </trkpt>
      <trkpt lat="36.685283314436674" lon="137.85485744476318">
        <ele>720.9</ele>
        <time>2025-07-08T15:26:17.904Z</time>
      </trkpt>
      <trkpt lat="36.68528993614018" lon="137.85484998486936">
        <ele>720.87</ele>
        <time>2025-07-08T15:26:22.645Z</time>
      </trkpt>
      <trkpt lat="36.685389932245016" lon="137.85467999987304">
        <ele>720.83</ele>
        <time>2025-07-08T15:26:27.389Z</time>
      </trkpt>
      <trkpt lat="36.68541993945837" lon="137.85471998155117">
        <ele>720.72</ele>
        <time>2025-07-08T15:26:32.134Z</time>
      </trkpt>
      <trkpt lat="36.68548992834985" lon="137.85479994490743">
        <ele>720.58</ele>
        <time>2025-07-08T15:26:36.880Z</time>
      </trkpt>
      <trkpt lat="36.68562998995185" lon="137.85491997376084">
        <ele>720.41</ele>
        <time>2025-07-08T15:26:41.629Z</time>
      </trkpt>
      <trkpt lat="36.68592067435384" lon="137.85507193766534">
        <ele>720.29</ele>
        <time>2025-07-08T15:26:46.383Z</time>
      </trkpt>
      <trkpt lat="36.68606995604932" lon="137.85514997318387">
        <ele>720.14</ele>
        <time>2025-07-08T15:26:51.139Z</time>
      </trkpt>
      <trkpt lat="36.68633909896016" lon="137.85535415634513">
        <ele>719.83</ele>
        <time>2025-07-08T15:26:55.900Z</time>
      </trkpt>
      <trkpt lat="36.68635996989906" lon="137.85536999814212">
        <ele>719.6</ele>
        <time>2025-07-08T15:27:00.662Z</time>
      </trkpt>
      <trkpt lat="36.68659994378686" lon="137.8555099759251">
        <ele>719.18</ele>
        <time>2025-07-08T15:27:05.428Z</time>
      </trkpt>
      <trkpt lat="36.686894316226244" lon="137.85565045662224">
        <ele>718.91</ele>
        <time>2025-07-08T15:27:10.199Z</time>
      </trkpt>
      <trkpt lat="36.687039993703365" lon="137.85571994259953">
        <ele>718.75</ele>
        <time>2025-07-08T15:27:14.973Z</time>
      </trkpt>
      <trkpt lat="36.68733931146562" lon="137.8558432403952">
        <ele>718.67</ele>
        <time>2025-07-08T15:27:19.752Z</time>
      </trkpt>
      <trkpt lat="36.68754994869232" lon="137.855929993093">
        <ele>718.44</ele>
        <time>2025-07-08T15:27:24.534Z</time>
      </trkpt>
      <trkpt lat="36.68771993368864" lon="137.85597994923592">
        <ele>718.08</ele>
        <time>2025-07-08T15:27:29.319Z</time>
      </trkpt>
      <trkpt lat="36.68783996254206" lon="137.8559899237007">
        <ele>717.73</ele>
        <time>2025-07-08T15:27:34.106Z</time>
      </trkpt>
      <trkpt lat="36.688069961965084" lon="137.8559999819845">
        <ele>717.35</ele>
        <time>2025-07-08T15:27:38.897Z</time>
      </trkpt>
      <trkpt lat="36.68831999413669" lon="137.85608991980553">
        <ele>717.03</ele>
        <time>2025-07-08T15:27:43.692Z</time>
      </trkpt>
      <trkpt lat="36.688609924167395" lon="137.85622998140752">
        <ele>716.78</ele>
        <time>2025-07-08T15:27:48.492Z</time>
      </trkpt>
      <trkpt lat="36.688893903046846" lon="137.856400385499">
        <ele>716.47</ele>
        <time>2025-07-08T15:27:53.297Z</time>
      </trkpt>
      <trkpt lat="36.68915994465351" lon="137.8565599769354">
        <ele>716.12</ele>
        <time>2025-07-08T15:27:58.106Z</time>
      </trkpt>
      <trkpt lat="36.68943998403847" lon="137.85667992196977">
        <ele>715.77</ele>
        <time>2025-07-08T15:28:02.920Z</time>
      </trkpt>
      <trkpt lat="36.689753383398056" lon="137.85672367550433">
        <ele>715.51</ele>
        <time>2025-07-08T15:28:07.739Z</time>
      </trkpt>
      <trkpt lat="36.68985798954964" lon="137.8567381761968">
        <ele>715.22</ele>
        <time>2025-07-08T15:28:12.560Z</time>
      </trkpt>
      <trkpt lat="36.689858408644795" lon="137.85673826001585">
        <ele>714.92</ele>
        <time>2025-07-08T15:28:17.381Z</time>
      </trkpt>
      <trkpt lat="36.689860839396715" lon="137.85673859529197">
        <ele>714.62</ele>
        <time>2025-07-08T15:28:22.202Z</time>
      </trkpt>
      <trkpt lat="36.68986997567117" lon="137.85673993639648">
        <ele>714.31</ele>
        <time>2025-07-08T15:28:27.023Z</time>
      </trkpt>
      <trkpt lat="36.690181866288185" lon="137.85679768770933">
        <ele>714.03</ele>
        <time>2025-07-08T15:28:31.849Z</time>
      </trkpt>
      <trkpt lat="36.69040993787348" lon="137.85683993250132">
        <ele>713.74</ele>
        <time>2025-07-08T15:28:36.679Z</time>
      </trkpt>
      <trkpt lat="36.69070992618799" lon="137.8569199796766">
        <ele>713.4</ele>
        <time>2025-07-08T15:28:41.514Z</time>
      </trkpt>
      <trkpt lat="36.690909918397665" lon="137.85700991749763">
        <ele>713.05</ele>
        <time>2025-07-08T15:28:46.352Z</time>
      </trkpt>
      <trkpt lat="36.69122038409114" lon="137.85707898437977">
        <ele>712.72</ele>
        <time>2025-07-08T15:28:51.195Z</time>
      </trkpt>
      <trkpt lat="36.69126992113888" lon="137.85708996467292">
        <ele>712.39</ele>
        <time>2025-07-08T15:28:56.039Z</time>
      </trkpt>
      <trkpt lat="36.69142993167043" lon="137.8571599535644">
        <ele>712.07</ele>
        <time>2025-07-08T15:29:00.886Z</time>
      </trkpt>
      <trkpt lat="36.691639982163906" lon="137.85726992413402">
        <ele>711.71</ele>
        <time>2025-07-08T15:29:05.736Z</time>
      </trkpt>
      <trkpt lat="36.69172991998494" lon="137.85732993856072">
        <ele>711.36</ele>
        <time>2025-07-08T15:29:10.588Z</time>
      </trkpt>
      <trkpt lat="36.69194994494319" lon="137.8575299307704">
        <ele>710.98</ele>
        <time>2025-07-08T15:29:15.444Z</time>
      </trkpt>
      <trkpt lat="36.69211992993951" lon="137.8577199485153">
        <ele>710.57</ele>
        <time>2025-07-08T15:29:20.304Z</time>
      </trkpt>
      <trkpt lat="36.692239958792925" lon="137.8578399773687">
        <ele>710.19</ele>
        <time>2025-07-08T15:29:25.166Z</time>
      </trkpt>
      <trkpt lat="36.692540450021625" lon="137.85795891657472">
        <ele>709.82</ele>
        <time>2025-07-08T15:29:30.034Z</time>
      </trkpt>
      <trkpt lat="36.69271999038756" lon="137.8580299951136">
        <ele>709.53</ele>
        <time>2025-07-08T15:29:34.905Z</time>
      </trkpt>
      <trkpt lat="36.692949989810586" lon="137.858149940148">
        <ele>709.22</ele>
        <time>2025-07-08T15:29:39.780Z</time>
      </trkpt>
      <trkpt lat="36.69304998591542" lon="137.85819998010993">
        <ele>708.94</ele>
        <time>2025-07-08T15:29:44.656Z</time>
      </trkpt>
      <trkpt lat="36.69312994927168" lon="137.8582099545747">
        <ele>708.68</ele>
        <time>2025-07-08T15:29:49.534Z</time>
      </trkpt>
      <trkpt lat="36.69334997422993" lon="137.85821992903948">
        <ele>708.49</ele>
        <time>2025-07-08T15:29:54.415Z</time>
      </trkpt>
      <trkpt lat="36.69355994090438" lon="137.8582699690014">
        <ele>708.27</ele>
        <time>2025-07-08T15:29:59.299Z</time>
      </trkpt>
      <trkpt lat="36.69381994754076" lon="137.85825999453664">
        <ele>708.06</ele>
        <time>2025-07-08T15:30:04.188Z</time>
      </trkpt>
      <trkpt lat="36.694132927805185" lon="137.8582117985934">
        <ele>707.83</ele>
        <time>2025-07-08T15:30:09.082Z</time>
      </trkpt>
      <trkpt lat="36.69444599188864" lon="137.8581636864692">
        <ele>707.64</ele>
        <time>2025-07-08T15:30:13.981Z</time>
      </trkpt>
      <trkpt lat="36.69446996413171" lon="137.8581599984318">
        <ele>707.52</ele>
        <time>2025-07-08T15:30:18.880Z</time>
      </trkpt>
      <trkpt lat="36.694638188928366" lon="137.85815052688122">
        <ele>707.42</ele>
        <time>2025-07-08T15:30:23.782Z</time>
      </trkpt>
      <trkpt lat="36.694638188928366" lon="137.8581504430622">
        <ele>707.35</ele>
        <time>2025-07-08T15:30:28.684Z</time>
      </trkpt>
      <trkpt lat="36.694640619680285" lon="137.8581504430622">
        <ele>707.31</ele>
        <time>2025-07-08T15:30:33.586Z</time>
      </trkpt>
      <trkpt lat="36.694649923592806" lon="137.858149940148">
        <ele>707.29</ele>
        <time>2025-07-08T15:30:38.488Z</time>
      </trkpt>
      <trkpt lat="36.69491998851299" lon="137.85831992514431">
        <ele>707.27</ele>
        <time>2025-07-08T15:30:43.395Z</time>
      </trkpt>
      <trkpt lat="36.69505996629596" lon="137.85841992124915">
        <ele>707.31</ele>
        <time>2025-07-08T15:30:48.304Z</time>
      </trkpt>
      <trkpt lat="36.69514998793602" lon="137.85817994736135">
        <ele>707.42</ele>
        <time>2025-07-08T15:30:53.217Z</time>
      </trkpt>
      <trkpt lat="36.695179995149374" lon="137.85805991850793">
        <ele>707.54</ele>
        <time>2025-07-08T15:30:58.131Z</time>
      </trkpt>
      <trkpt lat="36.6951872035861" lon="137.8576683998108">
        <ele>707.72</ele>
        <time>2025-07-08T15:31:03.050Z</time>
      </trkpt>
      <trkpt lat="36.69518996961415" lon="137.85751995630562">
        <ele>707.9</ele>
        <time>2025-07-08T15:31:07.971Z</time>
      </trkpt>
      <trkpt lat="36.6952199768275" lon="137.8574199602008">
        <ele>708.08</ele>
        <time>2025-07-08T15:31:12.894Z</time>
      </trkpt>
      <trkpt lat="36.695269932970405" lon="137.85733999684453">
        <ele>708.28</ele>
        <time>2025-07-08T15:31:17.818Z</time>
      </trkpt>
      <trkpt lat="36.69547998346388" lon="137.85712994635105">
        <ele>708.47</ele>
        <time>2025-07-08T15:31:22.746Z</time>
      </trkpt>
      <trkpt lat="36.69555994682014" lon="137.85701997578144">
        <ele>708.72</ele>
        <time>2025-07-08T15:31:27.676Z</time>
      </trkpt>
      <trkpt lat="36.6956499684602" lon="137.8567299619317">
        <ele>709.03</ele>
        <time>2025-07-08T15:31:32.610Z</time>
      </trkpt>
      <trkpt lat="36.69577594846487" lon="137.85637088119984">
        <ele>709.35</ele>
        <time>2025-07-08T15:31:37.549Z</time>
      </trkpt>
      <trkpt lat="36.69584518298507" lon="137.85617298446596">
        <ele>709.74</ele>
        <time>2025-07-08T15:31:42.491Z</time>
      </trkpt>
      <trkpt lat="36.69584543444216" lon="137.8561725653708">
        <ele>710.05</ele>
        <time>2025-07-08T15:31:47.433Z</time>
      </trkpt>
      <trkpt lat="36.69584644027054" lon="137.85616988316178">
        <ele>710.37</ele>
        <time>2025-07-08T15:31:52.375Z</time>
      </trkpt>
      <trkpt lat="36.695849960669875" lon="137.85615999251604">
        <ele>710.7</ele>
        <time>2025-07-08T15:31:57.317Z</time>
      </trkpt>
      <trkpt lat="36.695889942348" lon="137.85600995644927">
        <ele>711.1</ele>
        <time>2025-07-08T15:32:02.261Z</time>
      </trkpt>
      <trkpt lat="36.695999996736646" lon="137.8561299853027">
        <ele>711.45</ele>
        <time>2025-07-08T15:32:07.208Z</time>
      </trkpt>
      <trkpt lat="36.696169981732965" lon="137.85628999583423">
        <ele>711.82</ele>
        <time>2025-07-08T15:32:12.158Z</time>
      </trkpt>
      <trkpt lat="36.69632999226451" lon="137.85639996640384">
        <ele>712.13</ele>
        <time>2025-07-08T15:32:17.111Z</time>
      </trkpt>
      <trkpt lat="36.69648991897702" lon="137.8565399441868">
        <ele>712.46</ele>
        <time>2025-07-08T15:32:22.067Z</time>
      </trkpt>
      <trkpt lat="36.696539958938956" lon="137.85631991922855">
        <ele>712.8</ele>
        <time>2025-07-08T15:32:27.026Z</time>
      </trkpt>
      <trkpt lat="36.69662998057902" lon="137.8561299853027">
        <ele>713.14</ele>
        <time>2025-07-08T15:32:31.988Z</time>
      </trkpt>
      <trkpt lat="36.696796361356974" lon="137.85579722374678">
        <ele>713.53</ele>
        <time>2025-07-08T15:32:36.955Z</time>
      </trkpt>
      <trkpt lat="36.69683366082609" lon="137.8557222057134">
        <ele>713.9</ele>
        <time>2025-07-08T15:32:41.923Z</time>
      </trkpt>
      <trkpt lat="36.69683391228318" lon="137.85572178661823">
        <ele>714.22</ele>
        <time>2025-07-08T15:32:46.891Z</time>
      </trkpt>
      <trkpt lat="36.69683525338769" lon="137.85571927204728">
        <ele>714.54</ele>
        <time>2025-07-08T15:32:51.859Z</time>
      </trkpt>
      <trkpt lat="36.696839947253466" lon="137.85570996813476">
        <ele>714.85</ele>
        <time>2025-07-08T15:32:56.827Z</time>
      </trkpt>
      <trkpt lat="36.696899961680174" lon="137.85549991764128">
        <ele>715.23</ele>
        <time>2025-07-08T15:33:01.798Z</time>
      </trkpt>
      <trkpt lat="36.696919994428754" lon="137.85544996149838">
        <ele>715.52</ele>
        <time>2025-07-08T15:33:06.770Z</time>
      </trkpt>
      <trkpt lat="36.69697992503643" lon="137.85541995428503">
        <ele>715.82</ele>
        <time>2025-07-08T15:33:11.743Z</time>
      </trkpt>
      <trkpt lat="36.697009932249784" lon="137.85540997982025">
        <ele>716.08</ele>
        <time>2025-07-08T15:33:16.716Z</time>
      </trkpt>
      <trkpt lat="36.69707992114127" lon="137.85534996539354">
        <ele>716.33</ele>
        <time>2025-07-08T15:33:21.691Z</time>
      </trkpt>
      <trkpt lat="36.69723993167281" lon="137.85530998371542">
        <ele>716.57</ele>
        <time>2025-07-08T15:33:26.668Z</time>
      </trkpt>
      <trkpt lat="36.69748560525477" lon="137.85506431013346">
        <ele>716.67</ele>
        <time>2025-07-08T15:33:31.650Z</time>
      </trkpt>
      <trkpt lat="36.697509996593" lon="137.85503991879523">
        <ele>716.92</ele>
        <time>2025-07-08T15:33:36.633Z</time>
      </trkpt>
      <trkpt lat="36.69765994884074" lon="137.85487999208272">
        <ele>717.18</ele>
        <time>2025-07-08T15:33:41.619Z</time>
      </trkpt>
      <trkpt lat="36.697732703760266" lon="137.85476147197187">
        <ele>717.46</ele>
        <time>2025-07-08T15:33:46.607Z</time>
      </trkpt>
      <trkpt lat="36.69773303903639" lon="137.8547610528767">
        <ele>717.71</ele>
        <time>2025-07-08T15:33:51.595Z</time>
      </trkpt>
      <trkpt lat="36.697734547778964" lon="137.85475870594382">
        <ele>717.97</ele>
        <time>2025-07-08T15:33:56.583Z</time>
      </trkpt>
      <trkpt lat="36.697739996016026" lon="137.85474998876452">
        <ele>718.24</ele>
        <time>2025-07-08T15:34:01.571Z</time>
      </trkpt>
      <trkpt lat="36.697829933837056" lon="137.85460992716253">
        <ele>718.54</ele>
        <time>2025-07-08T15:34:06.561Z</time>
      </trkpt>
      <trkpt lat="36.69792992994189" lon="137.85448998212814">
        <ele>718.87</ele>
        <time>2025-07-08T15:34:11.554Z</time>
      </trkpt>
      <trkpt lat="36.69809999875724" lon="137.85436995327473">
        <ele>719.2</ele>
        <time>2025-07-08T15:34:16.550Z</time>
      </trkpt>
      <trkpt lat="36.698209969326854" lon="137.85430993884802">
        <ele>719.48</ele>
        <time>2025-07-08T15:34:21.548Z</time>
      </trkpt>
      <trkpt lat="36.69833812862635" lon="137.8542731422931">
        <ele>719.78</ele>
        <time>2025-07-08T15:34:26.548Z</time>
      </trkpt>
      <trkpt lat="36.698338547721505" lon="137.85427305847406">
        <ele>720.03</ele>
        <time>2025-07-08T15:34:31.548Z</time>
      </trkpt>
      <trkpt lat="36.69834089465439" lon="137.85427247174084">
        <ele>720.29</ele>
        <time>2025-07-08T15:34:36.548Z</time>
      </trkpt>
      <trkpt lat="36.69834994710982" lon="137.8542699571699">
        <ele>720.56</ele>
        <time>2025-07-08T15:34:41.548Z</time>
      </trkpt>
      <trkpt lat="36.69859888963401" lon="137.8540294803679">
        <ele>720.87</ele>
        <time>2025-07-08T15:34:46.553Z</time>
      </trkpt>
      <trkpt lat="36.69870391488075" lon="137.8539277240634">
        <ele>721.17</ele>
        <time>2025-07-08T15:34:51.560Z</time>
      </trkpt>
      <trkpt lat="36.69870425015688" lon="137.8539274726063">
        <ele>721.43</ele>
        <time>2025-07-08T15:34:56.567Z</time>
      </trkpt>
      <trkpt lat="36.69870617799461" lon="137.8539256285876">
        <ele>721.7</ele>
        <time>2025-07-08T15:35:01.574Z</time>
      </trkpt>
      <trkpt lat="36.698713386431336" lon="137.853918755427">
        <ele>721.99</ele>
        <time>2025-07-08T15:35:06.581Z</time>
      </trkpt>
      <trkpt lat="36.69880894012749" lon="137.85383342765272">
        <ele>722.32</ele>
        <time>2025-07-08T15:35:11.590Z</time>
      </trkpt>
      <trkpt lat="36.69880935922265" lon="137.85383317619562">
        <ele>722.62</ele>
        <time>2025-07-08T15:35:16.599Z</time>
      </trkpt>
      <trkpt lat="36.69881128706038" lon="137.853831499815">
        <ele>722.94</ele>
        <time>2025-07-08T15:35:21.608Z</time>
      </trkpt>
      <trkpt lat="36.698818830773234" lon="137.85382487811148">
        <ele>723.29</ele>
        <time>2025-07-08T15:35:26.617Z</time>
      </trkpt>
      <trkpt lat="36.698942044749856" lon="137.8538320865482">
        <ele>723.68</ele>
        <time>2025-07-08T15:35:31.628Z</time>
      </trkpt>
      <trkpt lat="36.698942463845015" lon="137.85383217036724">
        <ele>724.05</ele>
        <time>2025-07-08T15:35:36.639Z</time>
      </trkpt>
      <trkpt lat="36.698944894596934" lon="137.8538323380053">
        <ele>724.45</ele>
        <time>2025-07-08T15:35:41.650Z</time>
      </trkpt>
      <trkpt lat="36.698954282328486" lon="137.85383292473853">
        <ele>724.88</ele>
        <time>2025-07-08T15:35:46.662Z</time>
      </trkpt>
      <trkpt lat="36.69917271472514" lon="137.8535503707826">
        <ele>725.45</ele>
        <time>2025-07-08T15:35:51.679Z</time>
      </trkpt>
      <trkpt lat="36.699348064139485" lon="137.85332322120667">
        <ele>725.86</ele>
        <time>2025-07-08T15:35:56.700Z</time>
      </trkpt>
      <trkpt lat="36.69934839941561" lon="137.85332288593054">
        <ele>726.32</ele>
        <time>2025-07-08T15:36:01.721Z</time>
      </trkpt>
      <trkpt lat="36.69935007579625" lon="137.85332079045475">
        <ele>726.8</ele>
        <time>2025-07-08T15:36:06.742Z</time>
      </trkpt>
      <trkpt lat="36.69935644604266" lon="137.85331266000867">
        <ele>727.31</ele>
        <time>2025-07-08T15:36:11.763Z</time>
      </trkpt>
      <trkpt lat="36.69947228394449" lon="137.85294838249683">
        <ele>727.96</ele>
        <time>2025-07-08T15:36:16.789Z</time>
      </trkpt>
      <trkpt lat="36.69958820566535" lon="137.852584104985">
        <ele>728.58</ele>
        <time>2025-07-08T15:36:21.820Z</time>
      </trkpt>
      <trkpt lat="36.69970412738621" lon="137.85221982747316">
        <ele>729.18</ele>
        <time>2025-07-08T15:36:26.856Z</time>
      </trkpt>
      <trkpt lat="36.69981996528804" lon="137.85185554996133">
        <ele>729.6</ele>
        <time>2025-07-08T15:36:31.897Z</time>
      </trkpt>
      <trkpt lat="36.699935887008905" lon="137.8514912724495">
        <ele>730.09</ele>
        <time>2025-07-08T15:36:36.943Z</time>
      </trkpt>
      <trkpt lat="36.70005180872977" lon="137.85112699493766">
        <ele>730.68</ele>
        <time>2025-07-08T15:36:41.994Z</time>
      </trkpt>
      <trkpt lat="36.70013696886599" lon="137.8508588578552">
        <ele>731.27</ele>
        <time>2025-07-08T15:36:47.049Z</time>
      </trkpt>
      <trkpt lat="36.700137220323086" lon="137.850858354941">
        <ele>731.9</ele>
        <time>2025-07-08T15:36:52.104Z</time>
      </trkpt>
      <trkpt lat="36.700138142332435" lon="137.85085558891296">
        <ele>732.59</ele>
        <time>2025-07-08T15:36:57.159Z</time>
      </trkpt>
      <trkpt lat="36.70014141127467" lon="137.85084544681013">
        <ele>733.33</ele>
        <time>2025-07-08T15:37:02.214Z</time>
      </trkpt>
      <trkpt lat="36.70028071850538" lon="137.85049407742918">
        <ele>734.16</ele>
        <time>2025-07-08T15:37:07.274Z</time>
      </trkpt>
      <trkpt lat="36.70042002573609" lon="137.85014270804822">
        <ele>734.98</ele>
        <time>2025-07-08T15:37:12.339Z</time>
      </trkpt>
      <trkpt lat="36.700559416785836" lon="137.84979133866727">
        <ele>735.81</ele>
        <time>2025-07-08T15:37:17.409Z</time>
      </trkpt>
      <trkpt lat="36.70069872401655" lon="137.84943996928632">
        <ele>736.75</ele>
        <time>2025-07-08T15:37:22.484Z</time>
      </trkpt>
      <trkpt lat="36.70083811506629" lon="137.84908859990537">
        <ele>737.56</ele>
        <time>2025-07-08T15:37:27.564Z</time>
      </trkpt>
      <trkpt lat="36.70091883279383" lon="137.8488846682012">
        <ele>738.15</ele>
        <time>2025-07-08T15:37:32.647Z</time>
      </trkpt>
      <trkpt lat="36.70091908425093" lon="137.84888424910605">
        <ele>738.67</ele>
        <time>2025-07-08T15:37:37.730Z</time>
      </trkpt>
      <trkpt lat="36.70092017389834" lon="137.84888156689703">
        <ele>739.19</ele>
        <time>2025-07-08T15:37:42.813Z</time>
      </trkpt>
      <trkpt lat="36.70092419721186" lon="137.84887150861323">
        <ele>739.7</ele>
        <time>2025-07-08T15:37:47.896Z</time>
      </trkpt>
      <trkpt lat="36.700975159183145" lon="137.848485019058">
        <ele>740.16</ele>
        <time>2025-07-08T15:37:52.984Z</time>
      </trkpt>
      <trkpt lat="36.70102620497346" lon="137.84809852950275">
        <ele>740.75</ele>
        <time>2025-07-08T15:37:58.077Z</time>
      </trkpt>
      <trkpt lat="36.70107716694474" lon="137.84771195612848">
        <ele>741.26</ele>
        <time>2025-07-08T15:38:03.175Z</time>
      </trkpt>
      <trkpt lat="36.70112821273506" lon="137.84732546657324">
        <ele>741.52</ele>
        <time>2025-07-08T15:38:08.278Z</time>
      </trkpt>
      <trkpt lat="36.70117925852537" lon="137.846938977018">
        <ele>741.59</ele>
        <time>2025-07-08T15:38:13.387Z</time>
      </trkpt>
      <trkpt lat="36.70121680945158" lon="137.84665365703404">
        <ele>741.83</ele>
        <time>2025-07-08T15:38:18.499Z</time>
      </trkpt>
      <trkpt lat="36.70121689327061" lon="137.84665307030082">
        <ele>742.09</ele>
        <time>2025-07-08T15:38:23.611Z</time>
      </trkpt>
      <trkpt lat="36.70121731236577" lon="137.8466501366347">
        <ele>742.35</ele>
        <time>2025-07-08T15:38:28.723Z</time>
      </trkpt>
      <trkpt lat="36.70121882110834" lon="137.84663940779865">
        <ele>742.59</ele>
        <time>2025-07-08T15:38:33.835Z</time>
      </trkpt>
      <trkpt lat="36.70134396292269" lon="137.8466368932277">
        <ele>742.85</ele>
        <time>2025-07-08T15:38:38.949Z</time>
      </trkpt>
      <trkpt lat="36.70134438201785" lon="137.8466368932277">
        <ele>743.04</ele>
        <time>2025-07-08T15:38:44.063Z</time>
      </trkpt>
      <trkpt lat="36.70134681276977" lon="137.8466368932277">
        <ele>743.21</ele>
        <time>2025-07-08T15:38:49.177Z</time>
      </trkpt>
      <trkpt lat="36.70135645195842" lon="137.84663672558963">
        <ele>743.36</ele>
        <time>2025-07-08T15:38:54.292Z</time>
      </trkpt>
      <trkpt lat="36.70137187466025" lon="137.84649825654924">
        <ele>743.51</ele>
        <time>2025-07-08T15:38:59.408Z</time>
      </trkpt>
    </trkseg>
  </trk>
</gpx>
